<?xml version="1.0" encoding="UTF-8" standalone="no" ?>
<gpx xmlns="http://www.topografix.com/GPX/1/1" xmlns:xsi="http://www.w3.org/2001/XMLSchema-instance" xsi:schemaLocation="http://www.topografix.com/GPX/1/1 http://www.topografix.com/GPX/1/1/gpx.xsd" version="1.1" creator="VisuGPX - https://www.visugpx.com">
  <metadata>
    <name>Siguer Marche à pied</name>
  </metadata>
  <trk>
    <name><![CDATA[Siguer Marche à pied]]></name>
    <trkseg>
      <trkpt lat="42.76393" lon="1.56571">
        <ele>754.40002441406</ele>
        <time>2024-07-09T06:10:40.000Z</time>
      </trkpt>
      <trkpt lat="42.76405" lon="1.56546">
        <ele>751.79998779297</ele>
        <time>2024-07-09T06:10:44.000Z</time>
      </trkpt>
      <trkpt lat="42.76408" lon="1.56548">
        <ele>752</ele>
        <time>2024-07-09T06:10:45.000Z</time>
      </trkpt>
      <trkpt lat="42.76412" lon="1.56549">
        <ele>752</ele>
        <time>2024-07-09T06:10:49.000Z</time>
      </trkpt>
      <trkpt lat="42.76414" lon="1.56547">
        <ele>751.79998779297</ele>
        <time>2024-07-09T06:10:54.000Z</time>
      </trkpt>
      <trkpt lat="42.76416" lon="1.56549">
        <ele>752</ele>
        <time>2024-07-09T06:11:00.000Z</time>
      </trkpt>
      <trkpt lat="42.76419" lon="1.56548">
        <ele>752</ele>
        <time>2024-07-09T06:11:03.000Z</time>
      </trkpt>
      <trkpt lat="42.7642" lon="1.56551">
        <ele>752.20001220703</ele>
        <time>2024-07-09T06:11:05.000Z</time>
      </trkpt>
      <trkpt lat="42.76424" lon="1.56555">
        <ele>752.79998779297</ele>
        <time>2024-07-09T06:11:08.000Z</time>
      </trkpt>
      <trkpt lat="42.76424" lon="1.56555">
        <ele>752.79998779297</ele>
        <time>2024-07-09T06:11:09.000Z</time>
      </trkpt>
      <trkpt lat="42.76428" lon="1.56561">
        <ele>753.40002441406</ele>
        <time>2024-07-09T06:11:12.000Z</time>
      </trkpt>
      <trkpt lat="42.76439" lon="1.56573">
        <ele>754.79998779297</ele>
        <time>2024-07-09T06:11:19.000Z</time>
      </trkpt>
      <trkpt lat="42.76441" lon="1.56575">
        <ele>754.79998779297</ele>
        <time>2024-07-09T06:11:21.000Z</time>
      </trkpt>
      <trkpt lat="42.76443" lon="1.56574">
        <ele>754.79998779297</ele>
        <time>2024-07-09T06:11:23.000Z</time>
      </trkpt>
      <trkpt lat="42.76452" lon="1.5657">
        <ele>754.40002441406</ele>
        <time>2024-07-09T06:11:32.000Z</time>
      </trkpt>
      <trkpt lat="42.76463" lon="1.56566">
        <ele>754</ele>
        <time>2024-07-09T06:11:41.000Z</time>
      </trkpt>
      <trkpt lat="42.76471" lon="1.56558">
        <ele>753</ele>
        <time>2024-07-09T06:11:50.000Z</time>
      </trkpt>
      <trkpt lat="42.76472" lon="1.56558">
        <ele>753</ele>
        <time>2024-07-09T06:11:51.000Z</time>
      </trkpt>
      <trkpt lat="42.76477" lon="1.56554">
        <ele>752.59997558594</ele>
        <time>2024-07-09T06:11:56.000Z</time>
      </trkpt>
      <trkpt lat="42.76484" lon="1.56552">
        <ele>752.20001220703</ele>
        <time>2024-07-09T06:12:01.000Z</time>
      </trkpt>
      <trkpt lat="42.76487" lon="1.5655">
        <ele>751.59997558594</ele>
        <time>2024-07-09T06:12:04.000Z</time>
      </trkpt>
      <trkpt lat="42.76487" lon="1.56547">
        <ele>751.40002441406</ele>
        <time>2024-07-09T06:12:05.000Z</time>
      </trkpt>
      <trkpt lat="42.76489" lon="1.56539">
        <ele>750.40002441406</ele>
        <time>2024-07-09T06:12:09.000Z</time>
      </trkpt>
      <trkpt lat="42.76491" lon="1.56536">
        <ele>750</ele>
        <time>2024-07-09T06:12:11.000Z</time>
      </trkpt>
      <trkpt lat="42.76493" lon="1.56532">
        <ele>749.59997558594</ele>
        <time>2024-07-09T06:12:14.000Z</time>
      </trkpt>
      <trkpt lat="42.76495" lon="1.56529">
        <ele>749.40002441406</ele>
        <time>2024-07-09T06:12:16.000Z</time>
      </trkpt>
      <trkpt lat="42.76496" lon="1.56529">
        <ele>749.40002441406</ele>
        <time>2024-07-09T06:12:19.000Z</time>
      </trkpt>
      <trkpt lat="42.76499" lon="1.56531">
        <ele>749.40002441406</ele>
        <time>2024-07-09T06:12:21.000Z</time>
      </trkpt>
      <trkpt lat="42.765" lon="1.56531">
        <ele>749.40002441406</ele>
        <time>2024-07-09T06:12:22.000Z</time>
      </trkpt>
      <trkpt lat="42.76501" lon="1.56531">
        <ele>749.40002441406</ele>
        <time>2024-07-09T06:12:24.000Z</time>
      </trkpt>
      <trkpt lat="42.76504" lon="1.56531">
        <ele>749.20001220703</ele>
        <time>2024-07-09T06:12:26.000Z</time>
      </trkpt>
      <trkpt lat="42.76505" lon="1.56531">
        <ele>749.20001220703</ele>
        <time>2024-07-09T06:12:27.000Z</time>
      </trkpt>
      <trkpt lat="42.76507" lon="1.56531">
        <ele>749.20001220703</ele>
        <time>2024-07-09T06:12:29.000Z</time>
      </trkpt>
      <trkpt lat="42.76509" lon="1.56531">
        <ele>748.79998779297</ele>
        <time>2024-07-09T06:12:31.000Z</time>
      </trkpt>
      <trkpt lat="42.76514" lon="1.56528">
        <ele>748.20001220703</ele>
        <time>2024-07-09T06:12:35.000Z</time>
      </trkpt>
      <trkpt lat="42.76516" lon="1.56527">
        <ele>747.79998779297</ele>
        <time>2024-07-09T06:12:37.000Z</time>
      </trkpt>
      <trkpt lat="42.76524" lon="1.56525">
        <ele>747</ele>
        <time>2024-07-09T06:12:42.000Z</time>
      </trkpt>
      <trkpt lat="42.76536" lon="1.56526">
        <ele>745.79998779297</ele>
        <time>2024-07-09T06:12:52.000Z</time>
      </trkpt>
      <trkpt lat="42.76546" lon="1.56523">
        <ele>745</ele>
        <time>2024-07-09T06:13:01.000Z</time>
      </trkpt>
      <trkpt lat="42.76557" lon="1.56524">
        <ele>744.20001220703</ele>
        <time>2024-07-09T06:13:10.000Z</time>
      </trkpt>
      <trkpt lat="42.76563" lon="1.56523">
        <ele>743.79998779297</ele>
        <time>2024-07-09T06:13:16.000Z</time>
      </trkpt>
      <trkpt lat="42.76566" lon="1.56522">
        <ele>743.59997558594</ele>
        <time>2024-07-09T06:13:19.000Z</time>
      </trkpt>
      <trkpt lat="42.7658" lon="1.56523">
        <ele>743.20001220703</ele>
        <time>2024-07-09T06:13:30.000Z</time>
      </trkpt>
      <trkpt lat="42.76589" lon="1.56522">
        <ele>743</ele>
        <time>2024-07-09T06:13:37.000Z</time>
      </trkpt>
      <trkpt lat="42.76601" lon="1.56525">
        <ele>743.40002441406</ele>
        <time>2024-07-09T06:13:48.000Z</time>
      </trkpt>
      <trkpt lat="42.76602" lon="1.56525">
        <ele>743.40002441406</ele>
        <time>2024-07-09T06:13:53.000Z</time>
      </trkpt>
      <trkpt lat="42.76608" lon="1.56521">
        <ele>743.59997558594</ele>
        <time>2024-07-09T06:13:59.000Z</time>
      </trkpt>
      <trkpt lat="42.76616" lon="1.56517">
        <ele>743.59997558594</ele>
        <time>2024-07-09T06:14:06.000Z</time>
      </trkpt>
      <trkpt lat="42.76629" lon="1.56514">
        <ele>743.79998779297</ele>
        <time>2024-07-09T06:14:17.000Z</time>
      </trkpt>
      <trkpt lat="42.76639" lon="1.56515">
        <ele>744.20001220703</ele>
        <time>2024-07-09T06:14:26.000Z</time>
      </trkpt>
      <trkpt lat="42.76645" lon="1.56524">
        <ele>744.79998779297</ele>
        <time>2024-07-09T06:14:34.000Z</time>
      </trkpt>
      <trkpt lat="42.76645" lon="1.56524">
        <ele>744.79998779297</ele>
        <time>2024-07-09T06:14:42.000Z</time>
      </trkpt>
      <trkpt lat="42.76645" lon="1.56528">
        <ele>744.79998779297</ele>
        <time>2024-07-09T06:14:48.000Z</time>
      </trkpt>
      <trkpt lat="42.76645" lon="1.56542">
        <ele>745.79998779297</ele>
        <time>2024-07-09T06:14:56.000Z</time>
      </trkpt>
      <trkpt lat="42.76645" lon="1.5656">
        <ele>747.20001220703</ele>
        <time>2024-07-09T06:15:07.000Z</time>
      </trkpt>
      <trkpt lat="42.76647" lon="1.56579">
        <ele>750.20001220703</ele>
        <time>2024-07-09T06:15:20.000Z</time>
      </trkpt>
      <trkpt lat="42.76649" lon="1.56594">
        <ele>752.79998779297</ele>
        <time>2024-07-09T06:15:30.000Z</time>
      </trkpt>
      <trkpt lat="42.76648" lon="1.56606">
        <ele>755</ele>
        <time>2024-07-09T06:15:39.000Z</time>
      </trkpt>
      <trkpt lat="42.76646" lon="1.56626">
        <ele>761.59997558594</ele>
        <time>2024-07-09T06:15:53.000Z</time>
      </trkpt>
      <trkpt lat="42.76642" lon="1.56636">
        <ele>765.20001220703</ele>
        <time>2024-07-09T06:16:00.000Z</time>
      </trkpt>
      <trkpt lat="42.76635" lon="1.56639">
        <ele>766</ele>
        <time>2024-07-09T06:16:08.000Z</time>
      </trkpt>
      <trkpt lat="42.76633" lon="1.56639">
        <ele>765.59997558594</ele>
        <time>2024-07-09T06:16:09.000Z</time>
      </trkpt>
      <trkpt lat="42.76615" lon="1.56639">
        <ele>763.59997558594</ele>
        <time>2024-07-09T06:16:21.000Z</time>
      </trkpt>
      <trkpt lat="42.76608" lon="1.56641">
        <ele>762.59997558594</ele>
        <time>2024-07-09T06:16:28.000Z</time>
      </trkpt>
      <trkpt lat="42.76598" lon="1.56644">
        <ele>761.59997558594</ele>
        <time>2024-07-09T06:16:36.000Z</time>
      </trkpt>
      <trkpt lat="42.76595" lon="1.56643">
        <ele>760.20001220703</ele>
        <time>2024-07-09T06:16:38.000Z</time>
      </trkpt>
      <trkpt lat="42.76589" lon="1.56644">
        <ele>759.59997558594</ele>
        <time>2024-07-09T06:16:43.000Z</time>
      </trkpt>
      <trkpt lat="42.76576" lon="1.56647">
        <ele>759.59997558594</ele>
        <time>2024-07-09T06:16:54.000Z</time>
      </trkpt>
      <trkpt lat="42.7657" lon="1.56654">
        <ele>762.59997558594</ele>
        <time>2024-07-09T06:17:02.000Z</time>
      </trkpt>
      <trkpt lat="42.7656" lon="1.56659">
        <ele>763.20001220703</ele>
        <time>2024-07-09T06:17:10.000Z</time>
      </trkpt>
      <trkpt lat="42.76559" lon="1.56658">
        <ele>763</ele>
        <time>2024-07-09T06:17:11.000Z</time>
      </trkpt>
      <trkpt lat="42.76556" lon="1.5666">
        <ele>763.59997558594</ele>
        <time>2024-07-09T06:17:13.000Z</time>
      </trkpt>
      <trkpt lat="42.76553" lon="1.56664">
        <ele>764</ele>
        <time>2024-07-09T06:17:15.000Z</time>
      </trkpt>
      <trkpt lat="42.76544" lon="1.56671">
        <ele>763.59997558594</ele>
        <time>2024-07-09T06:17:26.000Z</time>
      </trkpt>
      <trkpt lat="42.76541" lon="1.56677">
        <ele>765.59997558594</ele>
        <time>2024-07-09T06:17:36.000Z</time>
      </trkpt>
      <trkpt lat="42.76526" lon="1.56678">
        <ele>765.40002441406</ele>
        <time>2024-07-09T06:17:47.000Z</time>
      </trkpt>
      <trkpt lat="42.76514" lon="1.56682">
        <ele>767.20001220703</ele>
        <time>2024-07-09T06:17:57.000Z</time>
      </trkpt>
      <trkpt lat="42.76509" lon="1.56687">
        <ele>768.40002441406</ele>
        <time>2024-07-09T06:18:05.000Z</time>
      </trkpt>
      <trkpt lat="42.765" lon="1.56693">
        <ele>769.79998779297</ele>
        <time>2024-07-09T06:18:14.000Z</time>
      </trkpt>
      <trkpt lat="42.76497" lon="1.56696">
        <ele>769.40002441406</ele>
        <time>2024-07-09T06:18:17.000Z</time>
      </trkpt>
      <trkpt lat="42.76497" lon="1.56699">
        <ele>770.40002441406</ele>
        <time>2024-07-09T06:18:19.000Z</time>
      </trkpt>
      <trkpt lat="42.76491" lon="1.56703">
        <ele>770.20001220703</ele>
        <time>2024-07-09T06:18:26.000Z</time>
      </trkpt>
      <trkpt lat="42.76489" lon="1.56704">
        <ele>770.40002441406</ele>
        <time>2024-07-09T06:18:27.000Z</time>
      </trkpt>
      <trkpt lat="42.76481" lon="1.56711">
        <ele>770.40002441406</ele>
        <time>2024-07-09T06:18:36.000Z</time>
      </trkpt>
      <trkpt lat="42.76469" lon="1.56721">
        <ele>772.40002441406</ele>
        <time>2024-07-09T06:18:49.000Z</time>
      </trkpt>
      <trkpt lat="42.76462" lon="1.56726">
        <ele>772.40002441406</ele>
        <time>2024-07-09T06:18:57.000Z</time>
      </trkpt>
      <trkpt lat="42.76453" lon="1.56735">
        <ele>773.40002441406</ele>
        <time>2024-07-09T06:19:08.000Z</time>
      </trkpt>
      <trkpt lat="42.76449" lon="1.56739">
        <ele>774</ele>
        <time>2024-07-09T06:19:17.000Z</time>
      </trkpt>
      <trkpt lat="42.76444" lon="1.56746">
        <ele>775.20001220703</ele>
        <time>2024-07-09T06:19:24.000Z</time>
      </trkpt>
      <trkpt lat="42.76437" lon="1.56752">
        <ele>776.40002441406</ele>
        <time>2024-07-09T06:19:32.000Z</time>
      </trkpt>
      <trkpt lat="42.76428" lon="1.56756">
        <ele>776.79998779297</ele>
        <time>2024-07-09T06:19:40.000Z</time>
      </trkpt>
      <trkpt lat="42.76421" lon="1.56762">
        <ele>778.59997558594</ele>
        <time>2024-07-09T06:19:47.000Z</time>
      </trkpt>
      <trkpt lat="42.76411" lon="1.56769">
        <ele>780.20001220703</ele>
        <time>2024-07-09T06:19:58.000Z</time>
      </trkpt>
      <trkpt lat="42.76408" lon="1.56772">
        <ele>780.79998779297</ele>
        <time>2024-07-09T06:20:02.000Z</time>
      </trkpt>
      <trkpt lat="42.76404" lon="1.56772">
        <ele>780.59997558594</ele>
        <time>2024-07-09T06:20:06.000Z</time>
      </trkpt>
      <trkpt lat="42.76396" lon="1.56774">
        <ele>780.20001220703</ele>
        <time>2024-07-09T06:20:14.000Z</time>
      </trkpt>
      <trkpt lat="42.76389" lon="1.56773">
        <ele>780.20001220703</ele>
        <time>2024-07-09T06:20:21.000Z</time>
      </trkpt>
      <trkpt lat="42.76383" lon="1.56772">
        <ele>779.59997558594</ele>
        <time>2024-07-09T06:20:26.000Z</time>
      </trkpt>
      <trkpt lat="42.76382" lon="1.56772">
        <ele>779.59997558594</ele>
        <time>2024-07-09T06:20:27.000Z</time>
      </trkpt>
      <trkpt lat="42.76378" lon="1.56767">
        <ele>778</ele>
        <time>2024-07-09T06:20:34.000Z</time>
      </trkpt>
      <trkpt lat="42.76372" lon="1.56762">
        <ele>776.59997558594</ele>
        <time>2024-07-09T06:20:40.000Z</time>
      </trkpt>
      <trkpt lat="42.76369" lon="1.56759">
        <ele>775.79998779297</ele>
        <time>2024-07-09T06:20:45.000Z</time>
      </trkpt>
      <trkpt lat="42.76366" lon="1.56761">
        <ele>776.20001220703</ele>
        <time>2024-07-09T06:20:53.000Z</time>
      </trkpt>
      <trkpt lat="42.7637" lon="1.56766">
        <ele>777.59997558594</ele>
        <time>2024-07-09T06:21:00.000Z</time>
      </trkpt>
      <trkpt lat="42.7637" lon="1.56769">
        <ele>778.40002441406</ele>
        <time>2024-07-09T06:21:06.000Z</time>
      </trkpt>
      <trkpt lat="42.7637" lon="1.56775">
        <ele>780</ele>
        <time>2024-07-09T06:21:14.000Z</time>
      </trkpt>
      <trkpt lat="42.7637" lon="1.56784">
        <ele>782.20001220703</ele>
        <time>2024-07-09T06:21:23.000Z</time>
      </trkpt>
      <trkpt lat="42.76368" lon="1.56789">
        <ele>783.40002441406</ele>
        <time>2024-07-09T06:21:32.000Z</time>
      </trkpt>
      <trkpt lat="42.76366" lon="1.56791">
        <ele>783.79998779297</ele>
        <time>2024-07-09T06:21:41.000Z</time>
      </trkpt>
      <trkpt lat="42.76366" lon="1.56791">
        <ele>783.79998779297</ele>
        <time>2024-07-09T06:21:50.000Z</time>
      </trkpt>
      <trkpt lat="42.76367" lon="1.56795">
        <ele>784.79998779297</ele>
        <time>2024-07-09T06:21:56.000Z</time>
      </trkpt>
      <trkpt lat="42.76365" lon="1.56797">
        <ele>785.20001220703</ele>
        <time>2024-07-09T06:22:03.000Z</time>
      </trkpt>
      <trkpt lat="42.76365" lon="1.56805">
        <ele>787.20001220703</ele>
        <time>2024-07-09T06:22:11.000Z</time>
      </trkpt>
      <trkpt lat="42.76363" lon="1.56811">
        <ele>788.20001220703</ele>
        <time>2024-07-09T06:22:20.000Z</time>
      </trkpt>
      <trkpt lat="42.76361" lon="1.56817">
        <ele>789.20001220703</ele>
        <time>2024-07-09T06:22:27.000Z</time>
      </trkpt>
      <trkpt lat="42.76358" lon="1.56822">
        <ele>789.79998779297</ele>
        <time>2024-07-09T06:22:36.000Z</time>
      </trkpt>
      <trkpt lat="42.76356" lon="1.56825">
        <ele>790.40002441406</ele>
        <time>2024-07-09T06:22:43.000Z</time>
      </trkpt>
      <trkpt lat="42.76352" lon="1.56836">
        <ele>792.59997558594</ele>
        <time>2024-07-09T06:22:53.000Z</time>
      </trkpt>
      <trkpt lat="42.76351" lon="1.56839">
        <ele>793.20001220703</ele>
        <time>2024-07-09T06:22:58.000Z</time>
      </trkpt>
      <trkpt lat="42.76346" lon="1.56847">
        <ele>794.40002441406</ele>
        <time>2024-07-09T06:23:05.000Z</time>
      </trkpt>
      <trkpt lat="42.76342" lon="1.56851">
        <ele>795</ele>
        <time>2024-07-09T06:23:12.000Z</time>
      </trkpt>
      <trkpt lat="42.7634" lon="1.56855">
        <ele>795.59997558594</ele>
        <time>2024-07-09T06:23:19.000Z</time>
      </trkpt>
      <trkpt lat="42.76337" lon="1.56864">
        <ele>797</ele>
        <time>2024-07-09T06:23:26.000Z</time>
      </trkpt>
      <trkpt lat="42.76332" lon="1.56869">
        <ele>797.59997558594</ele>
        <time>2024-07-09T06:23:32.000Z</time>
      </trkpt>
      <trkpt lat="42.7633" lon="1.56874">
        <ele>798.40002441406</ele>
        <time>2024-07-09T06:23:37.000Z</time>
      </trkpt>
      <trkpt lat="42.76326" lon="1.56878">
        <ele>799</ele>
        <time>2024-07-09T06:23:43.000Z</time>
      </trkpt>
      <trkpt lat="42.76324" lon="1.56883">
        <ele>799.79998779297</ele>
        <time>2024-07-09T06:23:51.000Z</time>
      </trkpt>
      <trkpt lat="42.7632" lon="1.56888">
        <ele>800.40002441406</ele>
        <time>2024-07-09T06:23:58.000Z</time>
      </trkpt>
      <trkpt lat="42.76316" lon="1.56894">
        <ele>801.20001220703</ele>
        <time>2024-07-09T06:24:06.000Z</time>
      </trkpt>
      <trkpt lat="42.76314" lon="1.56899">
        <ele>802.20001220703</ele>
        <time>2024-07-09T06:24:13.000Z</time>
      </trkpt>
      <trkpt lat="42.76308" lon="1.56907">
        <ele>803.59997558594</ele>
        <time>2024-07-09T06:24:22.000Z</time>
      </trkpt>
      <trkpt lat="42.76304" lon="1.56915">
        <ele>805.40002441406</ele>
        <time>2024-07-09T06:24:30.000Z</time>
      </trkpt>
      <trkpt lat="42.76299" lon="1.56922">
        <ele>807</ele>
        <time>2024-07-09T06:24:39.000Z</time>
      </trkpt>
      <trkpt lat="42.76296" lon="1.56928">
        <ele>808.59997558594</ele>
        <time>2024-07-09T06:24:47.000Z</time>
      </trkpt>
      <trkpt lat="42.76295" lon="1.56931">
        <ele>809.59997558594</ele>
        <time>2024-07-09T06:24:53.000Z</time>
      </trkpt>
      <trkpt lat="42.76293" lon="1.56933">
        <ele>810.20001220703</ele>
        <time>2024-07-09T06:24:59.000Z</time>
      </trkpt>
      <trkpt lat="42.76292" lon="1.56937">
        <ele>811.59997558594</ele>
        <time>2024-07-09T06:25:07.000Z</time>
      </trkpt>
      <trkpt lat="42.76289" lon="1.56941">
        <ele>813.20001220703</ele>
        <time>2024-07-09T06:25:14.000Z</time>
      </trkpt>
      <trkpt lat="42.76285" lon="1.56945">
        <ele>814.40002441406</ele>
        <time>2024-07-09T06:25:23.000Z</time>
      </trkpt>
      <trkpt lat="42.76283" lon="1.56949">
        <ele>815.59997558594</ele>
        <time>2024-07-09T06:25:30.000Z</time>
      </trkpt>
      <trkpt lat="42.7628" lon="1.56955">
        <ele>816.59997558594</ele>
        <time>2024-07-09T06:25:38.000Z</time>
      </trkpt>
      <trkpt lat="42.76274" lon="1.56957">
        <ele>816.79998779297</ele>
        <time>2024-07-09T06:25:46.000Z</time>
      </trkpt>
      <trkpt lat="42.76272" lon="1.56958">
        <ele>817</ele>
        <time>2024-07-09T06:25:52.000Z</time>
      </trkpt>
      <trkpt lat="42.7627" lon="1.56958">
        <ele>816.79998779297</ele>
        <time>2024-07-09T06:25:57.000Z</time>
      </trkpt>
      <trkpt lat="42.76262" lon="1.56959">
        <ele>816.79998779297</ele>
        <time>2024-07-09T06:26:05.000Z</time>
      </trkpt>
      <trkpt lat="42.76257" lon="1.56959">
        <ele>816.59997558594</ele>
        <time>2024-07-09T06:26:11.000Z</time>
      </trkpt>
      <trkpt lat="42.76249" lon="1.56963">
        <ele>816.79998779297</ele>
        <time>2024-07-09T06:26:20.000Z</time>
      </trkpt>
      <trkpt lat="42.76242" lon="1.56969">
        <ele>817.20001220703</ele>
        <time>2024-07-09T06:26:28.000Z</time>
      </trkpt>
      <trkpt lat="42.76238" lon="1.56973">
        <ele>817.59997558594</ele>
        <time>2024-07-09T06:26:34.000Z</time>
      </trkpt>
      <trkpt lat="42.76234" lon="1.56979">
        <ele>818.20001220703</ele>
        <time>2024-07-09T06:26:43.000Z</time>
      </trkpt>
      <trkpt lat="42.7623" lon="1.56983">
        <ele>818.59997558594</ele>
        <time>2024-07-09T06:26:48.000Z</time>
      </trkpt>
      <trkpt lat="42.7623" lon="1.56986">
        <ele>819.20001220703</ele>
        <time>2024-07-09T06:26:50.000Z</time>
      </trkpt>
      <trkpt lat="42.76226" lon="1.56992">
        <ele>819.20001220703</ele>
        <time>2024-07-09T06:26:58.000Z</time>
      </trkpt>
      <trkpt lat="42.76228" lon="1.56998">
        <ele>821</ele>
        <time>2024-07-09T06:27:07.000Z</time>
      </trkpt>
      <trkpt lat="42.76232" lon="1.57007">
        <ele>823.20001220703</ele>
        <time>2024-07-09T06:27:17.000Z</time>
      </trkpt>
      <trkpt lat="42.76236" lon="1.57013">
        <ele>824.79998779297</ele>
        <time>2024-07-09T06:27:26.000Z</time>
      </trkpt>
      <trkpt lat="42.76238" lon="1.57018">
        <ele>826.20001220703</ele>
        <time>2024-07-09T06:27:35.000Z</time>
      </trkpt>
      <trkpt lat="42.76242" lon="1.57025">
        <ele>827.79998779297</ele>
        <time>2024-07-09T06:27:43.000Z</time>
      </trkpt>
      <trkpt lat="42.76246" lon="1.57031">
        <ele>829.40002441406</ele>
        <time>2024-07-09T06:27:53.000Z</time>
      </trkpt>
      <trkpt lat="42.76249" lon="1.57035">
        <ele>830.59997558594</ele>
        <time>2024-07-09T06:27:59.000Z</time>
      </trkpt>
      <trkpt lat="42.76254" lon="1.57041">
        <ele>832.59997558594</ele>
        <time>2024-07-09T06:28:08.000Z</time>
      </trkpt>
      <trkpt lat="42.76257" lon="1.57046">
        <ele>834</ele>
        <time>2024-07-09T06:28:15.000Z</time>
      </trkpt>
      <trkpt lat="42.76261" lon="1.57049">
        <ele>835.20001220703</ele>
        <time>2024-07-09T06:28:22.000Z</time>
      </trkpt>
      <trkpt lat="42.76266" lon="1.5705">
        <ele>836</ele>
        <time>2024-07-09T06:28:29.000Z</time>
      </trkpt>
      <trkpt lat="42.76272" lon="1.57053">
        <ele>837.40002441406</ele>
        <time>2024-07-09T06:28:36.000Z</time>
      </trkpt>
      <trkpt lat="42.76276" lon="1.57054">
        <ele>838.20001220703</ele>
        <time>2024-07-09T06:28:41.000Z</time>
      </trkpt>
      <trkpt lat="42.7628" lon="1.57059">
        <ele>839.79998779297</ele>
        <time>2024-07-09T06:28:49.000Z</time>
      </trkpt>
      <trkpt lat="42.76283" lon="1.57062">
        <ele>840.59997558594</ele>
        <time>2024-07-09T06:28:56.000Z</time>
      </trkpt>
      <trkpt lat="42.76286" lon="1.57065">
        <ele>841.59997558594</ele>
        <time>2024-07-09T06:29:02.000Z</time>
      </trkpt>
      <trkpt lat="42.76288" lon="1.57066">
        <ele>842.40002441406</ele>
        <time>2024-07-09T06:29:08.000Z</time>
      </trkpt>
      <trkpt lat="42.7629" lon="1.57069">
        <ele>843.40002441406</ele>
        <time>2024-07-09T06:29:13.000Z</time>
      </trkpt>
      <trkpt lat="42.76295" lon="1.57071">
        <ele>844.79998779297</ele>
        <time>2024-07-09T06:29:19.000Z</time>
      </trkpt>
      <trkpt lat="42.76301" lon="1.57071">
        <ele>845.59997558594</ele>
        <time>2024-07-09T06:29:26.000Z</time>
      </trkpt>
      <trkpt lat="42.76307" lon="1.57068">
        <ele>845.59997558594</ele>
        <time>2024-07-09T06:29:33.000Z</time>
      </trkpt>
      <trkpt lat="42.76311" lon="1.57065">
        <ele>845.59997558594</ele>
        <time>2024-07-09T06:29:41.000Z</time>
      </trkpt>
      <trkpt lat="42.76318" lon="1.57063">
        <ele>845.79998779297</ele>
        <time>2024-07-09T06:29:50.000Z</time>
      </trkpt>
      <trkpt lat="42.76321" lon="1.57062">
        <ele>846.20001220703</ele>
        <time>2024-07-09T06:29:56.000Z</time>
      </trkpt>
      <trkpt lat="42.76327" lon="1.57062">
        <ele>847</ele>
        <time>2024-07-09T06:30:03.000Z</time>
      </trkpt>
      <trkpt lat="42.76331" lon="1.57062">
        <ele>847.59997558594</ele>
        <time>2024-07-09T06:30:10.000Z</time>
      </trkpt>
      <trkpt lat="42.76337" lon="1.5706">
        <ele>848</ele>
        <time>2024-07-09T06:30:20.000Z</time>
      </trkpt>
      <trkpt lat="42.76343" lon="1.5706">
        <ele>849</ele>
        <time>2024-07-09T06:30:30.000Z</time>
      </trkpt>
      <trkpt lat="42.7635" lon="1.57058">
        <ele>850</ele>
        <time>2024-07-09T06:30:41.000Z</time>
      </trkpt>
      <trkpt lat="42.76355" lon="1.57056">
        <ele>850.79998779297</ele>
        <time>2024-07-09T06:30:49.000Z</time>
      </trkpt>
      <trkpt lat="42.76363" lon="1.57054">
        <ele>851.79998779297</ele>
        <time>2024-07-09T06:31:00.000Z</time>
      </trkpt>
      <trkpt lat="42.76367" lon="1.57051">
        <ele>852.59997558594</ele>
        <time>2024-07-09T06:31:07.000Z</time>
      </trkpt>
      <trkpt lat="42.76371" lon="1.57048">
        <ele>853</ele>
        <time>2024-07-09T06:31:14.000Z</time>
      </trkpt>
      <trkpt lat="42.76374" lon="1.57047">
        <ele>853.59997558594</ele>
        <time>2024-07-09T06:31:21.000Z</time>
      </trkpt>
      <trkpt lat="42.7638" lon="1.57042">
        <ele>854.20001220703</ele>
        <time>2024-07-09T06:31:31.000Z</time>
      </trkpt>
      <trkpt lat="42.76386" lon="1.57038">
        <ele>854.20001220703</ele>
        <time>2024-07-09T06:31:40.000Z</time>
      </trkpt>
      <trkpt lat="42.76389" lon="1.57038">
        <ele>854.79998779297</ele>
        <time>2024-07-09T06:31:46.000Z</time>
      </trkpt>
      <trkpt lat="42.76391" lon="1.57044">
        <ele>856.59997558594</ele>
        <time>2024-07-09T06:31:55.000Z</time>
      </trkpt>
      <trkpt lat="42.7639" lon="1.57049">
        <ele>857.79998779297</ele>
        <time>2024-07-09T06:32:01.000Z</time>
      </trkpt>
      <trkpt lat="42.76388" lon="1.57059">
        <ele>859.40002441406</ele>
        <time>2024-07-09T06:32:10.000Z</time>
      </trkpt>
      <trkpt lat="42.76386" lon="1.57064">
        <ele>860.20001220703</ele>
        <time>2024-07-09T06:32:15.000Z</time>
      </trkpt>
      <trkpt lat="42.76386" lon="1.57073">
        <ele>862.59997558594</ele>
        <time>2024-07-09T06:32:24.000Z</time>
      </trkpt>
      <trkpt lat="42.76385" lon="1.57081">
        <ele>863.79998779297</ele>
        <time>2024-07-09T06:32:32.000Z</time>
      </trkpt>
      <trkpt lat="42.76384" lon="1.57087">
        <ele>864.79998779297</ele>
        <time>2024-07-09T06:32:39.000Z</time>
      </trkpt>
      <trkpt lat="42.76382" lon="1.57093">
        <ele>866.20001220703</ele>
        <time>2024-07-09T06:32:49.000Z</time>
      </trkpt>
      <trkpt lat="42.76382" lon="1.57093">
        <ele>866</ele>
        <time>2024-07-09T06:33:14.000Z</time>
      </trkpt>
      <trkpt lat="42.76389" lon="1.57107">
        <ele>872.20001220703</ele>
        <time>2024-07-09T06:34:36.000Z</time>
      </trkpt>
      <trkpt lat="42.76396" lon="1.5711">
        <ele>875</ele>
        <time>2024-07-09T06:34:44.000Z</time>
      </trkpt>
      <trkpt lat="42.764" lon="1.57111">
        <ele>876.59997558594</ele>
        <time>2024-07-09T06:34:52.000Z</time>
      </trkpt>
      <trkpt lat="42.76404" lon="1.57112">
        <ele>878.20001220703</ele>
        <time>2024-07-09T06:35:01.000Z</time>
      </trkpt>
      <trkpt lat="42.76409" lon="1.57112">
        <ele>879.59997558594</ele>
        <time>2024-07-09T06:35:10.000Z</time>
      </trkpt>
      <trkpt lat="42.76414" lon="1.57112">
        <ele>881</ele>
        <time>2024-07-09T06:35:16.000Z</time>
      </trkpt>
      <trkpt lat="42.76418" lon="1.57116">
        <ele>883.40002441406</ele>
        <time>2024-07-09T06:35:23.000Z</time>
      </trkpt>
      <trkpt lat="42.76422" lon="1.57118">
        <ele>885.40002441406</ele>
        <time>2024-07-09T06:35:32.000Z</time>
      </trkpt>
      <trkpt lat="42.76426" lon="1.57119">
        <ele>887</ele>
        <time>2024-07-09T06:35:39.000Z</time>
      </trkpt>
      <trkpt lat="42.76428" lon="1.5712">
        <ele>887.59997558594</ele>
        <time>2024-07-09T06:35:44.000Z</time>
      </trkpt>
      <trkpt lat="42.76432" lon="1.57121">
        <ele>889</ele>
        <time>2024-07-09T06:35:49.000Z</time>
      </trkpt>
      <trkpt lat="42.76432" lon="1.57122">
        <ele>889.20001220703</ele>
        <time>2024-07-09T06:35:54.000Z</time>
      </trkpt>
      <trkpt lat="42.76435" lon="1.57119">
        <ele>888.59997558594</ele>
        <time>2024-07-09T06:36:00.000Z</time>
      </trkpt>
      <trkpt lat="42.76443" lon="1.57121">
        <ele>891.40002441406</ele>
        <time>2024-07-09T06:36:09.000Z</time>
      </trkpt>
      <trkpt lat="42.76447" lon="1.57124">
        <ele>893.20001220703</ele>
        <time>2024-07-09T06:36:17.000Z</time>
      </trkpt>
      <trkpt lat="42.76452" lon="1.57125">
        <ele>894.59997558594</ele>
        <time>2024-07-09T06:36:26.000Z</time>
      </trkpt>
      <trkpt lat="42.76453" lon="1.57125">
        <ele>895</ele>
        <time>2024-07-09T06:36:32.000Z</time>
      </trkpt>
      <trkpt lat="42.76456" lon="1.57124">
        <ele>895.20001220703</ele>
        <time>2024-07-09T06:36:38.000Z</time>
      </trkpt>
      <trkpt lat="42.7646" lon="1.57124">
        <ele>895.79998779297</ele>
        <time>2024-07-09T06:36:43.000Z</time>
      </trkpt>
      <trkpt lat="42.76464" lon="1.57125">
        <ele>897.20001220703</ele>
        <time>2024-07-09T06:36:50.000Z</time>
      </trkpt>
      <trkpt lat="42.76469" lon="1.5713">
        <ele>899.59997558594</ele>
        <time>2024-07-09T06:36:57.000Z</time>
      </trkpt>
      <trkpt lat="42.76474" lon="1.5713">
        <ele>900.20001220703</ele>
        <time>2024-07-09T06:37:03.000Z</time>
      </trkpt>
      <trkpt lat="42.76479" lon="1.5713">
        <ele>901</ele>
        <time>2024-07-09T06:37:10.000Z</time>
      </trkpt>
      <trkpt lat="42.76483" lon="1.57129">
        <ele>900.40002441406</ele>
        <time>2024-07-09T06:37:19.000Z</time>
      </trkpt>
      <trkpt lat="42.76487" lon="1.57128">
        <ele>900.59997558594</ele>
        <time>2024-07-09T06:37:27.000Z</time>
      </trkpt>
      <trkpt lat="42.76492" lon="1.57127">
        <ele>900.20001220703</ele>
        <time>2024-07-09T06:37:33.000Z</time>
      </trkpt>
      <trkpt lat="42.76497" lon="1.57126">
        <ele>901</ele>
        <time>2024-07-09T06:37:40.000Z</time>
      </trkpt>
      <trkpt lat="42.76498" lon="1.57128">
        <ele>901.59997558594</ele>
        <time>2024-07-09T06:37:47.000Z</time>
      </trkpt>
      <trkpt lat="42.76497" lon="1.57125">
        <ele>900.59997558594</ele>
        <time>2024-07-09T06:37:52.000Z</time>
      </trkpt>
      <trkpt lat="42.76497" lon="1.57123">
        <ele>899.59997558594</ele>
        <time>2024-07-09T06:37:59.000Z</time>
      </trkpt>
      <trkpt lat="42.76499" lon="1.57119">
        <ele>898.40002441406</ele>
        <time>2024-07-09T06:38:06.000Z</time>
      </trkpt>
      <trkpt lat="42.76504" lon="1.57121">
        <ele>900.40002441406</ele>
        <time>2024-07-09T06:38:15.000Z</time>
      </trkpt>
      <trkpt lat="42.76508" lon="1.57123">
        <ele>901.59997558594</ele>
        <time>2024-07-09T06:38:21.000Z</time>
      </trkpt>
      <trkpt lat="42.76512" lon="1.57125">
        <ele>903.20001220703</ele>
        <time>2024-07-09T06:38:27.000Z</time>
      </trkpt>
      <trkpt lat="42.76518" lon="1.57126">
        <ele>904.59997558594</ele>
        <time>2024-07-09T06:38:34.000Z</time>
      </trkpt>
      <trkpt lat="42.76524" lon="1.57132">
        <ele>908</ele>
        <time>2024-07-09T06:38:45.000Z</time>
      </trkpt>
      <trkpt lat="42.76529" lon="1.57136">
        <ele>910.20001220703</ele>
        <time>2024-07-09T06:38:54.000Z</time>
      </trkpt>
      <trkpt lat="42.7653" lon="1.57139">
        <ele>911.40002441406</ele>
        <time>2024-07-09T06:39:00.000Z</time>
      </trkpt>
      <trkpt lat="42.76533" lon="1.57145">
        <ele>914.40002441406</ele>
        <time>2024-07-09T06:39:06.000Z</time>
      </trkpt>
      <trkpt lat="42.76537" lon="1.57152">
        <ele>918.59997558594</ele>
        <time>2024-07-09T06:39:14.000Z</time>
      </trkpt>
      <trkpt lat="42.76539" lon="1.57153">
        <ele>919.40002441406</ele>
        <time>2024-07-09T06:39:20.000Z</time>
      </trkpt>
      <trkpt lat="42.76545" lon="1.57157">
        <ele>922</ele>
        <time>2024-07-09T06:39:26.000Z</time>
      </trkpt>
      <trkpt lat="42.76548" lon="1.57161">
        <ele>924.20001220703</ele>
        <time>2024-07-09T06:39:33.000Z</time>
      </trkpt>
      <trkpt lat="42.76553" lon="1.57164">
        <ele>926.20001220703</ele>
        <time>2024-07-09T06:39:42.000Z</time>
      </trkpt>
      <trkpt lat="42.76559" lon="1.5717">
        <ele>929.20001220703</ele>
        <time>2024-07-09T06:39:49.000Z</time>
      </trkpt>
      <trkpt lat="42.76566" lon="1.57175">
        <ele>931.59997558594</ele>
        <time>2024-07-09T06:39:57.000Z</time>
      </trkpt>
      <trkpt lat="42.7657" lon="1.57178">
        <ele>932.59997558594</ele>
        <time>2024-07-09T06:40:03.000Z</time>
      </trkpt>
      <trkpt lat="42.76575" lon="1.57182">
        <ele>934</ele>
        <time>2024-07-09T06:40:13.000Z</time>
      </trkpt>
      <trkpt lat="42.76581" lon="1.57183">
        <ele>934.40002441406</ele>
        <time>2024-07-09T06:40:20.000Z</time>
      </trkpt>
      <trkpt lat="42.76584" lon="1.57186">
        <ele>935.40002441406</ele>
        <time>2024-07-09T06:40:26.000Z</time>
      </trkpt>
      <trkpt lat="42.76589" lon="1.57187">
        <ele>935.79998779297</ele>
        <time>2024-07-09T06:40:34.000Z</time>
      </trkpt>
      <trkpt lat="42.76593" lon="1.5719">
        <ele>937.20001220703</ele>
        <time>2024-07-09T06:40:43.000Z</time>
      </trkpt>
      <trkpt lat="42.76597" lon="1.57193">
        <ele>938.40002441406</ele>
        <time>2024-07-09T06:40:54.000Z</time>
      </trkpt>
      <trkpt lat="42.76603" lon="1.57195">
        <ele>940</ele>
        <time>2024-07-09T06:41:02.000Z</time>
      </trkpt>
      <trkpt lat="42.76608" lon="1.57197">
        <ele>940.79998779297</ele>
        <time>2024-07-09T06:41:09.000Z</time>
      </trkpt>
      <trkpt lat="42.76611" lon="1.57198">
        <ele>941.20001220703</ele>
        <time>2024-07-09T06:41:16.000Z</time>
      </trkpt>
      <trkpt lat="42.76617" lon="1.57202">
        <ele>942.40002441406</ele>
        <time>2024-07-09T06:41:23.000Z</time>
      </trkpt>
      <trkpt lat="42.76624" lon="1.57205">
        <ele>943.40002441406</ele>
        <time>2024-07-09T06:41:31.000Z</time>
      </trkpt>
      <trkpt lat="42.76627" lon="1.57206">
        <ele>944.20001220703</ele>
        <time>2024-07-09T06:41:38.000Z</time>
      </trkpt>
      <trkpt lat="42.76631" lon="1.57207">
        <ele>944.59997558594</ele>
        <time>2024-07-09T06:41:45.000Z</time>
      </trkpt>
      <trkpt lat="42.76638" lon="1.57211">
        <ele>946</ele>
        <time>2024-07-09T06:41:54.000Z</time>
      </trkpt>
      <trkpt lat="42.76643" lon="1.57212">
        <ele>946.59997558594</ele>
        <time>2024-07-09T06:42:01.000Z</time>
      </trkpt>
      <trkpt lat="42.76647" lon="1.57215">
        <ele>947.79998779297</ele>
        <time>2024-07-09T06:42:09.000Z</time>
      </trkpt>
      <trkpt lat="42.76653" lon="1.5722">
        <ele>949</ele>
        <time>2024-07-09T06:42:16.000Z</time>
      </trkpt>
      <trkpt lat="42.76654" lon="1.57228">
        <ele>950.79998779297</ele>
        <time>2024-07-09T06:42:24.000Z</time>
      </trkpt>
      <trkpt lat="42.76651" lon="1.57232">
        <ele>951.59997558594</ele>
        <time>2024-07-09T06:42:28.000Z</time>
      </trkpt>
      <trkpt lat="42.76649" lon="1.57233">
        <ele>951.79998779297</ele>
        <time>2024-07-09T06:42:33.000Z</time>
      </trkpt>
      <trkpt lat="42.7665" lon="1.57238">
        <ele>952.59997558594</ele>
        <time>2024-07-09T06:42:40.000Z</time>
      </trkpt>
      <trkpt lat="42.76652" lon="1.57244">
        <ele>953.59997558594</ele>
        <time>2024-07-09T06:42:47.000Z</time>
      </trkpt>
      <trkpt lat="42.76654" lon="1.5725">
        <ele>954.79998779297</ele>
        <time>2024-07-09T06:42:55.000Z</time>
      </trkpt>
      <trkpt lat="42.76656" lon="1.57255">
        <ele>955.79998779297</ele>
        <time>2024-07-09T06:43:01.000Z</time>
      </trkpt>
      <trkpt lat="42.76665" lon="1.57262">
        <ele>957.20001220703</ele>
        <time>2024-07-09T06:43:12.000Z</time>
      </trkpt>
      <trkpt lat="42.76669" lon="1.57271">
        <ele>958.59997558594</ele>
        <time>2024-07-09T06:43:20.000Z</time>
      </trkpt>
      <trkpt lat="42.76671" lon="1.57281">
        <ele>960.20001220703</ele>
        <time>2024-07-09T06:43:31.000Z</time>
      </trkpt>
      <trkpt lat="42.76674" lon="1.57289">
        <ele>961.79998779297</ele>
        <time>2024-07-09T06:43:42.000Z</time>
      </trkpt>
      <trkpt lat="42.76677" lon="1.5729">
        <ele>962.20001220703</ele>
        <time>2024-07-09T06:43:50.000Z</time>
      </trkpt>
      <trkpt lat="42.76676" lon="1.57294">
        <ele>963.20001220703</ele>
        <time>2024-07-09T06:43:56.000Z</time>
      </trkpt>
      <trkpt lat="42.76668" lon="1.57298">
        <ele>964</ele>
        <time>2024-07-09T06:44:06.000Z</time>
      </trkpt>
      <trkpt lat="42.76657" lon="1.57304">
        <ele>965.20001220703</ele>
        <time>2024-07-09T06:44:17.000Z</time>
      </trkpt>
      <trkpt lat="42.76653" lon="1.57311">
        <ele>966.79998779297</ele>
        <time>2024-07-09T06:44:25.000Z</time>
      </trkpt>
      <trkpt lat="42.76648" lon="1.5732">
        <ele>968.20001220703</ele>
        <time>2024-07-09T06:44:36.000Z</time>
      </trkpt>
      <trkpt lat="42.76645" lon="1.57328">
        <ele>969.59997558594</ele>
        <time>2024-07-09T06:44:46.000Z</time>
      </trkpt>
      <trkpt lat="42.76643" lon="1.57339">
        <ele>971.79998779297</ele>
        <time>2024-07-09T06:44:57.000Z</time>
      </trkpt>
      <trkpt lat="42.76642" lon="1.57348">
        <ele>973.59997558594</ele>
        <time>2024-07-09T06:45:06.000Z</time>
      </trkpt>
      <trkpt lat="42.76644" lon="1.57356">
        <ele>975.40002441406</ele>
        <time>2024-07-09T06:45:16.000Z</time>
      </trkpt>
      <trkpt lat="42.76645" lon="1.57359">
        <ele>976</ele>
        <time>2024-07-09T06:45:24.000Z</time>
      </trkpt>
      <trkpt lat="42.76645" lon="1.57359">
        <ele>976</ele>
        <time>2024-07-09T06:45:32.000Z</time>
      </trkpt>
      <trkpt lat="42.76652" lon="1.57363">
        <ele>977.20001220703</ele>
        <time>2024-07-09T06:45:46.000Z</time>
      </trkpt>
      <trkpt lat="42.76659" lon="1.5737">
        <ele>978.40002441406</ele>
        <time>2024-07-09T06:45:55.000Z</time>
      </trkpt>
      <trkpt lat="42.76666" lon="1.57375">
        <ele>979.40002441406</ele>
        <time>2024-07-09T06:46:06.000Z</time>
      </trkpt>
      <trkpt lat="42.76666" lon="1.57377">
        <ele>979.59997558594</ele>
        <time>2024-07-09T06:46:12.000Z</time>
      </trkpt>
      <trkpt lat="42.76666" lon="1.57377">
        <ele>979.59997558594</ele>
        <time>2024-07-09T06:46:21.000Z</time>
      </trkpt>
      <trkpt lat="42.76671" lon="1.57386">
        <ele>981.20001220703</ele>
        <time>2024-07-09T06:47:15.000Z</time>
      </trkpt>
      <trkpt lat="42.76675" lon="1.57395">
        <ele>982.59997558594</ele>
        <time>2024-07-09T06:47:22.000Z</time>
      </trkpt>
      <trkpt lat="42.76676" lon="1.57406">
        <ele>984.40002441406</ele>
        <time>2024-07-09T06:47:33.000Z</time>
      </trkpt>
      <trkpt lat="42.76678" lon="1.57415">
        <ele>986.20001220703</ele>
        <time>2024-07-09T06:47:43.000Z</time>
      </trkpt>
      <trkpt lat="42.76681" lon="1.57422">
        <ele>987.79998779297</ele>
        <time>2024-07-09T06:47:51.000Z</time>
      </trkpt>
      <trkpt lat="42.76683" lon="1.57425">
        <ele>989</ele>
        <time>2024-07-09T06:47:56.000Z</time>
      </trkpt>
      <trkpt lat="42.76685" lon="1.57429">
        <ele>990.59997558594</ele>
        <time>2024-07-09T06:48:02.000Z</time>
      </trkpt>
      <trkpt lat="42.76687" lon="1.57435">
        <ele>992.79998779297</ele>
        <time>2024-07-09T06:48:09.000Z</time>
      </trkpt>
      <trkpt lat="42.76689" lon="1.5744">
        <ele>994.40002441406</ele>
        <time>2024-07-09T06:48:15.000Z</time>
      </trkpt>
      <trkpt lat="42.76692" lon="1.57445">
        <ele>996.40002441406</ele>
        <time>2024-07-09T06:48:23.000Z</time>
      </trkpt>
      <trkpt lat="42.76696" lon="1.57449">
        <ele>998.20001220703</ele>
        <time>2024-07-09T06:48:31.000Z</time>
      </trkpt>
      <trkpt lat="42.767" lon="1.57454">
        <ele>1000</ele>
        <time>2024-07-09T06:48:39.000Z</time>
      </trkpt>
      <trkpt lat="42.76702" lon="1.57457">
        <ele>1001.200012207</ele>
        <time>2024-07-09T06:48:46.000Z</time>
      </trkpt>
      <trkpt lat="42.76702" lon="1.57461">
        <ele>1002</ele>
        <time>2024-07-09T06:48:51.000Z</time>
      </trkpt>
      <trkpt lat="42.76701" lon="1.57463">
        <ele>1002.5999755859</ele>
        <time>2024-07-09T06:48:56.000Z</time>
      </trkpt>
      <trkpt lat="42.76699" lon="1.57464">
        <ele>1002.799987793</ele>
        <time>2024-07-09T06:49:02.000Z</time>
      </trkpt>
      <trkpt lat="42.76699" lon="1.57468">
        <ele>1004</ele>
        <time>2024-07-09T06:49:09.000Z</time>
      </trkpt>
      <trkpt lat="42.767" lon="1.57472">
        <ele>1005</ele>
        <time>2024-07-09T06:49:16.000Z</time>
      </trkpt>
      <trkpt lat="42.76703" lon="1.5747">
        <ele>1004.799987793</ele>
        <time>2024-07-09T06:49:26.000Z</time>
      </trkpt>
      <trkpt lat="42.76705" lon="1.5747">
        <ele>1005.200012207</ele>
        <time>2024-07-09T06:49:32.000Z</time>
      </trkpt>
      <trkpt lat="42.76708" lon="1.57472">
        <ele>1006</ele>
        <time>2024-07-09T06:49:38.000Z</time>
      </trkpt>
      <trkpt lat="42.76709" lon="1.57476">
        <ele>1007.5999755859</ele>
        <time>2024-07-09T06:49:45.000Z</time>
      </trkpt>
      <trkpt lat="42.7671" lon="1.57482">
        <ele>1009.4000244141</ele>
        <time>2024-07-09T06:49:52.000Z</time>
      </trkpt>
      <trkpt lat="42.76709" lon="1.57485">
        <ele>1010.200012207</ele>
        <time>2024-07-09T06:49:57.000Z</time>
      </trkpt>
      <trkpt lat="42.76708" lon="1.57489">
        <ele>1011.4000244141</ele>
        <time>2024-07-09T06:50:03.000Z</time>
      </trkpt>
      <trkpt lat="42.76707" lon="1.57493">
        <ele>1012.4000244141</ele>
        <time>2024-07-09T06:50:09.000Z</time>
      </trkpt>
      <trkpt lat="42.76706" lon="1.57496">
        <ele>1013.4000244141</ele>
        <time>2024-07-09T06:50:15.000Z</time>
      </trkpt>
      <trkpt lat="42.76708" lon="1.57502">
        <ele>1015.799987793</ele>
        <time>2024-07-09T06:50:22.000Z</time>
      </trkpt>
      <trkpt lat="42.76708" lon="1.57507">
        <ele>1017.200012207</ele>
        <time>2024-07-09T06:50:27.000Z</time>
      </trkpt>
      <trkpt lat="42.76706" lon="1.57513">
        <ele>1020.200012207</ele>
        <time>2024-07-09T06:50:33.000Z</time>
      </trkpt>
      <trkpt lat="42.76704" lon="1.57517">
        <ele>1022.799987793</ele>
        <time>2024-07-09T06:50:41.000Z</time>
      </trkpt>
      <trkpt lat="42.76703" lon="1.5752">
        <ele>1024.4000244141</ele>
        <time>2024-07-09T06:50:47.000Z</time>
      </trkpt>
      <trkpt lat="42.76701" lon="1.57523">
        <ele>1026.4000244141</ele>
        <time>2024-07-09T06:50:52.000Z</time>
      </trkpt>
      <trkpt lat="42.76698" lon="1.57521">
        <ele>1025.5999755859</ele>
        <time>2024-07-09T06:50:59.000Z</time>
      </trkpt>
      <trkpt lat="42.76695" lon="1.57525">
        <ele>1028</ele>
        <time>2024-07-09T06:51:06.000Z</time>
      </trkpt>
      <trkpt lat="42.76693" lon="1.57528">
        <ele>1029.1999511719</ele>
        <time>2024-07-09T06:51:11.000Z</time>
      </trkpt>
      <trkpt lat="42.7669" lon="1.57531">
        <ele>1031.1999511719</ele>
        <time>2024-07-09T06:51:17.000Z</time>
      </trkpt>
      <trkpt lat="42.76689" lon="1.5753">
        <ele>1030.4000244141</ele>
        <time>2024-07-09T06:51:21.000Z</time>
      </trkpt>
      <trkpt lat="42.76684" lon="1.57528">
        <ele>1030</ele>
        <time>2024-07-09T06:51:28.000Z</time>
      </trkpt>
      <trkpt lat="42.76682" lon="1.57531">
        <ele>1031.4000244141</ele>
        <time>2024-07-09T06:51:35.000Z</time>
      </trkpt>
      <trkpt lat="42.76679" lon="1.57534">
        <ele>1032.5999755859</ele>
        <time>2024-07-09T06:51:41.000Z</time>
      </trkpt>
      <trkpt lat="42.76677" lon="1.57535">
        <ele>1033.5999755859</ele>
        <time>2024-07-09T06:51:46.000Z</time>
      </trkpt>
      <trkpt lat="42.76674" lon="1.57537">
        <ele>1035.1999511719</ele>
        <time>2024-07-09T06:51:51.000Z</time>
      </trkpt>
      <trkpt lat="42.76666" lon="1.57535">
        <ele>1034.5999755859</ele>
        <time>2024-07-09T06:51:58.000Z</time>
      </trkpt>
      <trkpt lat="42.76665" lon="1.57537">
        <ele>1036.4000244141</ele>
        <time>2024-07-09T06:52:03.000Z</time>
      </trkpt>
      <trkpt lat="42.76663" lon="1.57542">
        <ele>1039.4000244141</ele>
        <time>2024-07-09T06:52:09.000Z</time>
      </trkpt>
      <trkpt lat="42.76661" lon="1.57546">
        <ele>1041.4000244141</ele>
        <time>2024-07-09T06:52:15.000Z</time>
      </trkpt>
      <trkpt lat="42.7666" lon="1.57546">
        <ele>1041.4000244141</ele>
        <time>2024-07-09T06:52:21.000Z</time>
      </trkpt>
      <trkpt lat="42.76661" lon="1.5755">
        <ele>1043.4000244141</ele>
        <time>2024-07-09T06:52:26.000Z</time>
      </trkpt>
      <trkpt lat="42.76661" lon="1.57554">
        <ele>1045.1999511719</ele>
        <time>2024-07-09T06:52:31.000Z</time>
      </trkpt>
      <trkpt lat="42.76659" lon="1.57557">
        <ele>1046.1999511719</ele>
        <time>2024-07-09T06:52:36.000Z</time>
      </trkpt>
      <trkpt lat="42.76659" lon="1.57557">
        <ele>1046.4000244141</ele>
        <time>2024-07-09T06:52:41.000Z</time>
      </trkpt>
      <trkpt lat="42.76657" lon="1.57557">
        <ele>1046.1999511719</ele>
        <time>2024-07-09T06:52:47.000Z</time>
      </trkpt>
      <trkpt lat="42.76657" lon="1.57557">
        <ele>1046</ele>
        <time>2024-07-09T06:52:53.000Z</time>
      </trkpt>
      <trkpt lat="42.76648" lon="1.57569">
        <ele>1050.5999755859</ele>
        <time>2024-07-09T06:53:37.000Z</time>
      </trkpt>
      <trkpt lat="42.76641" lon="1.57572">
        <ele>1050.5999755859</ele>
        <time>2024-07-09T06:53:43.000Z</time>
      </trkpt>
      <trkpt lat="42.7664" lon="1.57573">
        <ele>1051</ele>
        <time>2024-07-09T06:53:49.000Z</time>
      </trkpt>
      <trkpt lat="42.76639" lon="1.57577">
        <ele>1052.1999511719</ele>
        <time>2024-07-09T06:53:56.000Z</time>
      </trkpt>
      <trkpt lat="42.76636" lon="1.5758">
        <ele>1052.8000488281</ele>
        <time>2024-07-09T06:54:01.000Z</time>
      </trkpt>
      <trkpt lat="42.76633" lon="1.57581">
        <ele>1053</ele>
        <time>2024-07-09T06:54:07.000Z</time>
      </trkpt>
      <trkpt lat="42.76633" lon="1.57585">
        <ele>1054.4000244141</ele>
        <time>2024-07-09T06:54:13.000Z</time>
      </trkpt>
      <trkpt lat="42.76631" lon="1.57589">
        <ele>1055.1999511719</ele>
        <time>2024-07-09T06:54:21.000Z</time>
      </trkpt>
      <trkpt lat="42.76632" lon="1.57592">
        <ele>1056</ele>
        <time>2024-07-09T06:54:30.000Z</time>
      </trkpt>
      <trkpt lat="42.76634" lon="1.57595">
        <ele>1057.1999511719</ele>
        <time>2024-07-09T06:54:38.000Z</time>
      </trkpt>
      <trkpt lat="42.76636" lon="1.57602">
        <ele>1059.4000244141</ele>
        <time>2024-07-09T06:54:46.000Z</time>
      </trkpt>
      <trkpt lat="42.76639" lon="1.57606">
        <ele>1061</ele>
        <time>2024-07-09T06:54:54.000Z</time>
      </trkpt>
      <trkpt lat="42.76637" lon="1.57607">
        <ele>1061</ele>
        <time>2024-07-09T06:55:00.000Z</time>
      </trkpt>
      <trkpt lat="42.76635" lon="1.57607">
        <ele>1060.5999755859</ele>
        <time>2024-07-09T06:55:05.000Z</time>
      </trkpt>
      <trkpt lat="42.76633" lon="1.57609">
        <ele>1060.8000488281</ele>
        <time>2024-07-09T06:55:11.000Z</time>
      </trkpt>
      <trkpt lat="42.76632" lon="1.57611">
        <ele>1061.5999755859</ele>
        <time>2024-07-09T06:55:15.000Z</time>
      </trkpt>
      <trkpt lat="42.76631" lon="1.57615">
        <ele>1062.4000244141</ele>
        <time>2024-07-09T06:55:22.000Z</time>
      </trkpt>
      <trkpt lat="42.76631" lon="1.5762">
        <ele>1063.8000488281</ele>
        <time>2024-07-09T06:55:28.000Z</time>
      </trkpt>
      <trkpt lat="42.76632" lon="1.57628">
        <ele>1066</ele>
        <time>2024-07-09T06:55:36.000Z</time>
      </trkpt>
      <trkpt lat="42.76631" lon="1.57635">
        <ele>1067.4000244141</ele>
        <time>2024-07-09T06:55:45.000Z</time>
      </trkpt>
      <trkpt lat="42.76629" lon="1.57639">
        <ele>1068</ele>
        <time>2024-07-09T06:55:52.000Z</time>
      </trkpt>
      <trkpt lat="42.76627" lon="1.57646">
        <ele>1069</ele>
        <time>2024-07-09T06:56:00.000Z</time>
      </trkpt>
      <trkpt lat="42.76627" lon="1.57651">
        <ele>1070.1999511719</ele>
        <time>2024-07-09T06:56:07.000Z</time>
      </trkpt>
      <trkpt lat="42.76626" lon="1.57656">
        <ele>1071.1999511719</ele>
        <time>2024-07-09T06:56:14.000Z</time>
      </trkpt>
      <trkpt lat="42.76621" lon="1.5766">
        <ele>1070.8000488281</ele>
        <time>2024-07-09T06:56:21.000Z</time>
      </trkpt>
      <trkpt lat="42.76622" lon="1.57664">
        <ele>1071.8000488281</ele>
        <time>2024-07-09T06:56:26.000Z</time>
      </trkpt>
      <trkpt lat="42.76621" lon="1.57667">
        <ele>1072.4000244141</ele>
        <time>2024-07-09T06:56:29.000Z</time>
      </trkpt>
      <trkpt lat="42.76619" lon="1.57669">
        <ele>1072</ele>
        <time>2024-07-09T06:56:32.000Z</time>
      </trkpt>
      <trkpt lat="42.76621" lon="1.57676">
        <ele>1074.8000488281</ele>
        <time>2024-07-09T06:56:39.000Z</time>
      </trkpt>
      <trkpt lat="42.76619" lon="1.57678">
        <ele>1075</ele>
        <time>2024-07-09T06:56:45.000Z</time>
      </trkpt>
      <trkpt lat="42.7662" lon="1.57684">
        <ele>1077.1999511719</ele>
        <time>2024-07-09T06:56:51.000Z</time>
      </trkpt>
      <trkpt lat="42.76621" lon="1.57691">
        <ele>1079.5999755859</ele>
        <time>2024-07-09T06:56:57.000Z</time>
      </trkpt>
      <trkpt lat="42.76619" lon="1.57694">
        <ele>1080.1999511719</ele>
        <time>2024-07-09T06:57:02.000Z</time>
      </trkpt>
      <trkpt lat="42.7662" lon="1.57696">
        <ele>1081</ele>
        <time>2024-07-09T06:57:05.000Z</time>
      </trkpt>
      <trkpt lat="42.76619" lon="1.57698">
        <ele>1081.5999755859</ele>
        <time>2024-07-09T06:57:08.000Z</time>
      </trkpt>
      <trkpt lat="42.76618" lon="1.57699">
        <ele>1082.4000244141</ele>
        <time>2024-07-09T06:57:13.000Z</time>
      </trkpt>
      <trkpt lat="42.76617" lon="1.57703">
        <ele>1084</ele>
        <time>2024-07-09T06:57:19.000Z</time>
      </trkpt>
      <trkpt lat="42.76614" lon="1.57706">
        <ele>1085.1999511719</ele>
        <time>2024-07-09T06:57:25.000Z</time>
      </trkpt>
      <trkpt lat="42.76611" lon="1.5771">
        <ele>1086.1999511719</ele>
        <time>2024-07-09T06:57:31.000Z</time>
      </trkpt>
      <trkpt lat="42.76607" lon="1.57711">
        <ele>1086.4000244141</ele>
        <time>2024-07-09T06:57:36.000Z</time>
      </trkpt>
      <trkpt lat="42.76605" lon="1.57714">
        <ele>1087.4000244141</ele>
        <time>2024-07-09T06:57:41.000Z</time>
      </trkpt>
      <trkpt lat="42.76602" lon="1.57716">
        <ele>1088.4000244141</ele>
        <time>2024-07-09T06:57:47.000Z</time>
      </trkpt>
      <trkpt lat="42.76591" lon="1.5772">
        <ele>1088.5999755859</ele>
        <time>2024-07-09T06:57:54.000Z</time>
      </trkpt>
      <trkpt lat="42.76581" lon="1.57718">
        <ele>1087.1999511719</ele>
        <time>2024-07-09T06:58:01.000Z</time>
      </trkpt>
      <trkpt lat="42.76577" lon="1.57721">
        <ele>1088.1999511719</ele>
        <time>2024-07-09T06:58:08.000Z</time>
      </trkpt>
      <trkpt lat="42.76575" lon="1.57722">
        <ele>1088.1999511719</ele>
        <time>2024-07-09T06:58:15.000Z</time>
      </trkpt>
      <trkpt lat="42.76568" lon="1.57724">
        <ele>1088.1999511719</ele>
        <time>2024-07-09T06:58:22.000Z</time>
      </trkpt>
      <trkpt lat="42.76564" lon="1.57726">
        <ele>1089</ele>
        <time>2024-07-09T06:58:28.000Z</time>
      </trkpt>
      <trkpt lat="42.76562" lon="1.57729">
        <ele>1090.4000244141</ele>
        <time>2024-07-09T06:58:33.000Z</time>
      </trkpt>
      <trkpt lat="42.76555" lon="1.57731">
        <ele>1091.8000488281</ele>
        <time>2024-07-09T06:58:42.000Z</time>
      </trkpt>
      <trkpt lat="42.7655" lon="1.57734">
        <ele>1093</ele>
        <time>2024-07-09T06:58:50.000Z</time>
      </trkpt>
      <trkpt lat="42.76545" lon="1.57739">
        <ele>1095</ele>
        <time>2024-07-09T06:58:58.000Z</time>
      </trkpt>
      <trkpt lat="42.76542" lon="1.57744">
        <ele>1097</ele>
        <time>2024-07-09T06:59:05.000Z</time>
      </trkpt>
      <trkpt lat="42.7654" lon="1.57746">
        <ele>1098</ele>
        <time>2024-07-09T06:59:10.000Z</time>
      </trkpt>
      <trkpt lat="42.76538" lon="1.57754">
        <ele>1101</ele>
        <time>2024-07-09T06:59:18.000Z</time>
      </trkpt>
      <trkpt lat="42.76535" lon="1.57757">
        <ele>1101.5999755859</ele>
        <time>2024-07-09T06:59:27.000Z</time>
      </trkpt>
      <trkpt lat="42.76536" lon="1.57762">
        <ele>1104</ele>
        <time>2024-07-09T06:59:33.000Z</time>
      </trkpt>
      <trkpt lat="42.76534" lon="1.57765">
        <ele>1104.8000488281</ele>
        <time>2024-07-09T06:59:38.000Z</time>
      </trkpt>
      <trkpt lat="42.76532" lon="1.57764">
        <ele>1103.8000488281</ele>
        <time>2024-07-09T06:59:42.000Z</time>
      </trkpt>
      <trkpt lat="42.7653" lon="1.57767">
        <ele>1104.8000488281</ele>
        <time>2024-07-09T06:59:46.000Z</time>
      </trkpt>
      <trkpt lat="42.76531" lon="1.57772">
        <ele>1107</ele>
        <time>2024-07-09T06:59:52.000Z</time>
      </trkpt>
      <trkpt lat="42.76529" lon="1.57778">
        <ele>1108.5999755859</ele>
        <time>2024-07-09T07:00:00.000Z</time>
      </trkpt>
      <trkpt lat="42.7653" lon="1.57781">
        <ele>1109.8000488281</ele>
        <time>2024-07-09T07:00:06.000Z</time>
      </trkpt>
      <trkpt lat="42.76533" lon="1.57784">
        <ele>1111.1999511719</ele>
        <time>2024-07-09T07:00:13.000Z</time>
      </trkpt>
      <trkpt lat="42.76533" lon="1.57791">
        <ele>1112.5999755859</ele>
        <time>2024-07-09T07:00:19.000Z</time>
      </trkpt>
      <trkpt lat="42.76538" lon="1.57794">
        <ele>1114.5999755859</ele>
        <time>2024-07-09T07:00:26.000Z</time>
      </trkpt>
      <trkpt lat="42.76541" lon="1.57802">
        <ele>1116.5999755859</ele>
        <time>2024-07-09T07:00:34.000Z</time>
      </trkpt>
      <trkpt lat="42.76542" lon="1.578">
        <ele>1116.5999755859</ele>
        <time>2024-07-09T07:00:42.000Z</time>
      </trkpt>
      <trkpt lat="42.76542" lon="1.57803">
        <ele>1117</ele>
        <time>2024-07-09T07:00:47.000Z</time>
      </trkpt>
      <trkpt lat="42.76539" lon="1.57805">
        <ele>1117.1999511719</ele>
        <time>2024-07-09T07:00:54.000Z</time>
      </trkpt>
      <trkpt lat="42.76538" lon="1.57809">
        <ele>1117.8000488281</ele>
        <time>2024-07-09T07:00:59.000Z</time>
      </trkpt>
      <trkpt lat="42.76535" lon="1.57814">
        <ele>1118.5999755859</ele>
        <time>2024-07-09T07:01:07.000Z</time>
      </trkpt>
      <trkpt lat="42.76535" lon="1.57817">
        <ele>1119</ele>
        <time>2024-07-09T07:01:14.000Z</time>
      </trkpt>
      <trkpt lat="42.76537" lon="1.57819">
        <ele>1120</ele>
        <time>2024-07-09T07:01:21.000Z</time>
      </trkpt>
      <trkpt lat="42.7654" lon="1.57824">
        <ele>1121.4000244141</ele>
        <time>2024-07-09T07:01:27.000Z</time>
      </trkpt>
      <trkpt lat="42.7654" lon="1.57829">
        <ele>1122.5999755859</ele>
        <time>2024-07-09T07:01:33.000Z</time>
      </trkpt>
      <trkpt lat="42.76541" lon="1.57832">
        <ele>1123.5999755859</ele>
        <time>2024-07-09T07:01:39.000Z</time>
      </trkpt>
      <trkpt lat="42.76542" lon="1.57837">
        <ele>1124.8000488281</ele>
        <time>2024-07-09T07:01:45.000Z</time>
      </trkpt>
      <trkpt lat="42.76542" lon="1.57842">
        <ele>1126.1999511719</ele>
        <time>2024-07-09T07:01:51.000Z</time>
      </trkpt>
      <trkpt lat="42.76543" lon="1.57844">
        <ele>1126.8000488281</ele>
        <time>2024-07-09T07:01:58.000Z</time>
      </trkpt>
      <trkpt lat="42.76542" lon="1.57843">
        <ele>1126.1999511719</ele>
        <time>2024-07-09T07:02:06.000Z</time>
      </trkpt>
      <trkpt lat="42.76542" lon="1.57847">
        <ele>1127.1999511719</ele>
        <time>2024-07-09T07:02:15.000Z</time>
      </trkpt>
      <trkpt lat="42.76544" lon="1.57853">
        <ele>1129.1999511719</ele>
        <time>2024-07-09T07:02:23.000Z</time>
      </trkpt>
      <trkpt lat="42.76547" lon="1.57858">
        <ele>1131.1999511719</ele>
        <time>2024-07-09T07:02:32.000Z</time>
      </trkpt>
      <trkpt lat="42.76547" lon="1.5786">
        <ele>1131.8000488281</ele>
        <time>2024-07-09T07:02:37.000Z</time>
      </trkpt>
      <trkpt lat="42.76548" lon="1.57865">
        <ele>1133.1999511719</ele>
        <time>2024-07-09T07:02:43.000Z</time>
      </trkpt>
      <trkpt lat="42.7655" lon="1.57872">
        <ele>1135</ele>
        <time>2024-07-09T07:02:48.000Z</time>
      </trkpt>
      <trkpt lat="42.76552" lon="1.57875">
        <ele>1136.1999511719</ele>
        <time>2024-07-09T07:02:56.000Z</time>
      </trkpt>
      <trkpt lat="42.76553" lon="1.57875">
        <ele>1136.1999511719</ele>
        <time>2024-07-09T07:03:08.000Z</time>
      </trkpt>
      <trkpt lat="42.76553" lon="1.57877">
        <ele>1136.8000488281</ele>
        <time>2024-07-09T07:03:15.000Z</time>
      </trkpt>
      <trkpt lat="42.76553" lon="1.57877">
        <ele>1136.8000488281</ele>
        <time>2024-07-09T07:03:25.000Z</time>
      </trkpt>
      <trkpt lat="42.7655" lon="1.57905">
        <ele>1142.1999511719</ele>
        <time>2024-07-09T07:04:56.000Z</time>
      </trkpt>
      <trkpt lat="42.7655" lon="1.57912">
        <ele>1143.5999755859</ele>
        <time>2024-07-09T07:05:01.000Z</time>
      </trkpt>
      <trkpt lat="42.76549" lon="1.57915">
        <ele>1144.1999511719</ele>
        <time>2024-07-09T07:05:05.000Z</time>
      </trkpt>
      <trkpt lat="42.76548" lon="1.57918">
        <ele>1144.5999755859</ele>
        <time>2024-07-09T07:05:10.000Z</time>
      </trkpt>
      <trkpt lat="42.76548" lon="1.57924">
        <ele>1146.4000244141</ele>
        <time>2024-07-09T07:05:17.000Z</time>
      </trkpt>
      <trkpt lat="42.7655" lon="1.57927">
        <ele>1147.8000488281</ele>
        <time>2024-07-09T07:05:25.000Z</time>
      </trkpt>
      <trkpt lat="42.76546" lon="1.57925">
        <ele>1146.4000244141</ele>
        <time>2024-07-09T07:05:30.000Z</time>
      </trkpt>
      <trkpt lat="42.76547" lon="1.57928">
        <ele>1147.5999755859</ele>
        <time>2024-07-09T07:05:34.000Z</time>
      </trkpt>
      <trkpt lat="42.76551" lon="1.57932">
        <ele>1149.5999755859</ele>
        <time>2024-07-09T07:05:39.000Z</time>
      </trkpt>
      <trkpt lat="42.76553" lon="1.57937">
        <ele>1151.4000244141</ele>
        <time>2024-07-09T07:05:43.000Z</time>
      </trkpt>
      <trkpt lat="42.76554" lon="1.57938">
        <ele>1152</ele>
        <time>2024-07-09T07:05:46.000Z</time>
      </trkpt>
      <trkpt lat="42.76554" lon="1.57939">
        <ele>1152.4000244141</ele>
        <time>2024-07-09T07:05:50.000Z</time>
      </trkpt>
      <trkpt lat="42.76553" lon="1.57939">
        <ele>1152</ele>
        <time>2024-07-09T07:05:56.000Z</time>
      </trkpt>
      <trkpt lat="42.76553" lon="1.57939">
        <ele>1152</ele>
        <time>2024-07-09T07:06:03.000Z</time>
      </trkpt>
      <trkpt lat="42.76554" lon="1.57939">
        <ele>1152.1999511719</ele>
        <time>2024-07-09T07:06:11.000Z</time>
      </trkpt>
      <trkpt lat="42.76553" lon="1.5794">
        <ele>1152.4000244141</ele>
        <time>2024-07-09T07:06:19.000Z</time>
      </trkpt>
      <trkpt lat="42.76549" lon="1.5794">
        <ele>1151.4000244141</ele>
        <time>2024-07-09T07:06:25.000Z</time>
      </trkpt>
      <trkpt lat="42.76549" lon="1.57942">
        <ele>1151.5999755859</ele>
        <time>2024-07-09T07:06:29.000Z</time>
      </trkpt>
      <trkpt lat="42.76549" lon="1.57942">
        <ele>1151.5999755859</ele>
        <time>2024-07-09T07:06:34.000Z</time>
      </trkpt>
      <trkpt lat="42.76548" lon="1.57943">
        <ele>1151.8000488281</ele>
        <time>2024-07-09T07:06:39.000Z</time>
      </trkpt>
      <trkpt lat="42.76549" lon="1.57943">
        <ele>1152</ele>
        <time>2024-07-09T07:06:46.000Z</time>
      </trkpt>
      <trkpt lat="42.7655" lon="1.57948">
        <ele>1153.5999755859</ele>
        <time>2024-07-09T07:09:42.000Z</time>
      </trkpt>
      <trkpt lat="42.76547" lon="1.57947">
        <ele>1152.5999755859</ele>
        <time>2024-07-09T07:10:22.000Z</time>
      </trkpt>
      <trkpt lat="42.76548" lon="1.57949">
        <ele>1153.4000244141</ele>
        <time>2024-07-09T07:10:27.000Z</time>
      </trkpt>
      <trkpt lat="42.76548" lon="1.57949">
        <ele>1153.5999755859</ele>
        <time>2024-07-09T07:10:36.000Z</time>
      </trkpt>
      <trkpt lat="42.76544" lon="1.5795">
        <ele>1153</ele>
        <time>2024-07-09T07:10:51.000Z</time>
      </trkpt>
      <trkpt lat="42.76542" lon="1.57954">
        <ele>1154</ele>
        <time>2024-07-09T07:10:56.000Z</time>
      </trkpt>
      <trkpt lat="42.76544" lon="1.57962">
        <ele>1157</ele>
        <time>2024-07-09T07:11:02.000Z</time>
      </trkpt>
      <trkpt lat="42.76544" lon="1.57964">
        <ele>1157.4000244141</ele>
        <time>2024-07-09T07:11:09.000Z</time>
      </trkpt>
      <trkpt lat="42.76542" lon="1.57975">
        <ele>1160.8000488281</ele>
        <time>2024-07-09T07:11:15.000Z</time>
      </trkpt>
      <trkpt lat="42.76544" lon="1.57986">
        <ele>1164.1999511719</ele>
        <time>2024-07-09T07:11:21.000Z</time>
      </trkpt>
      <trkpt lat="42.76541" lon="1.57989">
        <ele>1164.5999755859</ele>
        <time>2024-07-09T07:11:27.000Z</time>
      </trkpt>
      <trkpt lat="42.76538" lon="1.5799">
        <ele>1164</ele>
        <time>2024-07-09T07:11:33.000Z</time>
      </trkpt>
      <trkpt lat="42.76535" lon="1.57993">
        <ele>1164.4000244141</ele>
        <time>2024-07-09T07:11:38.000Z</time>
      </trkpt>
      <trkpt lat="42.76532" lon="1.58002">
        <ele>1166.1999511719</ele>
        <time>2024-07-09T07:11:46.000Z</time>
      </trkpt>
      <trkpt lat="42.76531" lon="1.58007">
        <ele>1167</ele>
        <time>2024-07-09T07:11:52.000Z</time>
      </trkpt>
      <trkpt lat="42.76529" lon="1.58011">
        <ele>1167.5999755859</ele>
        <time>2024-07-09T07:11:58.000Z</time>
      </trkpt>
      <trkpt lat="42.76531" lon="1.58014">
        <ele>1168.4000244141</ele>
        <time>2024-07-09T07:12:00.000Z</time>
      </trkpt>
      <trkpt lat="42.7653" lon="1.58015">
        <ele>1168.5999755859</ele>
        <time>2024-07-09T07:12:02.000Z</time>
      </trkpt>
      <trkpt lat="42.76524" lon="1.58019">
        <ele>1168.1999511719</ele>
        <time>2024-07-09T07:12:09.000Z</time>
      </trkpt>
      <trkpt lat="42.76526" lon="1.58024">
        <ele>1169.4000244141</ele>
        <time>2024-07-09T07:12:15.000Z</time>
      </trkpt>
      <trkpt lat="42.76524" lon="1.58027">
        <ele>1169.5999755859</ele>
        <time>2024-07-09T07:12:20.000Z</time>
      </trkpt>
      <trkpt lat="42.76524" lon="1.58032">
        <ele>1170.5999755859</ele>
        <time>2024-07-09T07:12:26.000Z</time>
      </trkpt>
      <trkpt lat="42.76522" lon="1.58038">
        <ele>1171.5999755859</ele>
        <time>2024-07-09T07:12:32.000Z</time>
      </trkpt>
      <trkpt lat="42.76523" lon="1.58047">
        <ele>1174.1999511719</ele>
        <time>2024-07-09T07:12:39.000Z</time>
      </trkpt>
      <trkpt lat="42.76528" lon="1.58055">
        <ele>1177.5999755859</ele>
        <time>2024-07-09T07:12:46.000Z</time>
      </trkpt>
      <trkpt lat="42.76533" lon="1.58059">
        <ele>1179.8000488281</ele>
        <time>2024-07-09T07:12:53.000Z</time>
      </trkpt>
      <trkpt lat="42.76534" lon="1.58066">
        <ele>1182</ele>
        <time>2024-07-09T07:13:03.000Z</time>
      </trkpt>
      <trkpt lat="42.76536" lon="1.58073">
        <ele>1184</ele>
        <time>2024-07-09T07:13:11.000Z</time>
      </trkpt>
      <trkpt lat="42.76536" lon="1.58076">
        <ele>1184.8000488281</ele>
        <time>2024-07-09T07:13:18.000Z</time>
      </trkpt>
      <trkpt lat="42.76536" lon="1.5808">
        <ele>1185.8000488281</ele>
        <time>2024-07-09T07:13:23.000Z</time>
      </trkpt>
      <trkpt lat="42.76539" lon="1.58084">
        <ele>1187.4000244141</ele>
        <time>2024-07-09T07:13:28.000Z</time>
      </trkpt>
      <trkpt lat="42.7654" lon="1.58086">
        <ele>1187.8000488281</ele>
        <time>2024-07-09T07:13:35.000Z</time>
      </trkpt>
      <trkpt lat="42.76537" lon="1.58091">
        <ele>1188.4000244141</ele>
        <time>2024-07-09T07:13:40.000Z</time>
      </trkpt>
      <trkpt lat="42.76537" lon="1.58091">
        <ele>1188.4000244141</ele>
        <time>2024-07-09T07:13:46.000Z</time>
      </trkpt>
      <trkpt lat="42.76536" lon="1.58091">
        <ele>1188.1999511719</ele>
        <time>2024-07-09T07:13:53.000Z</time>
      </trkpt>
      <trkpt lat="42.76537" lon="1.58115">
        <ele>1193.5999755859</ele>
        <time>2024-07-09T07:14:28.000Z</time>
      </trkpt>
      <trkpt lat="42.76538" lon="1.58125">
        <ele>1196.1999511719</ele>
        <time>2024-07-09T07:14:35.000Z</time>
      </trkpt>
      <trkpt lat="42.76537" lon="1.58128">
        <ele>1196.8000488281</ele>
        <time>2024-07-09T07:14:42.000Z</time>
      </trkpt>
      <trkpt lat="42.76537" lon="1.58131">
        <ele>1197.4000244141</ele>
        <time>2024-07-09T07:14:47.000Z</time>
      </trkpt>
      <trkpt lat="42.76535" lon="1.58135">
        <ele>1198.5999755859</ele>
        <time>2024-07-09T07:14:55.000Z</time>
      </trkpt>
      <trkpt lat="42.76534" lon="1.58141">
        <ele>1199.8000488281</ele>
        <time>2024-07-09T07:15:03.000Z</time>
      </trkpt>
      <trkpt lat="42.76532" lon="1.58145">
        <ele>1201</ele>
        <time>2024-07-09T07:15:10.000Z</time>
      </trkpt>
      <trkpt lat="42.76531" lon="1.58149">
        <ele>1202.4000244141</ele>
        <time>2024-07-09T07:15:15.000Z</time>
      </trkpt>
      <trkpt lat="42.76526" lon="1.58149">
        <ele>1201.8000488281</ele>
        <time>2024-07-09T07:15:20.000Z</time>
      </trkpt>
      <trkpt lat="42.76523" lon="1.58153">
        <ele>1203</ele>
        <time>2024-07-09T07:15:25.000Z</time>
      </trkpt>
      <trkpt lat="42.76522" lon="1.58154">
        <ele>1203.1999511719</ele>
        <time>2024-07-09T07:15:30.000Z</time>
      </trkpt>
      <trkpt lat="42.76518" lon="1.58156">
        <ele>1204</ele>
        <time>2024-07-09T07:15:35.000Z</time>
      </trkpt>
      <trkpt lat="42.76518" lon="1.58158">
        <ele>1204.5999755859</ele>
        <time>2024-07-09T07:15:41.000Z</time>
      </trkpt>
      <trkpt lat="42.76515" lon="1.58167">
        <ele>1208</ele>
        <time>2024-07-09T07:15:47.000Z</time>
      </trkpt>
      <trkpt lat="42.76515" lon="1.58174">
        <ele>1210.8000488281</ele>
        <time>2024-07-09T07:15:55.000Z</time>
      </trkpt>
      <trkpt lat="42.76515" lon="1.58175">
        <ele>1211.5999755859</ele>
        <time>2024-07-09T07:16:00.000Z</time>
      </trkpt>
      <trkpt lat="42.76516" lon="1.58172">
        <ele>1210.1999511719</ele>
        <time>2024-07-09T07:16:05.000Z</time>
      </trkpt>
      <trkpt lat="42.76515" lon="1.58175">
        <ele>1211.4000244141</ele>
        <time>2024-07-09T07:16:11.000Z</time>
      </trkpt>
      <trkpt lat="42.76512" lon="1.5818">
        <ele>1213.4000244141</ele>
        <time>2024-07-09T07:16:18.000Z</time>
      </trkpt>
      <trkpt lat="42.76509" lon="1.58184">
        <ele>1215</ele>
        <time>2024-07-09T07:16:24.000Z</time>
      </trkpt>
      <trkpt lat="42.7651" lon="1.58188">
        <ele>1216.4000244141</ele>
        <time>2024-07-09T07:16:30.000Z</time>
      </trkpt>
      <trkpt lat="42.7651" lon="1.58192">
        <ele>1218</ele>
        <time>2024-07-09T07:16:36.000Z</time>
      </trkpt>
      <trkpt lat="42.76513" lon="1.58198">
        <ele>1220.4000244141</ele>
        <time>2024-07-09T07:16:44.000Z</time>
      </trkpt>
      <trkpt lat="42.76514" lon="1.58208">
        <ele>1223.1999511719</ele>
        <time>2024-07-09T07:16:54.000Z</time>
      </trkpt>
      <trkpt lat="42.76512" lon="1.58211">
        <ele>1224.1999511719</ele>
        <time>2024-07-09T07:17:02.000Z</time>
      </trkpt>
      <trkpt lat="42.76515" lon="1.58218">
        <ele>1226.1999511719</ele>
        <time>2024-07-09T07:17:09.000Z</time>
      </trkpt>
      <trkpt lat="42.76514" lon="1.58221">
        <ele>1227</ele>
        <time>2024-07-09T07:17:16.000Z</time>
      </trkpt>
      <trkpt lat="42.76513" lon="1.58225">
        <ele>1228.1999511719</ele>
        <time>2024-07-09T07:17:24.000Z</time>
      </trkpt>
      <trkpt lat="42.76513" lon="1.58231">
        <ele>1229.5999755859</ele>
        <time>2024-07-09T07:17:31.000Z</time>
      </trkpt>
      <trkpt lat="42.76513" lon="1.58234">
        <ele>1230.4000244141</ele>
        <time>2024-07-09T07:17:37.000Z</time>
      </trkpt>
      <trkpt lat="42.76515" lon="1.58243">
        <ele>1232.5999755859</ele>
        <time>2024-07-09T07:17:44.000Z</time>
      </trkpt>
      <trkpt lat="42.76515" lon="1.58246">
        <ele>1233.4000244141</ele>
        <time>2024-07-09T07:17:50.000Z</time>
      </trkpt>
      <trkpt lat="42.76515" lon="1.58251">
        <ele>1234.5999755859</ele>
        <time>2024-07-09T07:17:55.000Z</time>
      </trkpt>
      <trkpt lat="42.76516" lon="1.58259">
        <ele>1236.4000244141</ele>
        <time>2024-07-09T07:18:03.000Z</time>
      </trkpt>
      <trkpt lat="42.76515" lon="1.58262">
        <ele>1237</ele>
        <time>2024-07-09T07:18:10.000Z</time>
      </trkpt>
      <trkpt lat="42.76514" lon="1.58272">
        <ele>1238.8000488281</ele>
        <time>2024-07-09T07:18:16.000Z</time>
      </trkpt>
      <trkpt lat="42.76513" lon="1.58273">
        <ele>1239</ele>
        <time>2024-07-09T07:18:22.000Z</time>
      </trkpt>
      <trkpt lat="42.76513" lon="1.58274">
        <ele>1239</ele>
        <time>2024-07-09T07:18:28.000Z</time>
      </trkpt>
      <trkpt lat="42.76513" lon="1.58274">
        <ele>1239.1999511719</ele>
        <time>2024-07-09T07:18:42.000Z</time>
      </trkpt>
      <trkpt lat="42.76512" lon="1.58283">
        <ele>1240.5999755859</ele>
        <time>2024-07-09T07:19:18.000Z</time>
      </trkpt>
      <trkpt lat="42.7651" lon="1.58297">
        <ele>1242.5999755859</ele>
        <time>2024-07-09T07:19:27.000Z</time>
      </trkpt>
      <trkpt lat="42.76509" lon="1.58302">
        <ele>1243.1999511719</ele>
        <time>2024-07-09T07:19:31.000Z</time>
      </trkpt>
      <trkpt lat="42.76508" lon="1.58303">
        <ele>1243.4000244141</ele>
        <time>2024-07-09T07:19:32.000Z</time>
      </trkpt>
      <trkpt lat="42.76508" lon="1.58313">
        <ele>1244.8000488281</ele>
        <time>2024-07-09T07:19:38.000Z</time>
      </trkpt>
      <trkpt lat="42.76505" lon="1.58319">
        <ele>1245.1999511719</ele>
        <time>2024-07-09T07:19:45.000Z</time>
      </trkpt>
      <trkpt lat="42.76504" lon="1.58324">
        <ele>1245.8000488281</ele>
        <time>2024-07-09T07:19:48.000Z</time>
      </trkpt>
      <trkpt lat="42.76505" lon="1.58326">
        <ele>1246.1999511719</ele>
        <time>2024-07-09T07:19:50.000Z</time>
      </trkpt>
      <trkpt lat="42.76508" lon="1.58333">
        <ele>1247.5999755859</ele>
        <time>2024-07-09T07:19:56.000Z</time>
      </trkpt>
      <trkpt lat="42.76502" lon="1.58339">
        <ele>1248</ele>
        <time>2024-07-09T07:20:04.000Z</time>
      </trkpt>
      <trkpt lat="42.76499" lon="1.58346">
        <ele>1248.5999755859</ele>
        <time>2024-07-09T07:20:13.000Z</time>
      </trkpt>
      <trkpt lat="42.76498" lon="1.58353">
        <ele>1249.4000244141</ele>
        <time>2024-07-09T07:20:22.000Z</time>
      </trkpt>
      <trkpt lat="42.76499" lon="1.58364">
        <ele>1251.4000244141</ele>
        <time>2024-07-09T07:20:32.000Z</time>
      </trkpt>
      <trkpt lat="42.76497" lon="1.58367">
        <ele>1252</ele>
        <time>2024-07-09T07:20:40.000Z</time>
      </trkpt>
      <trkpt lat="42.76494" lon="1.58375">
        <ele>1253</ele>
        <time>2024-07-09T07:20:48.000Z</time>
      </trkpt>
      <trkpt lat="42.76492" lon="1.58378">
        <ele>1253.5999755859</ele>
        <time>2024-07-09T07:20:54.000Z</time>
      </trkpt>
      <trkpt lat="42.7649" lon="1.58385">
        <ele>1254.1999511719</ele>
        <time>2024-07-09T07:21:01.000Z</time>
      </trkpt>
      <trkpt lat="42.76489" lon="1.58392">
        <ele>1255</ele>
        <time>2024-07-09T07:21:09.000Z</time>
      </trkpt>
      <trkpt lat="42.76488" lon="1.58396">
        <ele>1255.8000488281</ele>
        <time>2024-07-09T07:21:15.000Z</time>
      </trkpt>
      <trkpt lat="42.76486" lon="1.584">
        <ele>1256.1999511719</ele>
        <time>2024-07-09T07:21:20.000Z</time>
      </trkpt>
      <trkpt lat="42.76485" lon="1.58404">
        <ele>1256.8000488281</ele>
        <time>2024-07-09T07:21:26.000Z</time>
      </trkpt>
      <trkpt lat="42.76484" lon="1.5841">
        <ele>1257.8000488281</ele>
        <time>2024-07-09T07:21:34.000Z</time>
      </trkpt>
      <trkpt lat="42.76483" lon="1.58421">
        <ele>1259.8000488281</ele>
        <time>2024-07-09T07:21:44.000Z</time>
      </trkpt>
      <trkpt lat="42.7648" lon="1.5843">
        <ele>1261.1999511719</ele>
        <time>2024-07-09T07:21:52.000Z</time>
      </trkpt>
      <trkpt lat="42.76476" lon="1.58434">
        <ele>1261.1999511719</ele>
        <time>2024-07-09T07:21:57.000Z</time>
      </trkpt>
      <trkpt lat="42.76472" lon="1.5844">
        <ele>1261.8000488281</ele>
        <time>2024-07-09T07:22:04.000Z</time>
      </trkpt>
      <trkpt lat="42.7647" lon="1.58446">
        <ele>1262.4000244141</ele>
        <time>2024-07-09T07:22:10.000Z</time>
      </trkpt>
      <trkpt lat="42.76465" lon="1.58447">
        <ele>1262</ele>
        <time>2024-07-09T07:22:15.000Z</time>
      </trkpt>
      <trkpt lat="42.76462" lon="1.58457">
        <ele>1264</ele>
        <time>2024-07-09T07:22:23.000Z</time>
      </trkpt>
      <trkpt lat="42.76459" lon="1.58464">
        <ele>1265.4000244141</ele>
        <time>2024-07-09T07:22:30.000Z</time>
      </trkpt>
      <trkpt lat="42.76456" lon="1.58467">
        <ele>1265.8000488281</ele>
        <time>2024-07-09T07:22:35.000Z</time>
      </trkpt>
      <trkpt lat="42.76455" lon="1.58476">
        <ele>1267.5999755859</ele>
        <time>2024-07-09T07:22:42.000Z</time>
      </trkpt>
      <trkpt lat="42.76454" lon="1.58482">
        <ele>1268.8000488281</ele>
        <time>2024-07-09T07:22:48.000Z</time>
      </trkpt>
      <trkpt lat="42.76445" lon="1.58486">
        <ele>1269</ele>
        <time>2024-07-09T07:22:58.000Z</time>
      </trkpt>
      <trkpt lat="42.76439" lon="1.58491">
        <ele>1269.5999755859</ele>
        <time>2024-07-09T07:23:06.000Z</time>
      </trkpt>
      <trkpt lat="42.76436" lon="1.58494">
        <ele>1270.4000244141</ele>
        <time>2024-07-09T07:23:13.000Z</time>
      </trkpt>
      <trkpt lat="42.76438" lon="1.58508">
        <ele>1273.8000488281</ele>
        <time>2024-07-09T07:23:21.000Z</time>
      </trkpt>
      <trkpt lat="42.76436" lon="1.58512">
        <ele>1274.8000488281</ele>
        <time>2024-07-09T07:23:25.000Z</time>
      </trkpt>
      <trkpt lat="42.76434" lon="1.58513">
        <ele>1275</ele>
        <time>2024-07-09T07:23:27.000Z</time>
      </trkpt>
      <trkpt lat="42.76429" lon="1.58519">
        <ele>1275.8000488281</ele>
        <time>2024-07-09T07:23:35.000Z</time>
      </trkpt>
      <trkpt lat="42.76425" lon="1.58525">
        <ele>1277</ele>
        <time>2024-07-09T07:23:45.000Z</time>
      </trkpt>
      <trkpt lat="42.76422" lon="1.58528">
        <ele>1277.5999755859</ele>
        <time>2024-07-09T07:23:54.000Z</time>
      </trkpt>
      <trkpt lat="42.76417" lon="1.58533">
        <ele>1279.4000244141</ele>
        <time>2024-07-09T07:24:02.000Z</time>
      </trkpt>
      <trkpt lat="42.76413" lon="1.58536">
        <ele>1280.5999755859</ele>
        <time>2024-07-09T07:24:09.000Z</time>
      </trkpt>
      <trkpt lat="42.76409" lon="1.5854">
        <ele>1282.1999511719</ele>
        <time>2024-07-09T07:24:16.000Z</time>
      </trkpt>
      <trkpt lat="42.76406" lon="1.58541">
        <ele>1282.8000488281</ele>
        <time>2024-07-09T07:24:22.000Z</time>
      </trkpt>
      <trkpt lat="42.76402" lon="1.58546">
        <ele>1284.8000488281</ele>
        <time>2024-07-09T07:24:28.000Z</time>
      </trkpt>
      <trkpt lat="42.76397" lon="1.58555">
        <ele>1288</ele>
        <time>2024-07-09T07:24:36.000Z</time>
      </trkpt>
      <trkpt lat="42.76392" lon="1.58556">
        <ele>1288.8000488281</ele>
        <time>2024-07-09T07:24:42.000Z</time>
      </trkpt>
      <trkpt lat="42.76389" lon="1.5856">
        <ele>1290.8000488281</ele>
        <time>2024-07-09T07:24:49.000Z</time>
      </trkpt>
      <trkpt lat="42.76387" lon="1.58561">
        <ele>1291.4000244141</ele>
        <time>2024-07-09T07:24:54.000Z</time>
      </trkpt>
      <trkpt lat="42.7638" lon="1.58564">
        <ele>1293.1999511719</ele>
        <time>2024-07-09T07:25:03.000Z</time>
      </trkpt>
      <trkpt lat="42.76376" lon="1.58569">
        <ele>1295.5999755859</ele>
        <time>2024-07-09T07:25:12.000Z</time>
      </trkpt>
      <trkpt lat="42.76372" lon="1.58569">
        <ele>1297</ele>
        <time>2024-07-09T07:25:19.000Z</time>
      </trkpt>
      <trkpt lat="42.76362" lon="1.58571">
        <ele>1298.8000488281</ele>
        <time>2024-07-09T07:25:29.000Z</time>
      </trkpt>
      <trkpt lat="42.76356" lon="1.58571">
        <ele>1299</ele>
        <time>2024-07-09T07:25:38.000Z</time>
      </trkpt>
      <trkpt lat="42.7635" lon="1.58572">
        <ele>1299.8000488281</ele>
        <time>2024-07-09T07:25:46.000Z</time>
      </trkpt>
      <trkpt lat="42.76347" lon="1.5857">
        <ele>1298.5999755859</ele>
        <time>2024-07-09T07:25:54.000Z</time>
      </trkpt>
      <trkpt lat="42.76345" lon="1.5857">
        <ele>1298.8000488281</ele>
        <time>2024-07-09T07:26:00.000Z</time>
      </trkpt>
      <trkpt lat="42.76343" lon="1.5857">
        <ele>1298.5999755859</ele>
        <time>2024-07-09T07:26:02.000Z</time>
      </trkpt>
      <trkpt lat="42.76341" lon="1.58569">
        <ele>1298.5999755859</ele>
        <time>2024-07-09T07:26:05.000Z</time>
      </trkpt>
      <trkpt lat="42.76338" lon="1.58569">
        <ele>1298.5999755859</ele>
        <time>2024-07-09T07:26:11.000Z</time>
      </trkpt>
      <trkpt lat="42.76336" lon="1.58569">
        <ele>1298.5999755859</ele>
        <time>2024-07-09T07:26:14.000Z</time>
      </trkpt>
      <trkpt lat="42.76334" lon="1.5857">
        <ele>1299</ele>
        <time>2024-07-09T07:26:17.000Z</time>
      </trkpt>
      <trkpt lat="42.76332" lon="1.5857">
        <ele>1299</ele>
        <time>2024-07-09T07:26:21.000Z</time>
      </trkpt>
      <trkpt lat="42.76328" lon="1.58574">
        <ele>1300.8000488281</ele>
        <time>2024-07-09T07:26:28.000Z</time>
      </trkpt>
      <trkpt lat="42.76325" lon="1.58581">
        <ele>1303.5999755859</ele>
        <time>2024-07-09T07:26:35.000Z</time>
      </trkpt>
      <trkpt lat="42.7632" lon="1.58584">
        <ele>1305</ele>
        <time>2024-07-09T07:26:41.000Z</time>
      </trkpt>
      <trkpt lat="42.76316" lon="1.58581">
        <ele>1304.1999511719</ele>
        <time>2024-07-09T07:26:46.000Z</time>
      </trkpt>
      <trkpt lat="42.76315" lon="1.58581">
        <ele>1304</ele>
        <time>2024-07-09T07:26:48.000Z</time>
      </trkpt>
      <trkpt lat="42.76309" lon="1.5858">
        <ele>1304.5999755859</ele>
        <time>2024-07-09T07:26:55.000Z</time>
      </trkpt>
      <trkpt lat="42.76305" lon="1.5858">
        <ele>1305.8000488281</ele>
        <time>2024-07-09T07:27:01.000Z</time>
      </trkpt>
      <trkpt lat="42.76304" lon="1.58585">
        <ele>1308.4000244141</ele>
        <time>2024-07-09T07:27:10.000Z</time>
      </trkpt>
      <trkpt lat="42.76303" lon="1.58587">
        <ele>1309</ele>
        <time>2024-07-09T07:27:15.000Z</time>
      </trkpt>
      <trkpt lat="42.76305" lon="1.58588">
        <ele>1309</ele>
        <time>2024-07-09T07:27:23.000Z</time>
      </trkpt>
      <trkpt lat="42.76309" lon="1.58593">
        <ele>1309.5999755859</ele>
        <time>2024-07-09T07:27:30.000Z</time>
      </trkpt>
      <trkpt lat="42.76312" lon="1.58598">
        <ele>1310.1999511719</ele>
        <time>2024-07-09T07:27:37.000Z</time>
      </trkpt>
      <trkpt lat="42.76315" lon="1.58601">
        <ele>1311</ele>
        <time>2024-07-09T07:27:44.000Z</time>
      </trkpt>
      <trkpt lat="42.76319" lon="1.58605">
        <ele>1312.4000244141</ele>
        <time>2024-07-09T07:27:49.000Z</time>
      </trkpt>
      <trkpt lat="42.7632" lon="1.58611">
        <ele>1314.1999511719</ele>
        <time>2024-07-09T07:27:57.000Z</time>
      </trkpt>
      <trkpt lat="42.76322" lon="1.58614">
        <ele>1315</ele>
        <time>2024-07-09T07:28:03.000Z</time>
      </trkpt>
      <trkpt lat="42.76327" lon="1.58619">
        <ele>1316.5999755859</ele>
        <time>2024-07-09T07:28:09.000Z</time>
      </trkpt>
      <trkpt lat="42.76331" lon="1.58622">
        <ele>1317.5999755859</ele>
        <time>2024-07-09T07:28:15.000Z</time>
      </trkpt>
      <trkpt lat="42.76336" lon="1.58631">
        <ele>1320</ele>
        <time>2024-07-09T07:28:23.000Z</time>
      </trkpt>
      <trkpt lat="42.76339" lon="1.58638">
        <ele>1322</ele>
        <time>2024-07-09T07:28:30.000Z</time>
      </trkpt>
      <trkpt lat="42.76339" lon="1.58636">
        <ele>1321.4000244141</ele>
        <time>2024-07-09T07:28:33.000Z</time>
      </trkpt>
      <trkpt lat="42.76345" lon="1.5864">
        <ele>1322.1999511719</ele>
        <time>2024-07-09T07:28:41.000Z</time>
      </trkpt>
      <trkpt lat="42.76349" lon="1.58641">
        <ele>1322.4000244141</ele>
        <time>2024-07-09T07:28:47.000Z</time>
      </trkpt>
      <trkpt lat="42.76353" lon="1.58644">
        <ele>1323</ele>
        <time>2024-07-09T07:28:54.000Z</time>
      </trkpt>
      <trkpt lat="42.76354" lon="1.58647">
        <ele>1323.8000488281</ele>
        <time>2024-07-09T07:28:59.000Z</time>
      </trkpt>
      <trkpt lat="42.76356" lon="1.5865">
        <ele>1324.5999755859</ele>
        <time>2024-07-09T07:29:01.000Z</time>
      </trkpt>
      <trkpt lat="42.7636" lon="1.58652">
        <ele>1325</ele>
        <time>2024-07-09T07:29:06.000Z</time>
      </trkpt>
      <trkpt lat="42.76363" lon="1.58654">
        <ele>1325.5999755859</ele>
        <time>2024-07-09T07:29:12.000Z</time>
      </trkpt>
      <trkpt lat="42.76368" lon="1.58658">
        <ele>1326.5999755859</ele>
        <time>2024-07-09T07:29:17.000Z</time>
      </trkpt>
      <trkpt lat="42.76373" lon="1.58664">
        <ele>1327.8000488281</ele>
        <time>2024-07-09T07:29:27.000Z</time>
      </trkpt>
      <trkpt lat="42.76376" lon="1.58669">
        <ele>1329.1999511719</ele>
        <time>2024-07-09T07:29:33.000Z</time>
      </trkpt>
      <trkpt lat="42.76378" lon="1.5867">
        <ele>1329.5999755859</ele>
        <time>2024-07-09T07:29:40.000Z</time>
      </trkpt>
      <trkpt lat="42.76386" lon="1.58677">
        <ele>1331.4000244141</ele>
        <time>2024-07-09T07:29:48.000Z</time>
      </trkpt>
      <trkpt lat="42.7639" lon="1.58682">
        <ele>1333</ele>
        <time>2024-07-09T07:29:54.000Z</time>
      </trkpt>
      <trkpt lat="42.76391" lon="1.58683">
        <ele>1333.5999755859</ele>
        <time>2024-07-09T07:29:59.000Z</time>
      </trkpt>
      <trkpt lat="42.76395" lon="1.58688">
        <ele>1335.1999511719</ele>
        <time>2024-07-09T07:30:08.000Z</time>
      </trkpt>
      <trkpt lat="42.76399" lon="1.58692">
        <ele>1336.5999755859</ele>
        <time>2024-07-09T07:30:14.000Z</time>
      </trkpt>
      <trkpt lat="42.764" lon="1.58696">
        <ele>1338</ele>
        <time>2024-07-09T07:30:20.000Z</time>
      </trkpt>
      <trkpt lat="42.76403" lon="1.58701">
        <ele>1339.8000488281</ele>
        <time>2024-07-09T07:30:27.000Z</time>
      </trkpt>
      <trkpt lat="42.76409" lon="1.5871">
        <ele>1342.1999511719</ele>
        <time>2024-07-09T07:30:39.000Z</time>
      </trkpt>
      <trkpt lat="42.76414" lon="1.58714">
        <ele>1343.4000244141</ele>
        <time>2024-07-09T07:30:46.000Z</time>
      </trkpt>
      <trkpt lat="42.76418" lon="1.58721">
        <ele>1345.1999511719</ele>
        <time>2024-07-09T07:30:54.000Z</time>
      </trkpt>
      <trkpt lat="42.76422" lon="1.58726">
        <ele>1347</ele>
        <time>2024-07-09T07:31:01.000Z</time>
      </trkpt>
      <trkpt lat="42.76428" lon="1.58732">
        <ele>1348</ele>
        <time>2024-07-09T07:31:09.000Z</time>
      </trkpt>
      <trkpt lat="42.76434" lon="1.58738">
        <ele>1348.8000488281</ele>
        <time>2024-07-09T07:31:17.000Z</time>
      </trkpt>
      <trkpt lat="42.76439" lon="1.58742">
        <ele>1349.4000244141</ele>
        <time>2024-07-09T07:31:24.000Z</time>
      </trkpt>
      <trkpt lat="42.76443" lon="1.58748">
        <ele>1350.8000488281</ele>
        <time>2024-07-09T07:31:32.000Z</time>
      </trkpt>
      <trkpt lat="42.76449" lon="1.58759">
        <ele>1353.1999511719</ele>
        <time>2024-07-09T07:31:40.000Z</time>
      </trkpt>
      <trkpt lat="42.76454" lon="1.58765">
        <ele>1354.1999511719</ele>
        <time>2024-07-09T07:31:47.000Z</time>
      </trkpt>
      <trkpt lat="42.76457" lon="1.58771">
        <ele>1355.4000244141</ele>
        <time>2024-07-09T07:31:54.000Z</time>
      </trkpt>
      <trkpt lat="42.7646" lon="1.58774">
        <ele>1355.8000488281</ele>
        <time>2024-07-09T07:32:00.000Z</time>
      </trkpt>
      <trkpt lat="42.76464" lon="1.58781">
        <ele>1357</ele>
        <time>2024-07-09T07:32:07.000Z</time>
      </trkpt>
      <trkpt lat="42.76469" lon="1.58789">
        <ele>1358.5999755859</ele>
        <time>2024-07-09T07:32:18.000Z</time>
      </trkpt>
      <trkpt lat="42.76471" lon="1.58795">
        <ele>1359.8000488281</ele>
        <time>2024-07-09T07:32:26.000Z</time>
      </trkpt>
      <trkpt lat="42.7647" lon="1.58796">
        <ele>1360</ele>
        <time>2024-07-09T07:32:34.000Z</time>
      </trkpt>
      <trkpt lat="42.76472" lon="1.588">
        <ele>1361</ele>
        <time>2024-07-09T07:32:40.000Z</time>
      </trkpt>
      <trkpt lat="42.76475" lon="1.58807">
        <ele>1362.5999755859</ele>
        <time>2024-07-09T07:32:47.000Z</time>
      </trkpt>
      <trkpt lat="42.76478" lon="1.58817">
        <ele>1365</ele>
        <time>2024-07-09T07:32:56.000Z</time>
      </trkpt>
      <trkpt lat="42.76482" lon="1.58824">
        <ele>1366.4000244141</ele>
        <time>2024-07-09T07:33:04.000Z</time>
      </trkpt>
      <trkpt lat="42.76483" lon="1.58831">
        <ele>1368.4000244141</ele>
        <time>2024-07-09T07:33:11.000Z</time>
      </trkpt>
      <trkpt lat="42.76485" lon="1.58837">
        <ele>1370</ele>
        <time>2024-07-09T07:33:18.000Z</time>
      </trkpt>
      <trkpt lat="42.76488" lon="1.58845">
        <ele>1371</ele>
        <time>2024-07-09T07:33:27.000Z</time>
      </trkpt>
      <trkpt lat="42.76489" lon="1.58854">
        <ele>1373</ele>
        <time>2024-07-09T07:33:37.000Z</time>
      </trkpt>
      <trkpt lat="42.76489" lon="1.58859">
        <ele>1374</ele>
        <time>2024-07-09T07:33:44.000Z</time>
      </trkpt>
      <trkpt lat="42.76489" lon="1.58865">
        <ele>1375.4000244141</ele>
        <time>2024-07-09T07:33:50.000Z</time>
      </trkpt>
      <trkpt lat="42.76486" lon="1.58873">
        <ele>1377.4000244141</ele>
        <time>2024-07-09T07:34:00.000Z</time>
      </trkpt>
      <trkpt lat="42.76483" lon="1.58877">
        <ele>1378.5999755859</ele>
        <time>2024-07-09T07:34:07.000Z</time>
      </trkpt>
      <trkpt lat="42.76484" lon="1.58884">
        <ele>1380</ele>
        <time>2024-07-09T07:34:15.000Z</time>
      </trkpt>
      <trkpt lat="42.76483" lon="1.58885">
        <ele>1380.1999511719</ele>
        <time>2024-07-09T07:34:22.000Z</time>
      </trkpt>
      <trkpt lat="42.76482" lon="1.58884">
        <ele>1380.1999511719</ele>
        <time>2024-07-09T07:34:30.000Z</time>
      </trkpt>
      <trkpt lat="42.76483" lon="1.58885">
        <ele>1380.1999511719</ele>
        <time>2024-07-09T07:34:36.000Z</time>
      </trkpt>
      <trkpt lat="42.76483" lon="1.58885">
        <ele>1380.1999511719</ele>
        <time>2024-07-09T07:34:42.000Z</time>
      </trkpt>
      <trkpt lat="42.76481" lon="1.58885">
        <ele>1380.4000244141</ele>
        <time>2024-07-09T07:37:42.000Z</time>
      </trkpt>
      <trkpt lat="42.76481" lon="1.58885">
        <ele>1380.4000244141</ele>
        <time>2024-07-09T07:37:57.000Z</time>
      </trkpt>
      <trkpt lat="42.76483" lon="1.58899">
        <ele>1383.1999511719</ele>
        <time>2024-07-09T07:39:04.000Z</time>
      </trkpt>
      <trkpt lat="42.76483" lon="1.58906">
        <ele>1385.1999511719</ele>
        <time>2024-07-09T07:39:12.000Z</time>
      </trkpt>
      <trkpt lat="42.76483" lon="1.58905">
        <ele>1385.1999511719</ele>
        <time>2024-07-09T07:39:20.000Z</time>
      </trkpt>
      <trkpt lat="42.76481" lon="1.58912">
        <ele>1387.8000488281</ele>
        <time>2024-07-09T07:39:30.000Z</time>
      </trkpt>
      <trkpt lat="42.76477" lon="1.58924">
        <ele>1391.8000488281</ele>
        <time>2024-07-09T07:39:40.000Z</time>
      </trkpt>
      <trkpt lat="42.76474" lon="1.58929">
        <ele>1393.8000488281</ele>
        <time>2024-07-09T07:39:47.000Z</time>
      </trkpt>
      <trkpt lat="42.7647" lon="1.58931">
        <ele>1395.8000488281</ele>
        <time>2024-07-09T07:39:56.000Z</time>
      </trkpt>
      <trkpt lat="42.76468" lon="1.58933">
        <ele>1396.8000488281</ele>
        <time>2024-07-09T07:40:02.000Z</time>
      </trkpt>
      <trkpt lat="42.76466" lon="1.58934">
        <ele>1398.1999511719</ele>
        <time>2024-07-09T07:40:10.000Z</time>
      </trkpt>
      <trkpt lat="42.76463" lon="1.58933">
        <ele>1399.5999755859</ele>
        <time>2024-07-09T07:40:18.000Z</time>
      </trkpt>
      <trkpt lat="42.76462" lon="1.58932">
        <ele>1399.8000488281</ele>
        <time>2024-07-09T07:40:24.000Z</time>
      </trkpt>
      <trkpt lat="42.76458" lon="1.58931">
        <ele>1401.4000244141</ele>
        <time>2024-07-09T07:40:29.000Z</time>
      </trkpt>
      <trkpt lat="42.76455" lon="1.5893">
        <ele>1402.8000488281</ele>
        <time>2024-07-09T07:40:37.000Z</time>
      </trkpt>
      <trkpt lat="42.76453" lon="1.58932">
        <ele>1404.4000244141</ele>
        <time>2024-07-09T07:40:45.000Z</time>
      </trkpt>
      <trkpt lat="42.7645" lon="1.58929">
        <ele>1404.8000488281</ele>
        <time>2024-07-09T07:40:54.000Z</time>
      </trkpt>
      <trkpt lat="42.76449" lon="1.58929">
        <ele>1405</ele>
        <time>2024-07-09T07:41:01.000Z</time>
      </trkpt>
      <trkpt lat="42.76445" lon="1.58926">
        <ele>1406</ele>
        <time>2024-07-09T07:41:14.000Z</time>
      </trkpt>
      <trkpt lat="42.7644" lon="1.58921">
        <ele>1407.1999511719</ele>
        <time>2024-07-09T07:41:21.000Z</time>
      </trkpt>
      <trkpt lat="42.76438" lon="1.58914">
        <ele>1406.1999511719</ele>
        <time>2024-07-09T07:41:29.000Z</time>
      </trkpt>
      <trkpt lat="42.76435" lon="1.58909">
        <ele>1405.8000488281</ele>
        <time>2024-07-09T07:41:36.000Z</time>
      </trkpt>
      <trkpt lat="42.76433" lon="1.58908">
        <ele>1406</ele>
        <time>2024-07-09T07:41:42.000Z</time>
      </trkpt>
      <trkpt lat="42.76431" lon="1.5891">
        <ele>1407.8000488281</ele>
        <time>2024-07-09T07:41:48.000Z</time>
      </trkpt>
      <trkpt lat="42.76429" lon="1.58914">
        <ele>1409.5999755859</ele>
        <time>2024-07-09T07:41:57.000Z</time>
      </trkpt>
      <trkpt lat="42.76424" lon="1.58913">
        <ele>1411</ele>
        <time>2024-07-09T07:42:05.000Z</time>
      </trkpt>
      <trkpt lat="42.76421" lon="1.58911">
        <ele>1411.8000488281</ele>
        <time>2024-07-09T07:42:11.000Z</time>
      </trkpt>
      <trkpt lat="42.76419" lon="1.58911">
        <ele>1412.1999511719</ele>
        <time>2024-07-09T07:42:18.000Z</time>
      </trkpt>
      <trkpt lat="42.76413" lon="1.58913">
        <ele>1414.1999511719</ele>
        <time>2024-07-09T07:42:28.000Z</time>
      </trkpt>
      <trkpt lat="42.76411" lon="1.58915">
        <ele>1415</ele>
        <time>2024-07-09T07:42:33.000Z</time>
      </trkpt>
      <trkpt lat="42.76407" lon="1.58914">
        <ele>1415.8000488281</ele>
        <time>2024-07-09T07:42:42.000Z</time>
      </trkpt>
      <trkpt lat="42.76404" lon="1.58914">
        <ele>1416.4000244141</ele>
        <time>2024-07-09T07:42:49.000Z</time>
      </trkpt>
      <trkpt lat="42.76401" lon="1.58912">
        <ele>1416.8000488281</ele>
        <time>2024-07-09T07:42:57.000Z</time>
      </trkpt>
      <trkpt lat="42.76399" lon="1.58912">
        <ele>1417.1999511719</ele>
        <time>2024-07-09T07:43:02.000Z</time>
      </trkpt>
      <trkpt lat="42.76398" lon="1.58913">
        <ele>1417.5999755859</ele>
        <time>2024-07-09T07:43:09.000Z</time>
      </trkpt>
      <trkpt lat="42.76399" lon="1.5892">
        <ele>1418.5999755859</ele>
        <time>2024-07-09T07:43:17.000Z</time>
      </trkpt>
      <trkpt lat="42.764" lon="1.58924">
        <ele>1419</ele>
        <time>2024-07-09T07:43:27.000Z</time>
      </trkpt>
      <trkpt lat="42.76402" lon="1.58925">
        <ele>1419</ele>
        <time>2024-07-09T07:43:33.000Z</time>
      </trkpt>
      <trkpt lat="42.76402" lon="1.5893">
        <ele>1420.4000244141</ele>
        <time>2024-07-09T07:43:41.000Z</time>
      </trkpt>
      <trkpt lat="42.76402" lon="1.58932">
        <ele>1420.8000488281</ele>
        <time>2024-07-09T07:43:46.000Z</time>
      </trkpt>
      <trkpt lat="42.76403" lon="1.58936">
        <ele>1421.8000488281</ele>
        <time>2024-07-09T07:43:53.000Z</time>
      </trkpt>
      <trkpt lat="42.76403" lon="1.58939">
        <ele>1422.5999755859</ele>
        <time>2024-07-09T07:43:58.000Z</time>
      </trkpt>
      <trkpt lat="42.76404" lon="1.58946">
        <ele>1424</ele>
        <time>2024-07-09T07:44:07.000Z</time>
      </trkpt>
      <trkpt lat="42.76403" lon="1.58954">
        <ele>1426</ele>
        <time>2024-07-09T07:44:18.000Z</time>
      </trkpt>
      <trkpt lat="42.764" lon="1.58956">
        <ele>1427.1999511719</ele>
        <time>2024-07-09T07:44:24.000Z</time>
      </trkpt>
      <trkpt lat="42.76398" lon="1.58954">
        <ele>1427.5999755859</ele>
        <time>2024-07-09T07:44:31.000Z</time>
      </trkpt>
      <trkpt lat="42.76397" lon="1.58954">
        <ele>1427.8000488281</ele>
        <time>2024-07-09T07:44:37.000Z</time>
      </trkpt>
      <trkpt lat="42.76398" lon="1.58954">
        <ele>1427.8000488281</ele>
        <time>2024-07-09T07:44:43.000Z</time>
      </trkpt>
      <trkpt lat="42.76398" lon="1.58954">
        <ele>1427.4000244141</ele>
        <time>2024-07-09T07:44:52.000Z</time>
      </trkpt>
      <trkpt lat="42.76401" lon="1.58955">
        <ele>1426.8000488281</ele>
        <time>2024-07-09T07:45:34.000Z</time>
      </trkpt>
      <trkpt lat="42.76396" lon="1.58956">
        <ele>1428.5999755859</ele>
        <time>2024-07-09T07:45:55.000Z</time>
      </trkpt>
      <trkpt lat="42.76389" lon="1.58959">
        <ele>1429.5999755859</ele>
        <time>2024-07-09T07:46:02.000Z</time>
      </trkpt>
      <trkpt lat="42.7638" lon="1.58961">
        <ele>1431</ele>
        <time>2024-07-09T07:46:13.000Z</time>
      </trkpt>
      <trkpt lat="42.76372" lon="1.58961">
        <ele>1432.5999755859</ele>
        <time>2024-07-09T07:46:23.000Z</time>
      </trkpt>
      <trkpt lat="42.76366" lon="1.58963">
        <ele>1434.1999511719</ele>
        <time>2024-07-09T07:46:31.000Z</time>
      </trkpt>
      <trkpt lat="42.76357" lon="1.58967">
        <ele>1437.1999511719</ele>
        <time>2024-07-09T07:46:42.000Z</time>
      </trkpt>
      <trkpt lat="42.7635" lon="1.5897">
        <ele>1439.5999755859</ele>
        <time>2024-07-09T07:46:51.000Z</time>
      </trkpt>
      <trkpt lat="42.76346" lon="1.58974">
        <ele>1441.4000244141</ele>
        <time>2024-07-09T07:46:59.000Z</time>
      </trkpt>
      <trkpt lat="42.76342" lon="1.58977">
        <ele>1443.1999511719</ele>
        <time>2024-07-09T07:47:06.000Z</time>
      </trkpt>
      <trkpt lat="42.76336" lon="1.58982">
        <ele>1446.1999511719</ele>
        <time>2024-07-09T07:47:15.000Z</time>
      </trkpt>
      <trkpt lat="42.76333" lon="1.58984">
        <ele>1447.8000488281</ele>
        <time>2024-07-09T07:47:22.000Z</time>
      </trkpt>
      <trkpt lat="42.76331" lon="1.58985">
        <ele>1448.8000488281</ele>
        <time>2024-07-09T07:47:29.000Z</time>
      </trkpt>
      <trkpt lat="42.76326" lon="1.58986">
        <ele>1450.5999755859</ele>
        <time>2024-07-09T07:47:36.000Z</time>
      </trkpt>
      <trkpt lat="42.76322" lon="1.58987">
        <ele>1452</ele>
        <time>2024-07-09T07:47:43.000Z</time>
      </trkpt>
      <trkpt lat="42.76319" lon="1.58988">
        <ele>1453</ele>
        <time>2024-07-09T07:47:50.000Z</time>
      </trkpt>
      <trkpt lat="42.76315" lon="1.58991">
        <ele>1455</ele>
        <time>2024-07-09T07:47:58.000Z</time>
      </trkpt>
      <trkpt lat="42.7631" lon="1.58992">
        <ele>1457.1999511719</ele>
        <time>2024-07-09T07:48:06.000Z</time>
      </trkpt>
      <trkpt lat="42.76306" lon="1.58994">
        <ele>1459.1999511719</ele>
        <time>2024-07-09T07:48:12.000Z</time>
      </trkpt>
      <trkpt lat="42.763" lon="1.58993">
        <ele>1460.5999755859</ele>
        <time>2024-07-09T07:48:18.000Z</time>
      </trkpt>
      <trkpt lat="42.76298" lon="1.58994">
        <ele>1461.4000244141</ele>
        <time>2024-07-09T07:48:23.000Z</time>
      </trkpt>
      <trkpt lat="42.76295" lon="1.58996">
        <ele>1462.8000488281</ele>
        <time>2024-07-09T07:48:31.000Z</time>
      </trkpt>
      <trkpt lat="42.76292" lon="1.58999">
        <ele>1464.4000244141</ele>
        <time>2024-07-09T07:48:37.000Z</time>
      </trkpt>
      <trkpt lat="42.76288" lon="1.59001">
        <ele>1465.5999755859</ele>
        <time>2024-07-09T07:48:44.000Z</time>
      </trkpt>
      <trkpt lat="42.76283" lon="1.59004">
        <ele>1468.1999511719</ele>
        <time>2024-07-09T07:48:54.000Z</time>
      </trkpt>
      <trkpt lat="42.7628" lon="1.59003">
        <ele>1469</ele>
        <time>2024-07-09T07:49:00.000Z</time>
      </trkpt>
      <trkpt lat="42.76277" lon="1.59005">
        <ele>1471</ele>
        <time>2024-07-09T07:49:09.000Z</time>
      </trkpt>
      <trkpt lat="42.76274" lon="1.59008">
        <ele>1473</ele>
        <time>2024-07-09T07:49:17.000Z</time>
      </trkpt>
      <trkpt lat="42.76272" lon="1.59013">
        <ele>1475.4000244141</ele>
        <time>2024-07-09T07:49:28.000Z</time>
      </trkpt>
      <trkpt lat="42.76269" lon="1.59012">
        <ele>1476</ele>
        <time>2024-07-09T07:49:35.000Z</time>
      </trkpt>
      <trkpt lat="42.76264" lon="1.59012">
        <ele>1477.5999755859</ele>
        <time>2024-07-09T07:49:45.000Z</time>
      </trkpt>
      <trkpt lat="42.7626" lon="1.59012">
        <ele>1479</ele>
        <time>2024-07-09T07:49:54.000Z</time>
      </trkpt>
      <trkpt lat="42.76255" lon="1.59016">
        <ele>1480.5999755859</ele>
        <time>2024-07-09T07:50:07.000Z</time>
      </trkpt>
      <trkpt lat="42.76252" lon="1.59017">
        <ele>1481.1999511719</ele>
        <time>2024-07-09T07:50:16.000Z</time>
      </trkpt>
      <trkpt lat="42.76248" lon="1.59015">
        <ele>1481.1999511719</ele>
        <time>2024-07-09T07:50:27.000Z</time>
      </trkpt>
      <trkpt lat="42.76245" lon="1.59015">
        <ele>1481.5999755859</ele>
        <time>2024-07-09T07:50:37.000Z</time>
      </trkpt>
      <trkpt lat="42.76242" lon="1.59016">
        <ele>1482.1999511719</ele>
        <time>2024-07-09T07:50:43.000Z</time>
      </trkpt>
      <trkpt lat="42.76237" lon="1.59021">
        <ele>1483.1999511719</ele>
        <time>2024-07-09T07:50:52.000Z</time>
      </trkpt>
      <trkpt lat="42.76233" lon="1.59027">
        <ele>1484.1999511719</ele>
        <time>2024-07-09T07:51:00.000Z</time>
      </trkpt>
      <trkpt lat="42.76229" lon="1.59028">
        <ele>1484.8000488281</ele>
        <time>2024-07-09T07:51:07.000Z</time>
      </trkpt>
      <trkpt lat="42.76225" lon="1.59032">
        <ele>1485.8000488281</ele>
        <time>2024-07-09T07:51:14.000Z</time>
      </trkpt>
      <trkpt lat="42.7622" lon="1.59038">
        <ele>1487</ele>
        <time>2024-07-09T07:51:21.000Z</time>
      </trkpt>
      <trkpt lat="42.76213" lon="1.59043">
        <ele>1488.5999755859</ele>
        <time>2024-07-09T07:51:30.000Z</time>
      </trkpt>
      <trkpt lat="42.76206" lon="1.59051">
        <ele>1490.5999755859</ele>
        <time>2024-07-09T07:51:40.000Z</time>
      </trkpt>
      <trkpt lat="42.76201" lon="1.59052">
        <ele>1491.1999511719</ele>
        <time>2024-07-09T07:51:45.000Z</time>
      </trkpt>
      <trkpt lat="42.762" lon="1.59052">
        <ele>1491.4000244141</ele>
        <time>2024-07-09T07:51:47.000Z</time>
      </trkpt>
      <trkpt lat="42.76199" lon="1.59051">
        <ele>1491.5999755859</ele>
        <time>2024-07-09T07:51:48.000Z</time>
      </trkpt>
      <trkpt lat="42.76193" lon="1.59048">
        <ele>1492</ele>
        <time>2024-07-09T07:51:55.000Z</time>
      </trkpt>
      <trkpt lat="42.76185" lon="1.59045">
        <ele>1493.4000244141</ele>
        <time>2024-07-09T07:52:05.000Z</time>
      </trkpt>
      <trkpt lat="42.76178" lon="1.59046">
        <ele>1495.4000244141</ele>
        <time>2024-07-09T07:52:16.000Z</time>
      </trkpt>
      <trkpt lat="42.76173" lon="1.59046">
        <ele>1496.8000488281</ele>
        <time>2024-07-09T07:52:23.000Z</time>
      </trkpt>
      <trkpt lat="42.76168" lon="1.59044">
        <ele>1497.8000488281</ele>
        <time>2024-07-09T07:52:31.000Z</time>
      </trkpt>
      <trkpt lat="42.76165" lon="1.59043">
        <ele>1498.5999755859</ele>
        <time>2024-07-09T07:52:37.000Z</time>
      </trkpt>
      <trkpt lat="42.76161" lon="1.59043">
        <ele>1500.1999511719</ele>
        <time>2024-07-09T07:52:45.000Z</time>
      </trkpt>
      <trkpt lat="42.76158" lon="1.59044">
        <ele>1501.1999511719</ele>
        <time>2024-07-09T07:52:52.000Z</time>
      </trkpt>
      <trkpt lat="42.76157" lon="1.59045">
        <ele>1501.5999755859</ele>
        <time>2024-07-09T07:53:00.000Z</time>
      </trkpt>
      <trkpt lat="42.76157" lon="1.59045">
        <ele>1501.5999755859</ele>
        <time>2024-07-09T07:53:18.000Z</time>
      </trkpt>
      <trkpt lat="42.76148" lon="1.59072">
        <ele>1509.1999511719</ele>
        <time>2024-07-09T07:54:13.000Z</time>
      </trkpt>
      <trkpt lat="42.76145" lon="1.59086">
        <ele>1511.1999511719</ele>
        <time>2024-07-09T07:54:23.000Z</time>
      </trkpt>
      <trkpt lat="42.7614" lon="1.59097">
        <ele>1512</ele>
        <time>2024-07-09T07:54:34.000Z</time>
      </trkpt>
      <trkpt lat="42.76135" lon="1.59102">
        <ele>1512.5999755859</ele>
        <time>2024-07-09T07:54:41.000Z</time>
      </trkpt>
      <trkpt lat="42.76132" lon="1.59102">
        <ele>1513.4000244141</ele>
        <time>2024-07-09T07:54:45.000Z</time>
      </trkpt>
      <trkpt lat="42.76129" lon="1.59101">
        <ele>1513.8000488281</ele>
        <time>2024-07-09T07:54:49.000Z</time>
      </trkpt>
      <trkpt lat="42.76124" lon="1.59101">
        <ele>1515.1999511719</ele>
        <time>2024-07-09T07:54:56.000Z</time>
      </trkpt>
      <trkpt lat="42.7612" lon="1.59103">
        <ele>1516.4000244141</ele>
        <time>2024-07-09T07:55:04.000Z</time>
      </trkpt>
      <trkpt lat="42.76117" lon="1.59104">
        <ele>1517.1999511719</ele>
        <time>2024-07-09T07:55:11.000Z</time>
      </trkpt>
      <trkpt lat="42.7611" lon="1.59104">
        <ele>1518.1999511719</ele>
        <time>2024-07-09T07:55:19.000Z</time>
      </trkpt>
      <trkpt lat="42.76104" lon="1.59104">
        <ele>1519.8000488281</ele>
        <time>2024-07-09T07:55:28.000Z</time>
      </trkpt>
      <trkpt lat="42.76101" lon="1.59105">
        <ele>1521.1999511719</ele>
        <time>2024-07-09T07:55:35.000Z</time>
      </trkpt>
      <trkpt lat="42.76097" lon="1.59107">
        <ele>1523</ele>
        <time>2024-07-09T07:55:42.000Z</time>
      </trkpt>
      <trkpt lat="42.76094" lon="1.59111">
        <ele>1525.1999511719</ele>
        <time>2024-07-09T07:55:50.000Z</time>
      </trkpt>
      <trkpt lat="42.7609" lon="1.59112">
        <ele>1526.5999755859</ele>
        <time>2024-07-09T07:55:57.000Z</time>
      </trkpt>
      <trkpt lat="42.76089" lon="1.59112">
        <ele>1526.8000488281</ele>
        <time>2024-07-09T07:56:06.000Z</time>
      </trkpt>
      <trkpt lat="42.76089" lon="1.59112">
        <ele>1526.8000488281</ele>
        <time>2024-07-09T07:56:21.000Z</time>
      </trkpt>
      <trkpt lat="42.76077" lon="1.59116">
        <ele>1532</ele>
        <time>2024-07-09T08:04:07.000Z</time>
      </trkpt>
      <trkpt lat="42.76068" lon="1.59116">
        <ele>1534.8000488281</ele>
        <time>2024-07-09T08:04:14.000Z</time>
      </trkpt>
      <trkpt lat="42.76065" lon="1.59113">
        <ele>1535</ele>
        <time>2024-07-09T08:04:19.000Z</time>
      </trkpt>
      <trkpt lat="42.76063" lon="1.59113">
        <ele>1535.5999755859</ele>
        <time>2024-07-09T08:04:24.000Z</time>
      </trkpt>
      <trkpt lat="42.76061" lon="1.59113">
        <ele>1536.4000244141</ele>
        <time>2024-07-09T08:04:31.000Z</time>
      </trkpt>
      <trkpt lat="42.76058" lon="1.59113">
        <ele>1537.1999511719</ele>
        <time>2024-07-09T08:04:37.000Z</time>
      </trkpt>
      <trkpt lat="42.76052" lon="1.5911">
        <ele>1538</ele>
        <time>2024-07-09T08:04:46.000Z</time>
      </trkpt>
      <trkpt lat="42.7605" lon="1.59111">
        <ele>1539.1999511719</ele>
        <time>2024-07-09T08:04:53.000Z</time>
      </trkpt>
      <trkpt lat="42.76049" lon="1.59116">
        <ele>1541.5999755859</ele>
        <time>2024-07-09T08:05:00.000Z</time>
      </trkpt>
      <trkpt lat="42.76046" lon="1.59119">
        <ele>1543.5999755859</ele>
        <time>2024-07-09T08:05:09.000Z</time>
      </trkpt>
      <trkpt lat="42.76044" lon="1.5912">
        <ele>1544.5999755859</ele>
        <time>2024-07-09T08:05:16.000Z</time>
      </trkpt>
      <trkpt lat="42.76042" lon="1.59121">
        <ele>1545.5999755859</ele>
        <time>2024-07-09T08:05:23.000Z</time>
      </trkpt>
      <trkpt lat="42.7604" lon="1.59119">
        <ele>1546</ele>
        <time>2024-07-09T08:05:30.000Z</time>
      </trkpt>
      <trkpt lat="42.76035" lon="1.59118">
        <ele>1547.1999511719</ele>
        <time>2024-07-09T08:05:38.000Z</time>
      </trkpt>
      <trkpt lat="42.7603" lon="1.59119">
        <ele>1549.1999511719</ele>
        <time>2024-07-09T08:05:47.000Z</time>
      </trkpt>
      <trkpt lat="42.76025" lon="1.59123">
        <ele>1551.4000244141</ele>
        <time>2024-07-09T08:05:55.000Z</time>
      </trkpt>
      <trkpt lat="42.76021" lon="1.59124">
        <ele>1553</ele>
        <time>2024-07-09T08:06:03.000Z</time>
      </trkpt>
      <trkpt lat="42.76016" lon="1.59126">
        <ele>1554.8000488281</ele>
        <time>2024-07-09T08:06:13.000Z</time>
      </trkpt>
      <trkpt lat="42.76013" lon="1.59128">
        <ele>1556.4000244141</ele>
        <time>2024-07-09T08:06:21.000Z</time>
      </trkpt>
      <trkpt lat="42.76008" lon="1.59131">
        <ele>1558</ele>
        <time>2024-07-09T08:06:31.000Z</time>
      </trkpt>
      <trkpt lat="42.76004" lon="1.59133">
        <ele>1559.5999755859</ele>
        <time>2024-07-09T08:06:39.000Z</time>
      </trkpt>
      <trkpt lat="42.76001" lon="1.59133">
        <ele>1560.4000244141</ele>
        <time>2024-07-09T08:06:45.000Z</time>
      </trkpt>
      <trkpt lat="42.75999" lon="1.59133">
        <ele>1560.8000488281</ele>
        <time>2024-07-09T08:06:50.000Z</time>
      </trkpt>
      <trkpt lat="42.75996" lon="1.59133">
        <ele>1562</ele>
        <time>2024-07-09T08:06:56.000Z</time>
      </trkpt>
      <trkpt lat="42.75993" lon="1.59133">
        <ele>1562.8000488281</ele>
        <time>2024-07-09T08:07:02.000Z</time>
      </trkpt>
      <trkpt lat="42.7599" lon="1.59133">
        <ele>1564</ele>
        <time>2024-07-09T08:07:10.000Z</time>
      </trkpt>
      <trkpt lat="42.7599" lon="1.59138">
        <ele>1565.4000244141</ele>
        <time>2024-07-09T08:07:18.000Z</time>
      </trkpt>
      <trkpt lat="42.75988" lon="1.59137">
        <ele>1565.8000488281</ele>
        <time>2024-07-09T08:07:25.000Z</time>
      </trkpt>
      <trkpt lat="42.75987" lon="1.5914">
        <ele>1567.1999511719</ele>
        <time>2024-07-09T08:07:33.000Z</time>
      </trkpt>
      <trkpt lat="42.75982" lon="1.59138">
        <ele>1568</ele>
        <time>2024-07-09T08:07:41.000Z</time>
      </trkpt>
      <trkpt lat="42.75979" lon="1.59139">
        <ele>1569.1999511719</ele>
        <time>2024-07-09T08:07:49.000Z</time>
      </trkpt>
      <trkpt lat="42.75979" lon="1.5914">
        <ele>1569.4000244141</ele>
        <time>2024-07-09T08:08:04.000Z</time>
      </trkpt>
      <trkpt lat="42.75973" lon="1.59146">
        <ele>1571.8000488281</ele>
        <time>2024-07-09T08:08:24.000Z</time>
      </trkpt>
      <trkpt lat="42.75969" lon="1.59151">
        <ele>1573.5999755859</ele>
        <time>2024-07-09T08:08:31.000Z</time>
      </trkpt>
      <trkpt lat="42.75965" lon="1.59154">
        <ele>1574.8000488281</ele>
        <time>2024-07-09T08:08:41.000Z</time>
      </trkpt>
      <trkpt lat="42.7596" lon="1.59151">
        <ele>1575</ele>
        <time>2024-07-09T08:08:49.000Z</time>
      </trkpt>
      <trkpt lat="42.75957" lon="1.5915">
        <ele>1575</ele>
        <time>2024-07-09T08:08:55.000Z</time>
      </trkpt>
      <trkpt lat="42.75952" lon="1.59151">
        <ele>1575.5999755859</ele>
        <time>2024-07-09T08:09:02.000Z</time>
      </trkpt>
      <trkpt lat="42.75951" lon="1.59155">
        <ele>1576.5999755859</ele>
        <time>2024-07-09T08:09:09.000Z</time>
      </trkpt>
      <trkpt lat="42.7595" lon="1.59155">
        <ele>1576.5999755859</ele>
        <time>2024-07-09T08:09:14.000Z</time>
      </trkpt>
      <trkpt lat="42.75947" lon="1.59154">
        <ele>1576.5999755859</ele>
        <time>2024-07-09T08:09:21.000Z</time>
      </trkpt>
      <trkpt lat="42.75947" lon="1.59154">
        <ele>1576.5999755859</ele>
        <time>2024-07-09T08:09:31.000Z</time>
      </trkpt>
      <trkpt lat="42.75945" lon="1.59162">
        <ele>1578.1999511719</ele>
        <time>2024-07-09T08:15:51.000Z</time>
      </trkpt>
      <trkpt lat="42.75939" lon="1.59172">
        <ele>1581.1999511719</ele>
        <time>2024-07-09T08:16:01.000Z</time>
      </trkpt>
      <trkpt lat="42.75932" lon="1.59177">
        <ele>1582.8000488281</ele>
        <time>2024-07-09T08:16:08.000Z</time>
      </trkpt>
      <trkpt lat="42.75932" lon="1.59177">
        <ele>1583</ele>
        <time>2024-07-09T08:16:09.000Z</time>
      </trkpt>
      <trkpt lat="42.75923" lon="1.59178">
        <ele>1585.1999511719</ele>
        <time>2024-07-09T08:16:20.000Z</time>
      </trkpt>
      <trkpt lat="42.75918" lon="1.5918">
        <ele>1587.4000244141</ele>
        <time>2024-07-09T08:16:28.000Z</time>
      </trkpt>
      <trkpt lat="42.75916" lon="1.59181">
        <ele>1588.4000244141</ele>
        <time>2024-07-09T08:16:34.000Z</time>
      </trkpt>
      <trkpt lat="42.75912" lon="1.59182">
        <ele>1590</ele>
        <time>2024-07-09T08:16:40.000Z</time>
      </trkpt>
      <trkpt lat="42.75908" lon="1.59183">
        <ele>1591.8000488281</ele>
        <time>2024-07-09T08:16:48.000Z</time>
      </trkpt>
      <trkpt lat="42.75905" lon="1.59186">
        <ele>1594.4000244141</ele>
        <time>2024-07-09T08:16:55.000Z</time>
      </trkpt>
      <trkpt lat="42.75903" lon="1.59192">
        <ele>1597.1999511719</ele>
        <time>2024-07-09T08:17:04.000Z</time>
      </trkpt>
      <trkpt lat="42.75898" lon="1.59196">
        <ele>1600.8000488281</ele>
        <time>2024-07-09T08:17:13.000Z</time>
      </trkpt>
      <trkpt lat="42.75894" lon="1.59198">
        <ele>1602.4000244141</ele>
        <time>2024-07-09T08:17:20.000Z</time>
      </trkpt>
      <trkpt lat="42.75888" lon="1.59203">
        <ele>1604.1999511719</ele>
        <time>2024-07-09T08:17:30.000Z</time>
      </trkpt>
      <trkpt lat="42.75887" lon="1.59204">
        <ele>1604.5999755859</ele>
        <time>2024-07-09T08:17:36.000Z</time>
      </trkpt>
      <trkpt lat="42.75882" lon="1.5921">
        <ele>1606.1999511719</ele>
        <time>2024-07-09T08:17:47.000Z</time>
      </trkpt>
      <trkpt lat="42.75879" lon="1.59214">
        <ele>1607.1999511719</ele>
        <time>2024-07-09T08:17:54.000Z</time>
      </trkpt>
      <trkpt lat="42.75876" lon="1.59218">
        <ele>1608.1999511719</ele>
        <time>2024-07-09T08:18:02.000Z</time>
      </trkpt>
      <trkpt lat="42.75871" lon="1.59224">
        <ele>1609.5999755859</ele>
        <time>2024-07-09T08:18:12.000Z</time>
      </trkpt>
      <trkpt lat="42.75866" lon="1.59228">
        <ele>1610.8000488281</ele>
        <time>2024-07-09T08:18:21.000Z</time>
      </trkpt>
      <trkpt lat="42.75862" lon="1.5923">
        <ele>1611.5999755859</ele>
        <time>2024-07-09T08:18:27.000Z</time>
      </trkpt>
      <trkpt lat="42.75858" lon="1.59234">
        <ele>1612.8000488281</ele>
        <time>2024-07-09T08:18:36.000Z</time>
      </trkpt>
      <trkpt lat="42.75852" lon="1.59239">
        <ele>1614.4000244141</ele>
        <time>2024-07-09T08:18:45.000Z</time>
      </trkpt>
      <trkpt lat="42.75845" lon="1.59246">
        <ele>1617</ele>
        <time>2024-07-09T08:18:58.000Z</time>
      </trkpt>
      <trkpt lat="42.75841" lon="1.59251">
        <ele>1618.4000244141</ele>
        <time>2024-07-09T08:19:06.000Z</time>
      </trkpt>
      <trkpt lat="42.75837" lon="1.59254">
        <ele>1619.4000244141</ele>
        <time>2024-07-09T08:19:13.000Z</time>
      </trkpt>
      <trkpt lat="42.75831" lon="1.5926">
        <ele>1620.4000244141</ele>
        <time>2024-07-09T08:19:22.000Z</time>
      </trkpt>
      <trkpt lat="42.75826" lon="1.59264">
        <ele>1621.1999511719</ele>
        <time>2024-07-09T08:19:29.000Z</time>
      </trkpt>
      <trkpt lat="42.7582" lon="1.59271">
        <ele>1622.8000488281</ele>
        <time>2024-07-09T08:19:39.000Z</time>
      </trkpt>
      <trkpt lat="42.75815" lon="1.59279">
        <ele>1624.5999755859</ele>
        <time>2024-07-09T08:19:47.000Z</time>
      </trkpt>
      <trkpt lat="42.75808" lon="1.59287">
        <ele>1625.5999755859</ele>
        <time>2024-07-09T08:19:59.000Z</time>
      </trkpt>
      <trkpt lat="42.75803" lon="1.59293">
        <ele>1626</ele>
        <time>2024-07-09T08:20:07.000Z</time>
      </trkpt>
      <trkpt lat="42.75798" lon="1.59299">
        <ele>1627</ele>
        <time>2024-07-09T08:20:15.000Z</time>
      </trkpt>
      <trkpt lat="42.75794" lon="1.59306">
        <ele>1628.4000244141</ele>
        <time>2024-07-09T08:20:22.000Z</time>
      </trkpt>
      <trkpt lat="42.7579" lon="1.59314">
        <ele>1629.4000244141</ele>
        <time>2024-07-09T08:20:30.000Z</time>
      </trkpt>
      <trkpt lat="42.75787" lon="1.59319">
        <ele>1630.5999755859</ele>
        <time>2024-07-09T08:20:35.000Z</time>
      </trkpt>
      <trkpt lat="42.75783" lon="1.59324">
        <ele>1632</ele>
        <time>2024-07-09T08:20:41.000Z</time>
      </trkpt>
      <trkpt lat="42.75778" lon="1.59332">
        <ele>1633.5999755859</ele>
        <time>2024-07-09T08:20:50.000Z</time>
      </trkpt>
      <trkpt lat="42.75771" lon="1.59345">
        <ele>1635.4000244141</ele>
        <time>2024-07-09T08:21:01.000Z</time>
      </trkpt>
      <trkpt lat="42.75765" lon="1.59354">
        <ele>1637</ele>
        <time>2024-07-09T08:21:11.000Z</time>
      </trkpt>
      <trkpt lat="42.75762" lon="1.59362">
        <ele>1638.4000244141</ele>
        <time>2024-07-09T08:21:19.000Z</time>
      </trkpt>
      <trkpt lat="42.75757" lon="1.59374">
        <ele>1639.4000244141</ele>
        <time>2024-07-09T08:21:28.000Z</time>
      </trkpt>
      <trkpt lat="42.7575" lon="1.59385">
        <ele>1638.1999511719</ele>
        <time>2024-07-09T08:21:37.000Z</time>
      </trkpt>
      <trkpt lat="42.75739" lon="1.59399">
        <ele>1638.1999511719</ele>
        <time>2024-07-09T08:21:50.000Z</time>
      </trkpt>
      <trkpt lat="42.7573" lon="1.59412">
        <ele>1639.1999511719</ele>
        <time>2024-07-09T08:22:01.000Z</time>
      </trkpt>
      <trkpt lat="42.75722" lon="1.59426">
        <ele>1639.4000244141</ele>
        <time>2024-07-09T08:22:12.000Z</time>
      </trkpt>
      <trkpt lat="42.75718" lon="1.59437">
        <ele>1639.8000488281</ele>
        <time>2024-07-09T08:22:20.000Z</time>
      </trkpt>
      <trkpt lat="42.75711" lon="1.59452">
        <ele>1641.1999511719</ele>
        <time>2024-07-09T08:22:30.000Z</time>
      </trkpt>
      <trkpt lat="42.75704" lon="1.59468">
        <ele>1643</ele>
        <time>2024-07-09T08:22:42.000Z</time>
      </trkpt>
      <trkpt lat="42.75699" lon="1.59477">
        <ele>1644</ele>
        <time>2024-07-09T08:22:50.000Z</time>
      </trkpt>
      <trkpt lat="42.75695" lon="1.59488">
        <ele>1644.1999511719</ele>
        <time>2024-07-09T08:22:58.000Z</time>
      </trkpt>
      <trkpt lat="42.75687" lon="1.595">
        <ele>1645.4000244141</ele>
        <time>2024-07-09T08:23:11.000Z</time>
      </trkpt>
      <trkpt lat="42.75685" lon="1.59505">
        <ele>1645.5999755859</ele>
        <time>2024-07-09T08:23:16.000Z</time>
      </trkpt>
      <trkpt lat="42.75684" lon="1.59505">
        <ele>1645.5999755859</ele>
        <time>2024-07-09T08:23:17.000Z</time>
      </trkpt>
      <trkpt lat="42.75681" lon="1.59508">
        <ele>1645.8000488281</ele>
        <time>2024-07-09T08:23:24.000Z</time>
      </trkpt>
      <trkpt lat="42.75678" lon="1.59511">
        <ele>1646.4000244141</ele>
        <time>2024-07-09T08:23:33.000Z</time>
      </trkpt>
      <trkpt lat="42.75676" lon="1.59514">
        <ele>1647.4000244141</ele>
        <time>2024-07-09T08:23:41.000Z</time>
      </trkpt>
      <trkpt lat="42.75671" lon="1.59521">
        <ele>1648.4000244141</ele>
        <time>2024-07-09T08:23:50.000Z</time>
      </trkpt>
      <trkpt lat="42.75669" lon="1.59529">
        <ele>1649.1999511719</ele>
        <time>2024-07-09T08:24:00.000Z</time>
      </trkpt>
      <trkpt lat="42.75664" lon="1.59542">
        <ele>1650.5999755859</ele>
        <time>2024-07-09T08:24:12.000Z</time>
      </trkpt>
      <trkpt lat="42.75662" lon="1.59549">
        <ele>1651.4000244141</ele>
        <time>2024-07-09T08:24:18.000Z</time>
      </trkpt>
      <trkpt lat="42.75659" lon="1.59559">
        <ele>1653.8000488281</ele>
        <time>2024-07-09T08:24:27.000Z</time>
      </trkpt>
      <trkpt lat="42.75653" lon="1.59572">
        <ele>1656.4000244141</ele>
        <time>2024-07-09T08:24:38.000Z</time>
      </trkpt>
      <trkpt lat="42.75648" lon="1.59587">
        <ele>1660.4000244141</ele>
        <time>2024-07-09T08:24:50.000Z</time>
      </trkpt>
      <trkpt lat="42.75646" lon="1.59594">
        <ele>1661.8000488281</ele>
        <time>2024-07-09T08:24:57.000Z</time>
      </trkpt>
      <trkpt lat="42.75643" lon="1.59602">
        <ele>1662.5999755859</ele>
        <time>2024-07-09T08:25:05.000Z</time>
      </trkpt>
      <trkpt lat="42.7564" lon="1.59609">
        <ele>1663.4000244141</ele>
        <time>2024-07-09T08:25:13.000Z</time>
      </trkpt>
      <trkpt lat="42.75636" lon="1.59619">
        <ele>1665</ele>
        <time>2024-07-09T08:25:24.000Z</time>
      </trkpt>
      <trkpt lat="42.75636" lon="1.59626">
        <ele>1665.5999755859</ele>
        <time>2024-07-09T08:25:32.000Z</time>
      </trkpt>
      <trkpt lat="42.75632" lon="1.59633">
        <ele>1666.8000488281</ele>
        <time>2024-07-09T08:25:40.000Z</time>
      </trkpt>
      <trkpt lat="42.75624" lon="1.59641">
        <ele>1668.4000244141</ele>
        <time>2024-07-09T08:25:52.000Z</time>
      </trkpt>
      <trkpt lat="42.75621" lon="1.5965">
        <ele>1670.1999511719</ele>
        <time>2024-07-09T08:26:03.000Z</time>
      </trkpt>
      <trkpt lat="42.75618" lon="1.59657">
        <ele>1672.4000244141</ele>
        <time>2024-07-09T08:26:11.000Z</time>
      </trkpt>
      <trkpt lat="42.75614" lon="1.59664">
        <ele>1673.8000488281</ele>
        <time>2024-07-09T08:26:20.000Z</time>
      </trkpt>
      <trkpt lat="42.75611" lon="1.59672">
        <ele>1675.1999511719</ele>
        <time>2024-07-09T08:26:29.000Z</time>
      </trkpt>
      <trkpt lat="42.75606" lon="1.5968">
        <ele>1676.4000244141</ele>
        <time>2024-07-09T08:26:39.000Z</time>
      </trkpt>
      <trkpt lat="42.75603" lon="1.59684">
        <ele>1677.1999511719</ele>
        <time>2024-07-09T08:26:46.000Z</time>
      </trkpt>
      <trkpt lat="42.75601" lon="1.59691">
        <ele>1679.1999511719</ele>
        <time>2024-07-09T08:26:56.000Z</time>
      </trkpt>
      <trkpt lat="42.75598" lon="1.59695">
        <ele>1680.4000244141</ele>
        <time>2024-07-09T08:27:03.000Z</time>
      </trkpt>
      <trkpt lat="42.75594" lon="1.59702">
        <ele>1681.5999755859</ele>
        <time>2024-07-09T08:27:11.000Z</time>
      </trkpt>
      <trkpt lat="42.75592" lon="1.59709">
        <ele>1683.8000488281</ele>
        <time>2024-07-09T08:27:18.000Z</time>
      </trkpt>
      <trkpt lat="42.75591" lon="1.59719">
        <ele>1686.5999755859</ele>
        <time>2024-07-09T08:27:27.000Z</time>
      </trkpt>
      <trkpt lat="42.75588" lon="1.5973">
        <ele>1688.4000244141</ele>
        <time>2024-07-09T08:27:36.000Z</time>
      </trkpt>
      <trkpt lat="42.75585" lon="1.59739">
        <ele>1689.4000244141</ele>
        <time>2024-07-09T08:27:44.000Z</time>
      </trkpt>
      <trkpt lat="42.75585" lon="1.59747">
        <ele>1690.1999511719</ele>
        <time>2024-07-09T08:27:52.000Z</time>
      </trkpt>
      <trkpt lat="42.75583" lon="1.59758">
        <ele>1691.5999755859</ele>
        <time>2024-07-09T08:28:03.000Z</time>
      </trkpt>
      <trkpt lat="42.75582" lon="1.59773">
        <ele>1692.8000488281</ele>
        <time>2024-07-09T08:28:15.000Z</time>
      </trkpt>
      <trkpt lat="42.75581" lon="1.59785">
        <ele>1693.4000244141</ele>
        <time>2024-07-09T08:28:25.000Z</time>
      </trkpt>
      <trkpt lat="42.75578" lon="1.59798">
        <ele>1693.4000244141</ele>
        <time>2024-07-09T08:28:35.000Z</time>
      </trkpt>
      <trkpt lat="42.75577" lon="1.59812">
        <ele>1693.5999755859</ele>
        <time>2024-07-09T08:28:44.000Z</time>
      </trkpt>
      <trkpt lat="42.75576" lon="1.59828">
        <ele>1693.4000244141</ele>
        <time>2024-07-09T08:28:57.000Z</time>
      </trkpt>
      <trkpt lat="42.75576" lon="1.59836">
        <ele>1693</ele>
        <time>2024-07-09T08:29:03.000Z</time>
      </trkpt>
      <trkpt lat="42.75573" lon="1.59849">
        <ele>1691.8000488281</ele>
        <time>2024-07-09T08:29:13.000Z</time>
      </trkpt>
      <trkpt lat="42.75568" lon="1.59861">
        <ele>1691.5999755859</ele>
        <time>2024-07-09T08:29:23.000Z</time>
      </trkpt>
      <trkpt lat="42.75562" lon="1.59873">
        <ele>1690.5999755859</ele>
        <time>2024-07-09T08:29:34.000Z</time>
      </trkpt>
      <trkpt lat="42.75557" lon="1.59887">
        <ele>1688</ele>
        <time>2024-07-09T08:29:46.000Z</time>
      </trkpt>
      <trkpt lat="42.75553" lon="1.59896">
        <ele>1686.8000488281</ele>
        <time>2024-07-09T08:29:57.000Z</time>
      </trkpt>
      <trkpt lat="42.75546" lon="1.59901">
        <ele>1685.8000488281</ele>
        <time>2024-07-09T08:30:05.000Z</time>
      </trkpt>
      <trkpt lat="42.75545" lon="1.59904">
        <ele>1685.4000244141</ele>
        <time>2024-07-09T08:30:07.000Z</time>
      </trkpt>
      <trkpt lat="42.75544" lon="1.59906">
        <ele>1685</ele>
        <time>2024-07-09T08:30:14.000Z</time>
      </trkpt>
      <trkpt lat="42.75545" lon="1.59906">
        <ele>1685.1999511719</ele>
        <time>2024-07-09T08:30:22.000Z</time>
      </trkpt>
      <trkpt lat="42.75537" lon="1.5991">
        <ele>1684.1999511719</ele>
        <time>2024-07-09T08:31:02.000Z</time>
      </trkpt>
      <trkpt lat="42.75535" lon="1.59915">
        <ele>1683.4000244141</ele>
        <time>2024-07-09T08:31:07.000Z</time>
      </trkpt>
      <trkpt lat="42.75531" lon="1.59922">
        <ele>1681.5999755859</ele>
        <time>2024-07-09T08:31:15.000Z</time>
      </trkpt>
      <trkpt lat="42.75526" lon="1.59931">
        <ele>1679.4000244141</ele>
        <time>2024-07-09T08:31:23.000Z</time>
      </trkpt>
      <trkpt lat="42.7552" lon="1.59941">
        <ele>1677.8000488281</ele>
        <time>2024-07-09T08:31:32.000Z</time>
      </trkpt>
      <trkpt lat="42.75514" lon="1.59949">
        <ele>1676.8000488281</ele>
        <time>2024-07-09T08:31:41.000Z</time>
      </trkpt>
      <trkpt lat="42.75513" lon="1.59949">
        <ele>1676.5999755859</ele>
        <time>2024-07-09T08:31:42.000Z</time>
      </trkpt>
      <trkpt lat="42.7551" lon="1.59954">
        <ele>1676.4000244141</ele>
        <time>2024-07-09T08:31:48.000Z</time>
      </trkpt>
      <trkpt lat="42.75509" lon="1.59963">
        <ele>1677</ele>
        <time>2024-07-09T08:31:55.000Z</time>
      </trkpt>
      <trkpt lat="42.75508" lon="1.59964">
        <ele>1677.1999511719</ele>
        <time>2024-07-09T08:31:56.000Z</time>
      </trkpt>
      <trkpt lat="42.75502" lon="1.59975">
        <ele>1677.4000244141</ele>
        <time>2024-07-09T08:32:05.000Z</time>
      </trkpt>
      <trkpt lat="42.75496" lon="1.59993">
        <ele>1677</ele>
        <time>2024-07-09T08:32:19.000Z</time>
      </trkpt>
      <trkpt lat="42.75493" lon="1.60004">
        <ele>1678</ele>
        <time>2024-07-09T08:32:29.000Z</time>
      </trkpt>
      <trkpt lat="42.75491" lon="1.6001">
        <ele>1678.1999511719</ele>
        <time>2024-07-09T08:32:36.000Z</time>
      </trkpt>
      <trkpt lat="42.7549" lon="1.60017">
        <ele>1678.8000488281</ele>
        <time>2024-07-09T08:32:44.000Z</time>
      </trkpt>
      <trkpt lat="42.75488" lon="1.60026">
        <ele>1680</ele>
        <time>2024-07-09T08:32:51.000Z</time>
      </trkpt>
      <trkpt lat="42.75486" lon="1.60043">
        <ele>1681.4000244141</ele>
        <time>2024-07-09T08:33:03.000Z</time>
      </trkpt>
      <trkpt lat="42.75485" lon="1.60052">
        <ele>1682.4000244141</ele>
        <time>2024-07-09T08:33:10.000Z</time>
      </trkpt>
      <trkpt lat="42.75484" lon="1.6006">
        <ele>1683.5999755859</ele>
        <time>2024-07-09T08:33:17.000Z</time>
      </trkpt>
      <trkpt lat="42.75482" lon="1.60069">
        <ele>1684.4000244141</ele>
        <time>2024-07-09T08:33:26.000Z</time>
      </trkpt>
      <trkpt lat="42.75479" lon="1.60081">
        <ele>1685.5999755859</ele>
        <time>2024-07-09T08:33:38.000Z</time>
      </trkpt>
      <trkpt lat="42.75477" lon="1.60093">
        <ele>1686.8000488281</ele>
        <time>2024-07-09T08:33:48.000Z</time>
      </trkpt>
      <trkpt lat="42.75475" lon="1.60104">
        <ele>1688.8000488281</ele>
        <time>2024-07-09T08:33:59.000Z</time>
      </trkpt>
      <trkpt lat="42.75474" lon="1.60114">
        <ele>1690.4000244141</ele>
        <time>2024-07-09T08:34:08.000Z</time>
      </trkpt>
      <trkpt lat="42.75473" lon="1.60121">
        <ele>1691</ele>
        <time>2024-07-09T08:34:15.000Z</time>
      </trkpt>
      <trkpt lat="42.75472" lon="1.60122">
        <ele>1691.1999511719</ele>
        <time>2024-07-09T08:34:16.000Z</time>
      </trkpt>
      <trkpt lat="42.7547" lon="1.60137">
        <ele>1692.8000488281</ele>
        <time>2024-07-09T08:34:28.000Z</time>
      </trkpt>
      <trkpt lat="42.7547" lon="1.60148">
        <ele>1694.4000244141</ele>
        <time>2024-07-09T08:34:37.000Z</time>
      </trkpt>
      <trkpt lat="42.75469" lon="1.60166">
        <ele>1696.4000244141</ele>
        <time>2024-07-09T08:34:51.000Z</time>
      </trkpt>
      <trkpt lat="42.75464" lon="1.6018">
        <ele>1698.1999511719</ele>
        <time>2024-07-09T08:35:01.000Z</time>
      </trkpt>
      <trkpt lat="42.75461" lon="1.6019">
        <ele>1699.1999511719</ele>
        <time>2024-07-09T08:35:10.000Z</time>
      </trkpt>
      <trkpt lat="42.75459" lon="1.60197">
        <ele>1700</ele>
        <time>2024-07-09T08:35:19.000Z</time>
      </trkpt>
      <trkpt lat="42.75459" lon="1.602">
        <ele>1700.4000244141</ele>
        <time>2024-07-09T08:35:29.000Z</time>
      </trkpt>
      <trkpt lat="42.75456" lon="1.6021">
        <ele>1701.5999755859</ele>
        <time>2024-07-09T08:35:38.000Z</time>
      </trkpt>
      <trkpt lat="42.75452" lon="1.60218">
        <ele>1703</ele>
        <time>2024-07-09T08:35:47.000Z</time>
      </trkpt>
      <trkpt lat="42.75448" lon="1.60227">
        <ele>1703.8000488281</ele>
        <time>2024-07-09T08:35:56.000Z</time>
      </trkpt>
      <trkpt lat="42.75447" lon="1.6023">
        <ele>1704.1999511719</ele>
        <time>2024-07-09T08:36:04.000Z</time>
      </trkpt>
      <trkpt lat="42.75448" lon="1.6023">
        <ele>1704.1999511719</ele>
        <time>2024-07-09T08:36:28.000Z</time>
      </trkpt>
      <trkpt lat="42.75446" lon="1.60236">
        <ele>1704.5999755859</ele>
        <time>2024-07-09T08:36:46.000Z</time>
      </trkpt>
      <trkpt lat="42.75443" lon="1.60243">
        <ele>1705.4000244141</ele>
        <time>2024-07-09T08:36:52.000Z</time>
      </trkpt>
      <trkpt lat="42.75441" lon="1.60253">
        <ele>1706.4000244141</ele>
        <time>2024-07-09T08:37:00.000Z</time>
      </trkpt>
      <trkpt lat="42.75438" lon="1.60261">
        <ele>1707.8000488281</ele>
        <time>2024-07-09T08:37:09.000Z</time>
      </trkpt>
      <trkpt lat="42.75433" lon="1.6027">
        <ele>1708.8000488281</ele>
        <time>2024-07-09T08:37:20.000Z</time>
      </trkpt>
      <trkpt lat="42.75431" lon="1.60279">
        <ele>1710</ele>
        <time>2024-07-09T08:37:30.000Z</time>
      </trkpt>
      <trkpt lat="42.75429" lon="1.60291">
        <ele>1712</ele>
        <time>2024-07-09T08:37:43.000Z</time>
      </trkpt>
      <trkpt lat="42.75427" lon="1.60301">
        <ele>1714.4000244141</ele>
        <time>2024-07-09T08:37:54.000Z</time>
      </trkpt>
      <trkpt lat="42.75425" lon="1.60308">
        <ele>1716</ele>
        <time>2024-07-09T08:38:02.000Z</time>
      </trkpt>
      <trkpt lat="42.75423" lon="1.60313">
        <ele>1717.4000244141</ele>
        <time>2024-07-09T08:38:08.000Z</time>
      </trkpt>
      <trkpt lat="42.7542" lon="1.60324">
        <ele>1720.1999511719</ele>
        <time>2024-07-09T08:38:19.000Z</time>
      </trkpt>
      <trkpt lat="42.75417" lon="1.60331">
        <ele>1721.8000488281</ele>
        <time>2024-07-09T08:38:27.000Z</time>
      </trkpt>
      <trkpt lat="42.75414" lon="1.60339">
        <ele>1723.4000244141</ele>
        <time>2024-07-09T08:38:36.000Z</time>
      </trkpt>
      <trkpt lat="42.75412" lon="1.60351">
        <ele>1726</ele>
        <time>2024-07-09T08:38:49.000Z</time>
      </trkpt>
      <trkpt lat="42.7541" lon="1.60357">
        <ele>1727.8000488281</ele>
        <time>2024-07-09T08:38:56.000Z</time>
      </trkpt>
      <trkpt lat="42.75407" lon="1.60365">
        <ele>1730</ele>
        <time>2024-07-09T08:39:04.000Z</time>
      </trkpt>
      <trkpt lat="42.75402" lon="1.60375">
        <ele>1731.5999755859</ele>
        <time>2024-07-09T08:39:16.000Z</time>
      </trkpt>
      <trkpt lat="42.75399" lon="1.60383">
        <ele>1733.8000488281</ele>
        <time>2024-07-09T08:39:26.000Z</time>
      </trkpt>
      <trkpt lat="42.75396" lon="1.60394">
        <ele>1736.4000244141</ele>
        <time>2024-07-09T08:39:38.000Z</time>
      </trkpt>
      <trkpt lat="42.75395" lon="1.60399">
        <ele>1737.1999511719</ele>
        <time>2024-07-09T08:39:45.000Z</time>
      </trkpt>
      <trkpt lat="42.75393" lon="1.60405">
        <ele>1737.8000488281</ele>
        <time>2024-07-09T08:39:52.000Z</time>
      </trkpt>
      <trkpt lat="42.75391" lon="1.60411">
        <ele>1738.5999755859</ele>
        <time>2024-07-09T08:39:59.000Z</time>
      </trkpt>
      <trkpt lat="42.75389" lon="1.60421">
        <ele>1740.5999755859</ele>
        <time>2024-07-09T08:40:09.000Z</time>
      </trkpt>
      <trkpt lat="42.75387" lon="1.60426">
        <ele>1741.1999511719</ele>
        <time>2024-07-09T08:40:15.000Z</time>
      </trkpt>
      <trkpt lat="42.75386" lon="1.60434">
        <ele>1742</ele>
        <time>2024-07-09T08:40:23.000Z</time>
      </trkpt>
      <trkpt lat="42.75385" lon="1.6044">
        <ele>1743</ele>
        <time>2024-07-09T08:40:32.000Z</time>
      </trkpt>
      <trkpt lat="42.75385" lon="1.6044">
        <ele>1742.8000488281</ele>
        <time>2024-07-09T08:40:38.000Z</time>
      </trkpt>
      <trkpt lat="42.75386" lon="1.60444">
        <ele>1743.8000488281</ele>
        <time>2024-07-09T08:40:51.000Z</time>
      </trkpt>
      <trkpt lat="42.75384" lon="1.60459">
        <ele>1746.5999755859</ele>
        <time>2024-07-09T08:41:00.000Z</time>
      </trkpt>
      <trkpt lat="42.75379" lon="1.6047">
        <ele>1748.4000244141</ele>
        <time>2024-07-09T08:41:10.000Z</time>
      </trkpt>
      <trkpt lat="42.75375" lon="1.60478">
        <ele>1749.5999755859</ele>
        <time>2024-07-09T08:41:16.000Z</time>
      </trkpt>
      <trkpt lat="42.75372" lon="1.60485">
        <ele>1750.4000244141</ele>
        <time>2024-07-09T08:41:24.000Z</time>
      </trkpt>
      <trkpt lat="42.75368" lon="1.60495">
        <ele>1751.1999511719</ele>
        <time>2024-07-09T08:41:33.000Z</time>
      </trkpt>
      <trkpt lat="42.75365" lon="1.605">
        <ele>1751.1999511719</ele>
        <time>2024-07-09T08:41:39.000Z</time>
      </trkpt>
      <trkpt lat="42.75364" lon="1.60504">
        <ele>1752</ele>
        <time>2024-07-09T08:41:43.000Z</time>
      </trkpt>
      <trkpt lat="42.75361" lon="1.60514">
        <ele>1753.4000244141</ele>
        <time>2024-07-09T08:41:54.000Z</time>
      </trkpt>
      <trkpt lat="42.75358" lon="1.60522">
        <ele>1754.5999755859</ele>
        <time>2024-07-09T08:42:04.000Z</time>
      </trkpt>
      <trkpt lat="42.75357" lon="1.60528">
        <ele>1756</ele>
        <time>2024-07-09T08:42:11.000Z</time>
      </trkpt>
      <trkpt lat="42.75354" lon="1.60538">
        <ele>1758.1999511719</ele>
        <time>2024-07-09T08:42:21.000Z</time>
      </trkpt>
      <trkpt lat="42.75349" lon="1.60546">
        <ele>1761</ele>
        <time>2024-07-09T08:42:32.000Z</time>
      </trkpt>
      <trkpt lat="42.75346" lon="1.60552">
        <ele>1763.1999511719</ele>
        <time>2024-07-09T08:42:40.000Z</time>
      </trkpt>
      <trkpt lat="42.75343" lon="1.60559">
        <ele>1765.5999755859</ele>
        <time>2024-07-09T08:42:50.000Z</time>
      </trkpt>
      <trkpt lat="42.7534" lon="1.60566">
        <ele>1768.1999511719</ele>
        <time>2024-07-09T08:43:01.000Z</time>
      </trkpt>
      <trkpt lat="42.75336" lon="1.60573">
        <ele>1770.1999511719</ele>
        <time>2024-07-09T08:43:10.000Z</time>
      </trkpt>
      <trkpt lat="42.75334" lon="1.60581">
        <ele>1772.1999511719</ele>
        <time>2024-07-09T08:43:18.000Z</time>
      </trkpt>
      <trkpt lat="42.75328" lon="1.6059">
        <ele>1774.8000488281</ele>
        <time>2024-07-09T08:43:30.000Z</time>
      </trkpt>
      <trkpt lat="42.75324" lon="1.60598">
        <ele>1776.5999755859</ele>
        <time>2024-07-09T08:43:40.000Z</time>
      </trkpt>
      <trkpt lat="42.7532" lon="1.60605">
        <ele>1779</ele>
        <time>2024-07-09T08:43:50.000Z</time>
      </trkpt>
      <trkpt lat="42.75315" lon="1.60612">
        <ele>1781.1999511719</ele>
        <time>2024-07-09T08:44:00.000Z</time>
      </trkpt>
      <trkpt lat="42.75312" lon="1.60615">
        <ele>1782.4000244141</ele>
        <time>2024-07-09T08:44:06.000Z</time>
      </trkpt>
      <trkpt lat="42.75308" lon="1.60622">
        <ele>1784.1999511719</ele>
        <time>2024-07-09T08:44:16.000Z</time>
      </trkpt>
      <trkpt lat="42.75305" lon="1.60627">
        <ele>1785.5999755859</ele>
        <time>2024-07-09T08:44:23.000Z</time>
      </trkpt>
      <trkpt lat="42.75302" lon="1.60631">
        <ele>1786.8000488281</ele>
        <time>2024-07-09T08:44:31.000Z</time>
      </trkpt>
      <trkpt lat="42.75299" lon="1.60636">
        <ele>1788.8000488281</ele>
        <time>2024-07-09T08:44:40.000Z</time>
      </trkpt>
      <trkpt lat="42.75294" lon="1.60646">
        <ele>1791.4000244141</ele>
        <time>2024-07-09T08:44:53.000Z</time>
      </trkpt>
      <trkpt lat="42.7529" lon="1.60652">
        <ele>1792.5999755859</ele>
        <time>2024-07-09T08:45:04.000Z</time>
      </trkpt>
      <trkpt lat="42.75286" lon="1.6066">
        <ele>1794.4000244141</ele>
        <time>2024-07-09T08:45:16.000Z</time>
      </trkpt>
      <trkpt lat="42.75283" lon="1.60668">
        <ele>1795.8000488281</ele>
        <time>2024-07-09T08:45:28.000Z</time>
      </trkpt>
      <trkpt lat="42.75281" lon="1.60675">
        <ele>1796.4000244141</ele>
        <time>2024-07-09T08:45:38.000Z</time>
      </trkpt>
      <trkpt lat="42.75277" lon="1.60679">
        <ele>1796.8000488281</ele>
        <time>2024-07-09T08:45:47.000Z</time>
      </trkpt>
      <trkpt lat="42.75273" lon="1.60681">
        <ele>1797.4000244141</ele>
        <time>2024-07-09T08:45:55.000Z</time>
      </trkpt>
      <trkpt lat="42.75271" lon="1.60684">
        <ele>1797.5999755859</ele>
        <time>2024-07-09T08:46:02.000Z</time>
      </trkpt>
      <trkpt lat="42.75266" lon="1.60689">
        <ele>1798.8000488281</ele>
        <time>2024-07-09T08:46:11.000Z</time>
      </trkpt>
      <trkpt lat="42.75264" lon="1.60695">
        <ele>1799.5999755859</ele>
        <time>2024-07-09T08:46:20.000Z</time>
      </trkpt>
      <trkpt lat="42.75262" lon="1.607">
        <ele>1800</ele>
        <time>2024-07-09T08:46:27.000Z</time>
      </trkpt>
      <trkpt lat="42.75259" lon="1.60706">
        <ele>1801.1999511719</ele>
        <time>2024-07-09T08:46:36.000Z</time>
      </trkpt>
      <trkpt lat="42.75257" lon="1.60711">
        <ele>1802.4000244141</ele>
        <time>2024-07-09T08:46:44.000Z</time>
      </trkpt>
      <trkpt lat="42.75253" lon="1.60718">
        <ele>1803.1999511719</ele>
        <time>2024-07-09T08:46:54.000Z</time>
      </trkpt>
      <trkpt lat="42.75249" lon="1.60725">
        <ele>1804.1999511719</ele>
        <time>2024-07-09T08:47:04.000Z</time>
      </trkpt>
      <trkpt lat="42.75246" lon="1.60731">
        <ele>1805.1999511719</ele>
        <time>2024-07-09T08:47:13.000Z</time>
      </trkpt>
      <trkpt lat="42.75243" lon="1.60738">
        <ele>1806.1999511719</ele>
        <time>2024-07-09T08:47:23.000Z</time>
      </trkpt>
      <trkpt lat="42.75239" lon="1.60743">
        <ele>1807.5999755859</ele>
        <time>2024-07-09T08:47:32.000Z</time>
      </trkpt>
      <trkpt lat="42.75236" lon="1.60748">
        <ele>1808.5999755859</ele>
        <time>2024-07-09T08:47:41.000Z</time>
      </trkpt>
      <trkpt lat="42.75233" lon="1.60751">
        <ele>1809.4000244141</ele>
        <time>2024-07-09T08:47:48.000Z</time>
      </trkpt>
      <trkpt lat="42.75233" lon="1.60752">
        <ele>1809.5999755859</ele>
        <time>2024-07-09T08:48:04.000Z</time>
      </trkpt>
      <trkpt lat="42.75231" lon="1.6076">
        <ele>1811.4000244141</ele>
        <time>2024-07-09T08:48:24.000Z</time>
      </trkpt>
      <trkpt lat="42.75226" lon="1.60771">
        <ele>1814.4000244141</ele>
        <time>2024-07-09T08:48:33.000Z</time>
      </trkpt>
      <trkpt lat="42.75222" lon="1.6078">
        <ele>1817.1999511719</ele>
        <time>2024-07-09T08:48:42.000Z</time>
      </trkpt>
      <trkpt lat="42.75219" lon="1.60789">
        <ele>1819.8000488281</ele>
        <time>2024-07-09T08:48:51.000Z</time>
      </trkpt>
      <trkpt lat="42.75211" lon="1.60801">
        <ele>1824</ele>
        <time>2024-07-09T08:49:03.000Z</time>
      </trkpt>
      <trkpt lat="42.75207" lon="1.60809">
        <ele>1826.5999755859</ele>
        <time>2024-07-09T08:49:11.000Z</time>
      </trkpt>
      <trkpt lat="42.75202" lon="1.60818">
        <ele>1829.1999511719</ele>
        <time>2024-07-09T08:49:20.000Z</time>
      </trkpt>
      <trkpt lat="42.75197" lon="1.60825">
        <ele>1830.5999755859</ele>
        <time>2024-07-09T08:49:29.000Z</time>
      </trkpt>
      <trkpt lat="42.75194" lon="1.60834">
        <ele>1832.4000244141</ele>
        <time>2024-07-09T08:49:38.000Z</time>
      </trkpt>
      <trkpt lat="42.75193" lon="1.60837">
        <ele>1833.4000244141</ele>
        <time>2024-07-09T08:49:45.000Z</time>
      </trkpt>
      <trkpt lat="42.75192" lon="1.60837">
        <ele>1833.4000244141</ele>
        <time>2024-07-09T08:50:05.000Z</time>
      </trkpt>
      <trkpt lat="42.7519" lon="1.60843">
        <ele>1834.8000488281</ele>
        <time>2024-07-09T08:50:15.000Z</time>
      </trkpt>
      <trkpt lat="42.75184" lon="1.60854">
        <ele>1837</ele>
        <time>2024-07-09T08:50:23.000Z</time>
      </trkpt>
      <trkpt lat="42.75181" lon="1.60859">
        <ele>1838.1999511719</ele>
        <time>2024-07-09T08:50:30.000Z</time>
      </trkpt>
      <trkpt lat="42.75177" lon="1.60868">
        <ele>1840</ele>
        <time>2024-07-09T08:50:39.000Z</time>
      </trkpt>
      <trkpt lat="42.75174" lon="1.60872">
        <ele>1841</ele>
        <time>2024-07-09T08:50:46.000Z</time>
      </trkpt>
      <trkpt lat="42.75171" lon="1.60878">
        <ele>1841.5999755859</ele>
        <time>2024-07-09T08:50:54.000Z</time>
      </trkpt>
      <trkpt lat="42.75166" lon="1.60885">
        <ele>1842.1999511719</ele>
        <time>2024-07-09T08:51:05.000Z</time>
      </trkpt>
      <trkpt lat="42.75161" lon="1.60892">
        <ele>1844.5999755859</ele>
        <time>2024-07-09T08:51:16.000Z</time>
      </trkpt>
      <trkpt lat="42.75158" lon="1.60897">
        <ele>1846.1999511719</ele>
        <time>2024-07-09T08:51:23.000Z</time>
      </trkpt>
      <trkpt lat="42.75154" lon="1.60904">
        <ele>1848.1999511719</ele>
        <time>2024-07-09T08:51:32.000Z</time>
      </trkpt>
      <trkpt lat="42.75148" lon="1.60912">
        <ele>1851.4000244141</ele>
        <time>2024-07-09T08:51:42.000Z</time>
      </trkpt>
      <trkpt lat="42.75145" lon="1.60916">
        <ele>1852.8000488281</ele>
        <time>2024-07-09T08:51:50.000Z</time>
      </trkpt>
      <trkpt lat="42.75142" lon="1.60919">
        <ele>1853.5999755859</ele>
        <time>2024-07-09T08:51:56.000Z</time>
      </trkpt>
      <trkpt lat="42.75139" lon="1.60926">
        <ele>1855</ele>
        <time>2024-07-09T08:52:04.000Z</time>
      </trkpt>
      <trkpt lat="42.75138" lon="1.60932">
        <ele>1856.5999755859</ele>
        <time>2024-07-09T08:52:12.000Z</time>
      </trkpt>
      <trkpt lat="42.75135" lon="1.60937">
        <ele>1857.5999755859</ele>
        <time>2024-07-09T08:52:20.000Z</time>
      </trkpt>
      <trkpt lat="42.75133" lon="1.60943">
        <ele>1859.5999755859</ele>
        <time>2024-07-09T08:52:29.000Z</time>
      </trkpt>
      <trkpt lat="42.75132" lon="1.60951">
        <ele>1861.5999755859</ele>
        <time>2024-07-09T08:52:38.000Z</time>
      </trkpt>
      <trkpt lat="42.7513" lon="1.60955">
        <ele>1862.5999755859</ele>
        <time>2024-07-09T08:52:44.000Z</time>
      </trkpt>
      <trkpt lat="42.7513" lon="1.6096">
        <ele>1863.5999755859</ele>
        <time>2024-07-09T08:52:51.000Z</time>
      </trkpt>
      <trkpt lat="42.7513" lon="1.60967">
        <ele>1865.8000488281</ele>
        <time>2024-07-09T08:53:02.000Z</time>
      </trkpt>
      <trkpt lat="42.7513" lon="1.60971">
        <ele>1866.8000488281</ele>
        <time>2024-07-09T08:53:09.000Z</time>
      </trkpt>
      <trkpt lat="42.75131" lon="1.60975">
        <ele>1868</ele>
        <time>2024-07-09T08:53:21.000Z</time>
      </trkpt>
      <trkpt lat="42.7513" lon="1.60981">
        <ele>1869</ele>
        <time>2024-07-09T08:53:30.000Z</time>
      </trkpt>
      <trkpt lat="42.75129" lon="1.60986">
        <ele>1869.8000488281</ele>
        <time>2024-07-09T08:53:36.000Z</time>
      </trkpt>
      <trkpt lat="42.75125" lon="1.60991">
        <ele>1870.8000488281</ele>
        <time>2024-07-09T08:53:45.000Z</time>
      </trkpt>
      <trkpt lat="42.7512" lon="1.60994">
        <ele>1871.5999755859</ele>
        <time>2024-07-09T08:53:53.000Z</time>
      </trkpt>
      <trkpt lat="42.75116" lon="1.60997">
        <ele>1871.8000488281</ele>
        <time>2024-07-09T08:54:01.000Z</time>
      </trkpt>
      <trkpt lat="42.75112" lon="1.61004">
        <ele>1873</ele>
        <time>2024-07-09T08:54:11.000Z</time>
      </trkpt>
      <trkpt lat="42.75109" lon="1.61011">
        <ele>1873.8000488281</ele>
        <time>2024-07-09T08:54:21.000Z</time>
      </trkpt>
      <trkpt lat="42.75105" lon="1.61019">
        <ele>1874.8000488281</ele>
        <time>2024-07-09T08:54:32.000Z</time>
      </trkpt>
      <trkpt lat="42.75104" lon="1.61025">
        <ele>1875.5999755859</ele>
        <time>2024-07-09T08:54:40.000Z</time>
      </trkpt>
      <trkpt lat="42.75102" lon="1.61033">
        <ele>1876.5999755859</ele>
        <time>2024-07-09T08:54:51.000Z</time>
      </trkpt>
      <trkpt lat="42.751" lon="1.61038">
        <ele>1876.5999755859</ele>
        <time>2024-07-09T08:54:56.000Z</time>
      </trkpt>
      <trkpt lat="42.75097" lon="1.61046">
        <ele>1877.5999755859</ele>
        <time>2024-07-09T08:55:04.000Z</time>
      </trkpt>
      <trkpt lat="42.75094" lon="1.61056">
        <ele>1879.1999511719</ele>
        <time>2024-07-09T08:55:12.000Z</time>
      </trkpt>
      <trkpt lat="42.75091" lon="1.61064">
        <ele>1879.5999755859</ele>
        <time>2024-07-09T08:55:22.000Z</time>
      </trkpt>
      <trkpt lat="42.75092" lon="1.61065">
        <ele>1879.4000244141</ele>
        <time>2024-07-09T08:55:28.000Z</time>
      </trkpt>
      <trkpt lat="42.75092" lon="1.61065">
        <ele>1879.4000244141</ele>
        <time>2024-07-09T08:55:36.000Z</time>
      </trkpt>
      <trkpt lat="42.75097" lon="1.6106">
        <ele>1879</ele>
        <time>2024-07-09T08:56:48.000Z</time>
      </trkpt>
      <trkpt lat="42.75101" lon="1.61047">
        <ele>1877.1999511719</ele>
        <time>2024-07-09T08:56:56.000Z</time>
      </trkpt>
      <trkpt lat="42.75101" lon="1.61047">
        <ele>1877.1999511719</ele>
        <time>2024-07-09T08:57:01.000Z</time>
      </trkpt>
      <trkpt lat="42.75102" lon="1.61047">
        <ele>1877</ele>
        <time>2024-07-09T08:57:06.000Z</time>
      </trkpt>
      <trkpt lat="42.75099" lon="1.61049">
        <ele>1877.5999755859</ele>
        <time>2024-07-09T09:33:52.000Z</time>
      </trkpt>
      <trkpt lat="42.75096" lon="1.61059">
        <ele>1879.1999511719</ele>
        <time>2024-07-09T09:33:59.000Z</time>
      </trkpt>
      <trkpt lat="42.75086" lon="1.6107">
        <ele>1878.5999755859</ele>
        <time>2024-07-09T09:34:09.000Z</time>
      </trkpt>
      <trkpt lat="42.75086" lon="1.61071">
        <ele>1878.4000244141</ele>
        <time>2024-07-09T09:34:10.000Z</time>
      </trkpt>
      <trkpt lat="42.75087" lon="1.61076">
        <ele>1878.1999511719</ele>
        <time>2024-07-09T09:34:14.000Z</time>
      </trkpt>
      <trkpt lat="42.75094" lon="1.61086">
        <ele>1877.8000488281</ele>
        <time>2024-07-09T09:34:24.000Z</time>
      </trkpt>
      <trkpt lat="42.75098" lon="1.61093">
        <ele>1877</ele>
        <time>2024-07-09T09:34:32.000Z</time>
      </trkpt>
      <trkpt lat="42.75098" lon="1.61093">
        <ele>1877</ele>
        <time>2024-07-09T09:34:48.000Z</time>
      </trkpt>
      <trkpt lat="42.75092" lon="1.61097">
        <ele>1878.4000244141</ele>
        <time>2024-07-09T09:35:12.000Z</time>
      </trkpt>
      <trkpt lat="42.75078" lon="1.61106">
        <ele>1882.4000244141</ele>
        <time>2024-07-09T09:35:22.000Z</time>
      </trkpt>
      <trkpt lat="42.75068" lon="1.61114">
        <ele>1887</ele>
        <time>2024-07-09T09:35:33.000Z</time>
      </trkpt>
      <trkpt lat="42.75059" lon="1.61124">
        <ele>1888.5999755859</ele>
        <time>2024-07-09T09:35:44.000Z</time>
      </trkpt>
      <trkpt lat="42.7505" lon="1.6113">
        <ele>1888.5999755859</ele>
        <time>2024-07-09T09:35:54.000Z</time>
      </trkpt>
      <trkpt lat="42.7504" lon="1.61135">
        <ele>1890.5999755859</ele>
        <time>2024-07-09T09:36:04.000Z</time>
      </trkpt>
      <trkpt lat="42.7503" lon="1.61141">
        <ele>1892.1999511719</ele>
        <time>2024-07-09T09:36:14.000Z</time>
      </trkpt>
      <trkpt lat="42.75021" lon="1.6115">
        <ele>1893</ele>
        <time>2024-07-09T09:36:24.000Z</time>
      </trkpt>
      <trkpt lat="42.75012" lon="1.61156">
        <ele>1894.5999755859</ele>
        <time>2024-07-09T09:36:33.000Z</time>
      </trkpt>
      <trkpt lat="42.75003" lon="1.61164">
        <ele>1896.1999511719</ele>
        <time>2024-07-09T09:36:43.000Z</time>
      </trkpt>
      <trkpt lat="42.74995" lon="1.61173">
        <ele>1897.1999511719</ele>
        <time>2024-07-09T09:36:54.000Z</time>
      </trkpt>
      <trkpt lat="42.74995" lon="1.61173">
        <ele>1897.1999511719</ele>
        <time>2024-07-09T09:37:01.000Z</time>
      </trkpt>
      <trkpt lat="42.74988" lon="1.61177">
        <ele>1897.1999511719</ele>
        <time>2024-07-09T09:37:24.000Z</time>
      </trkpt>
      <trkpt lat="42.74978" lon="1.61184">
        <ele>1898.4000244141</ele>
        <time>2024-07-09T09:37:34.000Z</time>
      </trkpt>
      <trkpt lat="42.74969" lon="1.61186">
        <ele>1897.5999755859</ele>
        <time>2024-07-09T09:37:42.000Z</time>
      </trkpt>
      <trkpt lat="42.74961" lon="1.61193">
        <ele>1897.5999755859</ele>
        <time>2024-07-09T09:37:52.000Z</time>
      </trkpt>
      <trkpt lat="42.74961" lon="1.61193">
        <ele>1897.5999755859</ele>
        <time>2024-07-09T09:37:57.000Z</time>
      </trkpt>
      <trkpt lat="42.74957" lon="1.61198">
        <ele>1897.5999755859</ele>
        <time>2024-07-09T09:38:04.000Z</time>
      </trkpt>
      <trkpt lat="42.74949" lon="1.61209">
        <ele>1898</ele>
        <time>2024-07-09T09:38:15.000Z</time>
      </trkpt>
      <trkpt lat="42.74939" lon="1.61219">
        <ele>1897.4000244141</ele>
        <time>2024-07-09T09:38:27.000Z</time>
      </trkpt>
      <trkpt lat="42.74939" lon="1.61221">
        <ele>1897.1999511719</ele>
        <time>2024-07-09T09:38:33.000Z</time>
      </trkpt>
      <trkpt lat="42.74934" lon="1.61223">
        <ele>1896.1999511719</ele>
        <time>2024-07-09T09:38:42.000Z</time>
      </trkpt>
      <trkpt lat="42.74931" lon="1.61224">
        <ele>1895.5999755859</ele>
        <time>2024-07-09T09:38:49.000Z</time>
      </trkpt>
      <trkpt lat="42.74931" lon="1.61224">
        <ele>1895.5999755859</ele>
        <time>2024-07-09T09:38:58.000Z</time>
      </trkpt>
      <trkpt lat="42.74924" lon="1.61224">
        <ele>1894.1999511719</ele>
        <time>2024-07-09T09:39:12.000Z</time>
      </trkpt>
      <trkpt lat="42.74914" lon="1.61227">
        <ele>1892</ele>
        <time>2024-07-09T09:39:21.000Z</time>
      </trkpt>
      <trkpt lat="42.74909" lon="1.61228">
        <ele>1891.1999511719</ele>
        <time>2024-07-09T09:39:31.000Z</time>
      </trkpt>
      <trkpt lat="42.74909" lon="1.61227">
        <ele>1891.1999511719</ele>
        <time>2024-07-09T09:39:37.000Z</time>
      </trkpt>
      <trkpt lat="42.74903" lon="1.6123">
        <ele>1889.8000488281</ele>
        <time>2024-07-09T09:39:45.000Z</time>
      </trkpt>
      <trkpt lat="42.74891" lon="1.61233">
        <ele>1887.8000488281</ele>
        <time>2024-07-09T09:39:58.000Z</time>
      </trkpt>
      <trkpt lat="42.7488" lon="1.61238">
        <ele>1885.8000488281</ele>
        <time>2024-07-09T09:40:08.000Z</time>
      </trkpt>
      <trkpt lat="42.74866" lon="1.61239">
        <ele>1884.4000244141</ele>
        <time>2024-07-09T09:40:21.000Z</time>
      </trkpt>
      <trkpt lat="42.74854" lon="1.61245">
        <ele>1881.8000488281</ele>
        <time>2024-07-09T09:40:32.000Z</time>
      </trkpt>
      <trkpt lat="42.74848" lon="1.61252">
        <ele>1880.1999511719</ele>
        <time>2024-07-09T09:40:40.000Z</time>
      </trkpt>
      <trkpt lat="42.74836" lon="1.61265">
        <ele>1877</ele>
        <time>2024-07-09T09:40:54.000Z</time>
      </trkpt>
      <trkpt lat="42.74831" lon="1.61268">
        <ele>1875.8000488281</ele>
        <time>2024-07-09T09:40:59.000Z</time>
      </trkpt>
      <trkpt lat="42.74829" lon="1.61271">
        <ele>1875.5999755859</ele>
        <time>2024-07-09T09:41:02.000Z</time>
      </trkpt>
      <trkpt lat="42.7483" lon="1.61284">
        <ele>1876.5999755859</ele>
        <time>2024-07-09T09:41:11.000Z</time>
      </trkpt>
      <trkpt lat="42.7483" lon="1.61301">
        <ele>1876.1999511719</ele>
        <time>2024-07-09T09:41:22.000Z</time>
      </trkpt>
      <trkpt lat="42.74829" lon="1.61301">
        <ele>1876</ele>
        <time>2024-07-09T09:41:23.000Z</time>
      </trkpt>
      <trkpt lat="42.74825" lon="1.613">
        <ele>1875.4000244141</ele>
        <time>2024-07-09T09:41:30.000Z</time>
      </trkpt>
      <trkpt lat="42.74821" lon="1.61298">
        <ele>1874.5999755859</ele>
        <time>2024-07-09T09:41:36.000Z</time>
      </trkpt>
      <trkpt lat="42.74809" lon="1.61299">
        <ele>1872.4000244141</ele>
        <time>2024-07-09T09:41:46.000Z</time>
      </trkpt>
      <trkpt lat="42.74796" lon="1.613">
        <ele>1870.1999511719</ele>
        <time>2024-07-09T09:41:58.000Z</time>
      </trkpt>
      <trkpt lat="42.74789" lon="1.61298">
        <ele>1869.4000244141</ele>
        <time>2024-07-09T09:42:07.000Z</time>
      </trkpt>
      <trkpt lat="42.74783" lon="1.61297">
        <ele>1868.1999511719</ele>
        <time>2024-07-09T09:42:14.000Z</time>
      </trkpt>
      <trkpt lat="42.74776" lon="1.61306">
        <ele>1866.5999755859</ele>
        <time>2024-07-09T09:42:22.000Z</time>
      </trkpt>
      <trkpt lat="42.74774" lon="1.61307">
        <ele>1866.1999511719</ele>
        <time>2024-07-09T09:42:29.000Z</time>
      </trkpt>
      <trkpt lat="42.74769" lon="1.61311">
        <ele>1864.1999511719</ele>
        <time>2024-07-09T09:42:39.000Z</time>
      </trkpt>
      <trkpt lat="42.7476" lon="1.61319">
        <ele>1860.5999755859</ele>
        <time>2024-07-09T09:42:50.000Z</time>
      </trkpt>
      <trkpt lat="42.74757" lon="1.61321">
        <ele>1860.1999511719</ele>
        <time>2024-07-09T09:42:55.000Z</time>
      </trkpt>
      <trkpt lat="42.74748" lon="1.61327">
        <ele>1858.4000244141</ele>
        <time>2024-07-09T09:43:05.000Z</time>
      </trkpt>
      <trkpt lat="42.74743" lon="1.61339">
        <ele>1856.8000488281</ele>
        <time>2024-07-09T09:43:15.000Z</time>
      </trkpt>
      <trkpt lat="42.7474" lon="1.61349">
        <ele>1854</ele>
        <time>2024-07-09T09:43:24.000Z</time>
      </trkpt>
      <trkpt lat="42.74738" lon="1.61354">
        <ele>1853.4000244141</ele>
        <time>2024-07-09T09:43:32.000Z</time>
      </trkpt>
      <trkpt lat="42.74735" lon="1.61351">
        <ele>1853.5999755859</ele>
        <time>2024-07-09T09:44:21.000Z</time>
      </trkpt>
      <trkpt lat="42.74731" lon="1.61343">
        <ele>1854.4000244141</ele>
        <time>2024-07-09T09:44:29.000Z</time>
      </trkpt>
      <trkpt lat="42.74731" lon="1.61342">
        <ele>1854.4000244141</ele>
        <time>2024-07-09T09:44:36.000Z</time>
      </trkpt>
      <trkpt lat="42.74732" lon="1.61347">
        <ele>1854</ele>
        <time>2024-07-09T09:45:44.000Z</time>
      </trkpt>
      <trkpt lat="42.74734" lon="1.61354">
        <ele>1853.1999511719</ele>
        <time>2024-07-09T09:45:48.000Z</time>
      </trkpt>
      <trkpt lat="42.74735" lon="1.61358">
        <ele>1852.8000488281</ele>
        <time>2024-07-09T09:45:51.000Z</time>
      </trkpt>
      <trkpt lat="42.74734" lon="1.6136">
        <ele>1852.5999755859</ele>
        <time>2024-07-09T09:45:57.000Z</time>
      </trkpt>
      <trkpt lat="42.74729" lon="1.61359">
        <ele>1852.5999755859</ele>
        <time>2024-07-09T09:46:13.000Z</time>
      </trkpt>
      <trkpt lat="42.74718" lon="1.61357">
        <ele>1851.4000244141</ele>
        <time>2024-07-09T09:46:24.000Z</time>
      </trkpt>
      <trkpt lat="42.74712" lon="1.61357">
        <ele>1851</ele>
        <time>2024-07-09T09:46:31.000Z</time>
      </trkpt>
      <trkpt lat="42.7471" lon="1.6136">
        <ele>1850.8000488281</ele>
        <time>2024-07-09T09:46:33.000Z</time>
      </trkpt>
      <trkpt lat="42.74708" lon="1.61373">
        <ele>1849.4000244141</ele>
        <time>2024-07-09T09:46:42.000Z</time>
      </trkpt>
      <trkpt lat="42.74702" lon="1.6139">
        <ele>1846.4000244141</ele>
        <time>2024-07-09T09:46:56.000Z</time>
      </trkpt>
      <trkpt lat="42.7469" lon="1.61394">
        <ele>1845</ele>
        <time>2024-07-09T09:47:09.000Z</time>
      </trkpt>
      <trkpt lat="42.74676" lon="1.61396">
        <ele>1844</ele>
        <time>2024-07-09T09:47:22.000Z</time>
      </trkpt>
      <trkpt lat="42.74663" lon="1.61393">
        <ele>1841.8000488281</ele>
        <time>2024-07-09T09:47:33.000Z</time>
      </trkpt>
      <trkpt lat="42.74659" lon="1.61391">
        <ele>1840.5999755859</ele>
        <time>2024-07-09T09:47:38.000Z</time>
      </trkpt>
      <trkpt lat="42.74658" lon="1.61393">
        <ele>1840.4000244141</ele>
        <time>2024-07-09T09:47:40.000Z</time>
      </trkpt>
      <trkpt lat="42.74647" lon="1.61406">
        <ele>1836.1999511719</ele>
        <time>2024-07-09T09:47:53.000Z</time>
      </trkpt>
      <trkpt lat="42.74635" lon="1.61415">
        <ele>1833</ele>
        <time>2024-07-09T09:48:05.000Z</time>
      </trkpt>
      <trkpt lat="42.74624" lon="1.61425">
        <ele>1830</ele>
        <time>2024-07-09T09:48:17.000Z</time>
      </trkpt>
      <trkpt lat="42.74614" lon="1.61436">
        <ele>1829.1999511719</ele>
        <time>2024-07-09T09:48:28.000Z</time>
      </trkpt>
      <trkpt lat="42.74597" lon="1.61449">
        <ele>1828.8000488281</ele>
        <time>2024-07-09T09:48:41.000Z</time>
      </trkpt>
      <trkpt lat="42.74596" lon="1.6145">
        <ele>1828.5999755859</ele>
        <time>2024-07-09T09:48:42.000Z</time>
      </trkpt>
      <trkpt lat="42.74585" lon="1.61456">
        <ele>1826.4000244141</ele>
        <time>2024-07-09T09:48:51.000Z</time>
      </trkpt>
      <trkpt lat="42.74574" lon="1.61467">
        <ele>1823.1999511719</ele>
        <time>2024-07-09T09:49:01.000Z</time>
      </trkpt>
      <trkpt lat="42.74559" lon="1.61482">
        <ele>1821.1999511719</ele>
        <time>2024-07-09T09:49:15.000Z</time>
      </trkpt>
      <trkpt lat="42.74548" lon="1.61493">
        <ele>1820</ele>
        <time>2024-07-09T09:49:25.000Z</time>
      </trkpt>
      <trkpt lat="42.74538" lon="1.615">
        <ele>1820</ele>
        <time>2024-07-09T09:49:33.000Z</time>
      </trkpt>
      <trkpt lat="42.74524" lon="1.6151">
        <ele>1818.8000488281</ele>
        <time>2024-07-09T09:49:44.000Z</time>
      </trkpt>
      <trkpt lat="42.74515" lon="1.61517">
        <ele>1817.8000488281</ele>
        <time>2024-07-09T09:49:52.000Z</time>
      </trkpt>
      <trkpt lat="42.74504" lon="1.61526">
        <ele>1816</ele>
        <time>2024-07-09T09:50:02.000Z</time>
      </trkpt>
      <trkpt lat="42.74492" lon="1.61538">
        <ele>1812.8000488281</ele>
        <time>2024-07-09T09:50:13.000Z</time>
      </trkpt>
      <trkpt lat="42.74482" lon="1.61552">
        <ele>1812</ele>
        <time>2024-07-09T09:50:24.000Z</time>
      </trkpt>
      <trkpt lat="42.74473" lon="1.61568">
        <ele>1810.1999511719</ele>
        <time>2024-07-09T09:50:35.000Z</time>
      </trkpt>
      <trkpt lat="42.74462" lon="1.61583">
        <ele>1807.8000488281</ele>
        <time>2024-07-09T09:50:46.000Z</time>
      </trkpt>
      <trkpt lat="42.74451" lon="1.61591">
        <ele>1806.5999755859</ele>
        <time>2024-07-09T09:50:56.000Z</time>
      </trkpt>
      <trkpt lat="42.74441" lon="1.61599">
        <ele>1804.1999511719</ele>
        <time>2024-07-09T09:51:05.000Z</time>
      </trkpt>
      <trkpt lat="42.74431" lon="1.61605">
        <ele>1802.8000488281</ele>
        <time>2024-07-09T09:51:14.000Z</time>
      </trkpt>
      <trkpt lat="42.74421" lon="1.61614">
        <ele>1801.5999755859</ele>
        <time>2024-07-09T09:51:24.000Z</time>
      </trkpt>
      <trkpt lat="42.74409" lon="1.61623">
        <ele>1799</ele>
        <time>2024-07-09T09:51:36.000Z</time>
      </trkpt>
      <trkpt lat="42.74393" lon="1.61638">
        <ele>1794.1999511719</ele>
        <time>2024-07-09T09:51:51.000Z</time>
      </trkpt>
      <trkpt lat="42.74391" lon="1.6164">
        <ele>1793.8000488281</ele>
        <time>2024-07-09T09:51:53.000Z</time>
      </trkpt>
      <trkpt lat="42.7438" lon="1.61641">
        <ele>1792.4000244141</ele>
        <time>2024-07-09T09:52:01.000Z</time>
      </trkpt>
      <trkpt lat="42.74371" lon="1.61644">
        <ele>1791</ele>
        <time>2024-07-09T09:52:08.000Z</time>
      </trkpt>
      <trkpt lat="42.74359" lon="1.61648">
        <ele>1791.1999511719</ele>
        <time>2024-07-09T09:52:18.000Z</time>
      </trkpt>
      <trkpt lat="42.74347" lon="1.61652">
        <ele>1791.5999755859</ele>
        <time>2024-07-09T09:52:28.000Z</time>
      </trkpt>
      <trkpt lat="42.74336" lon="1.61656">
        <ele>1793.1999511719</ele>
        <time>2024-07-09T09:52:38.000Z</time>
      </trkpt>
      <trkpt lat="42.74323" lon="1.61657">
        <ele>1793.8000488281</ele>
        <time>2024-07-09T09:52:48.000Z</time>
      </trkpt>
      <trkpt lat="42.74312" lon="1.61657">
        <ele>1795.1999511719</ele>
        <time>2024-07-09T09:52:58.000Z</time>
      </trkpt>
      <trkpt lat="42.743" lon="1.61659">
        <ele>1796.1999511719</ele>
        <time>2024-07-09T09:53:08.000Z</time>
      </trkpt>
      <trkpt lat="42.74289" lon="1.61659">
        <ele>1796.8000488281</ele>
        <time>2024-07-09T09:53:17.000Z</time>
      </trkpt>
      <trkpt lat="42.74276" lon="1.61659">
        <ele>1798</ele>
        <time>2024-07-09T09:53:27.000Z</time>
      </trkpt>
      <trkpt lat="42.74267" lon="1.6166">
        <ele>1798.5999755859</ele>
        <time>2024-07-09T09:53:36.000Z</time>
      </trkpt>
      <trkpt lat="42.74257" lon="1.6166">
        <ele>1799</ele>
        <time>2024-07-09T09:53:46.000Z</time>
      </trkpt>
      <trkpt lat="42.74244" lon="1.6166">
        <ele>1800.8000488281</ele>
        <time>2024-07-09T09:53:59.000Z</time>
      </trkpt>
      <trkpt lat="42.74237" lon="1.61658">
        <ele>1801.8000488281</ele>
        <time>2024-07-09T09:54:07.000Z</time>
      </trkpt>
      <trkpt lat="42.74235" lon="1.61659">
        <ele>1802</ele>
        <time>2024-07-09T09:54:09.000Z</time>
      </trkpt>
      <trkpt lat="42.74229" lon="1.61659">
        <ele>1803</ele>
        <time>2024-07-09T09:54:19.000Z</time>
      </trkpt>
      <trkpt lat="42.74224" lon="1.61658">
        <ele>1803.8000488281</ele>
        <time>2024-07-09T09:54:27.000Z</time>
      </trkpt>
      <trkpt lat="42.74216" lon="1.61657">
        <ele>1805.4000244141</ele>
        <time>2024-07-09T09:54:35.000Z</time>
      </trkpt>
      <trkpt lat="42.74207" lon="1.61655">
        <ele>1807</ele>
        <time>2024-07-09T09:54:45.000Z</time>
      </trkpt>
      <trkpt lat="42.74199" lon="1.61653">
        <ele>1808.4000244141</ele>
        <time>2024-07-09T09:54:53.000Z</time>
      </trkpt>
      <trkpt lat="42.7419" lon="1.61653">
        <ele>1810</ele>
        <time>2024-07-09T09:55:02.000Z</time>
      </trkpt>
      <trkpt lat="42.7418" lon="1.61652">
        <ele>1811.5999755859</ele>
        <time>2024-07-09T09:55:11.000Z</time>
      </trkpt>
      <trkpt lat="42.74175" lon="1.61652">
        <ele>1812.4000244141</ele>
        <time>2024-07-09T09:55:16.000Z</time>
      </trkpt>
      <trkpt lat="42.74171" lon="1.61651">
        <ele>1812.8000488281</ele>
        <time>2024-07-09T09:55:20.000Z</time>
      </trkpt>
      <trkpt lat="42.74161" lon="1.61649">
        <ele>1813.5999755859</ele>
        <time>2024-07-09T09:55:31.000Z</time>
      </trkpt>
      <trkpt lat="42.74151" lon="1.61647">
        <ele>1814.4000244141</ele>
        <time>2024-07-09T09:55:41.000Z</time>
      </trkpt>
      <trkpt lat="42.74137" lon="1.61643">
        <ele>1816.5999755859</ele>
        <time>2024-07-09T09:55:54.000Z</time>
      </trkpt>
      <trkpt lat="42.74127" lon="1.61642">
        <ele>1818.4000244141</ele>
        <time>2024-07-09T09:56:03.000Z</time>
      </trkpt>
      <trkpt lat="42.74116" lon="1.61642">
        <ele>1820</ele>
        <time>2024-07-09T09:56:13.000Z</time>
      </trkpt>
      <trkpt lat="42.74106" lon="1.61637">
        <ele>1821</ele>
        <time>2024-07-09T09:56:23.000Z</time>
      </trkpt>
      <trkpt lat="42.74096" lon="1.61633">
        <ele>1821.8000488281</ele>
        <time>2024-07-09T09:56:33.000Z</time>
      </trkpt>
      <trkpt lat="42.74087" lon="1.61629">
        <ele>1822.8000488281</ele>
        <time>2024-07-09T09:56:43.000Z</time>
      </trkpt>
      <trkpt lat="42.74076" lon="1.61625">
        <ele>1824.1999511719</ele>
        <time>2024-07-09T09:56:54.000Z</time>
      </trkpt>
      <trkpt lat="42.74069" lon="1.61623">
        <ele>1825</ele>
        <time>2024-07-09T09:57:03.000Z</time>
      </trkpt>
      <trkpt lat="42.74062" lon="1.61624">
        <ele>1825.5999755859</ele>
        <time>2024-07-09T09:57:12.000Z</time>
      </trkpt>
      <trkpt lat="42.74063" lon="1.61624">
        <ele>1825.5999755859</ele>
        <time>2024-07-09T09:57:20.000Z</time>
      </trkpt>
      <trkpt lat="42.74063" lon="1.61625">
        <ele>1825.5999755859</ele>
        <time>2024-07-09T09:57:51.000Z</time>
      </trkpt>
      <trkpt lat="42.74057" lon="1.61626">
        <ele>1826</ele>
        <time>2024-07-09T09:58:25.000Z</time>
      </trkpt>
      <trkpt lat="42.74047" lon="1.61624">
        <ele>1826.8000488281</ele>
        <time>2024-07-09T09:58:32.000Z</time>
      </trkpt>
      <trkpt lat="42.74041" lon="1.61623">
        <ele>1827.1999511719</ele>
        <time>2024-07-09T09:58:39.000Z</time>
      </trkpt>
      <trkpt lat="42.74041" lon="1.61623">
        <ele>1827.1999511719</ele>
        <time>2024-07-09T09:58:40.000Z</time>
      </trkpt>
      <trkpt lat="42.74032" lon="1.61624">
        <ele>1828</ele>
        <time>2024-07-09T09:58:50.000Z</time>
      </trkpt>
      <trkpt lat="42.74023" lon="1.61624">
        <ele>1829.1999511719</ele>
        <time>2024-07-09T09:58:59.000Z</time>
      </trkpt>
      <trkpt lat="42.74017" lon="1.61623">
        <ele>1830.1999511719</ele>
        <time>2024-07-09T09:59:07.000Z</time>
      </trkpt>
      <trkpt lat="42.74007" lon="1.61626">
        <ele>1829.8000488281</ele>
        <time>2024-07-09T09:59:18.000Z</time>
      </trkpt>
      <trkpt lat="42.73996" lon="1.61628">
        <ele>1831</ele>
        <time>2024-07-09T09:59:28.000Z</time>
      </trkpt>
      <trkpt lat="42.73988" lon="1.61626">
        <ele>1832.5999755859</ele>
        <time>2024-07-09T09:59:36.000Z</time>
      </trkpt>
      <trkpt lat="42.73979" lon="1.61625">
        <ele>1833.8000488281</ele>
        <time>2024-07-09T09:59:45.000Z</time>
      </trkpt>
      <trkpt lat="42.73967" lon="1.61624">
        <ele>1834.8000488281</ele>
        <time>2024-07-09T09:59:57.000Z</time>
      </trkpt>
      <trkpt lat="42.73956" lon="1.61625">
        <ele>1834.8000488281</ele>
        <time>2024-07-09T10:00:06.000Z</time>
      </trkpt>
      <trkpt lat="42.73942" lon="1.61627">
        <ele>1836</ele>
        <time>2024-07-09T10:00:18.000Z</time>
      </trkpt>
      <trkpt lat="42.73928" lon="1.61631">
        <ele>1837</ele>
        <time>2024-07-09T10:00:29.000Z</time>
      </trkpt>
      <trkpt lat="42.73916" lon="1.61635">
        <ele>1837.8000488281</ele>
        <time>2024-07-09T10:00:39.000Z</time>
      </trkpt>
      <trkpt lat="42.73907" lon="1.61638">
        <ele>1837.8000488281</ele>
        <time>2024-07-09T10:00:48.000Z</time>
      </trkpt>
      <trkpt lat="42.73903" lon="1.6164">
        <ele>1837.1999511719</ele>
        <time>2024-07-09T10:00:52.000Z</time>
      </trkpt>
      <trkpt lat="42.73899" lon="1.61641">
        <ele>1837</ele>
        <time>2024-07-09T10:00:55.000Z</time>
      </trkpt>
      <trkpt lat="42.73889" lon="1.61643">
        <ele>1838</ele>
        <time>2024-07-09T10:01:04.000Z</time>
      </trkpt>
      <trkpt lat="42.73878" lon="1.61647">
        <ele>1839.4000244141</ele>
        <time>2024-07-09T10:01:15.000Z</time>
      </trkpt>
      <trkpt lat="42.73868" lon="1.61651">
        <ele>1840.4000244141</ele>
        <time>2024-07-09T10:01:24.000Z</time>
      </trkpt>
      <trkpt lat="42.73857" lon="1.61655">
        <ele>1840.8000488281</ele>
        <time>2024-07-09T10:01:34.000Z</time>
      </trkpt>
      <trkpt lat="42.73843" lon="1.6166">
        <ele>1843</ele>
        <time>2024-07-09T10:01:45.000Z</time>
      </trkpt>
      <trkpt lat="42.73835" lon="1.6166">
        <ele>1845.5999755859</ele>
        <time>2024-07-09T10:01:53.000Z</time>
      </trkpt>
      <trkpt lat="42.73826" lon="1.61662">
        <ele>1847.5999755859</ele>
        <time>2024-07-09T10:02:02.000Z</time>
      </trkpt>
      <trkpt lat="42.73816" lon="1.61666">
        <ele>1849</ele>
        <time>2024-07-09T10:02:11.000Z</time>
      </trkpt>
      <trkpt lat="42.73807" lon="1.61673">
        <ele>1850</ele>
        <time>2024-07-09T10:02:21.000Z</time>
      </trkpt>
      <trkpt lat="42.73798" lon="1.61679">
        <ele>1852</ele>
        <time>2024-07-09T10:02:31.000Z</time>
      </trkpt>
      <trkpt lat="42.73789" lon="1.61687">
        <ele>1852.8000488281</ele>
        <time>2024-07-09T10:02:41.000Z</time>
      </trkpt>
      <trkpt lat="42.73783" lon="1.61691">
        <ele>1853.8000488281</ele>
        <time>2024-07-09T10:02:49.000Z</time>
      </trkpt>
      <trkpt lat="42.73776" lon="1.61695">
        <ele>1855.8000488281</ele>
        <time>2024-07-09T10:02:58.000Z</time>
      </trkpt>
      <trkpt lat="42.73769" lon="1.61702">
        <ele>1857.4000244141</ele>
        <time>2024-07-09T10:03:06.000Z</time>
      </trkpt>
      <trkpt lat="42.73761" lon="1.61707">
        <ele>1859.1999511719</ele>
        <time>2024-07-09T10:03:15.000Z</time>
      </trkpt>
      <trkpt lat="42.73755" lon="1.61709">
        <ele>1860.1999511719</ele>
        <time>2024-07-09T10:03:22.000Z</time>
      </trkpt>
      <trkpt lat="42.73745" lon="1.61713">
        <ele>1861.8000488281</ele>
        <time>2024-07-09T10:03:32.000Z</time>
      </trkpt>
      <trkpt lat="42.73737" lon="1.61716">
        <ele>1864.4000244141</ele>
        <time>2024-07-09T10:03:40.000Z</time>
      </trkpt>
      <trkpt lat="42.73728" lon="1.61719">
        <ele>1867.4000244141</ele>
        <time>2024-07-09T10:03:50.000Z</time>
      </trkpt>
      <trkpt lat="42.73724" lon="1.61722">
        <ele>1867.4000244141</ele>
        <time>2024-07-09T10:03:54.000Z</time>
      </trkpt>
      <trkpt lat="42.73721" lon="1.61725">
        <ele>1867.4000244141</ele>
        <time>2024-07-09T10:03:57.000Z</time>
      </trkpt>
      <trkpt lat="42.73714" lon="1.61736">
        <ele>1865.5999755859</ele>
        <time>2024-07-09T10:04:07.000Z</time>
      </trkpt>
      <trkpt lat="42.73712" lon="1.61738">
        <ele>1865.5999755859</ele>
        <time>2024-07-09T10:04:10.000Z</time>
      </trkpt>
      <trkpt lat="42.7371" lon="1.61741">
        <ele>1865.8000488281</ele>
        <time>2024-07-09T10:04:13.000Z</time>
      </trkpt>
      <trkpt lat="42.73705" lon="1.61745">
        <ele>1867</ele>
        <time>2024-07-09T10:04:20.000Z</time>
      </trkpt>
      <trkpt lat="42.73698" lon="1.6175">
        <ele>1868</ele>
        <time>2024-07-09T10:04:27.000Z</time>
      </trkpt>
      <trkpt lat="42.73692" lon="1.61753">
        <ele>1868.4000244141</ele>
        <time>2024-07-09T10:04:35.000Z</time>
      </trkpt>
      <trkpt lat="42.73692" lon="1.61753">
        <ele>1868.4000244141</ele>
        <time>2024-07-09T10:04:36.000Z</time>
      </trkpt>
      <trkpt lat="42.73684" lon="1.61759">
        <ele>1868</ele>
        <time>2024-07-09T10:04:46.000Z</time>
      </trkpt>
      <trkpt lat="42.73681" lon="1.61761">
        <ele>1868</ele>
        <time>2024-07-09T10:04:50.000Z</time>
      </trkpt>
      <trkpt lat="42.73679" lon="1.61764">
        <ele>1868.1999511719</ele>
        <time>2024-07-09T10:04:54.000Z</time>
      </trkpt>
      <trkpt lat="42.73678" lon="1.61767">
        <ele>1868</ele>
        <time>2024-07-09T10:04:56.000Z</time>
      </trkpt>
      <trkpt lat="42.73677" lon="1.61773">
        <ele>1867.8000488281</ele>
        <time>2024-07-09T10:05:00.000Z</time>
      </trkpt>
      <trkpt lat="42.73672" lon="1.61785">
        <ele>1867.8000488281</ele>
        <time>2024-07-09T10:05:08.000Z</time>
      </trkpt>
      <trkpt lat="42.73665" lon="1.61795">
        <ele>1868.4000244141</ele>
        <time>2024-07-09T10:05:18.000Z</time>
      </trkpt>
      <trkpt lat="42.73652" lon="1.61806">
        <ele>1870.4000244141</ele>
        <time>2024-07-09T10:05:30.000Z</time>
      </trkpt>
      <trkpt lat="42.73649" lon="1.61815">
        <ele>1870.1999511719</ele>
        <time>2024-07-09T10:05:38.000Z</time>
      </trkpt>
      <trkpt lat="42.73645" lon="1.61828">
        <ele>1869.4000244141</ele>
        <time>2024-07-09T10:05:47.000Z</time>
      </trkpt>
      <trkpt lat="42.7364" lon="1.6184">
        <ele>1869.8000488281</ele>
        <time>2024-07-09T10:05:56.000Z</time>
      </trkpt>
      <trkpt lat="42.73637" lon="1.61843">
        <ele>1870.4000244141</ele>
        <time>2024-07-09T10:06:00.000Z</time>
      </trkpt>
      <trkpt lat="42.73634" lon="1.6185">
        <ele>1871.4000244141</ele>
        <time>2024-07-09T10:06:05.000Z</time>
      </trkpt>
      <trkpt lat="42.73628" lon="1.61864">
        <ele>1870.4000244141</ele>
        <time>2024-07-09T10:06:15.000Z</time>
      </trkpt>
      <trkpt lat="42.73618" lon="1.61874">
        <ele>1872.1999511719</ele>
        <time>2024-07-09T10:06:27.000Z</time>
      </trkpt>
      <trkpt lat="42.73612" lon="1.61881">
        <ele>1873.1999511719</ele>
        <time>2024-07-09T10:06:36.000Z</time>
      </trkpt>
      <trkpt lat="42.73606" lon="1.61888">
        <ele>1874</ele>
        <time>2024-07-09T10:06:44.000Z</time>
      </trkpt>
      <trkpt lat="42.736" lon="1.61895">
        <ele>1874.8000488281</ele>
        <time>2024-07-09T10:06:52.000Z</time>
      </trkpt>
      <trkpt lat="42.73599" lon="1.61896">
        <ele>1875</ele>
        <time>2024-07-09T10:06:53.000Z</time>
      </trkpt>
      <trkpt lat="42.73594" lon="1.61899">
        <ele>1876</ele>
        <time>2024-07-09T10:07:01.000Z</time>
      </trkpt>
      <trkpt lat="42.73594" lon="1.61899">
        <ele>1876</ele>
        <time>2024-07-09T10:07:12.000Z</time>
      </trkpt>
      <trkpt lat="42.73589" lon="1.619">
        <ele>1877.4000244141</ele>
        <time>2024-07-09T10:07:24.000Z</time>
      </trkpt>
      <trkpt lat="42.73578" lon="1.61905">
        <ele>1880</ele>
        <time>2024-07-09T10:07:33.000Z</time>
      </trkpt>
      <trkpt lat="42.73571" lon="1.61909">
        <ele>1882</ele>
        <time>2024-07-09T10:07:40.000Z</time>
      </trkpt>
      <trkpt lat="42.73562" lon="1.61916">
        <ele>1884.8000488281</ele>
        <time>2024-07-09T10:07:49.000Z</time>
      </trkpt>
      <trkpt lat="42.73555" lon="1.61923">
        <ele>1886.8000488281</ele>
        <time>2024-07-09T10:07:58.000Z</time>
      </trkpt>
      <trkpt lat="42.73548" lon="1.61932">
        <ele>1889</ele>
        <time>2024-07-09T10:08:07.000Z</time>
      </trkpt>
      <trkpt lat="42.7354" lon="1.61943">
        <ele>1890.8000488281</ele>
        <time>2024-07-09T10:08:18.000Z</time>
      </trkpt>
      <trkpt lat="42.7353" lon="1.61956">
        <ele>1891.8000488281</ele>
        <time>2024-07-09T10:08:30.000Z</time>
      </trkpt>
      <trkpt lat="42.7352" lon="1.61968">
        <ele>1891.1999511719</ele>
        <time>2024-07-09T10:08:41.000Z</time>
      </trkpt>
      <trkpt lat="42.73511" lon="1.61979">
        <ele>1890.5999755859</ele>
        <time>2024-07-09T10:08:51.000Z</time>
      </trkpt>
      <trkpt lat="42.73504" lon="1.61993">
        <ele>1889.8000488281</ele>
        <time>2024-07-09T10:09:01.000Z</time>
      </trkpt>
      <trkpt lat="42.73495" lon="1.62005">
        <ele>1889.1999511719</ele>
        <time>2024-07-09T10:09:12.000Z</time>
      </trkpt>
      <trkpt lat="42.73489" lon="1.62016">
        <ele>1888.5999755859</ele>
        <time>2024-07-09T10:09:20.000Z</time>
      </trkpt>
      <trkpt lat="42.73483" lon="1.62027">
        <ele>1887.4000244141</ele>
        <time>2024-07-09T10:09:28.000Z</time>
      </trkpt>
      <trkpt lat="42.73481" lon="1.6203">
        <ele>1887.1999511719</ele>
        <time>2024-07-09T10:09:31.000Z</time>
      </trkpt>
      <trkpt lat="42.73479" lon="1.62031">
        <ele>1887</ele>
        <time>2024-07-09T10:09:35.000Z</time>
      </trkpt>
      <trkpt lat="42.73481" lon="1.6203">
        <ele>1887</ele>
        <time>2024-07-09T10:09:42.000Z</time>
      </trkpt>
      <trkpt lat="42.73477" lon="1.62036">
        <ele>1886.8000488281</ele>
        <time>2024-07-09T10:10:04.000Z</time>
      </trkpt>
      <trkpt lat="42.73468" lon="1.62052">
        <ele>1885.8000488281</ele>
        <time>2024-07-09T10:10:13.000Z</time>
      </trkpt>
      <trkpt lat="42.7346" lon="1.62071">
        <ele>1885.1999511719</ele>
        <time>2024-07-09T10:10:25.000Z</time>
      </trkpt>
      <trkpt lat="42.73453" lon="1.62091">
        <ele>1885</ele>
        <time>2024-07-09T10:10:37.000Z</time>
      </trkpt>
      <trkpt lat="42.73446" lon="1.62108">
        <ele>1884.5999755859</ele>
        <time>2024-07-09T10:10:49.000Z</time>
      </trkpt>
      <trkpt lat="42.73439" lon="1.6213">
        <ele>1883.4000244141</ele>
        <time>2024-07-09T10:11:03.000Z</time>
      </trkpt>
      <trkpt lat="42.73434" lon="1.6215">
        <ele>1880</ele>
        <time>2024-07-09T10:11:16.000Z</time>
      </trkpt>
      <trkpt lat="42.73434" lon="1.62165">
        <ele>1879.4000244141</ele>
        <time>2024-07-09T10:11:25.000Z</time>
      </trkpt>
      <trkpt lat="42.73434" lon="1.62172">
        <ele>1879</ele>
        <time>2024-07-09T10:11:29.000Z</time>
      </trkpt>
      <trkpt lat="42.73433" lon="1.62176">
        <ele>1878.1999511719</ele>
        <time>2024-07-09T10:11:32.000Z</time>
      </trkpt>
      <trkpt lat="42.73432" lon="1.62192">
        <ele>1877.1999511719</ele>
        <time>2024-07-09T10:11:43.000Z</time>
      </trkpt>
      <trkpt lat="42.73429" lon="1.6221">
        <ele>1875.4000244141</ele>
        <time>2024-07-09T10:11:54.000Z</time>
      </trkpt>
      <trkpt lat="42.73428" lon="1.62225">
        <ele>1873.5999755859</ele>
        <time>2024-07-09T10:12:04.000Z</time>
      </trkpt>
      <trkpt lat="42.73428" lon="1.6223">
        <ele>1873.1999511719</ele>
        <time>2024-07-09T10:12:07.000Z</time>
      </trkpt>
      <trkpt lat="42.73425" lon="1.62237">
        <ele>1872.4000244141</ele>
        <time>2024-07-09T10:12:12.000Z</time>
      </trkpt>
      <trkpt lat="42.7342" lon="1.62255">
        <ele>1871</ele>
        <time>2024-07-09T10:12:23.000Z</time>
      </trkpt>
      <trkpt lat="42.73418" lon="1.62268">
        <ele>1870</ele>
        <time>2024-07-09T10:12:31.000Z</time>
      </trkpt>
      <trkpt lat="42.73414" lon="1.62281">
        <ele>1869.4000244141</ele>
        <time>2024-07-09T10:12:39.000Z</time>
      </trkpt>
      <trkpt lat="42.73409" lon="1.62294">
        <ele>1868.1999511719</ele>
        <time>2024-07-09T10:12:48.000Z</time>
      </trkpt>
      <trkpt lat="42.73407" lon="1.62307">
        <ele>1868.8000488281</ele>
        <time>2024-07-09T10:12:58.000Z</time>
      </trkpt>
      <trkpt lat="42.73403" lon="1.62323">
        <ele>1868.4000244141</ele>
        <time>2024-07-09T10:13:11.000Z</time>
      </trkpt>
      <trkpt lat="42.734" lon="1.62331">
        <ele>1868.4000244141</ele>
        <time>2024-07-09T10:14:56.000Z</time>
      </trkpt>
      <trkpt lat="42.73398" lon="1.62339">
        <ele>1868</ele>
        <time>2024-07-09T10:15:00.000Z</time>
      </trkpt>
      <trkpt lat="42.73397" lon="1.62343">
        <ele>1867.4000244141</ele>
        <time>2024-07-09T10:15:03.000Z</time>
      </trkpt>
      <trkpt lat="42.73394" lon="1.62359">
        <ele>1865.4000244141</ele>
        <time>2024-07-09T10:15:13.000Z</time>
      </trkpt>
      <trkpt lat="42.73393" lon="1.62372">
        <ele>1863.4000244141</ele>
        <time>2024-07-09T10:15:22.000Z</time>
      </trkpt>
      <trkpt lat="42.73392" lon="1.6238">
        <ele>1861.8000488281</ele>
        <time>2024-07-09T10:15:28.000Z</time>
      </trkpt>
      <trkpt lat="42.73391" lon="1.62385">
        <ele>1861.1999511719</ele>
        <time>2024-07-09T10:15:31.000Z</time>
      </trkpt>
      <trkpt lat="42.73389" lon="1.62397">
        <ele>1859.1999511719</ele>
        <time>2024-07-09T10:15:39.000Z</time>
      </trkpt>
      <trkpt lat="42.73389" lon="1.62401">
        <ele>1858.8000488281</ele>
        <time>2024-07-09T10:15:42.000Z</time>
      </trkpt>
      <trkpt lat="42.7339" lon="1.62407">
        <ele>1857.4000244141</ele>
        <time>2024-07-09T10:15:46.000Z</time>
      </trkpt>
      <trkpt lat="42.73389" lon="1.62412">
        <ele>1856.5999755859</ele>
        <time>2024-07-09T10:15:51.000Z</time>
      </trkpt>
      <trkpt lat="42.7339" lon="1.62415">
        <ele>1856</ele>
        <time>2024-07-09T10:15:53.000Z</time>
      </trkpt>
      <trkpt lat="42.73391" lon="1.62433">
        <ele>1852.5999755859</ele>
        <time>2024-07-09T10:16:06.000Z</time>
      </trkpt>
      <trkpt lat="42.7339" lon="1.62448">
        <ele>1850.1999511719</ele>
        <time>2024-07-09T10:16:15.000Z</time>
      </trkpt>
      <trkpt lat="42.73385" lon="1.62461">
        <ele>1849.4000244141</ele>
        <time>2024-07-09T10:16:23.000Z</time>
      </trkpt>
      <trkpt lat="42.73381" lon="1.62477">
        <ele>1848</ele>
        <time>2024-07-09T10:16:32.000Z</time>
      </trkpt>
      <trkpt lat="42.73376" lon="1.62491">
        <ele>1846.8000488281</ele>
        <time>2024-07-09T10:16:40.000Z</time>
      </trkpt>
      <trkpt lat="42.7337" lon="1.62509">
        <ele>1844.5999755859</ele>
        <time>2024-07-09T10:16:49.000Z</time>
      </trkpt>
      <trkpt lat="42.73364" lon="1.62524">
        <ele>1842.8000488281</ele>
        <time>2024-07-09T10:16:57.000Z</time>
      </trkpt>
      <trkpt lat="42.7336" lon="1.62538">
        <ele>1840.1999511719</ele>
        <time>2024-07-09T10:17:05.000Z</time>
      </trkpt>
      <trkpt lat="42.73354" lon="1.62558">
        <ele>1838</ele>
        <time>2024-07-09T10:17:16.000Z</time>
      </trkpt>
      <trkpt lat="42.73352" lon="1.6257">
        <ele>1837</ele>
        <time>2024-07-09T10:17:23.000Z</time>
      </trkpt>
      <trkpt lat="42.73345" lon="1.62584">
        <ele>1836</ele>
        <time>2024-07-09T10:17:32.000Z</time>
      </trkpt>
      <trkpt lat="42.73335" lon="1.62592">
        <ele>1835.1999511719</ele>
        <time>2024-07-09T10:17:40.000Z</time>
      </trkpt>
      <trkpt lat="42.73328" lon="1.62602">
        <ele>1833.8000488281</ele>
        <time>2024-07-09T10:17:48.000Z</time>
      </trkpt>
      <trkpt lat="42.73324" lon="1.62619">
        <ele>1832.5999755859</ele>
        <time>2024-07-09T10:17:57.000Z</time>
      </trkpt>
      <trkpt lat="42.73321" lon="1.62636">
        <ele>1831.8000488281</ele>
        <time>2024-07-09T10:18:06.000Z</time>
      </trkpt>
      <trkpt lat="42.73318" lon="1.62649">
        <ele>1831</ele>
        <time>2024-07-09T10:18:14.000Z</time>
      </trkpt>
      <trkpt lat="42.73317" lon="1.6265">
        <ele>1831</ele>
        <time>2024-07-09T10:18:15.000Z</time>
      </trkpt>
      <trkpt lat="42.73315" lon="1.62652">
        <ele>1831</ele>
        <time>2024-07-09T10:18:17.000Z</time>
      </trkpt>
      <trkpt lat="42.73314" lon="1.62656">
        <ele>1830.8000488281</ele>
        <time>2024-07-09T10:18:19.000Z</time>
      </trkpt>
      <trkpt lat="42.73309" lon="1.62673">
        <ele>1829.5999755859</ele>
        <time>2024-07-09T10:18:30.000Z</time>
      </trkpt>
      <trkpt lat="42.73309" lon="1.62688">
        <ele>1827</ele>
        <time>2024-07-09T10:18:38.000Z</time>
      </trkpt>
      <trkpt lat="42.73311" lon="1.62703">
        <ele>1824.1999511719</ele>
        <time>2024-07-09T10:18:45.000Z</time>
      </trkpt>
      <trkpt lat="42.73311" lon="1.62713">
        <ele>1822.4000244141</ele>
        <time>2024-07-09T10:18:51.000Z</time>
      </trkpt>
      <trkpt lat="42.73303" lon="1.62727">
        <ele>1819.4000244141</ele>
        <time>2024-07-09T10:19:00.000Z</time>
      </trkpt>
      <trkpt lat="42.73294" lon="1.62741">
        <ele>1815.8000488281</ele>
        <time>2024-07-09T10:19:11.000Z</time>
      </trkpt>
      <trkpt lat="42.73283" lon="1.62755">
        <ele>1810.5999755859</ele>
        <time>2024-07-09T10:19:22.000Z</time>
      </trkpt>
      <trkpt lat="42.73272" lon="1.62766">
        <ele>1805.5999755859</ele>
        <time>2024-07-09T10:19:32.000Z</time>
      </trkpt>
      <trkpt lat="42.73262" lon="1.62777">
        <ele>1801.8000488281</ele>
        <time>2024-07-09T10:19:41.000Z</time>
      </trkpt>
      <trkpt lat="42.73252" lon="1.62788">
        <ele>1798.5999755859</ele>
        <time>2024-07-09T10:19:50.000Z</time>
      </trkpt>
      <trkpt lat="42.73242" lon="1.62793">
        <ele>1796</ele>
        <time>2024-07-09T10:19:58.000Z</time>
      </trkpt>
      <trkpt lat="42.73232" lon="1.62798">
        <ele>1794.1999511719</ele>
        <time>2024-07-09T10:20:06.000Z</time>
      </trkpt>
      <trkpt lat="42.73218" lon="1.628">
        <ele>1793</ele>
        <time>2024-07-09T10:20:18.000Z</time>
      </trkpt>
      <trkpt lat="42.73207" lon="1.62808">
        <ele>1792.1999511719</ele>
        <time>2024-07-09T10:20:27.000Z</time>
      </trkpt>
      <trkpt lat="42.732" lon="1.62825">
        <ele>1792.4000244141</ele>
        <time>2024-07-09T10:20:36.000Z</time>
      </trkpt>
      <trkpt lat="42.73193" lon="1.62838">
        <ele>1791.1999511719</ele>
        <time>2024-07-09T10:20:44.000Z</time>
      </trkpt>
      <trkpt lat="42.73183" lon="1.62851">
        <ele>1790.1999511719</ele>
        <time>2024-07-09T10:20:53.000Z</time>
      </trkpt>
      <trkpt lat="42.73166" lon="1.62864">
        <ele>1789.8000488281</ele>
        <time>2024-07-09T10:21:06.000Z</time>
      </trkpt>
      <trkpt lat="42.73165" lon="1.62865">
        <ele>1790.1999511719</ele>
        <time>2024-07-09T10:21:07.000Z</time>
      </trkpt>
      <trkpt lat="42.73156" lon="1.62876">
        <ele>1792.5999755859</ele>
        <time>2024-07-09T10:21:15.000Z</time>
      </trkpt>
      <trkpt lat="42.73143" lon="1.6289">
        <ele>1792.8000488281</ele>
        <time>2024-07-09T10:21:26.000Z</time>
      </trkpt>
      <trkpt lat="42.73132" lon="1.62897">
        <ele>1790.5999755859</ele>
        <time>2024-07-09T10:21:34.000Z</time>
      </trkpt>
      <trkpt lat="42.73121" lon="1.62909">
        <ele>1788.1999511719</ele>
        <time>2024-07-09T10:21:44.000Z</time>
      </trkpt>
      <trkpt lat="42.73107" lon="1.62924">
        <ele>1783.8000488281</ele>
        <time>2024-07-09T10:21:55.000Z</time>
      </trkpt>
      <trkpt lat="42.73097" lon="1.62935">
        <ele>1782.4000244141</ele>
        <time>2024-07-09T10:22:04.000Z</time>
      </trkpt>
      <trkpt lat="42.73088" lon="1.62944">
        <ele>1783.4000244141</ele>
        <time>2024-07-09T10:22:12.000Z</time>
      </trkpt>
      <trkpt lat="42.73078" lon="1.6295">
        <ele>1780.8000488281</ele>
        <time>2024-07-09T10:22:20.000Z</time>
      </trkpt>
      <trkpt lat="42.7307" lon="1.62947">
        <ele>1777.8000488281</ele>
        <time>2024-07-09T10:22:26.000Z</time>
      </trkpt>
      <trkpt lat="42.73068" lon="1.62945">
        <ele>1776.8000488281</ele>
        <time>2024-07-09T10:22:32.000Z</time>
      </trkpt>
      <trkpt lat="42.73067" lon="1.62944">
        <ele>1776</ele>
        <time>2024-07-09T10:22:40.000Z</time>
      </trkpt>
      <trkpt lat="42.7306" lon="1.62939">
        <ele>1772.5999755859</ele>
        <time>2024-07-09T10:22:48.000Z</time>
      </trkpt>
      <trkpt lat="42.73054" lon="1.62934">
        <ele>1769.1999511719</ele>
        <time>2024-07-09T10:22:57.000Z</time>
      </trkpt>
      <trkpt lat="42.73053" lon="1.62928">
        <ele>1767.4000244141</ele>
        <time>2024-07-09T10:23:03.000Z</time>
      </trkpt>
      <trkpt lat="42.73047" lon="1.62919">
        <ele>1763.8000488281</ele>
        <time>2024-07-09T10:23:12.000Z</time>
      </trkpt>
      <trkpt lat="42.73043" lon="1.62912">
        <ele>1762.1999511719</ele>
        <time>2024-07-09T10:23:18.000Z</time>
      </trkpt>
      <trkpt lat="42.73041" lon="1.62911">
        <ele>1761.5999755859</ele>
        <time>2024-07-09T10:23:20.000Z</time>
      </trkpt>
      <trkpt lat="42.7304" lon="1.62911">
        <ele>1761.1999511719</ele>
        <time>2024-07-09T10:23:21.000Z</time>
      </trkpt>
      <trkpt lat="42.73034" lon="1.62913">
        <ele>1758.4000244141</ele>
        <time>2024-07-09T10:23:27.000Z</time>
      </trkpt>
      <trkpt lat="42.73027" lon="1.62912">
        <ele>1757.1999511719</ele>
        <time>2024-07-09T10:23:34.000Z</time>
      </trkpt>
      <trkpt lat="42.73018" lon="1.6291">
        <ele>1754.5999755859</ele>
        <time>2024-07-09T10:23:43.000Z</time>
      </trkpt>
      <trkpt lat="42.73003" lon="1.62908">
        <ele>1750.5999755859</ele>
        <time>2024-07-09T10:23:53.000Z</time>
      </trkpt>
      <trkpt lat="42.72989" lon="1.62904">
        <ele>1746.5999755859</ele>
        <time>2024-07-09T10:24:02.000Z</time>
      </trkpt>
      <trkpt lat="42.7298" lon="1.62897">
        <ele>1744.5999755859</ele>
        <time>2024-07-09T10:24:09.000Z</time>
      </trkpt>
      <trkpt lat="42.72978" lon="1.62887">
        <ele>1745</ele>
        <time>2024-07-09T10:24:15.000Z</time>
      </trkpt>
      <trkpt lat="42.72978" lon="1.62885">
        <ele>1744.8000488281</ele>
        <time>2024-07-09T10:24:19.000Z</time>
      </trkpt>
      <trkpt lat="42.72975" lon="1.62885">
        <ele>1744.1999511719</ele>
        <time>2024-07-09T10:24:22.000Z</time>
      </trkpt>
      <trkpt lat="42.72974" lon="1.62886">
        <ele>1744</ele>
        <time>2024-07-09T10:24:23.000Z</time>
      </trkpt>
      <trkpt lat="42.72973" lon="1.62886">
        <ele>1743.8000488281</ele>
        <time>2024-07-09T10:24:24.000Z</time>
      </trkpt>
      <trkpt lat="42.7297" lon="1.62883">
        <ele>1743</ele>
        <time>2024-07-09T10:24:27.000Z</time>
      </trkpt>
      <trkpt lat="42.72962" lon="1.62878">
        <ele>1740.8000488281</ele>
        <time>2024-07-09T10:24:34.000Z</time>
      </trkpt>
      <trkpt lat="42.72954" lon="1.62869">
        <ele>1739.5999755859</ele>
        <time>2024-07-09T10:24:42.000Z</time>
      </trkpt>
      <trkpt lat="42.72942" lon="1.62855">
        <ele>1740</ele>
        <time>2024-07-09T10:24:54.000Z</time>
      </trkpt>
      <trkpt lat="42.72933" lon="1.62843">
        <ele>1741.4000244141</ele>
        <time>2024-07-09T10:25:03.000Z</time>
      </trkpt>
      <trkpt lat="42.72925" lon="1.62833">
        <ele>1741.8000488281</ele>
        <time>2024-07-09T10:25:11.000Z</time>
      </trkpt>
      <trkpt lat="42.72917" lon="1.62823">
        <ele>1739.4000244141</ele>
        <time>2024-07-09T10:25:19.000Z</time>
      </trkpt>
      <trkpt lat="42.72909" lon="1.62811">
        <ele>1736.1999511719</ele>
        <time>2024-07-09T10:25:29.000Z</time>
      </trkpt>
      <trkpt lat="42.72906" lon="1.62801">
        <ele>1734.1999511719</ele>
        <time>2024-07-09T10:25:36.000Z</time>
      </trkpt>
      <trkpt lat="42.72902" lon="1.62794">
        <ele>1732.4000244141</ele>
        <time>2024-07-09T10:25:41.000Z</time>
      </trkpt>
      <trkpt lat="42.72899" lon="1.62794">
        <ele>1731.4000244141</ele>
        <time>2024-07-09T10:25:44.000Z</time>
      </trkpt>
      <trkpt lat="42.72893" lon="1.62794">
        <ele>1729.8000488281</ele>
        <time>2024-07-09T10:25:49.000Z</time>
      </trkpt>
      <trkpt lat="42.72891" lon="1.62795">
        <ele>1729.4000244141</ele>
        <time>2024-07-09T10:25:51.000Z</time>
      </trkpt>
      <trkpt lat="42.7289" lon="1.62796">
        <ele>1729.1999511719</ele>
        <time>2024-07-09T10:25:52.000Z</time>
      </trkpt>
      <trkpt lat="42.72885" lon="1.628">
        <ele>1728.4000244141</ele>
        <time>2024-07-09T10:25:56.000Z</time>
      </trkpt>
      <trkpt lat="42.72884" lon="1.628">
        <ele>1728</ele>
        <time>2024-07-09T10:25:57.000Z</time>
      </trkpt>
      <trkpt lat="42.72882" lon="1.62801">
        <ele>1727.5999755859</ele>
        <time>2024-07-09T10:25:59.000Z</time>
      </trkpt>
      <trkpt lat="42.72879" lon="1.62801">
        <ele>1726.8000488281</ele>
        <time>2024-07-09T10:26:02.000Z</time>
      </trkpt>
      <trkpt lat="42.72878" lon="1.62802">
        <ele>1726.5999755859</ele>
        <time>2024-07-09T10:26:03.000Z</time>
      </trkpt>
      <trkpt lat="42.7287" lon="1.6281">
        <ele>1725</ele>
        <time>2024-07-09T10:26:10.000Z</time>
      </trkpt>
      <trkpt lat="42.72868" lon="1.62808">
        <ele>1724.1999511719</ele>
        <time>2024-07-09T10:26:12.000Z</time>
      </trkpt>
      <trkpt lat="42.72867" lon="1.62806">
        <ele>1723.5999755859</ele>
        <time>2024-07-09T10:26:14.000Z</time>
      </trkpt>
      <trkpt lat="42.72862" lon="1.62806">
        <ele>1721.8000488281</ele>
        <time>2024-07-09T10:26:18.000Z</time>
      </trkpt>
      <trkpt lat="42.72855" lon="1.62808">
        <ele>1719.1999511719</ele>
        <time>2024-07-09T10:26:24.000Z</time>
      </trkpt>
      <trkpt lat="42.72852" lon="1.62808">
        <ele>1718</ele>
        <time>2024-07-09T10:26:27.000Z</time>
      </trkpt>
      <trkpt lat="42.72842" lon="1.62803">
        <ele>1714.1999511719</ele>
        <time>2024-07-09T10:26:36.000Z</time>
      </trkpt>
      <trkpt lat="42.72836" lon="1.62797">
        <ele>1711.8000488281</ele>
        <time>2024-07-09T10:26:44.000Z</time>
      </trkpt>
      <trkpt lat="42.72831" lon="1.62793">
        <ele>1709.1999511719</ele>
        <time>2024-07-09T10:26:51.000Z</time>
      </trkpt>
      <trkpt lat="42.7283" lon="1.6279">
        <ele>1708.5999755859</ele>
        <time>2024-07-09T10:26:53.000Z</time>
      </trkpt>
      <trkpt lat="42.72829" lon="1.62786">
        <ele>1708.1999511719</ele>
        <time>2024-07-09T10:26:56.000Z</time>
      </trkpt>
      <trkpt lat="42.72824" lon="1.62773">
        <ele>1705.8000488281</ele>
        <time>2024-07-09T10:27:05.000Z</time>
      </trkpt>
      <trkpt lat="42.72819" lon="1.62762">
        <ele>1703.1999511719</ele>
        <time>2024-07-09T10:27:13.000Z</time>
      </trkpt>
      <trkpt lat="42.72815" lon="1.62753">
        <ele>1700</ele>
        <time>2024-07-09T10:27:21.000Z</time>
      </trkpt>
      <trkpt lat="42.72812" lon="1.6274">
        <ele>1695.5999755859</ele>
        <time>2024-07-09T10:27:30.000Z</time>
      </trkpt>
      <trkpt lat="42.7281" lon="1.6273">
        <ele>1692</ele>
        <time>2024-07-09T10:27:37.000Z</time>
      </trkpt>
      <trkpt lat="42.72809" lon="1.6272">
        <ele>1689.8000488281</ele>
        <time>2024-07-09T10:27:45.000Z</time>
      </trkpt>
      <trkpt lat="42.72809" lon="1.62715">
        <ele>1689</ele>
        <time>2024-07-09T10:27:49.000Z</time>
      </trkpt>
      <trkpt lat="42.72809" lon="1.6271">
        <ele>1689</ele>
        <time>2024-07-09T10:27:52.000Z</time>
      </trkpt>
      <trkpt lat="42.72808" lon="1.62699">
        <ele>1686.8000488281</ele>
        <time>2024-07-09T10:28:01.000Z</time>
      </trkpt>
      <trkpt lat="42.72809" lon="1.6269">
        <ele>1685.5999755859</ele>
        <time>2024-07-09T10:28:08.000Z</time>
      </trkpt>
      <trkpt lat="42.72806" lon="1.62678">
        <ele>1681.8000488281</ele>
        <time>2024-07-09T10:28:19.000Z</time>
      </trkpt>
      <trkpt lat="42.72801" lon="1.62672">
        <ele>1678</ele>
        <time>2024-07-09T10:28:27.000Z</time>
      </trkpt>
      <trkpt lat="42.72796" lon="1.62678">
        <ele>1676.8000488281</ele>
        <time>2024-07-09T10:28:34.000Z</time>
      </trkpt>
      <trkpt lat="42.72791" lon="1.62689">
        <ele>1675.8000488281</ele>
        <time>2024-07-09T10:28:43.000Z</time>
      </trkpt>
      <trkpt lat="42.72789" lon="1.62691">
        <ele>1675.5999755859</ele>
        <time>2024-07-09T10:28:45.000Z</time>
      </trkpt>
      <trkpt lat="42.72787" lon="1.62692">
        <ele>1674.1999511719</ele>
        <time>2024-07-09T10:28:49.000Z</time>
      </trkpt>
      <trkpt lat="42.72781" lon="1.62691">
        <ele>1670.8000488281</ele>
        <time>2024-07-09T10:28:56.000Z</time>
      </trkpt>
      <trkpt lat="42.7278" lon="1.62692">
        <ele>1670.1999511719</ele>
        <time>2024-07-09T10:28:57.000Z</time>
      </trkpt>
      <trkpt lat="42.72776" lon="1.62698">
        <ele>1668.1999511719</ele>
        <time>2024-07-09T10:29:03.000Z</time>
      </trkpt>
      <trkpt lat="42.72775" lon="1.62698">
        <ele>1667</ele>
        <time>2024-07-09T10:29:05.000Z</time>
      </trkpt>
      <trkpt lat="42.72774" lon="1.62697">
        <ele>1666</ele>
        <time>2024-07-09T10:29:08.000Z</time>
      </trkpt>
      <trkpt lat="42.72771" lon="1.62699">
        <ele>1664</ele>
        <time>2024-07-09T10:29:14.000Z</time>
      </trkpt>
      <trkpt lat="42.72769" lon="1.62701">
        <ele>1663</ele>
        <time>2024-07-09T10:29:17.000Z</time>
      </trkpt>
      <trkpt lat="42.72768" lon="1.62701">
        <ele>1662.4000244141</ele>
        <time>2024-07-09T10:29:19.000Z</time>
      </trkpt>
      <trkpt lat="42.72765" lon="1.627">
        <ele>1660.4000244141</ele>
        <time>2024-07-09T10:29:25.000Z</time>
      </trkpt>
      <trkpt lat="42.7276" lon="1.62705">
        <ele>1656.8000488281</ele>
        <time>2024-07-09T10:29:33.000Z</time>
      </trkpt>
      <trkpt lat="42.72753" lon="1.6271">
        <ele>1653.5999755859</ele>
        <time>2024-07-09T10:29:42.000Z</time>
      </trkpt>
      <trkpt lat="42.72748" lon="1.62716">
        <ele>1651.1999511719</ele>
        <time>2024-07-09T10:29:49.000Z</time>
      </trkpt>
      <trkpt lat="42.72744" lon="1.62719">
        <ele>1649</ele>
        <time>2024-07-09T10:29:56.000Z</time>
      </trkpt>
      <trkpt lat="42.7274" lon="1.6272">
        <ele>1647</ele>
        <time>2024-07-09T10:30:02.000Z</time>
      </trkpt>
      <trkpt lat="42.72737" lon="1.62724">
        <ele>1645.4000244141</ele>
        <time>2024-07-09T10:30:09.000Z</time>
      </trkpt>
      <trkpt lat="42.72736" lon="1.62722">
        <ele>1644.1999511719</ele>
        <time>2024-07-09T10:30:17.000Z</time>
      </trkpt>
      <trkpt lat="42.72729" lon="1.62716">
        <ele>1638.5999755859</ele>
        <time>2024-07-09T10:31:49.000Z</time>
      </trkpt>
      <trkpt lat="42.72724" lon="1.62709">
        <ele>1634.8000488281</ele>
        <time>2024-07-09T10:31:58.000Z</time>
      </trkpt>
      <trkpt lat="42.72723" lon="1.62702">
        <ele>1633</ele>
        <time>2024-07-09T10:32:04.000Z</time>
      </trkpt>
      <trkpt lat="42.72725" lon="1.62697">
        <ele>1632.8000488281</ele>
        <time>2024-07-09T10:32:11.000Z</time>
      </trkpt>
      <trkpt lat="42.72725" lon="1.62697">
        <ele>1633</ele>
        <time>2024-07-09T10:32:24.000Z</time>
      </trkpt>
      <trkpt lat="42.72726" lon="1.62691">
        <ele>1633</ele>
        <time>2024-07-09T10:32:50.000Z</time>
      </trkpt>
      <trkpt lat="42.72727" lon="1.62675">
        <ele>1632.4000244141</ele>
        <time>2024-07-09T10:32:58.000Z</time>
      </trkpt>
      <trkpt lat="42.72729" lon="1.6266">
        <ele>1632</ele>
        <time>2024-07-09T10:33:08.000Z</time>
      </trkpt>
      <trkpt lat="42.72729" lon="1.62653">
        <ele>1630.8000488281</ele>
        <time>2024-07-09T10:33:14.000Z</time>
      </trkpt>
      <trkpt lat="42.72729" lon="1.62642">
        <ele>1629</ele>
        <time>2024-07-09T10:33:22.000Z</time>
      </trkpt>
      <trkpt lat="42.72729" lon="1.62633">
        <ele>1627.1999511719</ele>
        <time>2024-07-09T10:33:29.000Z</time>
      </trkpt>
      <trkpt lat="42.72725" lon="1.62633">
        <ele>1625</ele>
        <time>2024-07-09T10:33:35.000Z</time>
      </trkpt>
      <trkpt lat="42.72721" lon="1.62637">
        <ele>1623.5999755859</ele>
        <time>2024-07-09T10:33:40.000Z</time>
      </trkpt>
      <trkpt lat="42.72717" lon="1.6264">
        <ele>1621.4000244141</ele>
        <time>2024-07-09T10:33:45.000Z</time>
      </trkpt>
      <trkpt lat="42.7271" lon="1.62642">
        <ele>1617.8000488281</ele>
        <time>2024-07-09T10:33:53.000Z</time>
      </trkpt>
      <trkpt lat="42.72705" lon="1.62646">
        <ele>1615</ele>
        <time>2024-07-09T10:34:00.000Z</time>
      </trkpt>
      <trkpt lat="42.72699" lon="1.62654">
        <ele>1613.1999511719</ele>
        <time>2024-07-09T10:34:07.000Z</time>
      </trkpt>
      <trkpt lat="42.72691" lon="1.62661">
        <ele>1611</ele>
        <time>2024-07-09T10:34:16.000Z</time>
      </trkpt>
      <trkpt lat="42.72686" lon="1.62666">
        <ele>1609.8000488281</ele>
        <time>2024-07-09T10:34:21.000Z</time>
      </trkpt>
      <trkpt lat="42.72683" lon="1.6267">
        <ele>1609</ele>
        <time>2024-07-09T10:34:25.000Z</time>
      </trkpt>
      <trkpt lat="42.72674" lon="1.62681">
        <ele>1606.8000488281</ele>
        <time>2024-07-09T10:34:37.000Z</time>
      </trkpt>
      <trkpt lat="42.72672" lon="1.62684">
        <ele>1606.8000488281</ele>
        <time>2024-07-09T10:34:40.000Z</time>
      </trkpt>
      <trkpt lat="42.72669" lon="1.62689">
        <ele>1606.5999755859</ele>
        <time>2024-07-09T10:34:44.000Z</time>
      </trkpt>
      <trkpt lat="42.72664" lon="1.62692">
        <ele>1605.8000488281</ele>
        <time>2024-07-09T10:34:50.000Z</time>
      </trkpt>
      <trkpt lat="42.72662" lon="1.62693">
        <ele>1605.4000244141</ele>
        <time>2024-07-09T10:34:52.000Z</time>
      </trkpt>
      <trkpt lat="42.72655" lon="1.62695">
        <ele>1603.5999755859</ele>
        <time>2024-07-09T10:34:59.000Z</time>
      </trkpt>
      <trkpt lat="42.72652" lon="1.62697">
        <ele>1602.8000488281</ele>
        <time>2024-07-09T10:35:02.000Z</time>
      </trkpt>
      <trkpt lat="42.7265" lon="1.62696">
        <ele>1602.1999511719</ele>
        <time>2024-07-09T10:35:04.000Z</time>
      </trkpt>
      <trkpt lat="42.72646" lon="1.62697">
        <ele>1601.1999511719</ele>
        <time>2024-07-09T10:35:07.000Z</time>
      </trkpt>
      <trkpt lat="42.72633" lon="1.62701">
        <ele>1598</ele>
        <time>2024-07-09T10:35:18.000Z</time>
      </trkpt>
      <trkpt lat="42.72619" lon="1.62708">
        <ele>1594.8000488281</ele>
        <time>2024-07-09T10:35:28.000Z</time>
      </trkpt>
      <trkpt lat="42.72608" lon="1.62712">
        <ele>1592.8000488281</ele>
        <time>2024-07-09T10:35:37.000Z</time>
      </trkpt>
      <trkpt lat="42.72597" lon="1.62711">
        <ele>1591.1999511719</ele>
        <time>2024-07-09T10:35:46.000Z</time>
      </trkpt>
      <trkpt lat="42.72586" lon="1.62711">
        <ele>1590</ele>
        <time>2024-07-09T10:35:55.000Z</time>
      </trkpt>
      <trkpt lat="42.72581" lon="1.62713">
        <ele>1589.4000244141</ele>
        <time>2024-07-09T10:35:59.000Z</time>
      </trkpt>
      <trkpt lat="42.72578" lon="1.62712">
        <ele>1588.8000488281</ele>
        <time>2024-07-09T10:36:02.000Z</time>
      </trkpt>
      <trkpt lat="42.72571" lon="1.62708">
        <ele>1587.4000244141</ele>
        <time>2024-07-09T10:36:09.000Z</time>
      </trkpt>
      <trkpt lat="42.72565" lon="1.62705">
        <ele>1586.1999511719</ele>
        <time>2024-07-09T10:36:15.000Z</time>
      </trkpt>
      <trkpt lat="42.72561" lon="1.62703">
        <ele>1585.8000488281</ele>
        <time>2024-07-09T10:36:18.000Z</time>
      </trkpt>
      <trkpt lat="42.72552" lon="1.62704">
        <ele>1584.4000244141</ele>
        <time>2024-07-09T10:36:26.000Z</time>
      </trkpt>
      <trkpt lat="42.72542" lon="1.62703">
        <ele>1582.8000488281</ele>
        <time>2024-07-09T10:36:34.000Z</time>
      </trkpt>
      <trkpt lat="42.72537" lon="1.62701">
        <ele>1582</ele>
        <time>2024-07-09T10:36:38.000Z</time>
      </trkpt>
      <trkpt lat="42.72534" lon="1.627">
        <ele>1581.1999511719</ele>
        <time>2024-07-09T10:36:41.000Z</time>
      </trkpt>
      <trkpt lat="42.72526" lon="1.62698">
        <ele>1579.1999511719</ele>
        <time>2024-07-09T10:36:48.000Z</time>
      </trkpt>
      <trkpt lat="42.72515" lon="1.62697">
        <ele>1576</ele>
        <time>2024-07-09T10:36:56.000Z</time>
      </trkpt>
      <trkpt lat="42.72505" lon="1.62695">
        <ele>1573.1999511719</ele>
        <time>2024-07-09T10:37:05.000Z</time>
      </trkpt>
      <trkpt lat="42.72497" lon="1.6269">
        <ele>1570.8000488281</ele>
        <time>2024-07-09T10:37:13.000Z</time>
      </trkpt>
      <trkpt lat="42.72489" lon="1.62679">
        <ele>1567.4000244141</ele>
        <time>2024-07-09T10:37:23.000Z</time>
      </trkpt>
      <trkpt lat="42.72485" lon="1.62676">
        <ele>1566.4000244141</ele>
        <time>2024-07-09T10:37:28.000Z</time>
      </trkpt>
      <trkpt lat="42.72484" lon="1.62675">
        <ele>1565.8000488281</ele>
        <time>2024-07-09T10:37:30.000Z</time>
      </trkpt>
      <trkpt lat="42.72481" lon="1.62675">
        <ele>1565.1999511719</ele>
        <time>2024-07-09T10:37:33.000Z</time>
      </trkpt>
      <trkpt lat="42.72477" lon="1.62674">
        <ele>1564.4000244141</ele>
        <time>2024-07-09T10:37:37.000Z</time>
      </trkpt>
      <trkpt lat="42.72474" lon="1.62674">
        <ele>1563.5999755859</ele>
        <time>2024-07-09T10:37:40.000Z</time>
      </trkpt>
      <trkpt lat="42.72473" lon="1.62669">
        <ele>1562.8000488281</ele>
        <time>2024-07-09T10:37:44.000Z</time>
      </trkpt>
      <trkpt lat="42.72465" lon="1.62664">
        <ele>1561</ele>
        <time>2024-07-09T10:37:52.000Z</time>
      </trkpt>
      <trkpt lat="42.72456" lon="1.62663">
        <ele>1559</ele>
        <time>2024-07-09T10:38:01.000Z</time>
      </trkpt>
      <trkpt lat="42.72446" lon="1.62663">
        <ele>1557.1999511719</ele>
        <time>2024-07-09T10:38:10.000Z</time>
      </trkpt>
      <trkpt lat="42.72439" lon="1.62661">
        <ele>1555.8000488281</ele>
        <time>2024-07-09T10:38:18.000Z</time>
      </trkpt>
      <trkpt lat="42.72434" lon="1.62659">
        <ele>1554.8000488281</ele>
        <time>2024-07-09T10:38:26.000Z</time>
      </trkpt>
      <trkpt lat="42.72434" lon="1.62658">
        <ele>1554.8000488281</ele>
        <time>2024-07-09T10:38:45.000Z</time>
      </trkpt>
      <trkpt lat="42.72425" lon="1.62651">
        <ele>1553</ele>
        <time>2024-07-09T10:38:53.000Z</time>
      </trkpt>
      <trkpt lat="42.72421" lon="1.62651">
        <ele>1552.4000244141</ele>
        <time>2024-07-09T10:39:00.000Z</time>
      </trkpt>
      <trkpt lat="42.72415" lon="1.6265">
        <ele>1551</ele>
        <time>2024-07-09T10:39:07.000Z</time>
      </trkpt>
      <trkpt lat="42.72409" lon="1.6265">
        <ele>1549.8000488281</ele>
        <time>2024-07-09T10:39:14.000Z</time>
      </trkpt>
      <trkpt lat="42.72402" lon="1.62653">
        <ele>1548.4000244141</ele>
        <time>2024-07-09T10:39:21.000Z</time>
      </trkpt>
      <trkpt lat="42.72397" lon="1.62655">
        <ele>1547.1999511719</ele>
        <time>2024-07-09T10:39:27.000Z</time>
      </trkpt>
      <trkpt lat="42.7239" lon="1.62659">
        <ele>1547</ele>
        <time>2024-07-09T10:39:34.000Z</time>
      </trkpt>
      <trkpt lat="42.72388" lon="1.6266">
        <ele>1547</ele>
        <time>2024-07-09T10:39:36.000Z</time>
      </trkpt>
      <trkpt lat="42.72382" lon="1.62667">
        <ele>1546.1999511719</ele>
        <time>2024-07-09T10:39:43.000Z</time>
      </trkpt>
      <trkpt lat="42.72374" lon="1.62681">
        <ele>1546.4000244141</ele>
        <time>2024-07-09T10:39:53.000Z</time>
      </trkpt>
      <trkpt lat="42.72368" lon="1.62695">
        <ele>1546</ele>
        <time>2024-07-09T10:40:03.000Z</time>
      </trkpt>
      <trkpt lat="42.72364" lon="1.62704">
        <ele>1545.8000488281</ele>
        <time>2024-07-09T10:40:11.000Z</time>
      </trkpt>
      <trkpt lat="42.72361" lon="1.62712">
        <ele>1545.8000488281</ele>
        <time>2024-07-09T10:40:18.000Z</time>
      </trkpt>
      <trkpt lat="42.72359" lon="1.62711">
        <ele>1545.5999755859</ele>
        <time>2024-07-09T10:40:20.000Z</time>
      </trkpt>
      <trkpt lat="42.72356" lon="1.62712">
        <ele>1545.5999755859</ele>
        <time>2024-07-09T10:40:23.000Z</time>
      </trkpt>
      <trkpt lat="42.72354" lon="1.62712">
        <ele>1545.5999755859</ele>
        <time>2024-07-09T10:40:27.000Z</time>
      </trkpt>
      <trkpt lat="42.7235" lon="1.62712">
        <ele>1544.5999755859</ele>
        <time>2024-07-09T10:40:33.000Z</time>
      </trkpt>
      <trkpt lat="42.72344" lon="1.62717">
        <ele>1542.4000244141</ele>
        <time>2024-07-09T10:40:39.000Z</time>
      </trkpt>
      <trkpt lat="42.72343" lon="1.62718">
        <ele>1542</ele>
        <time>2024-07-09T10:40:40.000Z</time>
      </trkpt>
      <trkpt lat="42.72341" lon="1.62719">
        <ele>1541.5999755859</ele>
        <time>2024-07-09T10:40:42.000Z</time>
      </trkpt>
      <trkpt lat="42.7234" lon="1.62721">
        <ele>1541</ele>
        <time>2024-07-09T10:40:45.000Z</time>
      </trkpt>
      <trkpt lat="42.72337" lon="1.62727">
        <ele>1539.8000488281</ele>
        <time>2024-07-09T10:40:53.000Z</time>
      </trkpt>
      <trkpt lat="42.72333" lon="1.62737">
        <ele>1538.8000488281</ele>
        <time>2024-07-09T10:41:00.000Z</time>
      </trkpt>
      <trkpt lat="42.72331" lon="1.62742">
        <ele>1538.1999511719</ele>
        <time>2024-07-09T10:41:05.000Z</time>
      </trkpt>
      <trkpt lat="42.72326" lon="1.62748">
        <ele>1537</ele>
        <time>2024-07-09T10:41:11.000Z</time>
      </trkpt>
      <trkpt lat="42.72328" lon="1.62758">
        <ele>1536</ele>
        <time>2024-07-09T10:41:17.000Z</time>
      </trkpt>
      <trkpt lat="42.72322" lon="1.62766">
        <ele>1535.1999511719</ele>
        <time>2024-07-09T10:41:23.000Z</time>
      </trkpt>
      <trkpt lat="42.72318" lon="1.62774">
        <ele>1533.5999755859</ele>
        <time>2024-07-09T10:41:29.000Z</time>
      </trkpt>
      <trkpt lat="42.72315" lon="1.62784">
        <ele>1532</ele>
        <time>2024-07-09T10:41:38.000Z</time>
      </trkpt>
      <trkpt lat="42.72312" lon="1.62796">
        <ele>1529.4000244141</ele>
        <time>2024-07-09T10:41:45.000Z</time>
      </trkpt>
      <trkpt lat="42.72305" lon="1.62813">
        <ele>1525.5999755859</ele>
        <time>2024-07-09T10:41:58.000Z</time>
      </trkpt>
      <trkpt lat="42.723" lon="1.62828">
        <ele>1521.4000244141</ele>
        <time>2024-07-09T10:42:09.000Z</time>
      </trkpt>
      <trkpt lat="42.72298" lon="1.6284">
        <ele>1518.5999755859</ele>
        <time>2024-07-09T10:42:17.000Z</time>
      </trkpt>
      <trkpt lat="42.72297" lon="1.62841">
        <ele>1518.1999511719</ele>
        <time>2024-07-09T10:42:18.000Z</time>
      </trkpt>
      <trkpt lat="42.72297" lon="1.62847">
        <ele>1517</ele>
        <time>2024-07-09T10:42:22.000Z</time>
      </trkpt>
      <trkpt lat="42.72296" lon="1.62848">
        <ele>1516.8000488281</ele>
        <time>2024-07-09T10:42:23.000Z</time>
      </trkpt>
      <trkpt lat="42.72292" lon="1.62849">
        <ele>1516.1999511719</ele>
        <time>2024-07-09T10:42:27.000Z</time>
      </trkpt>
      <trkpt lat="42.72287" lon="1.62853">
        <ele>1514.8000488281</ele>
        <time>2024-07-09T10:42:35.000Z</time>
      </trkpt>
      <trkpt lat="42.72287" lon="1.62855">
        <ele>1514.4000244141</ele>
        <time>2024-07-09T10:42:36.000Z</time>
      </trkpt>
      <trkpt lat="42.72284" lon="1.62863">
        <ele>1512.4000244141</ele>
        <time>2024-07-09T10:42:42.000Z</time>
      </trkpt>
      <trkpt lat="42.72279" lon="1.62866">
        <ele>1512</ele>
        <time>2024-07-09T10:42:50.000Z</time>
      </trkpt>
      <trkpt lat="42.72279" lon="1.62866">
        <ele>1512</ele>
        <time>2024-07-09T10:43:04.000Z</time>
      </trkpt>
      <trkpt lat="42.72275" lon="1.62873">
        <ele>1511</ele>
        <time>2024-07-09T10:43:38.000Z</time>
      </trkpt>
      <trkpt lat="42.72269" lon="1.62878">
        <ele>1510.1999511719</ele>
        <time>2024-07-09T10:43:46.000Z</time>
      </trkpt>
      <trkpt lat="42.72264" lon="1.62883">
        <ele>1508.8000488281</ele>
        <time>2024-07-09T10:43:53.000Z</time>
      </trkpt>
      <trkpt lat="42.72264" lon="1.62883">
        <ele>1508.8000488281</ele>
        <time>2024-07-09T10:43:59.000Z</time>
      </trkpt>
      <trkpt lat="42.72264" lon="1.62883">
        <ele>1508.8000488281</ele>
        <time>2024-07-09T10:44:07.000Z</time>
      </trkpt>
      <trkpt lat="42.72263" lon="1.62883">
        <ele>1508.5999755859</ele>
        <time>2024-07-09T10:44:29.000Z</time>
      </trkpt>
      <trkpt lat="42.72258" lon="1.62883">
        <ele>1508.5999755859</ele>
        <time>2024-07-09T10:46:51.000Z</time>
      </trkpt>
      <trkpt lat="42.72251" lon="1.62893">
        <ele>1506</ele>
        <time>2024-07-09T10:46:59.000Z</time>
      </trkpt>
      <trkpt lat="42.72247" lon="1.62897">
        <ele>1505</ele>
        <time>2024-07-09T10:47:03.000Z</time>
      </trkpt>
      <trkpt lat="42.72244" lon="1.62898">
        <ele>1504.8000488281</ele>
        <time>2024-07-09T10:47:06.000Z</time>
      </trkpt>
      <trkpt lat="42.72235" lon="1.62903">
        <ele>1503.5999755859</ele>
        <time>2024-07-09T10:47:13.000Z</time>
      </trkpt>
      <trkpt lat="42.72233" lon="1.62903">
        <ele>1503.5999755859</ele>
        <time>2024-07-09T10:47:15.000Z</time>
      </trkpt>
      <trkpt lat="42.7223" lon="1.62902">
        <ele>1503.5999755859</ele>
        <time>2024-07-09T10:47:19.000Z</time>
      </trkpt>
      <trkpt lat="42.72224" lon="1.62904">
        <ele>1504.4000244141</ele>
        <time>2024-07-09T10:47:26.000Z</time>
      </trkpt>
      <trkpt lat="42.72215" lon="1.62909">
        <ele>1505.1999511719</ele>
        <time>2024-07-09T10:47:34.000Z</time>
      </trkpt>
      <trkpt lat="42.72208" lon="1.62912">
        <ele>1504.5999755859</ele>
        <time>2024-07-09T10:47:42.000Z</time>
      </trkpt>
      <trkpt lat="42.72204" lon="1.62921">
        <ele>1501.4000244141</ele>
        <time>2024-07-09T10:47:49.000Z</time>
      </trkpt>
      <trkpt lat="42.72199" lon="1.62922">
        <ele>1501.5999755859</ele>
        <time>2024-07-09T10:47:53.000Z</time>
      </trkpt>
      <trkpt lat="42.72189" lon="1.62924">
        <ele>1502.5999755859</ele>
        <time>2024-07-09T10:48:02.000Z</time>
      </trkpt>
      <trkpt lat="42.72188" lon="1.62926">
        <ele>1502</ele>
        <time>2024-07-09T10:48:05.000Z</time>
      </trkpt>
      <trkpt lat="42.72187" lon="1.62928">
        <ele>1501.8000488281</ele>
        <time>2024-07-09T10:48:07.000Z</time>
      </trkpt>
      <trkpt lat="42.72186" lon="1.62928">
        <ele>1502</ele>
        <time>2024-07-09T10:48:08.000Z</time>
      </trkpt>
      <trkpt lat="42.72184" lon="1.62932">
        <ele>1501</ele>
        <time>2024-07-09T10:48:12.000Z</time>
      </trkpt>
      <trkpt lat="42.72183" lon="1.62934">
        <ele>1500.4000244141</ele>
        <time>2024-07-09T10:48:14.000Z</time>
      </trkpt>
      <trkpt lat="42.72181" lon="1.62936">
        <ele>1499.5999755859</ele>
        <time>2024-07-09T10:48:16.000Z</time>
      </trkpt>
      <trkpt lat="42.72179" lon="1.62939">
        <ele>1498.8000488281</ele>
        <time>2024-07-09T10:48:19.000Z</time>
      </trkpt>
      <trkpt lat="42.72172" lon="1.62946">
        <ele>1497</ele>
        <time>2024-07-09T10:48:26.000Z</time>
      </trkpt>
      <trkpt lat="42.72172" lon="1.6295">
        <ele>1495.4000244141</ele>
        <time>2024-07-09T10:48:29.000Z</time>
      </trkpt>
      <trkpt lat="42.72173" lon="1.62955">
        <ele>1493.8000488281</ele>
        <time>2024-07-09T10:48:31.000Z</time>
      </trkpt>
      <trkpt lat="42.72173" lon="1.62957">
        <ele>1493.1999511719</ele>
        <time>2024-07-09T10:48:32.000Z</time>
      </trkpt>
      <trkpt lat="42.72168" lon="1.62967">
        <ele>1490.1999511719</ele>
        <time>2024-07-09T10:48:39.000Z</time>
      </trkpt>
      <trkpt lat="42.72166" lon="1.62969">
        <ele>1489.8000488281</ele>
        <time>2024-07-09T10:48:41.000Z</time>
      </trkpt>
      <trkpt lat="42.72164" lon="1.6297">
        <ele>1489.5999755859</ele>
        <time>2024-07-09T10:48:44.000Z</time>
      </trkpt>
      <trkpt lat="42.72164" lon="1.62971">
        <ele>1489.1999511719</ele>
        <time>2024-07-09T10:48:45.000Z</time>
      </trkpt>
      <trkpt lat="42.72164" lon="1.62973">
        <ele>1488.4000244141</ele>
        <time>2024-07-09T10:48:47.000Z</time>
      </trkpt>
      <trkpt lat="42.72165" lon="1.62978">
        <ele>1486.8000488281</ele>
        <time>2024-07-09T10:48:51.000Z</time>
      </trkpt>
      <trkpt lat="42.72164" lon="1.62979">
        <ele>1486.4000244141</ele>
        <time>2024-07-09T10:48:52.000Z</time>
      </trkpt>
      <trkpt lat="42.72158" lon="1.62985">
        <ele>1485.1999511719</ele>
        <time>2024-07-09T10:48:57.000Z</time>
      </trkpt>
      <trkpt lat="42.72156" lon="1.62986">
        <ele>1485</ele>
        <time>2024-07-09T10:49:00.000Z</time>
      </trkpt>
      <trkpt lat="42.72152" lon="1.62989">
        <ele>1484.4000244141</ele>
        <time>2024-07-09T10:49:05.000Z</time>
      </trkpt>
      <trkpt lat="42.72151" lon="1.62991">
        <ele>1484</ele>
        <time>2024-07-09T10:49:11.000Z</time>
      </trkpt>
      <trkpt lat="42.72151" lon="1.62991">
        <ele>1484</ele>
        <time>2024-07-09T10:49:17.000Z</time>
      </trkpt>
      <trkpt lat="42.7215" lon="1.62987">
        <ele>1484.8000488281</ele>
        <time>2024-07-09T10:49:22.000Z</time>
      </trkpt>
      <trkpt lat="42.72148" lon="1.62989">
        <ele>1484.5999755859</ele>
        <time>2024-07-09T10:49:27.000Z</time>
      </trkpt>
      <trkpt lat="42.72144" lon="1.62993">
        <ele>1483.8000488281</ele>
        <time>2024-07-09T10:49:35.000Z</time>
      </trkpt>
      <trkpt lat="42.7214" lon="1.63006">
        <ele>1480</ele>
        <time>2024-07-09T10:49:44.000Z</time>
      </trkpt>
      <trkpt lat="42.72135" lon="1.63013">
        <ele>1478.1999511719</ele>
        <time>2024-07-09T10:49:50.000Z</time>
      </trkpt>
      <trkpt lat="42.72133" lon="1.63023">
        <ele>1476.4000244141</ele>
        <time>2024-07-09T10:49:56.000Z</time>
      </trkpt>
      <trkpt lat="42.72133" lon="1.63035">
        <ele>1474.4000244141</ele>
        <time>2024-07-09T10:50:05.000Z</time>
      </trkpt>
      <trkpt lat="42.72136" lon="1.63042">
        <ele>1473.4000244141</ele>
        <time>2024-07-09T10:50:12.000Z</time>
      </trkpt>
      <trkpt lat="42.72137" lon="1.63052">
        <ele>1471.5999755859</ele>
        <time>2024-07-09T10:50:20.000Z</time>
      </trkpt>
      <trkpt lat="42.72139" lon="1.63054">
        <ele>1471.4000244141</ele>
        <time>2024-07-09T10:50:23.000Z</time>
      </trkpt>
      <trkpt lat="42.7214" lon="1.63054">
        <ele>1471.5999755859</ele>
        <time>2024-07-09T10:50:26.000Z</time>
      </trkpt>
      <trkpt lat="42.72141" lon="1.63055">
        <ele>1471.4000244141</ele>
        <time>2024-07-09T10:50:27.000Z</time>
      </trkpt>
      <trkpt lat="42.72146" lon="1.6306">
        <ele>1470.8000488281</ele>
        <time>2024-07-09T10:50:33.000Z</time>
      </trkpt>
      <trkpt lat="42.72148" lon="1.6306">
        <ele>1470.5999755859</ele>
        <time>2024-07-09T10:50:34.000Z</time>
      </trkpt>
      <trkpt lat="42.72155" lon="1.63065">
        <ele>1469.1999511719</ele>
        <time>2024-07-09T10:50:41.000Z</time>
      </trkpt>
      <trkpt lat="42.7216" lon="1.63067">
        <ele>1468.1999511719</ele>
        <time>2024-07-09T10:50:47.000Z</time>
      </trkpt>
      <trkpt lat="42.7216" lon="1.63068">
        <ele>1468</ele>
        <time>2024-07-09T10:50:48.000Z</time>
      </trkpt>
      <trkpt lat="42.72163" lon="1.63086">
        <ele>1463</ele>
        <time>2024-07-09T10:50:57.000Z</time>
      </trkpt>
      <trkpt lat="42.72167" lon="1.63099">
        <ele>1460.5999755859</ele>
        <time>2024-07-09T10:51:05.000Z</time>
      </trkpt>
      <trkpt lat="42.72169" lon="1.63105">
        <ele>1459.5999755859</ele>
        <time>2024-07-09T10:51:09.000Z</time>
      </trkpt>
      <trkpt lat="42.7217" lon="1.63107">
        <ele>1459.4000244141</ele>
        <time>2024-07-09T10:51:11.000Z</time>
      </trkpt>
      <trkpt lat="42.72177" lon="1.63112">
        <ele>1458.8000488281</ele>
        <time>2024-07-09T10:51:19.000Z</time>
      </trkpt>
      <trkpt lat="42.72183" lon="1.63114">
        <ele>1459</ele>
        <time>2024-07-09T10:51:24.000Z</time>
      </trkpt>
      <trkpt lat="42.72185" lon="1.63117">
        <ele>1458.8000488281</ele>
        <time>2024-07-09T10:51:27.000Z</time>
      </trkpt>
      <trkpt lat="42.72187" lon="1.63127">
        <ele>1457.5999755859</ele>
        <time>2024-07-09T10:51:34.000Z</time>
      </trkpt>
      <trkpt lat="42.72187" lon="1.63142">
        <ele>1457</ele>
        <time>2024-07-09T10:51:44.000Z</time>
      </trkpt>
      <trkpt lat="42.72188" lon="1.63146">
        <ele>1456.1999511719</ele>
        <time>2024-07-09T10:51:50.000Z</time>
      </trkpt>
      <trkpt lat="42.72191" lon="1.63148">
        <ele>1456</ele>
        <time>2024-07-09T10:51:57.000Z</time>
      </trkpt>
      <trkpt lat="42.72198" lon="1.63155">
        <ele>1454.8000488281</ele>
        <time>2024-07-09T10:52:05.000Z</time>
      </trkpt>
      <trkpt lat="42.72203" lon="1.63161">
        <ele>1453.8000488281</ele>
        <time>2024-07-09T10:52:12.000Z</time>
      </trkpt>
      <trkpt lat="42.72208" lon="1.63162">
        <ele>1453.8000488281</ele>
        <time>2024-07-09T10:52:18.000Z</time>
      </trkpt>
      <trkpt lat="42.7221" lon="1.63168">
        <ele>1452.8000488281</ele>
        <time>2024-07-09T10:52:24.000Z</time>
      </trkpt>
      <trkpt lat="42.72214" lon="1.63177">
        <ele>1451.1999511719</ele>
        <time>2024-07-09T10:52:32.000Z</time>
      </trkpt>
      <trkpt lat="42.72216" lon="1.63181">
        <ele>1450.5999755859</ele>
        <time>2024-07-09T10:52:36.000Z</time>
      </trkpt>
      <trkpt lat="42.72217" lon="1.63187">
        <ele>1449.5999755859</ele>
        <time>2024-07-09T10:52:40.000Z</time>
      </trkpt>
      <trkpt lat="42.7222" lon="1.6319">
        <ele>1449.1999511719</ele>
        <time>2024-07-09T10:52:43.000Z</time>
      </trkpt>
      <trkpt lat="42.72222" lon="1.63191">
        <ele>1449.1999511719</ele>
        <time>2024-07-09T10:52:46.000Z</time>
      </trkpt>
      <trkpt lat="42.72229" lon="1.63192">
        <ele>1449</ele>
        <time>2024-07-09T10:52:53.000Z</time>
      </trkpt>
      <trkpt lat="42.72235" lon="1.63202">
        <ele>1447.8000488281</ele>
        <time>2024-07-09T10:53:00.000Z</time>
      </trkpt>
      <trkpt lat="42.72241" lon="1.63209">
        <ele>1447</ele>
        <time>2024-07-09T10:53:06.000Z</time>
      </trkpt>
      <trkpt lat="42.72243" lon="1.63213">
        <ele>1446.4000244141</ele>
        <time>2024-07-09T10:53:12.000Z</time>
      </trkpt>
      <trkpt lat="42.72245" lon="1.63218">
        <ele>1445.5999755859</ele>
        <time>2024-07-09T10:53:17.000Z</time>
      </trkpt>
      <trkpt lat="42.72247" lon="1.63223">
        <ele>1444.8000488281</ele>
        <time>2024-07-09T10:53:26.000Z</time>
      </trkpt>
      <trkpt lat="42.7225" lon="1.63227">
        <ele>1444.4000244141</ele>
        <time>2024-07-09T10:53:34.000Z</time>
      </trkpt>
      <trkpt lat="42.72256" lon="1.63233">
        <ele>1443.8000488281</ele>
        <time>2024-07-09T10:53:43.000Z</time>
      </trkpt>
      <trkpt lat="42.7226" lon="1.63237">
        <ele>1442.5999755859</ele>
        <time>2024-07-09T10:53:49.000Z</time>
      </trkpt>
      <trkpt lat="42.72261" lon="1.63241">
        <ele>1441.5999755859</ele>
        <time>2024-07-09T10:53:54.000Z</time>
      </trkpt>
      <trkpt lat="42.72266" lon="1.63248">
        <ele>1440</ele>
        <time>2024-07-09T10:54:00.000Z</time>
      </trkpt>
      <trkpt lat="42.72271" lon="1.63251">
        <ele>1438.8000488281</ele>
        <time>2024-07-09T10:54:05.000Z</time>
      </trkpt>
      <trkpt lat="42.72275" lon="1.63255">
        <ele>1437.8000488281</ele>
        <time>2024-07-09T10:54:11.000Z</time>
      </trkpt>
      <trkpt lat="42.72287" lon="1.63258">
        <ele>1435.5999755859</ele>
        <time>2024-07-09T10:54:18.000Z</time>
      </trkpt>
      <trkpt lat="42.72291" lon="1.63257">
        <ele>1435.4000244141</ele>
        <time>2024-07-09T10:54:24.000Z</time>
      </trkpt>
      <trkpt lat="42.72299" lon="1.63256">
        <ele>1435</ele>
        <time>2024-07-09T10:54:31.000Z</time>
      </trkpt>
      <trkpt lat="42.72308" lon="1.63259">
        <ele>1433</ele>
        <time>2024-07-09T10:54:39.000Z</time>
      </trkpt>
      <trkpt lat="42.72315" lon="1.63266">
        <ele>1430.4000244141</ele>
        <time>2024-07-09T10:54:46.000Z</time>
      </trkpt>
      <trkpt lat="42.72322" lon="1.63265">
        <ele>1429.4000244141</ele>
        <time>2024-07-09T10:54:53.000Z</time>
      </trkpt>
      <trkpt lat="42.72327" lon="1.63265">
        <ele>1428.4000244141</ele>
        <time>2024-07-09T10:54:59.000Z</time>
      </trkpt>
      <trkpt lat="42.72332" lon="1.63271">
        <ele>1426.1999511719</ele>
        <time>2024-07-09T10:55:05.000Z</time>
      </trkpt>
      <trkpt lat="42.7234" lon="1.63275">
        <ele>1423.5999755859</ele>
        <time>2024-07-09T10:55:13.000Z</time>
      </trkpt>
      <trkpt lat="42.72342" lon="1.63276">
        <ele>1423</ele>
        <time>2024-07-09T10:55:18.000Z</time>
      </trkpt>
      <trkpt lat="42.72343" lon="1.63276">
        <ele>1423.1999511719</ele>
        <time>2024-07-09T10:55:19.000Z</time>
      </trkpt>
      <trkpt lat="42.72349" lon="1.63283">
        <ele>1420.8000488281</ele>
        <time>2024-07-09T10:55:25.000Z</time>
      </trkpt>
      <trkpt lat="42.72354" lon="1.63287">
        <ele>1419.4000244141</ele>
        <time>2024-07-09T10:55:32.000Z</time>
      </trkpt>
      <trkpt lat="42.72355" lon="1.63291">
        <ele>1418.5999755859</ele>
        <time>2024-07-09T10:55:35.000Z</time>
      </trkpt>
      <trkpt lat="42.72355" lon="1.63298">
        <ele>1417.4000244141</ele>
        <time>2024-07-09T10:55:40.000Z</time>
      </trkpt>
      <trkpt lat="42.72357" lon="1.63301">
        <ele>1416.5999755859</ele>
        <time>2024-07-09T10:55:44.000Z</time>
      </trkpt>
      <trkpt lat="42.72359" lon="1.6331">
        <ele>1414.4000244141</ele>
        <time>2024-07-09T10:55:51.000Z</time>
      </trkpt>
      <trkpt lat="42.72359" lon="1.63317">
        <ele>1413.5999755859</ele>
        <time>2024-07-09T10:55:57.000Z</time>
      </trkpt>
      <trkpt lat="42.72362" lon="1.63323">
        <ele>1412.4000244141</ele>
        <time>2024-07-09T10:56:04.000Z</time>
      </trkpt>
      <trkpt lat="42.72362" lon="1.6333">
        <ele>1411.4000244141</ele>
        <time>2024-07-09T10:56:10.000Z</time>
      </trkpt>
      <trkpt lat="42.72362" lon="1.63331">
        <ele>1411.1999511719</ele>
        <time>2024-07-09T10:56:11.000Z</time>
      </trkpt>
      <trkpt lat="42.72361" lon="1.63338">
        <ele>1410.4000244141</ele>
        <time>2024-07-09T10:56:16.000Z</time>
      </trkpt>
      <trkpt lat="42.72362" lon="1.63343">
        <ele>1409.4000244141</ele>
        <time>2024-07-09T10:56:22.000Z</time>
      </trkpt>
      <trkpt lat="42.72363" lon="1.63345">
        <ele>1409.1999511719</ele>
        <time>2024-07-09T10:56:23.000Z</time>
      </trkpt>
      <trkpt lat="42.72363" lon="1.6335">
        <ele>1408.5999755859</ele>
        <time>2024-07-09T10:56:28.000Z</time>
      </trkpt>
      <trkpt lat="42.72363" lon="1.63358">
        <ele>1407.4000244141</ele>
        <time>2024-07-09T10:56:32.000Z</time>
      </trkpt>
      <trkpt lat="42.72362" lon="1.63361">
        <ele>1407</ele>
        <time>2024-07-09T10:56:34.000Z</time>
      </trkpt>
      <trkpt lat="42.72361" lon="1.63364">
        <ele>1406.5999755859</ele>
        <time>2024-07-09T10:56:36.000Z</time>
      </trkpt>
      <trkpt lat="42.7236" lon="1.6337">
        <ele>1405.4000244141</ele>
        <time>2024-07-09T10:56:40.000Z</time>
      </trkpt>
      <trkpt lat="42.72354" lon="1.6338">
        <ele>1403</ele>
        <time>2024-07-09T10:56:48.000Z</time>
      </trkpt>
      <trkpt lat="42.72358" lon="1.63386">
        <ele>1401.5999755859</ele>
        <time>2024-07-09T10:56:54.000Z</time>
      </trkpt>
      <trkpt lat="42.72357" lon="1.63397">
        <ele>1399.1999511719</ele>
        <time>2024-07-09T10:57:01.000Z</time>
      </trkpt>
      <trkpt lat="42.72355" lon="1.63403">
        <ele>1397.8000488281</ele>
        <time>2024-07-09T10:57:04.000Z</time>
      </trkpt>
      <trkpt lat="42.7235" lon="1.63413">
        <ele>1396.8000488281</ele>
        <time>2024-07-09T10:57:10.000Z</time>
      </trkpt>
      <trkpt lat="42.72347" lon="1.63428">
        <ele>1394.8000488281</ele>
        <time>2024-07-09T10:57:18.000Z</time>
      </trkpt>
      <trkpt lat="42.72348" lon="1.63438">
        <ele>1394.5999755859</ele>
        <time>2024-07-09T10:57:26.000Z</time>
      </trkpt>
      <trkpt lat="42.72347" lon="1.63439">
        <ele>1395</ele>
        <time>2024-07-09T10:57:27.000Z</time>
      </trkpt>
      <trkpt lat="42.72343" lon="1.63444">
        <ele>1397.4000244141</ele>
        <time>2024-07-09T10:57:32.000Z</time>
      </trkpt>
      <trkpt lat="42.72343" lon="1.63448">
        <ele>1397.5999755859</ele>
        <time>2024-07-09T10:57:34.000Z</time>
      </trkpt>
      <trkpt lat="42.72345" lon="1.63451">
        <ele>1396.1999511719</ele>
        <time>2024-07-09T10:57:37.000Z</time>
      </trkpt>
      <trkpt lat="42.72346" lon="1.63453">
        <ele>1395.4000244141</ele>
        <time>2024-07-09T10:57:39.000Z</time>
      </trkpt>
      <trkpt lat="42.72347" lon="1.63456">
        <ele>1394.4000244141</ele>
        <time>2024-07-09T10:57:42.000Z</time>
      </trkpt>
      <trkpt lat="42.72352" lon="1.63463">
        <ele>1390.8000488281</ele>
        <time>2024-07-09T10:57:49.000Z</time>
      </trkpt>
      <trkpt lat="42.72352" lon="1.63474">
        <ele>1389.4000244141</ele>
        <time>2024-07-09T10:57:56.000Z</time>
      </trkpt>
      <trkpt lat="42.72355" lon="1.63481">
        <ele>1387.1999511719</ele>
        <time>2024-07-09T10:58:02.000Z</time>
      </trkpt>
      <trkpt lat="42.72356" lon="1.63491">
        <ele>1385.5999755859</ele>
        <time>2024-07-09T10:58:09.000Z</time>
      </trkpt>
      <trkpt lat="42.7236" lon="1.63491">
        <ele>1383.5999755859</ele>
        <time>2024-07-09T10:58:14.000Z</time>
      </trkpt>
      <trkpt lat="42.72365" lon="1.63494">
        <ele>1381.1999511719</ele>
        <time>2024-07-09T10:58:18.000Z</time>
      </trkpt>
      <trkpt lat="42.7237" lon="1.63498">
        <ele>1379</ele>
        <time>2024-07-09T10:58:23.000Z</time>
      </trkpt>
      <trkpt lat="42.72373" lon="1.635">
        <ele>1378.4000244141</ele>
        <time>2024-07-09T10:58:28.000Z</time>
      </trkpt>
      <trkpt lat="42.72374" lon="1.635">
        <ele>1378.1999511719</ele>
        <time>2024-07-09T10:58:39.000Z</time>
      </trkpt>
      <trkpt lat="42.72374" lon="1.63508">
        <ele>1377.1999511719</ele>
        <time>2024-07-09T10:59:03.000Z</time>
      </trkpt>
      <trkpt lat="42.72378" lon="1.63517">
        <ele>1375.5999755859</ele>
        <time>2024-07-09T10:59:09.000Z</time>
      </trkpt>
      <trkpt lat="42.7238" lon="1.6352">
        <ele>1375.1999511719</ele>
        <time>2024-07-09T10:59:17.000Z</time>
      </trkpt>
      <trkpt lat="42.7238" lon="1.63519">
        <ele>1375.1999511719</ele>
        <time>2024-07-09T10:59:24.000Z</time>
      </trkpt>
      <trkpt lat="42.7238" lon="1.63526">
        <ele>1374.5999755859</ele>
        <time>2024-07-09T10:59:33.000Z</time>
      </trkpt>
      <trkpt lat="42.72384" lon="1.63542">
        <ele>1373</ele>
        <time>2024-07-09T10:59:42.000Z</time>
      </trkpt>
      <trkpt lat="42.72385" lon="1.63545">
        <ele>1372.5999755859</ele>
        <time>2024-07-09T10:59:45.000Z</time>
      </trkpt>
      <trkpt lat="42.72386" lon="1.6355">
        <ele>1372.4000244141</ele>
        <time>2024-07-09T10:59:48.000Z</time>
      </trkpt>
      <trkpt lat="42.72386" lon="1.63554">
        <ele>1372</ele>
        <time>2024-07-09T10:59:51.000Z</time>
      </trkpt>
      <trkpt lat="42.72389" lon="1.63559">
        <ele>1371</ele>
        <time>2024-07-09T10:59:56.000Z</time>
      </trkpt>
      <trkpt lat="42.7239" lon="1.63562">
        <ele>1370.5999755859</ele>
        <time>2024-07-09T10:59:58.000Z</time>
      </trkpt>
      <trkpt lat="42.7239" lon="1.63565">
        <ele>1370.1999511719</ele>
        <time>2024-07-09T11:00:00.000Z</time>
      </trkpt>
      <trkpt lat="42.72391" lon="1.63569">
        <ele>1369.8000488281</ele>
        <time>2024-07-09T11:00:03.000Z</time>
      </trkpt>
      <trkpt lat="42.72392" lon="1.6357">
        <ele>1369.8000488281</ele>
        <time>2024-07-09T11:00:04.000Z</time>
      </trkpt>
      <trkpt lat="42.72391" lon="1.63572">
        <ele>1369.5999755859</ele>
        <time>2024-07-09T11:00:05.000Z</time>
      </trkpt>
      <trkpt lat="42.72392" lon="1.63575">
        <ele>1369.1999511719</ele>
        <time>2024-07-09T11:00:08.000Z</time>
      </trkpt>
      <trkpt lat="42.72393" lon="1.63578">
        <ele>1368.8000488281</ele>
        <time>2024-07-09T11:00:10.000Z</time>
      </trkpt>
      <trkpt lat="42.72394" lon="1.63586">
        <ele>1368.1999511719</ele>
        <time>2024-07-09T11:00:16.000Z</time>
      </trkpt>
      <trkpt lat="42.72393" lon="1.6359">
        <ele>1367.8000488281</ele>
        <time>2024-07-09T11:00:22.000Z</time>
      </trkpt>
      <trkpt lat="42.72392" lon="1.63591">
        <ele>1367.5999755859</ele>
        <time>2024-07-09T11:00:25.000Z</time>
      </trkpt>
      <trkpt lat="42.72391" lon="1.63595">
        <ele>1367.1999511719</ele>
        <time>2024-07-09T11:00:29.000Z</time>
      </trkpt>
      <trkpt lat="42.72389" lon="1.63601">
        <ele>1366.4000244141</ele>
        <time>2024-07-09T11:00:33.000Z</time>
      </trkpt>
      <trkpt lat="42.72387" lon="1.63608">
        <ele>1365.4000244141</ele>
        <time>2024-07-09T11:00:38.000Z</time>
      </trkpt>
      <trkpt lat="42.72381" lon="1.63619">
        <ele>1363.8000488281</ele>
        <time>2024-07-09T11:00:47.000Z</time>
      </trkpt>
      <trkpt lat="42.72373" lon="1.63629">
        <ele>1362</ele>
        <time>2024-07-09T11:00:56.000Z</time>
      </trkpt>
      <trkpt lat="42.72366" lon="1.63638">
        <ele>1359.8000488281</ele>
        <time>2024-07-09T11:01:05.000Z</time>
      </trkpt>
      <trkpt lat="42.72361" lon="1.63642">
        <ele>1359.1999511719</ele>
        <time>2024-07-09T11:01:13.000Z</time>
      </trkpt>
      <trkpt lat="42.7236" lon="1.63642">
        <ele>1359</ele>
        <time>2024-07-09T11:01:20.000Z</time>
      </trkpt>
      <trkpt lat="42.72357" lon="1.63648">
        <ele>1358.1999511719</ele>
        <time>2024-07-09T11:01:30.000Z</time>
      </trkpt>
      <trkpt lat="42.72355" lon="1.63647">
        <ele>1358.4000244141</ele>
        <time>2024-07-09T11:01:36.000Z</time>
      </trkpt>
      <trkpt lat="42.72354" lon="1.63642">
        <ele>1359.1999511719</ele>
        <time>2024-07-09T11:01:43.000Z</time>
      </trkpt>
      <trkpt lat="42.72354" lon="1.63641">
        <ele>1359.1999511719</ele>
        <time>2024-07-09T11:01:49.000Z</time>
      </trkpt>
      <trkpt lat="42.72354" lon="1.6364">
        <ele>1359.4000244141</ele>
        <time>2024-07-09T11:01:57.000Z</time>
      </trkpt>
      <trkpt lat="42.72354" lon="1.63639">
        <ele>1359.5999755859</ele>
        <time>2024-07-09T11:02:06.000Z</time>
      </trkpt>
      <trkpt lat="42.72355" lon="1.63654">
        <ele>1357.4000244141</ele>
        <time>2024-07-09T11:08:59.000Z</time>
      </trkpt>
      <trkpt lat="42.72357" lon="1.63659">
        <ele>1356.5999755859</ele>
        <time>2024-07-09T11:09:01.000Z</time>
      </trkpt>
      <trkpt lat="42.72357" lon="1.63664">
        <ele>1356.4000244141</ele>
        <time>2024-07-09T11:09:03.000Z</time>
      </trkpt>
      <trkpt lat="42.72357" lon="1.63667">
        <ele>1356.1999511719</ele>
        <time>2024-07-09T11:09:05.000Z</time>
      </trkpt>
      <trkpt lat="42.72357" lon="1.63668">
        <ele>1356.1999511719</ele>
        <time>2024-07-09T11:09:06.000Z</time>
      </trkpt>
      <trkpt lat="42.72359" lon="1.63675">
        <ele>1355.8000488281</ele>
        <time>2024-07-09T11:09:11.000Z</time>
      </trkpt>
      <trkpt lat="42.7236" lon="1.6368">
        <ele>1355.4000244141</ele>
        <time>2024-07-09T11:09:15.000Z</time>
      </trkpt>
      <trkpt lat="42.7236" lon="1.63682">
        <ele>1355.4000244141</ele>
        <time>2024-07-09T11:09:19.000Z</time>
      </trkpt>
      <trkpt lat="42.7236" lon="1.63682">
        <ele>1355.4000244141</ele>
        <time>2024-07-09T11:09:31.000Z</time>
      </trkpt>
      <trkpt lat="42.72361" lon="1.6369">
        <ele>1355</ele>
        <time>2024-07-09T11:09:55.000Z</time>
      </trkpt>
      <trkpt lat="42.72359" lon="1.63704">
        <ele>1354.5999755859</ele>
        <time>2024-07-09T11:10:03.000Z</time>
      </trkpt>
      <trkpt lat="42.7236" lon="1.63716">
        <ele>1354.5999755859</ele>
        <time>2024-07-09T11:10:11.000Z</time>
      </trkpt>
      <trkpt lat="42.72359" lon="1.63726">
        <ele>1354</ele>
        <time>2024-07-09T11:10:19.000Z</time>
      </trkpt>
      <trkpt lat="42.72359" lon="1.63738">
        <ele>1353.5999755859</ele>
        <time>2024-07-09T11:10:27.000Z</time>
      </trkpt>
      <trkpt lat="42.72361" lon="1.63755">
        <ele>1353</ele>
        <time>2024-07-09T11:10:38.000Z</time>
      </trkpt>
      <trkpt lat="42.72364" lon="1.63766">
        <ele>1353</ele>
        <time>2024-07-09T11:10:46.000Z</time>
      </trkpt>
      <trkpt lat="42.72364" lon="1.63769">
        <ele>1353</ele>
        <time>2024-07-09T11:10:48.000Z</time>
      </trkpt>
      <trkpt lat="42.72366" lon="1.63776">
        <ele>1353</ele>
        <time>2024-07-09T11:10:53.000Z</time>
      </trkpt>
      <trkpt lat="42.72366" lon="1.63779">
        <ele>1353</ele>
        <time>2024-07-09T11:10:55.000Z</time>
      </trkpt>
      <trkpt lat="42.72365" lon="1.63781">
        <ele>1353.1999511719</ele>
        <time>2024-07-09T11:10:56.000Z</time>
      </trkpt>
      <trkpt lat="42.72363" lon="1.63792">
        <ele>1354</ele>
        <time>2024-07-09T11:11:05.000Z</time>
      </trkpt>
      <trkpt lat="42.72363" lon="1.63808">
        <ele>1355</ele>
        <time>2024-07-09T11:11:17.000Z</time>
      </trkpt>
      <trkpt lat="42.72362" lon="1.63821">
        <ele>1357.5999755859</ele>
        <time>2024-07-09T11:11:27.000Z</time>
      </trkpt>
      <trkpt lat="42.7236" lon="1.63828">
        <ele>1359.1999511719</ele>
        <time>2024-07-09T11:11:34.000Z</time>
      </trkpt>
      <trkpt lat="42.72363" lon="1.63842">
        <ele>1360.4000244141</ele>
        <time>2024-07-09T11:11:46.000Z</time>
      </trkpt>
      <trkpt lat="42.72365" lon="1.63851">
        <ele>1361.8000488281</ele>
        <time>2024-07-09T11:11:55.000Z</time>
      </trkpt>
      <trkpt lat="42.72365" lon="1.63854">
        <ele>1362.1999511719</ele>
        <time>2024-07-09T11:11:57.000Z</time>
      </trkpt>
      <trkpt lat="42.72366" lon="1.63859">
        <ele>1363.1999511719</ele>
        <time>2024-07-09T11:12:03.000Z</time>
      </trkpt>
      <trkpt lat="42.72368" lon="1.63868">
        <ele>1364.5999755859</ele>
        <time>2024-07-09T11:12:12.000Z</time>
      </trkpt>
      <trkpt lat="42.72367" lon="1.63876">
        <ele>1366.5999755859</ele>
        <time>2024-07-09T11:12:19.000Z</time>
      </trkpt>
      <trkpt lat="42.72367" lon="1.63877">
        <ele>1366.8000488281</ele>
        <time>2024-07-09T11:12:20.000Z</time>
      </trkpt>
      <trkpt lat="42.72367" lon="1.6388">
        <ele>1367.4000244141</ele>
        <time>2024-07-09T11:12:24.000Z</time>
      </trkpt>
      <trkpt lat="42.72367" lon="1.63883">
        <ele>1368</ele>
        <time>2024-07-09T11:12:26.000Z</time>
      </trkpt>
      <trkpt lat="42.7237" lon="1.63889">
        <ele>1368.5999755859</ele>
        <time>2024-07-09T11:12:33.000Z</time>
      </trkpt>
      <trkpt lat="42.7237" lon="1.6389">
        <ele>1368.8000488281</ele>
        <time>2024-07-09T11:12:34.000Z</time>
      </trkpt>
      <trkpt lat="42.7237" lon="1.63898">
        <ele>1370.1999511719</ele>
        <time>2024-07-09T11:12:40.000Z</time>
      </trkpt>
      <trkpt lat="42.72373" lon="1.63902">
        <ele>1370.1999511719</ele>
        <time>2024-07-09T11:12:45.000Z</time>
      </trkpt>
      <trkpt lat="42.72379" lon="1.63909">
        <ele>1370.1999511719</ele>
        <time>2024-07-09T11:12:52.000Z</time>
      </trkpt>
      <trkpt lat="42.72382" lon="1.6391">
        <ele>1369.5999755859</ele>
        <time>2024-07-09T11:12:55.000Z</time>
      </trkpt>
      <trkpt lat="42.72383" lon="1.63912">
        <ele>1369.5999755859</ele>
        <time>2024-07-09T11:12:58.000Z</time>
      </trkpt>
      <trkpt lat="42.72385" lon="1.6392">
        <ele>1371</ele>
        <time>2024-07-09T11:13:04.000Z</time>
      </trkpt>
      <trkpt lat="42.7239" lon="1.6393">
        <ele>1371</ele>
        <time>2024-07-09T11:13:11.000Z</time>
      </trkpt>
      <trkpt lat="42.72395" lon="1.63938">
        <ele>1370.5999755859</ele>
        <time>2024-07-09T11:13:18.000Z</time>
      </trkpt>
      <trkpt lat="42.72389" lon="1.63946">
        <ele>1374.1999511719</ele>
        <time>2024-07-09T11:13:24.000Z</time>
      </trkpt>
      <trkpt lat="42.72389" lon="1.63951">
        <ele>1375.4000244141</ele>
        <time>2024-07-09T11:13:27.000Z</time>
      </trkpt>
      <trkpt lat="42.72386" lon="1.63958">
        <ele>1378.5999755859</ele>
        <time>2024-07-09T11:13:31.000Z</time>
      </trkpt>
      <trkpt lat="42.72387" lon="1.63958">
        <ele>1378.4000244141</ele>
        <time>2024-07-09T11:13:32.000Z</time>
      </trkpt>
      <trkpt lat="42.72389" lon="1.63959">
        <ele>1377.5999755859</ele>
        <time>2024-07-09T11:13:35.000Z</time>
      </trkpt>
      <trkpt lat="42.7239" lon="1.63965">
        <ele>1379</ele>
        <time>2024-07-09T11:13:42.000Z</time>
      </trkpt>
      <trkpt lat="42.72392" lon="1.6397">
        <ele>1379.5999755859</ele>
        <time>2024-07-09T11:13:49.000Z</time>
      </trkpt>
      <trkpt lat="42.72394" lon="1.63972">
        <ele>1379.5999755859</ele>
        <time>2024-07-09T11:13:53.000Z</time>
      </trkpt>
      <trkpt lat="42.72397" lon="1.63971">
        <ele>1378.1999511719</ele>
        <time>2024-07-09T11:13:58.000Z</time>
      </trkpt>
      <trkpt lat="42.72398" lon="1.63974">
        <ele>1378.5999755859</ele>
        <time>2024-07-09T11:14:02.000Z</time>
      </trkpt>
      <trkpt lat="42.72399" lon="1.63981">
        <ele>1380.5999755859</ele>
        <time>2024-07-09T11:14:08.000Z</time>
      </trkpt>
      <trkpt lat="42.72402" lon="1.63985">
        <ele>1381</ele>
        <time>2024-07-09T11:14:15.000Z</time>
      </trkpt>
      <trkpt lat="42.72404" lon="1.63989">
        <ele>1381.5999755859</ele>
        <time>2024-07-09T11:14:21.000Z</time>
      </trkpt>
      <trkpt lat="42.72405" lon="1.63997">
        <ele>1384.5999755859</ele>
        <time>2024-07-09T11:14:30.000Z</time>
      </trkpt>
      <trkpt lat="42.72407" lon="1.64001">
        <ele>1385.1999511719</ele>
        <time>2024-07-09T11:14:36.000Z</time>
      </trkpt>
      <trkpt lat="42.72409" lon="1.64005">
        <ele>1386</ele>
        <time>2024-07-09T11:14:42.000Z</time>
      </trkpt>
      <trkpt lat="42.72412" lon="1.64007">
        <ele>1385.4000244141</ele>
        <time>2024-07-09T11:14:49.000Z</time>
      </trkpt>
      <trkpt lat="42.72414" lon="1.64006">
        <ele>1384.5999755859</ele>
        <time>2024-07-09T11:14:56.000Z</time>
      </trkpt>
      <trkpt lat="42.72414" lon="1.64008">
        <ele>1385</ele>
        <time>2024-07-09T11:15:03.000Z</time>
      </trkpt>
      <trkpt lat="42.72416" lon="1.64013">
        <ele>1386.1999511719</ele>
        <time>2024-07-09T11:15:09.000Z</time>
      </trkpt>
      <trkpt lat="42.72412" lon="1.64015">
        <ele>1388</ele>
        <time>2024-07-09T11:15:14.000Z</time>
      </trkpt>
      <trkpt lat="42.72415" lon="1.64017">
        <ele>1387.8000488281</ele>
        <time>2024-07-09T11:15:21.000Z</time>
      </trkpt>
      <trkpt lat="42.7242" lon="1.64024">
        <ele>1388.1999511719</ele>
        <time>2024-07-09T11:15:29.000Z</time>
      </trkpt>
      <trkpt lat="42.72415" lon="1.64033">
        <ele>1393.5999755859</ele>
        <time>2024-07-09T11:15:35.000Z</time>
      </trkpt>
      <trkpt lat="42.7241" lon="1.64032">
        <ele>1395.4000244141</ele>
        <time>2024-07-09T11:15:44.000Z</time>
      </trkpt>
      <trkpt lat="42.72406" lon="1.64034">
        <ele>1397.5999755859</ele>
        <time>2024-07-09T11:15:51.000Z</time>
      </trkpt>
      <trkpt lat="42.72405" lon="1.64034">
        <ele>1398.1999511719</ele>
        <time>2024-07-09T11:15:56.000Z</time>
      </trkpt>
      <trkpt lat="42.72405" lon="1.64036">
        <ele>1398.8000488281</ele>
        <time>2024-07-09T11:16:02.000Z</time>
      </trkpt>
      <trkpt lat="42.72408" lon="1.64035">
        <ele>1397.1999511719</ele>
        <time>2024-07-09T11:16:08.000Z</time>
      </trkpt>
      <trkpt lat="42.72411" lon="1.64037">
        <ele>1396.5999755859</ele>
        <time>2024-07-09T11:16:14.000Z</time>
      </trkpt>
      <trkpt lat="42.72413" lon="1.64037">
        <ele>1396</ele>
        <time>2024-07-09T11:16:19.000Z</time>
      </trkpt>
      <trkpt lat="42.72415" lon="1.64038">
        <ele>1395.1999511719</ele>
        <time>2024-07-09T11:16:24.000Z</time>
      </trkpt>
      <trkpt lat="42.7242" lon="1.64038">
        <ele>1393.5999755859</ele>
        <time>2024-07-09T11:16:32.000Z</time>
      </trkpt>
      <trkpt lat="42.72424" lon="1.64041">
        <ele>1393.4000244141</ele>
        <time>2024-07-09T11:16:40.000Z</time>
      </trkpt>
      <trkpt lat="42.72429" lon="1.64046">
        <ele>1392.8000488281</ele>
        <time>2024-07-09T11:16:47.000Z</time>
      </trkpt>
      <trkpt lat="42.72431" lon="1.64049">
        <ele>1393.1999511719</ele>
        <time>2024-07-09T11:16:49.000Z</time>
      </trkpt>
      <trkpt lat="42.72432" lon="1.64057">
        <ele>1396</ele>
        <time>2024-07-09T11:16:53.000Z</time>
      </trkpt>
      <trkpt lat="42.72432" lon="1.64066">
        <ele>1398.8000488281</ele>
        <time>2024-07-09T11:17:00.000Z</time>
      </trkpt>
      <trkpt lat="42.72434" lon="1.64071">
        <ele>1399.5999755859</ele>
        <time>2024-07-09T11:17:07.000Z</time>
      </trkpt>
      <trkpt lat="42.72434" lon="1.64077">
        <ele>1402.4000244141</ele>
        <time>2024-07-09T11:17:14.000Z</time>
      </trkpt>
      <trkpt lat="42.72435" lon="1.64082">
        <ele>1403.5999755859</ele>
        <time>2024-07-09T11:17:20.000Z</time>
      </trkpt>
      <trkpt lat="42.72435" lon="1.64086">
        <ele>1405</ele>
        <time>2024-07-09T11:17:26.000Z</time>
      </trkpt>
      <trkpt lat="42.72436" lon="1.6409">
        <ele>1406</ele>
        <time>2024-07-09T11:17:34.000Z</time>
      </trkpt>
      <trkpt lat="42.7243" lon="1.64088">
        <ele>1407.8000488281</ele>
        <time>2024-07-09T11:17:40.000Z</time>
      </trkpt>
      <trkpt lat="42.72426" lon="1.64086">
        <ele>1409.1999511719</ele>
        <time>2024-07-09T11:17:45.000Z</time>
      </trkpt>
      <trkpt lat="42.7242" lon="1.64084">
        <ele>1411</ele>
        <time>2024-07-09T11:17:52.000Z</time>
      </trkpt>
      <trkpt lat="42.72412" lon="1.64082">
        <ele>1414</ele>
        <time>2024-07-09T11:18:01.000Z</time>
      </trkpt>
      <trkpt lat="42.72407" lon="1.64082">
        <ele>1416.1999511719</ele>
        <time>2024-07-09T11:18:09.000Z</time>
      </trkpt>
      <trkpt lat="42.7241" lon="1.6409">
        <ele>1418</ele>
        <time>2024-07-09T11:18:18.000Z</time>
      </trkpt>
      <trkpt lat="42.72408" lon="1.64092">
        <ele>1419.4000244141</ele>
        <time>2024-07-09T11:18:24.000Z</time>
      </trkpt>
      <trkpt lat="42.72404" lon="1.64088">
        <ele>1420.1999511719</ele>
        <time>2024-07-09T11:18:31.000Z</time>
      </trkpt>
      <trkpt lat="42.72401" lon="1.64083">
        <ele>1419.5999755859</ele>
        <time>2024-07-09T11:18:38.000Z</time>
      </trkpt>
      <trkpt lat="42.72394" lon="1.64076">
        <ele>1420.1999511719</ele>
        <time>2024-07-09T11:18:45.000Z</time>
      </trkpt>
      <trkpt lat="42.72394" lon="1.64073">
        <ele>1418.8000488281</ele>
        <time>2024-07-09T11:18:51.000Z</time>
      </trkpt>
      <trkpt lat="42.72394" lon="1.64073">
        <ele>1419</ele>
        <time>2024-07-09T11:19:01.000Z</time>
      </trkpt>
      <trkpt lat="42.72382" lon="1.64074">
        <ele>1425.5999755859</ele>
        <time>2024-07-09T11:21:22.000Z</time>
      </trkpt>
      <trkpt lat="42.72376" lon="1.64075">
        <ele>1429.4000244141</ele>
        <time>2024-07-09T11:21:28.000Z</time>
      </trkpt>
      <trkpt lat="42.72376" lon="1.64078">
        <ele>1430.5999755859</ele>
        <time>2024-07-09T11:21:34.000Z</time>
      </trkpt>
      <trkpt lat="42.72378" lon="1.64082">
        <ele>1431.4000244141</ele>
        <time>2024-07-09T11:21:43.000Z</time>
      </trkpt>
      <trkpt lat="42.72381" lon="1.64085">
        <ele>1431</ele>
        <time>2024-07-09T11:21:49.000Z</time>
      </trkpt>
      <trkpt lat="42.72382" lon="1.64089">
        <ele>1431.5999755859</ele>
        <time>2024-07-09T11:21:54.000Z</time>
      </trkpt>
      <trkpt lat="42.72386" lon="1.64091">
        <ele>1430.5999755859</ele>
        <time>2024-07-09T11:22:03.000Z</time>
      </trkpt>
      <trkpt lat="42.72386" lon="1.64096">
        <ele>1432.1999511719</ele>
        <time>2024-07-09T11:22:09.000Z</time>
      </trkpt>
      <trkpt lat="42.72387" lon="1.64098">
        <ele>1432.4000244141</ele>
        <time>2024-07-09T11:22:15.000Z</time>
      </trkpt>
      <trkpt lat="42.72388" lon="1.64103">
        <ele>1434</ele>
        <time>2024-07-09T11:22:24.000Z</time>
      </trkpt>
      <trkpt lat="42.72392" lon="1.64109">
        <ele>1434.4000244141</ele>
        <time>2024-07-09T11:22:32.000Z</time>
      </trkpt>
      <trkpt lat="42.72392" lon="1.64114">
        <ele>1436.1999511719</ele>
        <time>2024-07-09T11:22:39.000Z</time>
      </trkpt>
      <trkpt lat="42.72388" lon="1.64116">
        <ele>1439.5999755859</ele>
        <time>2024-07-09T11:22:44.000Z</time>
      </trkpt>
      <trkpt lat="42.72383" lon="1.64114">
        <ele>1442.1999511719</ele>
        <time>2024-07-09T11:22:52.000Z</time>
      </trkpt>
      <trkpt lat="42.72379" lon="1.64112">
        <ele>1443.1999511719</ele>
        <time>2024-07-09T11:22:59.000Z</time>
      </trkpt>
      <trkpt lat="42.72377" lon="1.64111">
        <ele>1444</ele>
        <time>2024-07-09T11:23:04.000Z</time>
      </trkpt>
      <trkpt lat="42.72371" lon="1.64107">
        <ele>1446.1999511719</ele>
        <time>2024-07-09T11:23:12.000Z</time>
      </trkpt>
      <trkpt lat="42.72369" lon="1.64106">
        <ele>1447</ele>
        <time>2024-07-09T11:23:18.000Z</time>
      </trkpt>
      <trkpt lat="42.72368" lon="1.64105">
        <ele>1447.4000244141</ele>
        <time>2024-07-09T11:23:23.000Z</time>
      </trkpt>
      <trkpt lat="42.72367" lon="1.64106">
        <ele>1447.5999755859</ele>
        <time>2024-07-09T11:23:28.000Z</time>
      </trkpt>
      <trkpt lat="42.7237" lon="1.64109">
        <ele>1447.5999755859</ele>
        <time>2024-07-09T11:23:36.000Z</time>
      </trkpt>
      <trkpt lat="42.72371" lon="1.6411">
        <ele>1447.4000244141</ele>
        <time>2024-07-09T11:23:43.000Z</time>
      </trkpt>
      <trkpt lat="42.72373" lon="1.64114">
        <ele>1447.8000488281</ele>
        <time>2024-07-09T11:23:49.000Z</time>
      </trkpt>
      <trkpt lat="42.72377" lon="1.64116">
        <ele>1446.5999755859</ele>
        <time>2024-07-09T11:23:55.000Z</time>
      </trkpt>
      <trkpt lat="42.7238" lon="1.64119">
        <ele>1445.8000488281</ele>
        <time>2024-07-09T11:24:00.000Z</time>
      </trkpt>
      <trkpt lat="42.72379" lon="1.64121">
        <ele>1448.4000244141</ele>
        <time>2024-07-09T11:24:04.000Z</time>
      </trkpt>
      <trkpt lat="42.72377" lon="1.64126">
        <ele>1451.4000244141</ele>
        <time>2024-07-09T11:24:10.000Z</time>
      </trkpt>
      <trkpt lat="42.72382" lon="1.64131">
        <ele>1451.1999511719</ele>
        <time>2024-07-09T11:24:16.000Z</time>
      </trkpt>
      <trkpt lat="42.72386" lon="1.64134">
        <ele>1450.1999511719</ele>
        <time>2024-07-09T11:24:22.000Z</time>
      </trkpt>
      <trkpt lat="42.72389" lon="1.64135">
        <ele>1449</ele>
        <time>2024-07-09T11:24:28.000Z</time>
      </trkpt>
      <trkpt lat="42.72392" lon="1.64137">
        <ele>1447.5999755859</ele>
        <time>2024-07-09T11:24:34.000Z</time>
      </trkpt>
      <trkpt lat="42.72395" lon="1.6414">
        <ele>1447.5999755859</ele>
        <time>2024-07-09T11:24:41.000Z</time>
      </trkpt>
      <trkpt lat="42.72396" lon="1.64139">
        <ele>1447</ele>
        <time>2024-07-09T11:24:46.000Z</time>
      </trkpt>
      <trkpt lat="42.72399" lon="1.64145">
        <ele>1448.5999755859</ele>
        <time>2024-07-09T11:24:52.000Z</time>
      </trkpt>
      <trkpt lat="42.72395" lon="1.64148">
        <ele>1452.4000244141</ele>
        <time>2024-07-09T11:24:57.000Z</time>
      </trkpt>
      <trkpt lat="42.72389" lon="1.64151">
        <ele>1457.1999511719</ele>
        <time>2024-07-09T11:25:01.000Z</time>
      </trkpt>
      <trkpt lat="42.72387" lon="1.64154">
        <ele>1459.8000488281</ele>
        <time>2024-07-09T11:25:07.000Z</time>
      </trkpt>
      <trkpt lat="42.7239" lon="1.64161">
        <ele>1462</ele>
        <time>2024-07-09T11:25:14.000Z</time>
      </trkpt>
      <trkpt lat="42.72391" lon="1.64169">
        <ele>1465.1999511719</ele>
        <time>2024-07-09T11:25:22.000Z</time>
      </trkpt>
      <trkpt lat="42.72391" lon="1.64174">
        <ele>1467</ele>
        <time>2024-07-09T11:25:28.000Z</time>
      </trkpt>
      <trkpt lat="42.72391" lon="1.64183">
        <ele>1470.5999755859</ele>
        <time>2024-07-09T11:25:33.000Z</time>
      </trkpt>
      <trkpt lat="42.72391" lon="1.64184">
        <ele>1471.4000244141</ele>
        <time>2024-07-09T11:25:38.000Z</time>
      </trkpt>
      <trkpt lat="42.72386" lon="1.64186">
        <ele>1474.5999755859</ele>
        <time>2024-07-09T11:25:45.000Z</time>
      </trkpt>
      <trkpt lat="42.72382" lon="1.64184">
        <ele>1475.4000244141</ele>
        <time>2024-07-09T11:25:52.000Z</time>
      </trkpt>
      <trkpt lat="42.72379" lon="1.64184">
        <ele>1476.5999755859</ele>
        <time>2024-07-09T11:25:59.000Z</time>
      </trkpt>
      <trkpt lat="42.72376" lon="1.64184">
        <ele>1477.8000488281</ele>
        <time>2024-07-09T11:26:06.000Z</time>
      </trkpt>
      <trkpt lat="42.72378" lon="1.64185">
        <ele>1477.4000244141</ele>
        <time>2024-07-09T11:26:13.000Z</time>
      </trkpt>
      <trkpt lat="42.7238" lon="1.64187">
        <ele>1477.4000244141</ele>
        <time>2024-07-09T11:26:19.000Z</time>
      </trkpt>
      <trkpt lat="42.72382" lon="1.64189">
        <ele>1477</ele>
        <time>2024-07-09T11:26:26.000Z</time>
      </trkpt>
      <trkpt lat="42.72382" lon="1.6419">
        <ele>1477.4000244141</ele>
        <time>2024-07-09T11:26:32.000Z</time>
      </trkpt>
      <trkpt lat="42.72382" lon="1.64194">
        <ele>1478.5999755859</ele>
        <time>2024-07-09T11:26:38.000Z</time>
      </trkpt>
      <trkpt lat="42.72378" lon="1.64198">
        <ele>1481.5999755859</ele>
        <time>2024-07-09T11:26:51.000Z</time>
      </trkpt>
      <trkpt lat="42.72373" lon="1.64199">
        <ele>1484.1999511719</ele>
        <time>2024-07-09T11:26:59.000Z</time>
      </trkpt>
      <trkpt lat="42.72372" lon="1.64201">
        <ele>1485</ele>
        <time>2024-07-09T11:27:04.000Z</time>
      </trkpt>
      <trkpt lat="42.72369" lon="1.642">
        <ele>1486</ele>
        <time>2024-07-09T11:27:09.000Z</time>
      </trkpt>
      <trkpt lat="42.72367" lon="1.64203">
        <ele>1488</ele>
        <time>2024-07-09T11:27:16.000Z</time>
      </trkpt>
      <trkpt lat="42.72359" lon="1.64204">
        <ele>1492.1999511719</ele>
        <time>2024-07-09T11:27:22.000Z</time>
      </trkpt>
      <trkpt lat="42.72356" lon="1.64203">
        <ele>1493.1999511719</ele>
        <time>2024-07-09T11:27:27.000Z</time>
      </trkpt>
      <trkpt lat="42.7235" lon="1.64197">
        <ele>1493.5999755859</ele>
        <time>2024-07-09T11:27:36.000Z</time>
      </trkpt>
      <trkpt lat="42.72348" lon="1.64198">
        <ele>1494.8000488281</ele>
        <time>2024-07-09T11:27:42.000Z</time>
      </trkpt>
      <trkpt lat="42.7235" lon="1.64198">
        <ele>1493.5999755859</ele>
        <time>2024-07-09T11:27:49.000Z</time>
      </trkpt>
      <trkpt lat="42.7235" lon="1.64198">
        <ele>1493.5999755859</ele>
        <time>2024-07-09T11:27:55.000Z</time>
      </trkpt>
      <trkpt lat="42.72355" lon="1.64202">
        <ele>1493.1999511719</ele>
        <time>2024-07-09T11:28:36.000Z</time>
      </trkpt>
      <trkpt lat="42.72358" lon="1.64209">
        <ele>1494.5999755859</ele>
        <time>2024-07-09T11:28:42.000Z</time>
      </trkpt>
      <trkpt lat="42.72357" lon="1.64206">
        <ele>1494</ele>
        <time>2024-07-09T11:28:47.000Z</time>
      </trkpt>
      <trkpt lat="42.72352" lon="1.64207">
        <ele>1496.5999755859</ele>
        <time>2024-07-09T11:28:53.000Z</time>
      </trkpt>
      <trkpt lat="42.72347" lon="1.6421">
        <ele>1500</ele>
        <time>2024-07-09T11:28:59.000Z</time>
      </trkpt>
      <trkpt lat="42.72342" lon="1.64208">
        <ele>1501.4000244141</ele>
        <time>2024-07-09T11:29:06.000Z</time>
      </trkpt>
      <trkpt lat="42.72338" lon="1.64208">
        <ele>1503</ele>
        <time>2024-07-09T11:29:11.000Z</time>
      </trkpt>
      <trkpt lat="42.72335" lon="1.64207">
        <ele>1503.8000488281</ele>
        <time>2024-07-09T11:29:18.000Z</time>
      </trkpt>
      <trkpt lat="42.72334" lon="1.64205">
        <ele>1503.5999755859</ele>
        <time>2024-07-09T11:29:25.000Z</time>
      </trkpt>
      <trkpt lat="42.72332" lon="1.64202">
        <ele>1503.1999511719</ele>
        <time>2024-07-09T11:29:31.000Z</time>
      </trkpt>
      <trkpt lat="42.72327" lon="1.642">
        <ele>1504</ele>
        <time>2024-07-09T11:29:37.000Z</time>
      </trkpt>
      <trkpt lat="42.72324" lon="1.64199">
        <ele>1504.5999755859</ele>
        <time>2024-07-09T11:29:43.000Z</time>
      </trkpt>
      <trkpt lat="42.72321" lon="1.64197">
        <ele>1505.1999511719</ele>
        <time>2024-07-09T11:29:48.000Z</time>
      </trkpt>
      <trkpt lat="42.72318" lon="1.64199">
        <ele>1507</ele>
        <time>2024-07-09T11:29:53.000Z</time>
      </trkpt>
      <trkpt lat="42.72318" lon="1.64202">
        <ele>1508.1999511719</ele>
        <time>2024-07-09T11:30:00.000Z</time>
      </trkpt>
      <trkpt lat="42.72316" lon="1.64202">
        <ele>1508.8000488281</ele>
        <time>2024-07-09T11:30:06.000Z</time>
      </trkpt>
      <trkpt lat="42.72312" lon="1.64201">
        <ele>1509.8000488281</ele>
        <time>2024-07-09T11:30:12.000Z</time>
      </trkpt>
      <trkpt lat="42.72309" lon="1.64204">
        <ele>1511.8000488281</ele>
        <time>2024-07-09T11:30:19.000Z</time>
      </trkpt>
      <trkpt lat="42.72312" lon="1.64204">
        <ele>1511.4000244141</ele>
        <time>2024-07-09T11:30:26.000Z</time>
      </trkpt>
      <trkpt lat="42.7231" lon="1.64205">
        <ele>1512</ele>
        <time>2024-07-09T11:30:31.000Z</time>
      </trkpt>
      <trkpt lat="42.72306" lon="1.64205">
        <ele>1513.1999511719</ele>
        <time>2024-07-09T11:30:37.000Z</time>
      </trkpt>
      <trkpt lat="42.72309" lon="1.64207">
        <ele>1513</ele>
        <time>2024-07-09T11:30:43.000Z</time>
      </trkpt>
      <trkpt lat="42.7231" lon="1.64206">
        <ele>1512.4000244141</ele>
        <time>2024-07-09T11:30:48.000Z</time>
      </trkpt>
      <trkpt lat="42.72312" lon="1.64209">
        <ele>1512.8000488281</ele>
        <time>2024-07-09T11:30:55.000Z</time>
      </trkpt>
      <trkpt lat="42.72314" lon="1.64211">
        <ele>1513</ele>
        <time>2024-07-09T11:31:02.000Z</time>
      </trkpt>
      <trkpt lat="42.72318" lon="1.64216">
        <ele>1513.4000244141</ele>
        <time>2024-07-09T11:31:08.000Z</time>
      </trkpt>
      <trkpt lat="42.72319" lon="1.6422">
        <ele>1514.5999755859</ele>
        <time>2024-07-09T11:31:13.000Z</time>
      </trkpt>
      <trkpt lat="42.72319" lon="1.64222">
        <ele>1515.4000244141</ele>
        <time>2024-07-09T11:31:17.000Z</time>
      </trkpt>
      <trkpt lat="42.72314" lon="1.64219">
        <ele>1516.4000244141</ele>
        <time>2024-07-09T11:31:23.000Z</time>
      </trkpt>
      <trkpt lat="42.72308" lon="1.6422">
        <ele>1518.5999755859</ele>
        <time>2024-07-09T11:31:30.000Z</time>
      </trkpt>
      <trkpt lat="42.72311" lon="1.64222">
        <ele>1518.4000244141</ele>
        <time>2024-07-09T11:31:35.000Z</time>
      </trkpt>
      <trkpt lat="42.72315" lon="1.64223">
        <ele>1517.5999755859</ele>
        <time>2024-07-09T11:31:42.000Z</time>
      </trkpt>
      <trkpt lat="42.72313" lon="1.64226">
        <ele>1519.4000244141</ele>
        <time>2024-07-09T11:31:51.000Z</time>
      </trkpt>
      <trkpt lat="42.72316" lon="1.64231">
        <ele>1520.1999511719</ele>
        <time>2024-07-09T11:32:01.000Z</time>
      </trkpt>
      <trkpt lat="42.72317" lon="1.64236">
        <ele>1521.5999755859</ele>
        <time>2024-07-09T11:32:08.000Z</time>
      </trkpt>
      <trkpt lat="42.72321" lon="1.6424">
        <ele>1521.4000244141</ele>
        <time>2024-07-09T11:32:15.000Z</time>
      </trkpt>
      <trkpt lat="42.72323" lon="1.64244">
        <ele>1522.1999511719</ele>
        <time>2024-07-09T11:32:19.000Z</time>
      </trkpt>
      <trkpt lat="42.72324" lon="1.64245">
        <ele>1522.1999511719</ele>
        <time>2024-07-09T11:32:23.000Z</time>
      </trkpt>
      <trkpt lat="42.72319" lon="1.64247">
        <ele>1525</ele>
        <time>2024-07-09T11:32:29.000Z</time>
      </trkpt>
      <trkpt lat="42.72321" lon="1.64251">
        <ele>1525.8000488281</ele>
        <time>2024-07-09T11:32:37.000Z</time>
      </trkpt>
      <trkpt lat="42.72323" lon="1.64254">
        <ele>1525.8000488281</ele>
        <time>2024-07-09T11:32:44.000Z</time>
      </trkpt>
      <trkpt lat="42.72324" lon="1.64258">
        <ele>1527.4000244141</ele>
        <time>2024-07-09T11:32:49.000Z</time>
      </trkpt>
      <trkpt lat="42.72321" lon="1.64259">
        <ele>1528.8000488281</ele>
        <time>2024-07-09T11:32:57.000Z</time>
      </trkpt>
      <trkpt lat="42.72318" lon="1.64258">
        <ele>1529.4000244141</ele>
        <time>2024-07-09T11:33:03.000Z</time>
      </trkpt>
      <trkpt lat="42.72316" lon="1.64255">
        <ele>1529.1999511719</ele>
        <time>2024-07-09T11:33:09.000Z</time>
      </trkpt>
      <trkpt lat="42.72311" lon="1.64257">
        <ele>1531.1999511719</ele>
        <time>2024-07-09T11:33:16.000Z</time>
      </trkpt>
      <trkpt lat="42.72307" lon="1.6426">
        <ele>1533.4000244141</ele>
        <time>2024-07-09T11:33:25.000Z</time>
      </trkpt>
      <trkpt lat="42.7231" lon="1.64261">
        <ele>1533</ele>
        <time>2024-07-09T11:33:32.000Z</time>
      </trkpt>
      <trkpt lat="42.72315" lon="1.64269">
        <ele>1534.4000244141</ele>
        <time>2024-07-09T11:33:44.000Z</time>
      </trkpt>
      <trkpt lat="42.72314" lon="1.6427">
        <ele>1535.1999511719</ele>
        <time>2024-07-09T11:33:49.000Z</time>
      </trkpt>
      <trkpt lat="42.7231" lon="1.64269">
        <ele>1536</ele>
        <time>2024-07-09T11:33:54.000Z</time>
      </trkpt>
      <trkpt lat="42.72308" lon="1.6427">
        <ele>1536.5999755859</ele>
        <time>2024-07-09T11:34:00.000Z</time>
      </trkpt>
      <trkpt lat="42.72304" lon="1.64267">
        <ele>1536.8000488281</ele>
        <time>2024-07-09T11:34:05.000Z</time>
      </trkpt>
      <trkpt lat="42.72298" lon="1.64265">
        <ele>1537.5999755859</ele>
        <time>2024-07-09T11:34:11.000Z</time>
      </trkpt>
      <trkpt lat="42.72294" lon="1.64266">
        <ele>1539</ele>
        <time>2024-07-09T11:34:17.000Z</time>
      </trkpt>
      <trkpt lat="42.72294" lon="1.64268">
        <ele>1539.5999755859</ele>
        <time>2024-07-09T11:34:22.000Z</time>
      </trkpt>
      <trkpt lat="42.72296" lon="1.6427">
        <ele>1540.1999511719</ele>
        <time>2024-07-09T11:34:31.000Z</time>
      </trkpt>
      <trkpt lat="42.72296" lon="1.64275">
        <ele>1542.1999511719</ele>
        <time>2024-07-09T11:34:37.000Z</time>
      </trkpt>
      <trkpt lat="42.72295" lon="1.64275">
        <ele>1542.5999755859</ele>
        <time>2024-07-09T11:34:43.000Z</time>
      </trkpt>
      <trkpt lat="42.72294" lon="1.64275">
        <ele>1542.8000488281</ele>
        <time>2024-07-09T11:34:48.000Z</time>
      </trkpt>
      <trkpt lat="42.72292" lon="1.64273">
        <ele>1542.5999755859</ele>
        <time>2024-07-09T11:34:54.000Z</time>
      </trkpt>
      <trkpt lat="42.7229" lon="1.64272">
        <ele>1542.8000488281</ele>
        <time>2024-07-09T11:35:00.000Z</time>
      </trkpt>
      <trkpt lat="42.72285" lon="1.64271">
        <ele>1543.8000488281</ele>
        <time>2024-07-09T11:35:07.000Z</time>
      </trkpt>
      <trkpt lat="42.72283" lon="1.64272">
        <ele>1545.1999511719</ele>
        <time>2024-07-09T11:35:12.000Z</time>
      </trkpt>
      <trkpt lat="42.7228" lon="1.64272">
        <ele>1546.5999755859</ele>
        <time>2024-07-09T11:35:18.000Z</time>
      </trkpt>
      <trkpt lat="42.72275" lon="1.64271">
        <ele>1548</ele>
        <time>2024-07-09T11:35:24.000Z</time>
      </trkpt>
      <trkpt lat="42.72269" lon="1.6427">
        <ele>1550.1999511719</ele>
        <time>2024-07-09T11:35:31.000Z</time>
      </trkpt>
      <trkpt lat="42.72271" lon="1.64266">
        <ele>1548</ele>
        <time>2024-07-09T11:35:36.000Z</time>
      </trkpt>
      <trkpt lat="42.72271" lon="1.64266">
        <ele>1547.5999755859</ele>
        <time>2024-07-09T11:35:42.000Z</time>
      </trkpt>
      <trkpt lat="42.72273" lon="1.64265">
        <ele>1546.5999755859</ele>
        <time>2024-07-09T11:35:49.000Z</time>
      </trkpt>
      <trkpt lat="42.72273" lon="1.64263">
        <ele>1545.4000244141</ele>
        <time>2024-07-09T11:35:55.000Z</time>
      </trkpt>
      <trkpt lat="42.72268" lon="1.64261">
        <ele>1547</ele>
        <time>2024-07-09T11:36:09.000Z</time>
      </trkpt>
      <trkpt lat="42.72259" lon="1.64262">
        <ele>1551</ele>
        <time>2024-07-09T11:36:15.000Z</time>
      </trkpt>
      <trkpt lat="42.72255" lon="1.6426">
        <ele>1552</ele>
        <time>2024-07-09T11:36:22.000Z</time>
      </trkpt>
      <trkpt lat="42.72248" lon="1.64261">
        <ele>1554.4000244141</ele>
        <time>2024-07-09T11:36:30.000Z</time>
      </trkpt>
      <trkpt lat="42.72241" lon="1.64257">
        <ele>1555.1999511719</ele>
        <time>2024-07-09T11:36:37.000Z</time>
      </trkpt>
      <trkpt lat="42.72238" lon="1.64255">
        <ele>1555.1999511719</ele>
        <time>2024-07-09T11:36:44.000Z</time>
      </trkpt>
      <trkpt lat="42.72233" lon="1.64254">
        <ele>1556.4000244141</ele>
        <time>2024-07-09T11:36:51.000Z</time>
      </trkpt>
      <trkpt lat="42.72229" lon="1.64257">
        <ele>1559</ele>
        <time>2024-07-09T11:36:59.000Z</time>
      </trkpt>
      <trkpt lat="42.72226" lon="1.64256">
        <ele>1559.5999755859</ele>
        <time>2024-07-09T11:37:06.000Z</time>
      </trkpt>
      <trkpt lat="42.72228" lon="1.64258">
        <ele>1559.5999755859</ele>
        <time>2024-07-09T11:37:11.000Z</time>
      </trkpt>
      <trkpt lat="42.72232" lon="1.64262">
        <ele>1560</ele>
        <time>2024-07-09T11:37:19.000Z</time>
      </trkpt>
      <trkpt lat="42.72235" lon="1.64264">
        <ele>1559.8000488281</ele>
        <time>2024-07-09T11:37:25.000Z</time>
      </trkpt>
      <trkpt lat="42.72235" lon="1.64266">
        <ele>1560.5999755859</ele>
        <time>2024-07-09T11:37:30.000Z</time>
      </trkpt>
      <trkpt lat="42.72232" lon="1.64266">
        <ele>1561.8000488281</ele>
        <time>2024-07-09T11:37:39.000Z</time>
      </trkpt>
      <trkpt lat="42.72227" lon="1.6427">
        <ele>1564.4000244141</ele>
        <time>2024-07-09T11:37:46.000Z</time>
      </trkpt>
      <trkpt lat="42.72227" lon="1.64271">
        <ele>1565</ele>
        <time>2024-07-09T11:37:51.000Z</time>
      </trkpt>
      <trkpt lat="42.72229" lon="1.64272">
        <ele>1565.1999511719</ele>
        <time>2024-07-09T11:37:56.000Z</time>
      </trkpt>
      <trkpt lat="42.72225" lon="1.64277">
        <ele>1567.8000488281</ele>
        <time>2024-07-09T11:38:02.000Z</time>
      </trkpt>
      <trkpt lat="42.72221" lon="1.64279">
        <ele>1569.8000488281</ele>
        <time>2024-07-09T11:38:08.000Z</time>
      </trkpt>
      <trkpt lat="42.72219" lon="1.64281">
        <ele>1571.1999511719</ele>
        <time>2024-07-09T11:38:14.000Z</time>
      </trkpt>
      <trkpt lat="42.7222" lon="1.64284">
        <ele>1572.1999511719</ele>
        <time>2024-07-09T11:38:19.000Z</time>
      </trkpt>
      <trkpt lat="42.72219" lon="1.64285">
        <ele>1573.1999511719</ele>
        <time>2024-07-09T11:38:25.000Z</time>
      </trkpt>
      <trkpt lat="42.7222" lon="1.64288">
        <ele>1573.8000488281</ele>
        <time>2024-07-09T11:38:30.000Z</time>
      </trkpt>
      <trkpt lat="42.72218" lon="1.64291">
        <ele>1575.5999755859</ele>
        <time>2024-07-09T11:38:36.000Z</time>
      </trkpt>
      <trkpt lat="42.72212" lon="1.64292">
        <ele>1577.8000488281</ele>
        <time>2024-07-09T11:38:45.000Z</time>
      </trkpt>
      <trkpt lat="42.72208" lon="1.64294">
        <ele>1579.4000244141</ele>
        <time>2024-07-09T11:38:52.000Z</time>
      </trkpt>
      <trkpt lat="42.72205" lon="1.64296">
        <ele>1581</ele>
        <time>2024-07-09T11:38:58.000Z</time>
      </trkpt>
      <trkpt lat="42.722" lon="1.64297">
        <ele>1582</ele>
        <time>2024-07-09T11:39:07.000Z</time>
      </trkpt>
      <trkpt lat="42.72199" lon="1.64297">
        <ele>1582.4000244141</ele>
        <time>2024-07-09T11:39:14.000Z</time>
      </trkpt>
      <trkpt lat="42.72194" lon="1.64298">
        <ele>1584.1999511719</ele>
        <time>2024-07-09T11:39:21.000Z</time>
      </trkpt>
      <trkpt lat="42.72193" lon="1.64299">
        <ele>1585</ele>
        <time>2024-07-09T11:39:26.000Z</time>
      </trkpt>
      <trkpt lat="42.7219" lon="1.64295">
        <ele>1584.4000244141</ele>
        <time>2024-07-09T11:39:31.000Z</time>
      </trkpt>
      <trkpt lat="42.72182" lon="1.64295">
        <ele>1587</ele>
        <time>2024-07-09T11:39:38.000Z</time>
      </trkpt>
      <trkpt lat="42.72178" lon="1.64298">
        <ele>1590</ele>
        <time>2024-07-09T11:39:45.000Z</time>
      </trkpt>
      <trkpt lat="42.72173" lon="1.643">
        <ele>1592.5999755859</ele>
        <time>2024-07-09T11:39:51.000Z</time>
      </trkpt>
      <trkpt lat="42.72169" lon="1.64303">
        <ele>1595.5999755859</ele>
        <time>2024-07-09T11:39:58.000Z</time>
      </trkpt>
      <trkpt lat="42.72167" lon="1.64306">
        <ele>1597.5999755859</ele>
        <time>2024-07-09T11:40:04.000Z</time>
      </trkpt>
      <trkpt lat="42.72162" lon="1.64306">
        <ele>1599</ele>
        <time>2024-07-09T11:40:10.000Z</time>
      </trkpt>
      <trkpt lat="42.72157" lon="1.64305">
        <ele>1599.8000488281</ele>
        <time>2024-07-09T11:40:18.000Z</time>
      </trkpt>
      <trkpt lat="42.72154" lon="1.64303">
        <ele>1600.1999511719</ele>
        <time>2024-07-09T11:40:26.000Z</time>
      </trkpt>
      <trkpt lat="42.72152" lon="1.64302">
        <ele>1600.1999511719</ele>
        <time>2024-07-09T11:40:32.000Z</time>
      </trkpt>
      <trkpt lat="42.72151" lon="1.64299">
        <ele>1599.5999755859</ele>
        <time>2024-07-09T11:40:37.000Z</time>
      </trkpt>
      <trkpt lat="42.72147" lon="1.64301">
        <ele>1601.4000244141</ele>
        <time>2024-07-09T11:40:42.000Z</time>
      </trkpt>
      <trkpt lat="42.72144" lon="1.64302">
        <ele>1602.1999511719</ele>
        <time>2024-07-09T11:40:47.000Z</time>
      </trkpt>
      <trkpt lat="42.72141" lon="1.64302">
        <ele>1603.1999511719</ele>
        <time>2024-07-09T11:40:52.000Z</time>
      </trkpt>
      <trkpt lat="42.72141" lon="1.64303">
        <ele>1603.5999755859</ele>
        <time>2024-07-09T11:40:56.000Z</time>
      </trkpt>
      <trkpt lat="42.72139" lon="1.64304">
        <ele>1604.4000244141</ele>
        <time>2024-07-09T11:41:01.000Z</time>
      </trkpt>
      <trkpt lat="42.72133" lon="1.64303">
        <ele>1605.1999511719</ele>
        <time>2024-07-09T11:41:09.000Z</time>
      </trkpt>
      <trkpt lat="42.72131" lon="1.64304">
        <ele>1605.8000488281</ele>
        <time>2024-07-09T11:41:13.000Z</time>
      </trkpt>
      <trkpt lat="42.72129" lon="1.64303">
        <ele>1606</ele>
        <time>2024-07-09T11:41:21.000Z</time>
      </trkpt>
      <trkpt lat="42.72129" lon="1.64308">
        <ele>1607.1999511719</ele>
        <time>2024-07-09T11:41:29.000Z</time>
      </trkpt>
      <trkpt lat="42.72129" lon="1.64309">
        <ele>1607.8000488281</ele>
        <time>2024-07-09T11:41:36.000Z</time>
      </trkpt>
      <trkpt lat="42.72129" lon="1.6431">
        <ele>1608</ele>
        <time>2024-07-09T11:41:42.000Z</time>
      </trkpt>
      <trkpt lat="42.7213" lon="1.64311">
        <ele>1608.4000244141</ele>
        <time>2024-07-09T11:41:47.000Z</time>
      </trkpt>
      <trkpt lat="42.72126" lon="1.64314">
        <ele>1610</ele>
        <time>2024-07-09T11:41:54.000Z</time>
      </trkpt>
      <trkpt lat="42.72123" lon="1.64315">
        <ele>1610.8000488281</ele>
        <time>2024-07-09T11:41:59.000Z</time>
      </trkpt>
      <trkpt lat="42.72118" lon="1.64315">
        <ele>1611.5999755859</ele>
        <time>2024-07-09T11:42:06.000Z</time>
      </trkpt>
      <trkpt lat="42.7211" lon="1.64319">
        <ele>1613.8000488281</ele>
        <time>2024-07-09T11:42:14.000Z</time>
      </trkpt>
      <trkpt lat="42.72113" lon="1.64322">
        <ele>1614.1999511719</ele>
        <time>2024-07-09T11:42:20.000Z</time>
      </trkpt>
      <trkpt lat="42.72117" lon="1.64324">
        <ele>1614.1999511719</ele>
        <time>2024-07-09T11:42:26.000Z</time>
      </trkpt>
      <trkpt lat="42.72119" lon="1.6433">
        <ele>1615.5999755859</ele>
        <time>2024-07-09T11:42:34.000Z</time>
      </trkpt>
      <trkpt lat="42.72112" lon="1.64333">
        <ele>1617.4000244141</ele>
        <time>2024-07-09T11:42:42.000Z</time>
      </trkpt>
      <trkpt lat="42.72107" lon="1.64332">
        <ele>1617.5999755859</ele>
        <time>2024-07-09T11:42:50.000Z</time>
      </trkpt>
      <trkpt lat="42.72103" lon="1.64332">
        <ele>1618.1999511719</ele>
        <time>2024-07-09T11:43:00.000Z</time>
      </trkpt>
      <trkpt lat="42.72098" lon="1.64332">
        <ele>1618.8000488281</ele>
        <time>2024-07-09T11:43:07.000Z</time>
      </trkpt>
      <trkpt lat="42.7209" lon="1.64333">
        <ele>1620</ele>
        <time>2024-07-09T11:43:16.000Z</time>
      </trkpt>
      <trkpt lat="42.72087" lon="1.64336">
        <ele>1621.1999511719</ele>
        <time>2024-07-09T11:43:22.000Z</time>
      </trkpt>
      <trkpt lat="42.72088" lon="1.64339">
        <ele>1621.8000488281</ele>
        <time>2024-07-09T11:43:27.000Z</time>
      </trkpt>
      <trkpt lat="42.7209" lon="1.6434">
        <ele>1621.8000488281</ele>
        <time>2024-07-09T11:43:33.000Z</time>
      </trkpt>
      <trkpt lat="42.72094" lon="1.64342">
        <ele>1621.8000488281</ele>
        <time>2024-07-09T11:43:41.000Z</time>
      </trkpt>
      <trkpt lat="42.72094" lon="1.64346">
        <ele>1623.1999511719</ele>
        <time>2024-07-09T11:43:47.000Z</time>
      </trkpt>
      <trkpt lat="42.72089" lon="1.64346">
        <ele>1624</ele>
        <time>2024-07-09T11:43:55.000Z</time>
      </trkpt>
      <trkpt lat="42.72088" lon="1.64347">
        <ele>1624.4000244141</ele>
        <time>2024-07-09T11:44:00.000Z</time>
      </trkpt>
      <trkpt lat="42.72088" lon="1.64347">
        <ele>1624.5999755859</ele>
        <time>2024-07-09T11:44:11.000Z</time>
      </trkpt>
      <trkpt lat="42.72092" lon="1.64347">
        <ele>1623.8000488281</ele>
        <time>2024-07-09T11:46:04.000Z</time>
      </trkpt>
      <trkpt lat="42.72095" lon="1.64353">
        <ele>1625.1999511719</ele>
        <time>2024-07-09T11:46:09.000Z</time>
      </trkpt>
      <trkpt lat="42.72099" lon="1.64357">
        <ele>1626.1999511719</ele>
        <time>2024-07-09T11:46:14.000Z</time>
      </trkpt>
      <trkpt lat="42.72102" lon="1.64364">
        <ele>1627.8000488281</ele>
        <time>2024-07-09T11:46:20.000Z</time>
      </trkpt>
      <trkpt lat="42.72108" lon="1.6437">
        <ele>1629</ele>
        <time>2024-07-09T11:46:27.000Z</time>
      </trkpt>
      <trkpt lat="42.72111" lon="1.64376">
        <ele>1630.4000244141</ele>
        <time>2024-07-09T11:46:36.000Z</time>
      </trkpt>
      <trkpt lat="42.72109" lon="1.64378">
        <ele>1631.1999511719</ele>
        <time>2024-07-09T11:46:42.000Z</time>
      </trkpt>
      <trkpt lat="42.72108" lon="1.64377">
        <ele>1631.1999511719</ele>
        <time>2024-07-09T11:46:49.000Z</time>
      </trkpt>
      <trkpt lat="42.72108" lon="1.64376">
        <ele>1631</ele>
        <time>2024-07-09T11:46:57.000Z</time>
      </trkpt>
      <trkpt lat="42.72107" lon="1.64383">
        <ele>1633.4000244141</ele>
        <time>2024-07-09T11:52:46.000Z</time>
      </trkpt>
      <trkpt lat="42.72106" lon="1.64387">
        <ele>1634.8000488281</ele>
        <time>2024-07-09T11:52:51.000Z</time>
      </trkpt>
      <trkpt lat="42.72102" lon="1.64392">
        <ele>1636.8000488281</ele>
        <time>2024-07-09T11:52:56.000Z</time>
      </trkpt>
      <trkpt lat="42.721" lon="1.64392">
        <ele>1637.1999511719</ele>
        <time>2024-07-09T11:52:58.000Z</time>
      </trkpt>
      <trkpt lat="42.72092" lon="1.64393">
        <ele>1638.5999755859</ele>
        <time>2024-07-09T11:53:06.000Z</time>
      </trkpt>
      <trkpt lat="42.72085" lon="1.64393">
        <ele>1639.4000244141</ele>
        <time>2024-07-09T11:53:13.000Z</time>
      </trkpt>
      <trkpt lat="42.72078" lon="1.64391">
        <ele>1639.4000244141</ele>
        <time>2024-07-09T11:53:19.000Z</time>
      </trkpt>
      <trkpt lat="42.72071" lon="1.64395">
        <ele>1641</ele>
        <time>2024-07-09T11:53:28.000Z</time>
      </trkpt>
      <trkpt lat="42.72067" lon="1.64397">
        <ele>1642</ele>
        <time>2024-07-09T11:53:35.000Z</time>
      </trkpt>
      <trkpt lat="42.72071" lon="1.64402">
        <ele>1643</ele>
        <time>2024-07-09T11:53:41.000Z</time>
      </trkpt>
      <trkpt lat="42.72072" lon="1.64406">
        <ele>1644.1999511719</ele>
        <time>2024-07-09T11:53:48.000Z</time>
      </trkpt>
      <trkpt lat="42.72067" lon="1.64406">
        <ele>1644.8000488281</ele>
        <time>2024-07-09T11:53:54.000Z</time>
      </trkpt>
      <trkpt lat="42.72058" lon="1.64407">
        <ele>1646.4000244141</ele>
        <time>2024-07-09T11:54:02.000Z</time>
      </trkpt>
      <trkpt lat="42.72052" lon="1.64406">
        <ele>1647.1999511719</ele>
        <time>2024-07-09T11:54:10.000Z</time>
      </trkpt>
      <trkpt lat="42.72048" lon="1.64407">
        <ele>1648</ele>
        <time>2024-07-09T11:54:16.000Z</time>
      </trkpt>
      <trkpt lat="42.72051" lon="1.64412">
        <ele>1649.4000244141</ele>
        <time>2024-07-09T11:54:22.000Z</time>
      </trkpt>
      <trkpt lat="42.72047" lon="1.64415">
        <ele>1650.8000488281</ele>
        <time>2024-07-09T11:54:28.000Z</time>
      </trkpt>
      <trkpt lat="42.72042" lon="1.64421">
        <ele>1653.1999511719</ele>
        <time>2024-07-09T11:54:39.000Z</time>
      </trkpt>
      <trkpt lat="42.72037" lon="1.64423">
        <ele>1654.4000244141</ele>
        <time>2024-07-09T11:54:46.000Z</time>
      </trkpt>
      <trkpt lat="42.72033" lon="1.64424">
        <ele>1655</ele>
        <time>2024-07-09T11:54:54.000Z</time>
      </trkpt>
      <trkpt lat="42.72031" lon="1.64429">
        <ele>1657</ele>
        <time>2024-07-09T11:55:03.000Z</time>
      </trkpt>
      <trkpt lat="42.72025" lon="1.64429">
        <ele>1658</ele>
        <time>2024-07-09T11:55:10.000Z</time>
      </trkpt>
      <trkpt lat="42.72023" lon="1.64433">
        <ele>1659.4000244141</ele>
        <time>2024-07-09T11:55:17.000Z</time>
      </trkpt>
      <trkpt lat="42.72018" lon="1.64435">
        <ele>1660.5999755859</ele>
        <time>2024-07-09T11:55:23.000Z</time>
      </trkpt>
      <trkpt lat="42.72016" lon="1.64439">
        <ele>1662</ele>
        <time>2024-07-09T11:55:31.000Z</time>
      </trkpt>
      <trkpt lat="42.72011" lon="1.64443">
        <ele>1663.1999511719</ele>
        <time>2024-07-09T11:55:41.000Z</time>
      </trkpt>
      <trkpt lat="42.7201" lon="1.64448">
        <ele>1664.5999755859</ele>
        <time>2024-07-09T11:55:51.000Z</time>
      </trkpt>
      <trkpt lat="42.72009" lon="1.64454">
        <ele>1665.8000488281</ele>
        <time>2024-07-09T11:55:57.000Z</time>
      </trkpt>
      <trkpt lat="42.72007" lon="1.64457">
        <ele>1666.1999511719</ele>
        <time>2024-07-09T11:56:04.000Z</time>
      </trkpt>
      <trkpt lat="42.72007" lon="1.64456">
        <ele>1666</ele>
        <time>2024-07-09T11:56:13.000Z</time>
      </trkpt>
      <trkpt lat="42.72002" lon="1.64465">
        <ele>1668</ele>
        <time>2024-07-09T11:56:40.000Z</time>
      </trkpt>
      <trkpt lat="42.71993" lon="1.64474">
        <ele>1670.5999755859</ele>
        <time>2024-07-09T11:56:49.000Z</time>
      </trkpt>
      <trkpt lat="42.71985" lon="1.64477">
        <ele>1672.1999511719</ele>
        <time>2024-07-09T11:56:59.000Z</time>
      </trkpt>
      <trkpt lat="42.7198" lon="1.64477">
        <ele>1673</ele>
        <time>2024-07-09T11:57:05.000Z</time>
      </trkpt>
      <trkpt lat="42.71975" lon="1.64481">
        <ele>1674.1999511719</ele>
        <time>2024-07-09T11:57:11.000Z</time>
      </trkpt>
      <trkpt lat="42.71969" lon="1.64487">
        <ele>1676.4000244141</ele>
        <time>2024-07-09T11:57:20.000Z</time>
      </trkpt>
      <trkpt lat="42.71967" lon="1.6449">
        <ele>1677</ele>
        <time>2024-07-09T11:57:22.000Z</time>
      </trkpt>
      <trkpt lat="42.71965" lon="1.64494">
        <ele>1678</ele>
        <time>2024-07-09T11:57:27.000Z</time>
      </trkpt>
      <trkpt lat="42.71961" lon="1.64502">
        <ele>1679.4000244141</ele>
        <time>2024-07-09T11:57:35.000Z</time>
      </trkpt>
      <trkpt lat="42.71954" lon="1.64508">
        <ele>1681.1999511719</ele>
        <time>2024-07-09T11:57:44.000Z</time>
      </trkpt>
      <trkpt lat="42.71948" lon="1.64513">
        <ele>1682.1999511719</ele>
        <time>2024-07-09T11:57:52.000Z</time>
      </trkpt>
      <trkpt lat="42.71941" lon="1.64518">
        <ele>1683.5999755859</ele>
        <time>2024-07-09T11:58:00.000Z</time>
      </trkpt>
      <trkpt lat="42.71934" lon="1.64523">
        <ele>1684.8000488281</ele>
        <time>2024-07-09T11:58:09.000Z</time>
      </trkpt>
      <trkpt lat="42.71928" lon="1.6453">
        <ele>1686.1999511719</ele>
        <time>2024-07-09T11:58:17.000Z</time>
      </trkpt>
      <trkpt lat="42.71922" lon="1.64541">
        <ele>1688.4000244141</ele>
        <time>2024-07-09T11:58:26.000Z</time>
      </trkpt>
      <trkpt lat="42.71917" lon="1.64551">
        <ele>1690.1999511719</ele>
        <time>2024-07-09T11:58:35.000Z</time>
      </trkpt>
      <trkpt lat="42.71908" lon="1.64561">
        <ele>1691</ele>
        <time>2024-07-09T11:58:46.000Z</time>
      </trkpt>
      <trkpt lat="42.71898" lon="1.6457">
        <ele>1691.4000244141</ele>
        <time>2024-07-09T11:58:57.000Z</time>
      </trkpt>
      <trkpt lat="42.7189" lon="1.64576">
        <ele>1691.8000488281</ele>
        <time>2024-07-09T11:59:05.000Z</time>
      </trkpt>
      <trkpt lat="42.71883" lon="1.64584">
        <ele>1691.8000488281</ele>
        <time>2024-07-09T11:59:13.000Z</time>
      </trkpt>
      <trkpt lat="42.71876" lon="1.64592">
        <ele>1691.1999511719</ele>
        <time>2024-07-09T11:59:21.000Z</time>
      </trkpt>
      <trkpt lat="42.71864" lon="1.64603">
        <ele>1690.5999755859</ele>
        <time>2024-07-09T11:59:33.000Z</time>
      </trkpt>
      <trkpt lat="42.71854" lon="1.64609">
        <ele>1690.4000244141</ele>
        <time>2024-07-09T11:59:42.000Z</time>
      </trkpt>
      <trkpt lat="42.71844" lon="1.64616">
        <ele>1690</ele>
        <time>2024-07-09T11:59:51.000Z</time>
      </trkpt>
      <trkpt lat="42.71837" lon="1.64622">
        <ele>1689.5999755859</ele>
        <time>2024-07-09T12:00:00.000Z</time>
      </trkpt>
      <trkpt lat="42.71839" lon="1.64626">
        <ele>1689.1999511719</ele>
        <time>2024-07-09T12:00:03.000Z</time>
      </trkpt>
      <trkpt lat="42.71839" lon="1.64626">
        <ele>1689.1999511719</ele>
        <time>2024-07-09T12:00:06.000Z</time>
      </trkpt>
      <trkpt lat="42.71839" lon="1.64626">
        <ele>1689.1999511719</ele>
        <time>2024-07-09T12:00:20.000Z</time>
      </trkpt>
      <trkpt lat="42.71833" lon="1.64626">
        <ele>1689.8000488281</ele>
        <time>2024-07-09T12:01:06.000Z</time>
      </trkpt>
      <trkpt lat="42.71818" lon="1.64636">
        <ele>1689</ele>
        <time>2024-07-09T12:01:19.000Z</time>
      </trkpt>
      <trkpt lat="42.71812" lon="1.64648">
        <ele>1687.4000244141</ele>
        <time>2024-07-09T12:01:27.000Z</time>
      </trkpt>
      <trkpt lat="42.71806" lon="1.6465">
        <ele>1687.1999511719</ele>
        <time>2024-07-09T12:01:33.000Z</time>
      </trkpt>
      <trkpt lat="42.71794" lon="1.64655">
        <ele>1686.8000488281</ele>
        <time>2024-07-09T12:01:43.000Z</time>
      </trkpt>
      <trkpt lat="42.71782" lon="1.64662">
        <ele>1684.8000488281</ele>
        <time>2024-07-09T12:01:53.000Z</time>
      </trkpt>
      <trkpt lat="42.71771" lon="1.64667">
        <ele>1683.8000488281</ele>
        <time>2024-07-09T12:02:02.000Z</time>
      </trkpt>
      <trkpt lat="42.71759" lon="1.64672">
        <ele>1683.5999755859</ele>
        <time>2024-07-09T12:02:12.000Z</time>
      </trkpt>
      <trkpt lat="42.71748" lon="1.64674">
        <ele>1683.8000488281</ele>
        <time>2024-07-09T12:02:20.000Z</time>
      </trkpt>
      <trkpt lat="42.71737" lon="1.64678">
        <ele>1683.5999755859</ele>
        <time>2024-07-09T12:02:29.000Z</time>
      </trkpt>
      <trkpt lat="42.71726" lon="1.64683">
        <ele>1682.8000488281</ele>
        <time>2024-07-09T12:02:37.000Z</time>
      </trkpt>
      <trkpt lat="42.71711" lon="1.64684">
        <ele>1682.1999511719</ele>
        <time>2024-07-09T12:02:48.000Z</time>
      </trkpt>
      <trkpt lat="42.71697" lon="1.64688">
        <ele>1682.4000244141</ele>
        <time>2024-07-09T12:02:59.000Z</time>
      </trkpt>
      <trkpt lat="42.71684" lon="1.64689">
        <ele>1683.1999511719</ele>
        <time>2024-07-09T12:03:09.000Z</time>
      </trkpt>
      <trkpt lat="42.71674" lon="1.64689">
        <ele>1683.8000488281</ele>
        <time>2024-07-09T12:03:17.000Z</time>
      </trkpt>
      <trkpt lat="42.71663" lon="1.64686">
        <ele>1683.1999511719</ele>
        <time>2024-07-09T12:03:26.000Z</time>
      </trkpt>
      <trkpt lat="42.71648" lon="1.64686">
        <ele>1681.5999755859</ele>
        <time>2024-07-09T12:03:38.000Z</time>
      </trkpt>
      <trkpt lat="42.71636" lon="1.64691">
        <ele>1679.8000488281</ele>
        <time>2024-07-09T12:03:48.000Z</time>
      </trkpt>
      <trkpt lat="42.71627" lon="1.64693">
        <ele>1678.1999511719</ele>
        <time>2024-07-09T12:03:56.000Z</time>
      </trkpt>
      <trkpt lat="42.71628" lon="1.64692">
        <ele>1678.4000244141</ele>
        <time>2024-07-09T12:04:01.000Z</time>
      </trkpt>
      <trkpt lat="42.71627" lon="1.64692">
        <ele>1678.4000244141</ele>
        <time>2024-07-09T12:04:17.000Z</time>
      </trkpt>
      <trkpt lat="42.71621" lon="1.64689">
        <ele>1677.8000488281</ele>
        <time>2024-07-09T12:05:47.000Z</time>
      </trkpt>
      <trkpt lat="42.71609" lon="1.64693">
        <ele>1675.5999755859</ele>
        <time>2024-07-09T12:05:57.000Z</time>
      </trkpt>
      <trkpt lat="42.71604" lon="1.64692">
        <ele>1674.8000488281</ele>
        <time>2024-07-09T12:06:01.000Z</time>
      </trkpt>
      <trkpt lat="42.71602" lon="1.6469">
        <ele>1674.8000488281</ele>
        <time>2024-07-09T12:06:04.000Z</time>
      </trkpt>
      <trkpt lat="42.71593" lon="1.64687">
        <ele>1673.8000488281</ele>
        <time>2024-07-09T12:06:11.000Z</time>
      </trkpt>
      <trkpt lat="42.7159" lon="1.64686">
        <ele>1673.4000244141</ele>
        <time>2024-07-09T12:06:14.000Z</time>
      </trkpt>
      <trkpt lat="42.7159" lon="1.64686">
        <ele>1673.4000244141</ele>
        <time>2024-07-09T12:06:17.000Z</time>
      </trkpt>
      <trkpt lat="42.71585" lon="1.64684">
        <ele>1672.8000488281</ele>
        <time>2024-07-09T12:06:24.000Z</time>
      </trkpt>
      <trkpt lat="42.71577" lon="1.64679">
        <ele>1671.8000488281</ele>
        <time>2024-07-09T12:06:32.000Z</time>
      </trkpt>
      <trkpt lat="42.71567" lon="1.64678">
        <ele>1669.8000488281</ele>
        <time>2024-07-09T12:06:41.000Z</time>
      </trkpt>
      <trkpt lat="42.71555" lon="1.64678">
        <ele>1666</ele>
        <time>2024-07-09T12:06:52.000Z</time>
      </trkpt>
      <trkpt lat="42.71548" lon="1.64673">
        <ele>1664.8000488281</ele>
        <time>2024-07-09T12:06:59.000Z</time>
      </trkpt>
      <trkpt lat="42.71546" lon="1.64671">
        <ele>1664.1999511719</ele>
        <time>2024-07-09T12:07:02.000Z</time>
      </trkpt>
      <trkpt lat="42.71542" lon="1.64669">
        <ele>1663</ele>
        <time>2024-07-09T12:07:06.000Z</time>
      </trkpt>
      <trkpt lat="42.71542" lon="1.6467">
        <ele>1662.8000488281</ele>
        <time>2024-07-09T12:07:07.000Z</time>
      </trkpt>
      <trkpt lat="42.7154" lon="1.64669">
        <ele>1662.1999511719</ele>
        <time>2024-07-09T12:07:09.000Z</time>
      </trkpt>
      <trkpt lat="42.71538" lon="1.64667">
        <ele>1661.8000488281</ele>
        <time>2024-07-09T12:07:11.000Z</time>
      </trkpt>
      <trkpt lat="42.71534" lon="1.64664">
        <ele>1660.4000244141</ele>
        <time>2024-07-09T12:07:16.000Z</time>
      </trkpt>
      <trkpt lat="42.71531" lon="1.64665">
        <ele>1659.4000244141</ele>
        <time>2024-07-09T12:07:19.000Z</time>
      </trkpt>
      <trkpt lat="42.7153" lon="1.64664">
        <ele>1659</ele>
        <time>2024-07-09T12:07:20.000Z</time>
      </trkpt>
      <trkpt lat="42.71526" lon="1.64662">
        <ele>1657.5999755859</ele>
        <time>2024-07-09T12:07:25.000Z</time>
      </trkpt>
      <trkpt lat="42.71525" lon="1.64662">
        <ele>1657</ele>
        <time>2024-07-09T12:07:27.000Z</time>
      </trkpt>
      <trkpt lat="42.7152" lon="1.64658">
        <ele>1655.4000244141</ele>
        <time>2024-07-09T12:07:33.000Z</time>
      </trkpt>
      <trkpt lat="42.71518" lon="1.64654">
        <ele>1655</ele>
        <time>2024-07-09T12:07:38.000Z</time>
      </trkpt>
      <trkpt lat="42.71515" lon="1.6465">
        <ele>1654.1999511719</ele>
        <time>2024-07-09T12:07:42.000Z</time>
      </trkpt>
      <trkpt lat="42.71514" lon="1.64648">
        <ele>1653.5999755859</ele>
        <time>2024-07-09T12:07:44.000Z</time>
      </trkpt>
      <trkpt lat="42.7151" lon="1.64644">
        <ele>1652.1999511719</ele>
        <time>2024-07-09T12:07:50.000Z</time>
      </trkpt>
      <trkpt lat="42.71505" lon="1.64642">
        <ele>1650.8000488281</ele>
        <time>2024-07-09T12:07:56.000Z</time>
      </trkpt>
      <trkpt lat="42.71503" lon="1.64641">
        <ele>1650.4000244141</ele>
        <time>2024-07-09T12:07:58.000Z</time>
      </trkpt>
      <trkpt lat="42.71499" lon="1.64635">
        <ele>1649.4000244141</ele>
        <time>2024-07-09T12:08:03.000Z</time>
      </trkpt>
      <trkpt lat="42.71495" lon="1.64626">
        <ele>1648.4000244141</ele>
        <time>2024-07-09T12:08:10.000Z</time>
      </trkpt>
      <trkpt lat="42.7149" lon="1.64619">
        <ele>1647</ele>
        <time>2024-07-09T12:08:16.000Z</time>
      </trkpt>
      <trkpt lat="42.71489" lon="1.64622">
        <ele>1646.8000488281</ele>
        <time>2024-07-09T12:08:21.000Z</time>
      </trkpt>
      <trkpt lat="42.71483" lon="1.64615">
        <ele>1645.1999511719</ele>
        <time>2024-07-09T12:08:27.000Z</time>
      </trkpt>
      <trkpt lat="42.71483" lon="1.64613">
        <ele>1645</ele>
        <time>2024-07-09T12:08:28.000Z</time>
      </trkpt>
      <trkpt lat="42.7148" lon="1.64605">
        <ele>1644.1999511719</ele>
        <time>2024-07-09T12:08:33.000Z</time>
      </trkpt>
      <trkpt lat="42.71479" lon="1.64601">
        <ele>1643.8000488281</ele>
        <time>2024-07-09T12:08:35.000Z</time>
      </trkpt>
      <trkpt lat="42.71474" lon="1.64598">
        <ele>1642</ele>
        <time>2024-07-09T12:08:41.000Z</time>
      </trkpt>
      <trkpt lat="42.71469" lon="1.64594">
        <ele>1640</ele>
        <time>2024-07-09T12:08:47.000Z</time>
      </trkpt>
      <trkpt lat="42.71468" lon="1.6459">
        <ele>1639.1999511719</ele>
        <time>2024-07-09T12:08:49.000Z</time>
      </trkpt>
      <trkpt lat="42.71466" lon="1.64588">
        <ele>1638.8000488281</ele>
        <time>2024-07-09T12:08:51.000Z</time>
      </trkpt>
      <trkpt lat="42.71466" lon="1.64588">
        <ele>1638.5999755859</ele>
        <time>2024-07-09T12:08:52.000Z</time>
      </trkpt>
      <trkpt lat="42.71454" lon="1.64579">
        <ele>1634.1999511719</ele>
        <time>2024-07-09T12:09:00.000Z</time>
      </trkpt>
      <trkpt lat="42.71451" lon="1.64571">
        <ele>1632.5999755859</ele>
        <time>2024-07-09T12:09:07.000Z</time>
      </trkpt>
      <trkpt lat="42.71448" lon="1.6457">
        <ele>1631.5999755859</ele>
        <time>2024-07-09T12:09:11.000Z</time>
      </trkpt>
      <trkpt lat="42.71443" lon="1.6457">
        <ele>1629.8000488281</ele>
        <time>2024-07-09T12:09:17.000Z</time>
      </trkpt>
      <trkpt lat="42.7144" lon="1.64567">
        <ele>1628.4000244141</ele>
        <time>2024-07-09T12:09:22.000Z</time>
      </trkpt>
      <trkpt lat="42.71438" lon="1.64565">
        <ele>1627.8000488281</ele>
        <time>2024-07-09T12:09:24.000Z</time>
      </trkpt>
      <trkpt lat="42.71436" lon="1.64563">
        <ele>1627</ele>
        <time>2024-07-09T12:09:26.000Z</time>
      </trkpt>
      <trkpt lat="42.7143" lon="1.64558">
        <ele>1624.4000244141</ele>
        <time>2024-07-09T12:09:31.000Z</time>
      </trkpt>
      <trkpt lat="42.71424" lon="1.64551">
        <ele>1622.1999511719</ele>
        <time>2024-07-09T12:09:37.000Z</time>
      </trkpt>
      <trkpt lat="42.71424" lon="1.64551">
        <ele>1622</ele>
        <time>2024-07-09T12:09:38.000Z</time>
      </trkpt>
      <trkpt lat="42.71422" lon="1.64551">
        <ele>1621.5999755859</ele>
        <time>2024-07-09T12:09:39.000Z</time>
      </trkpt>
      <trkpt lat="42.71415" lon="1.64548">
        <ele>1620.1999511719</ele>
        <time>2024-07-09T12:09:46.000Z</time>
      </trkpt>
      <trkpt lat="42.71408" lon="1.64539">
        <ele>1618.5999755859</ele>
        <time>2024-07-09T12:09:54.000Z</time>
      </trkpt>
      <trkpt lat="42.71399" lon="1.64535">
        <ele>1616.8000488281</ele>
        <time>2024-07-09T12:10:02.000Z</time>
      </trkpt>
      <trkpt lat="42.71396" lon="1.64531">
        <ele>1616.4000244141</ele>
        <time>2024-07-09T12:10:09.000Z</time>
      </trkpt>
      <trkpt lat="42.71394" lon="1.64529">
        <ele>1616.8000488281</ele>
        <time>2024-07-09T12:10:14.000Z</time>
      </trkpt>
      <trkpt lat="42.71386" lon="1.64521">
        <ele>1619</ele>
        <time>2024-07-09T12:10:24.000Z</time>
      </trkpt>
      <trkpt lat="42.71383" lon="1.64523">
        <ele>1618.5999755859</ele>
        <time>2024-07-09T12:10:29.000Z</time>
      </trkpt>
      <trkpt lat="42.71382" lon="1.64524">
        <ele>1618.4000244141</ele>
        <time>2024-07-09T12:10:30.000Z</time>
      </trkpt>
      <trkpt lat="42.71378" lon="1.64524">
        <ele>1618.4000244141</ele>
        <time>2024-07-09T12:10:37.000Z</time>
      </trkpt>
      <trkpt lat="42.71378" lon="1.64522">
        <ele>1618.8000488281</ele>
        <time>2024-07-09T12:10:45.000Z</time>
      </trkpt>
      <trkpt lat="42.71378" lon="1.64522">
        <ele>1618.8000488281</ele>
        <time>2024-07-09T12:10:54.000Z</time>
      </trkpt>
      <trkpt lat="42.71373" lon="1.64522">
        <ele>1619</ele>
        <time>2024-07-09T12:14:09.000Z</time>
      </trkpt>
      <trkpt lat="42.71367" lon="1.64519">
        <ele>1619.8000488281</ele>
        <time>2024-07-09T12:14:15.000Z</time>
      </trkpt>
      <trkpt lat="42.71362" lon="1.64519">
        <ele>1620.5999755859</ele>
        <time>2024-07-09T12:14:20.000Z</time>
      </trkpt>
      <trkpt lat="42.71357" lon="1.6452">
        <ele>1621.1999511719</ele>
        <time>2024-07-09T12:14:25.000Z</time>
      </trkpt>
      <trkpt lat="42.71345" lon="1.6453">
        <ele>1620.4000244141</ele>
        <time>2024-07-09T12:14:33.000Z</time>
      </trkpt>
      <trkpt lat="42.71338" lon="1.64532">
        <ele>1621.1999511719</ele>
        <time>2024-07-09T12:14:40.000Z</time>
      </trkpt>
      <trkpt lat="42.71332" lon="1.64534">
        <ele>1622</ele>
        <time>2024-07-09T12:14:45.000Z</time>
      </trkpt>
      <trkpt lat="42.71329" lon="1.64536">
        <ele>1622.1999511719</ele>
        <time>2024-07-09T12:14:48.000Z</time>
      </trkpt>
      <trkpt lat="42.71325" lon="1.64538">
        <ele>1622.4000244141</ele>
        <time>2024-07-09T12:14:51.000Z</time>
      </trkpt>
      <trkpt lat="42.7132" lon="1.6454">
        <ele>1623</ele>
        <time>2024-07-09T12:14:56.000Z</time>
      </trkpt>
      <trkpt lat="42.71313" lon="1.64541">
        <ele>1623.1999511719</ele>
        <time>2024-07-09T12:15:03.000Z</time>
      </trkpt>
      <trkpt lat="42.71306" lon="1.64543">
        <ele>1623.1999511719</ele>
        <time>2024-07-09T12:15:10.000Z</time>
      </trkpt>
      <trkpt lat="42.71305" lon="1.64543">
        <ele>1623.1999511719</ele>
        <time>2024-07-09T12:15:11.000Z</time>
      </trkpt>
      <trkpt lat="42.71301" lon="1.64543">
        <ele>1623.5999755859</ele>
        <time>2024-07-09T12:15:14.000Z</time>
      </trkpt>
      <trkpt lat="42.71301" lon="1.64542">
        <ele>1623.8000488281</ele>
        <time>2024-07-09T12:15:15.000Z</time>
      </trkpt>
      <trkpt lat="42.713" lon="1.64543">
        <ele>1623.5999755859</ele>
        <time>2024-07-09T12:15:17.000Z</time>
      </trkpt>
      <trkpt lat="42.71295" lon="1.64547">
        <ele>1623</ele>
        <time>2024-07-09T12:15:21.000Z</time>
      </trkpt>
      <trkpt lat="42.71293" lon="1.64548">
        <ele>1623.1999511719</ele>
        <time>2024-07-09T12:15:23.000Z</time>
      </trkpt>
      <trkpt lat="42.7129" lon="1.64549">
        <ele>1623.4000244141</ele>
        <time>2024-07-09T12:15:26.000Z</time>
      </trkpt>
      <trkpt lat="42.71287" lon="1.6455">
        <ele>1623.4000244141</ele>
        <time>2024-07-09T12:15:28.000Z</time>
      </trkpt>
      <trkpt lat="42.71284" lon="1.64554">
        <ele>1623.1999511719</ele>
        <time>2024-07-09T12:15:31.000Z</time>
      </trkpt>
      <trkpt lat="42.71282" lon="1.64561">
        <ele>1621.8000488281</ele>
        <time>2024-07-09T12:15:35.000Z</time>
      </trkpt>
      <trkpt lat="42.71282" lon="1.64562">
        <ele>1621.5999755859</ele>
        <time>2024-07-09T12:15:41.000Z</time>
      </trkpt>
      <trkpt lat="42.71287" lon="1.64564">
        <ele>1620.8000488281</ele>
        <time>2024-07-09T12:15:49.000Z</time>
      </trkpt>
      <trkpt lat="42.71292" lon="1.64564">
        <ele>1620</ele>
        <time>2024-07-09T12:15:54.000Z</time>
      </trkpt>
      <trkpt lat="42.71296" lon="1.64566">
        <ele>1619</ele>
        <time>2024-07-09T12:15:59.000Z</time>
      </trkpt>
      <trkpt lat="42.713" lon="1.64567">
        <ele>1618.1999511719</ele>
        <time>2024-07-09T12:16:01.000Z</time>
      </trkpt>
      <trkpt lat="42.71309" lon="1.6457">
        <ele>1616.5999755859</ele>
        <time>2024-07-09T12:16:06.000Z</time>
      </trkpt>
      <trkpt lat="42.71309" lon="1.6457">
        <ele>1616.4000244141</ele>
        <time>2024-07-09T12:16:07.000Z</time>
      </trkpt>
      <trkpt lat="42.71312" lon="1.64572">
        <ele>1615.8000488281</ele>
        <time>2024-07-09T12:16:09.000Z</time>
      </trkpt>
      <trkpt lat="42.71311" lon="1.64572">
        <ele>1615.8000488281</ele>
        <time>2024-07-09T12:16:11.000Z</time>
      </trkpt>
      <trkpt lat="42.71311" lon="1.64573">
        <ele>1615.5999755859</ele>
        <time>2024-07-09T12:16:12.000Z</time>
      </trkpt>
      <trkpt lat="42.71316" lon="1.64574">
        <ele>1615</ele>
        <time>2024-07-09T12:16:16.000Z</time>
      </trkpt>
      <trkpt lat="42.71319" lon="1.64574">
        <ele>1614.5999755859</ele>
        <time>2024-07-09T12:16:17.000Z</time>
      </trkpt>
      <trkpt lat="42.71322" lon="1.64576">
        <ele>1613.8000488281</ele>
        <time>2024-07-09T12:16:19.000Z</time>
      </trkpt>
      <trkpt lat="42.71324" lon="1.64578">
        <ele>1613.4000244141</ele>
        <time>2024-07-09T12:16:21.000Z</time>
      </trkpt>
      <trkpt lat="42.71327" lon="1.64581">
        <ele>1612.5999755859</ele>
        <time>2024-07-09T12:16:27.000Z</time>
      </trkpt>
      <trkpt lat="42.71334" lon="1.64589">
        <ele>1610.4000244141</ele>
        <time>2024-07-09T12:16:35.000Z</time>
      </trkpt>
      <trkpt lat="42.71335" lon="1.64594">
        <ele>1609</ele>
        <time>2024-07-09T12:16:39.000Z</time>
      </trkpt>
      <trkpt lat="42.71334" lon="1.64596">
        <ele>1608.5999755859</ele>
        <time>2024-07-09T12:16:40.000Z</time>
      </trkpt>
      <trkpt lat="42.71334" lon="1.646">
        <ele>1607.8000488281</ele>
        <time>2024-07-09T12:16:42.000Z</time>
      </trkpt>
      <trkpt lat="42.71331" lon="1.64607">
        <ele>1606.5999755859</ele>
        <time>2024-07-09T12:16:46.000Z</time>
      </trkpt>
      <trkpt lat="42.71331" lon="1.64608">
        <ele>1606.5999755859</ele>
        <time>2024-07-09T12:16:47.000Z</time>
      </trkpt>
      <trkpt lat="42.71328" lon="1.64615">
        <ele>1605.5999755859</ele>
        <time>2024-07-09T12:16:52.000Z</time>
      </trkpt>
      <trkpt lat="42.71327" lon="1.64619">
        <ele>1605</ele>
        <time>2024-07-09T12:16:54.000Z</time>
      </trkpt>
      <trkpt lat="42.71329" lon="1.64623">
        <ele>1603.8000488281</ele>
        <time>2024-07-09T12:16:58.000Z</time>
      </trkpt>
      <trkpt lat="42.7133" lon="1.64624">
        <ele>1603.4000244141</ele>
        <time>2024-07-09T12:16:59.000Z</time>
      </trkpt>
      <trkpt lat="42.71331" lon="1.64627">
        <ele>1602.5999755859</ele>
        <time>2024-07-09T12:17:01.000Z</time>
      </trkpt>
      <trkpt lat="42.71329" lon="1.64629">
        <ele>1602.4000244141</ele>
        <time>2024-07-09T12:17:03.000Z</time>
      </trkpt>
      <trkpt lat="42.71328" lon="1.6463">
        <ele>1602.4000244141</ele>
        <time>2024-07-09T12:17:04.000Z</time>
      </trkpt>
      <trkpt lat="42.71324" lon="1.64636">
        <ele>1601.4000244141</ele>
        <time>2024-07-09T12:17:09.000Z</time>
      </trkpt>
      <trkpt lat="42.71327" lon="1.64641">
        <ele>1599.8000488281</ele>
        <time>2024-07-09T12:17:15.000Z</time>
      </trkpt>
      <trkpt lat="42.7133" lon="1.64647">
        <ele>1598</ele>
        <time>2024-07-09T12:17:20.000Z</time>
      </trkpt>
      <trkpt lat="42.71331" lon="1.64648">
        <ele>1597.8000488281</ele>
        <time>2024-07-09T12:17:21.000Z</time>
      </trkpt>
      <trkpt lat="42.71334" lon="1.64654">
        <ele>1596</ele>
        <time>2024-07-09T12:17:26.000Z</time>
      </trkpt>
      <trkpt lat="42.71336" lon="1.64664">
        <ele>1594</ele>
        <time>2024-07-09T12:17:33.000Z</time>
      </trkpt>
      <trkpt lat="42.71334" lon="1.64674">
        <ele>1591.1999511719</ele>
        <time>2024-07-09T12:17:40.000Z</time>
      </trkpt>
      <trkpt lat="42.7133" lon="1.64678">
        <ele>1590.1999511719</ele>
        <time>2024-07-09T12:17:47.000Z</time>
      </trkpt>
      <trkpt lat="42.71326" lon="1.64688">
        <ele>1587.4000244141</ele>
        <time>2024-07-09T12:17:53.000Z</time>
      </trkpt>
      <trkpt lat="42.71325" lon="1.64693">
        <ele>1585</ele>
        <time>2024-07-09T12:18:01.000Z</time>
      </trkpt>
      <trkpt lat="42.71328" lon="1.64696">
        <ele>1584</ele>
        <time>2024-07-09T12:18:08.000Z</time>
      </trkpt>
      <trkpt lat="42.71328" lon="1.64697">
        <ele>1583.8000488281</ele>
        <time>2024-07-09T12:18:22.000Z</time>
      </trkpt>
      <trkpt lat="42.71325" lon="1.64702">
        <ele>1581.5999755859</ele>
        <time>2024-07-09T12:18:30.000Z</time>
      </trkpt>
      <trkpt lat="42.71327" lon="1.64706">
        <ele>1580.5999755859</ele>
        <time>2024-07-09T12:18:34.000Z</time>
      </trkpt>
      <trkpt lat="42.71329" lon="1.64711">
        <ele>1579.5999755859</ele>
        <time>2024-07-09T12:18:40.000Z</time>
      </trkpt>
      <trkpt lat="42.71324" lon="1.64715">
        <ele>1576.5999755859</ele>
        <time>2024-07-09T12:18:46.000Z</time>
      </trkpt>
      <trkpt lat="42.71322" lon="1.64715">
        <ele>1576.1999511719</ele>
        <time>2024-07-09T12:18:47.000Z</time>
      </trkpt>
      <trkpt lat="42.71314" lon="1.64717">
        <ele>1572.5999755859</ele>
        <time>2024-07-09T12:18:53.000Z</time>
      </trkpt>
      <trkpt lat="42.71311" lon="1.64716">
        <ele>1571.8000488281</ele>
        <time>2024-07-09T12:18:55.000Z</time>
      </trkpt>
      <trkpt lat="42.71309" lon="1.64718">
        <ele>1570.1999511719</ele>
        <time>2024-07-09T12:18:59.000Z</time>
      </trkpt>
      <trkpt lat="42.71309" lon="1.64723">
        <ele>1567.8000488281</ele>
        <time>2024-07-09T12:19:05.000Z</time>
      </trkpt>
      <trkpt lat="42.71306" lon="1.64725">
        <ele>1566</ele>
        <time>2024-07-09T12:19:10.000Z</time>
      </trkpt>
      <trkpt lat="42.71305" lon="1.64726">
        <ele>1565.4000244141</ele>
        <time>2024-07-09T12:19:11.000Z</time>
      </trkpt>
      <trkpt lat="42.71303" lon="1.64728">
        <ele>1564.1999511719</ele>
        <time>2024-07-09T12:19:14.000Z</time>
      </trkpt>
      <trkpt lat="42.71296" lon="1.6473">
        <ele>1560.8000488281</ele>
        <time>2024-07-09T12:19:22.000Z</time>
      </trkpt>
      <trkpt lat="42.71294" lon="1.64734">
        <ele>1558.4000244141</ele>
        <time>2024-07-09T12:19:28.000Z</time>
      </trkpt>
      <trkpt lat="42.7129" lon="1.64738">
        <ele>1555.5999755859</ele>
        <time>2024-07-09T12:19:33.000Z</time>
      </trkpt>
      <trkpt lat="42.71288" lon="1.64739">
        <ele>1554.5999755859</ele>
        <time>2024-07-09T12:19:37.000Z</time>
      </trkpt>
      <trkpt lat="42.71288" lon="1.64742">
        <ele>1553.4000244141</ele>
        <time>2024-07-09T12:19:42.000Z</time>
      </trkpt>
      <trkpt lat="42.71285" lon="1.64744">
        <ele>1551.5999755859</ele>
        <time>2024-07-09T12:19:48.000Z</time>
      </trkpt>
      <trkpt lat="42.71288" lon="1.64744">
        <ele>1552.1999511719</ele>
        <time>2024-07-09T12:19:53.000Z</time>
      </trkpt>
      <trkpt lat="42.71285" lon="1.64749">
        <ele>1549.1999511719</ele>
        <time>2024-07-09T12:19:59.000Z</time>
      </trkpt>
      <trkpt lat="42.71279" lon="1.64753">
        <ele>1545.5999755859</ele>
        <time>2024-07-09T12:20:05.000Z</time>
      </trkpt>
      <trkpt lat="42.71274" lon="1.64753">
        <ele>1544.1999511719</ele>
        <time>2024-07-09T12:20:11.000Z</time>
      </trkpt>
      <trkpt lat="42.71276" lon="1.64755">
        <ele>1544.1999511719</ele>
        <time>2024-07-09T12:20:17.000Z</time>
      </trkpt>
      <trkpt lat="42.71279" lon="1.64761">
        <ele>1542.5999755859</ele>
        <time>2024-07-09T12:20:26.000Z</time>
      </trkpt>
      <trkpt lat="42.71282" lon="1.64766">
        <ele>1541.4000244141</ele>
        <time>2024-07-09T12:20:32.000Z</time>
      </trkpt>
      <trkpt lat="42.71279" lon="1.64774">
        <ele>1537.4000244141</ele>
        <time>2024-07-09T12:20:40.000Z</time>
      </trkpt>
      <trkpt lat="42.7127" lon="1.6478">
        <ele>1530.5999755859</ele>
        <time>2024-07-09T12:20:48.000Z</time>
      </trkpt>
      <trkpt lat="42.71271" lon="1.64785">
        <ele>1529</ele>
        <time>2024-07-09T12:20:54.000Z</time>
      </trkpt>
      <trkpt lat="42.71268" lon="1.64786">
        <ele>1527</ele>
        <time>2024-07-09T12:20:59.000Z</time>
      </trkpt>
      <trkpt lat="42.71271" lon="1.6479">
        <ele>1527.4000244141</ele>
        <time>2024-07-09T12:21:04.000Z</time>
      </trkpt>
      <trkpt lat="42.71276" lon="1.64793">
        <ele>1528.4000244141</ele>
        <time>2024-07-09T12:21:10.000Z</time>
      </trkpt>
      <trkpt lat="42.71274" lon="1.64796">
        <ele>1526.4000244141</ele>
        <time>2024-07-09T12:21:14.000Z</time>
      </trkpt>
      <trkpt lat="42.71267" lon="1.64808">
        <ele>1519.8000488281</ele>
        <time>2024-07-09T12:21:22.000Z</time>
      </trkpt>
      <trkpt lat="42.71267" lon="1.64812">
        <ele>1518.5999755859</ele>
        <time>2024-07-09T12:21:29.000Z</time>
      </trkpt>
      <trkpt lat="42.71269" lon="1.64825">
        <ele>1515.4000244141</ele>
        <time>2024-07-09T12:21:37.000Z</time>
      </trkpt>
      <trkpt lat="42.71265" lon="1.64827">
        <ele>1513.5999755859</ele>
        <time>2024-07-09T12:21:41.000Z</time>
      </trkpt>
      <trkpt lat="42.71264" lon="1.64828">
        <ele>1513</ele>
        <time>2024-07-09T12:21:43.000Z</time>
      </trkpt>
      <trkpt lat="42.71268" lon="1.64831">
        <ele>1513.4000244141</ele>
        <time>2024-07-09T12:21:48.000Z</time>
      </trkpt>
      <trkpt lat="42.71267" lon="1.64836">
        <ele>1512</ele>
        <time>2024-07-09T12:21:54.000Z</time>
      </trkpt>
      <trkpt lat="42.71265" lon="1.64843">
        <ele>1508.4000244141</ele>
        <time>2024-07-09T12:22:01.000Z</time>
      </trkpt>
      <trkpt lat="42.71264" lon="1.64849">
        <ele>1506</ele>
        <time>2024-07-09T12:22:07.000Z</time>
      </trkpt>
      <trkpt lat="42.71268" lon="1.64854">
        <ele>1505</ele>
        <time>2024-07-09T12:22:13.000Z</time>
      </trkpt>
      <trkpt lat="42.71266" lon="1.64856">
        <ele>1503.4000244141</ele>
        <time>2024-07-09T12:22:15.000Z</time>
      </trkpt>
      <trkpt lat="42.71263" lon="1.64858">
        <ele>1502</ele>
        <time>2024-07-09T12:22:21.000Z</time>
      </trkpt>
      <trkpt lat="42.71261" lon="1.6486">
        <ele>1500.5999755859</ele>
        <time>2024-07-09T12:22:27.000Z</time>
      </trkpt>
      <trkpt lat="42.71264" lon="1.64864">
        <ele>1499.5999755859</ele>
        <time>2024-07-09T12:22:33.000Z</time>
      </trkpt>
      <trkpt lat="42.71268" lon="1.6487">
        <ele>1498.5999755859</ele>
        <time>2024-07-09T12:22:40.000Z</time>
      </trkpt>
      <trkpt lat="42.71267" lon="1.64877">
        <ele>1495.4000244141</ele>
        <time>2024-07-09T12:22:45.000Z</time>
      </trkpt>
      <trkpt lat="42.71265" lon="1.64879">
        <ele>1494.4000244141</ele>
        <time>2024-07-09T12:22:47.000Z</time>
      </trkpt>
      <trkpt lat="42.71264" lon="1.6488">
        <ele>1493.5999755859</ele>
        <time>2024-07-09T12:22:49.000Z</time>
      </trkpt>
      <trkpt lat="42.71264" lon="1.64883">
        <ele>1492.5999755859</ele>
        <time>2024-07-09T12:22:51.000Z</time>
      </trkpt>
      <trkpt lat="42.71266" lon="1.64886">
        <ele>1491.8000488281</ele>
        <time>2024-07-09T12:22:53.000Z</time>
      </trkpt>
      <trkpt lat="42.71265" lon="1.64892">
        <ele>1489.5999755859</ele>
        <time>2024-07-09T12:22:59.000Z</time>
      </trkpt>
      <trkpt lat="42.71264" lon="1.649">
        <ele>1487</ele>
        <time>2024-07-09T12:23:06.000Z</time>
      </trkpt>
      <trkpt lat="42.71258" lon="1.64912">
        <ele>1484</ele>
        <time>2024-07-09T12:23:12.000Z</time>
      </trkpt>
      <trkpt lat="42.71256" lon="1.64914">
        <ele>1483.4000244141</ele>
        <time>2024-07-09T12:23:13.000Z</time>
      </trkpt>
      <trkpt lat="42.71254" lon="1.6492">
        <ele>1482</ele>
        <time>2024-07-09T12:23:19.000Z</time>
      </trkpt>
      <trkpt lat="42.71252" lon="1.64925">
        <ele>1481</ele>
        <time>2024-07-09T12:23:22.000Z</time>
      </trkpt>
      <trkpt lat="42.71254" lon="1.64934">
        <ele>1479.4000244141</ele>
        <time>2024-07-09T12:23:26.000Z</time>
      </trkpt>
      <trkpt lat="42.71253" lon="1.64937">
        <ele>1479</ele>
        <time>2024-07-09T12:23:27.000Z</time>
      </trkpt>
      <trkpt lat="42.71251" lon="1.64939">
        <ele>1478.4000244141</ele>
        <time>2024-07-09T12:23:29.000Z</time>
      </trkpt>
      <trkpt lat="42.71249" lon="1.64941">
        <ele>1477.8000488281</ele>
        <time>2024-07-09T12:23:31.000Z</time>
      </trkpt>
      <trkpt lat="42.71249" lon="1.64943">
        <ele>1477.5999755859</ele>
        <time>2024-07-09T12:23:32.000Z</time>
      </trkpt>
      <trkpt lat="42.71249" lon="1.64952">
        <ele>1476.4000244141</ele>
        <time>2024-07-09T12:23:37.000Z</time>
      </trkpt>
      <trkpt lat="42.7125" lon="1.64959">
        <ele>1475.1999511719</ele>
        <time>2024-07-09T12:23:42.000Z</time>
      </trkpt>
      <trkpt lat="42.71251" lon="1.64962">
        <ele>1474.5999755859</ele>
        <time>2024-07-09T12:23:44.000Z</time>
      </trkpt>
      <trkpt lat="42.71251" lon="1.64964">
        <ele>1474.1999511719</ele>
        <time>2024-07-09T12:23:45.000Z</time>
      </trkpt>
      <trkpt lat="42.7125" lon="1.64967">
        <ele>1473.5999755859</ele>
        <time>2024-07-09T12:23:50.000Z</time>
      </trkpt>
      <trkpt lat="42.71246" lon="1.64974">
        <ele>1473</ele>
        <time>2024-07-09T12:23:56.000Z</time>
      </trkpt>
      <trkpt lat="42.71245" lon="1.64974">
        <ele>1473</ele>
        <time>2024-07-09T12:23:57.000Z</time>
      </trkpt>
      <trkpt lat="42.71242" lon="1.64977">
        <ele>1472.8000488281</ele>
        <time>2024-07-09T12:24:02.000Z</time>
      </trkpt>
      <trkpt lat="42.71239" lon="1.64979">
        <ele>1473</ele>
        <time>2024-07-09T12:24:06.000Z</time>
      </trkpt>
      <trkpt lat="42.71237" lon="1.64982">
        <ele>1472.8000488281</ele>
        <time>2024-07-09T12:24:12.000Z</time>
      </trkpt>
      <trkpt lat="42.71234" lon="1.64979">
        <ele>1473.1999511719</ele>
        <time>2024-07-09T12:24:26.000Z</time>
      </trkpt>
      <trkpt lat="42.71234" lon="1.64983">
        <ele>1473</ele>
        <time>2024-07-09T12:24:31.000Z</time>
      </trkpt>
      <trkpt lat="42.71233" lon="1.64988">
        <ele>1473</ele>
        <time>2024-07-09T12:24:34.000Z</time>
      </trkpt>
      <trkpt lat="42.71232" lon="1.64991">
        <ele>1472.8000488281</ele>
        <time>2024-07-09T12:24:37.000Z</time>
      </trkpt>
      <trkpt lat="42.71235" lon="1.64996">
        <ele>1472.4000244141</ele>
        <time>2024-07-09T12:24:41.000Z</time>
      </trkpt>
      <trkpt lat="42.71236" lon="1.65001">
        <ele>1472</ele>
        <time>2024-07-09T12:24:43.000Z</time>
      </trkpt>
      <trkpt lat="42.71239" lon="1.65009">
        <ele>1471</ele>
        <time>2024-07-09T12:24:48.000Z</time>
      </trkpt>
      <trkpt lat="42.71241" lon="1.65013">
        <ele>1470.4000244141</ele>
        <time>2024-07-09T12:24:50.000Z</time>
      </trkpt>
      <trkpt lat="42.71247" lon="1.65029">
        <ele>1469</ele>
        <time>2024-07-09T12:24:57.000Z</time>
      </trkpt>
      <trkpt lat="42.71248" lon="1.65032">
        <ele>1468.8000488281</ele>
        <time>2024-07-09T12:24:59.000Z</time>
      </trkpt>
      <trkpt lat="42.71249" lon="1.65036">
        <ele>1468.1999511719</ele>
        <time>2024-07-09T12:25:03.000Z</time>
      </trkpt>
      <trkpt lat="42.7125" lon="1.65037">
        <ele>1467.8000488281</ele>
        <time>2024-07-09T12:25:04.000Z</time>
      </trkpt>
      <trkpt lat="42.7125" lon="1.65041">
        <ele>1467.5999755859</ele>
        <time>2024-07-09T12:25:07.000Z</time>
      </trkpt>
      <trkpt lat="42.71251" lon="1.65049">
        <ele>1466.8000488281</ele>
        <time>2024-07-09T12:25:10.000Z</time>
      </trkpt>
      <trkpt lat="42.71253" lon="1.65054">
        <ele>1466</ele>
        <time>2024-07-09T12:25:16.000Z</time>
      </trkpt>
      <trkpt lat="42.71256" lon="1.6506">
        <ele>1465</ele>
        <time>2024-07-09T12:25:22.000Z</time>
      </trkpt>
      <trkpt lat="42.71257" lon="1.65061">
        <ele>1464.8000488281</ele>
        <time>2024-07-09T12:25:23.000Z</time>
      </trkpt>
      <trkpt lat="42.71259" lon="1.6507">
        <ele>1464</ele>
        <time>2024-07-09T12:25:29.000Z</time>
      </trkpt>
      <trkpt lat="42.71258" lon="1.65073">
        <ele>1463.8000488281</ele>
        <time>2024-07-09T12:25:32.000Z</time>
      </trkpt>
      <trkpt lat="42.71259" lon="1.65077">
        <ele>1463.4000244141</ele>
        <time>2024-07-09T12:25:34.000Z</time>
      </trkpt>
      <trkpt lat="42.71261" lon="1.65084">
        <ele>1463</ele>
        <time>2024-07-09T12:25:38.000Z</time>
      </trkpt>
      <trkpt lat="42.71261" lon="1.65086">
        <ele>1462.8000488281</ele>
        <time>2024-07-09T12:25:40.000Z</time>
      </trkpt>
      <trkpt lat="42.71259" lon="1.65096">
        <ele>1462.1999511719</ele>
        <time>2024-07-09T12:25:46.000Z</time>
      </trkpt>
      <trkpt lat="42.71259" lon="1.65097">
        <ele>1462</ele>
        <time>2024-07-09T12:25:47.000Z</time>
      </trkpt>
      <trkpt lat="42.71259" lon="1.65099">
        <ele>1461.8000488281</ele>
        <time>2024-07-09T12:25:48.000Z</time>
      </trkpt>
      <trkpt lat="42.71259" lon="1.65103">
        <ele>1461.5999755859</ele>
        <time>2024-07-09T12:25:50.000Z</time>
      </trkpt>
      <trkpt lat="42.71258" lon="1.65103">
        <ele>1461.5999755859</ele>
        <time>2024-07-09T12:25:51.000Z</time>
      </trkpt>
      <trkpt lat="42.71259" lon="1.65105">
        <ele>1461.4000244141</ele>
        <time>2024-07-09T12:25:52.000Z</time>
      </trkpt>
      <trkpt lat="42.7126" lon="1.65109">
        <ele>1461</ele>
        <time>2024-07-09T12:25:54.000Z</time>
      </trkpt>
      <trkpt lat="42.7126" lon="1.65111">
        <ele>1460.8000488281</ele>
        <time>2024-07-09T12:25:55.000Z</time>
      </trkpt>
      <trkpt lat="42.71261" lon="1.65113">
        <ele>1460.5999755859</ele>
        <time>2024-07-09T12:25:56.000Z</time>
      </trkpt>
      <trkpt lat="42.71262" lon="1.6512">
        <ele>1460</ele>
        <time>2024-07-09T12:26:00.000Z</time>
      </trkpt>
      <trkpt lat="42.71258" lon="1.65126">
        <ele>1459.5999755859</ele>
        <time>2024-07-09T12:26:05.000Z</time>
      </trkpt>
      <trkpt lat="42.71253" lon="1.65128">
        <ele>1459.8000488281</ele>
        <time>2024-07-09T12:26:11.000Z</time>
      </trkpt>
      <trkpt lat="42.71248" lon="1.65131">
        <ele>1459.8000488281</ele>
        <time>2024-07-09T12:26:14.000Z</time>
      </trkpt>
      <trkpt lat="42.71241" lon="1.65136">
        <ele>1459.1999511719</ele>
        <time>2024-07-09T12:26:18.000Z</time>
      </trkpt>
      <trkpt lat="42.71239" lon="1.65139">
        <ele>1458.8000488281</ele>
        <time>2024-07-09T12:26:20.000Z</time>
      </trkpt>
      <trkpt lat="42.71236" lon="1.65143">
        <ele>1458</ele>
        <time>2024-07-09T12:26:23.000Z</time>
      </trkpt>
      <trkpt lat="42.71236" lon="1.65145">
        <ele>1457.5999755859</ele>
        <time>2024-07-09T12:26:24.000Z</time>
      </trkpt>
      <trkpt lat="42.71233" lon="1.65152">
        <ele>1456</ele>
        <time>2024-07-09T12:26:28.000Z</time>
      </trkpt>
      <trkpt lat="42.71229" lon="1.65154">
        <ele>1455.5999755859</ele>
        <time>2024-07-09T12:26:30.000Z</time>
      </trkpt>
      <trkpt lat="42.71227" lon="1.65156">
        <ele>1455</ele>
        <time>2024-07-09T12:26:32.000Z</time>
      </trkpt>
      <trkpt lat="42.71224" lon="1.65162">
        <ele>1453.4000244141</ele>
        <time>2024-07-09T12:26:35.000Z</time>
      </trkpt>
      <trkpt lat="42.71222" lon="1.65163">
        <ele>1453.1999511719</ele>
        <time>2024-07-09T12:26:36.000Z</time>
      </trkpt>
      <trkpt lat="42.71216" lon="1.65168">
        <ele>1451.5999755859</ele>
        <time>2024-07-09T12:26:41.000Z</time>
      </trkpt>
      <trkpt lat="42.71215" lon="1.65168">
        <ele>1451.5999755859</ele>
        <time>2024-07-09T12:26:42.000Z</time>
      </trkpt>
      <trkpt lat="42.7121" lon="1.65175">
        <ele>1449.8000488281</ele>
        <time>2024-07-09T12:26:47.000Z</time>
      </trkpt>
      <trkpt lat="42.71209" lon="1.65183">
        <ele>1447.4000244141</ele>
        <time>2024-07-09T12:26:54.000Z</time>
      </trkpt>
      <trkpt lat="42.71209" lon="1.65189">
        <ele>1445.8000488281</ele>
        <time>2024-07-09T12:27:00.000Z</time>
      </trkpt>
      <trkpt lat="42.7121" lon="1.6519">
        <ele>1445.4000244141</ele>
        <time>2024-07-09T12:27:01.000Z</time>
      </trkpt>
      <trkpt lat="42.71206" lon="1.65202">
        <ele>1441.8000488281</ele>
        <time>2024-07-09T12:27:08.000Z</time>
      </trkpt>
      <trkpt lat="42.71197" lon="1.65209">
        <ele>1439.5999755859</ele>
        <time>2024-07-09T12:27:15.000Z</time>
      </trkpt>
      <trkpt lat="42.71196" lon="1.6521">
        <ele>1439.4000244141</ele>
        <time>2024-07-09T12:27:16.000Z</time>
      </trkpt>
      <trkpt lat="42.7119" lon="1.6521">
        <ele>1438.8000488281</ele>
        <time>2024-07-09T12:27:20.000Z</time>
      </trkpt>
      <trkpt lat="42.71187" lon="1.6521">
        <ele>1438.5999755859</ele>
        <time>2024-07-09T12:27:22.000Z</time>
      </trkpt>
      <trkpt lat="42.71185" lon="1.6521">
        <ele>1438.5999755859</ele>
        <time>2024-07-09T12:27:23.000Z</time>
      </trkpt>
      <trkpt lat="42.71173" lon="1.6521">
        <ele>1438</ele>
        <time>2024-07-09T12:27:31.000Z</time>
      </trkpt>
      <trkpt lat="42.71167" lon="1.6521">
        <ele>1438</ele>
        <time>2024-07-09T12:27:34.000Z</time>
      </trkpt>
      <trkpt lat="42.71161" lon="1.6521">
        <ele>1438.4000244141</ele>
        <time>2024-07-09T12:27:38.000Z</time>
      </trkpt>
      <trkpt lat="42.71159" lon="1.65215">
        <ele>1437.5999755859</ele>
        <time>2024-07-09T12:27:43.000Z</time>
      </trkpt>
      <trkpt lat="42.71158" lon="1.65217">
        <ele>1437.4000244141</ele>
        <time>2024-07-09T12:27:44.000Z</time>
      </trkpt>
      <trkpt lat="42.71158" lon="1.65218">
        <ele>1437.1999511719</ele>
        <time>2024-07-09T12:27:45.000Z</time>
      </trkpt>
      <trkpt lat="42.71157" lon="1.65223">
        <ele>1436.5999755859</ele>
        <time>2024-07-09T12:27:47.000Z</time>
      </trkpt>
      <trkpt lat="42.71157" lon="1.65228">
        <ele>1436</ele>
        <time>2024-07-09T12:27:49.000Z</time>
      </trkpt>
      <trkpt lat="42.71155" lon="1.65232">
        <ele>1435.4000244141</ele>
        <time>2024-07-09T12:27:52.000Z</time>
      </trkpt>
      <trkpt lat="42.71152" lon="1.65234">
        <ele>1435.4000244141</ele>
        <time>2024-07-09T12:27:54.000Z</time>
      </trkpt>
      <trkpt lat="42.71151" lon="1.65235">
        <ele>1435.4000244141</ele>
        <time>2024-07-09T12:27:55.000Z</time>
      </trkpt>
      <trkpt lat="42.71151" lon="1.6524">
        <ele>1434.5999755859</ele>
        <time>2024-07-09T12:27:58.000Z</time>
      </trkpt>
      <trkpt lat="42.7115" lon="1.6524">
        <ele>1434.5999755859</ele>
        <time>2024-07-09T12:27:59.000Z</time>
      </trkpt>
      <trkpt lat="42.71147" lon="1.65245">
        <ele>1434.1999511719</ele>
        <time>2024-07-09T12:28:03.000Z</time>
      </trkpt>
      <trkpt lat="42.71146" lon="1.65247">
        <ele>1434</ele>
        <time>2024-07-09T12:28:05.000Z</time>
      </trkpt>
      <trkpt lat="42.71145" lon="1.65248">
        <ele>1433.8000488281</ele>
        <time>2024-07-09T12:28:06.000Z</time>
      </trkpt>
      <trkpt lat="42.71144" lon="1.65251">
        <ele>1433.5999755859</ele>
        <time>2024-07-09T12:28:08.000Z</time>
      </trkpt>
      <trkpt lat="42.71143" lon="1.65252">
        <ele>1433.8000488281</ele>
        <time>2024-07-09T12:28:10.000Z</time>
      </trkpt>
      <trkpt lat="42.71141" lon="1.65253">
        <ele>1433.8000488281</ele>
        <time>2024-07-09T12:28:13.000Z</time>
      </trkpt>
      <trkpt lat="42.71138" lon="1.65255">
        <ele>1434</ele>
        <time>2024-07-09T12:28:15.000Z</time>
      </trkpt>
      <trkpt lat="42.71137" lon="1.65255">
        <ele>1434</ele>
        <time>2024-07-09T12:28:16.000Z</time>
      </trkpt>
      <trkpt lat="42.71133" lon="1.65257">
        <ele>1434.4000244141</ele>
        <time>2024-07-09T12:28:22.000Z</time>
      </trkpt>
      <trkpt lat="42.71133" lon="1.65259">
        <ele>1434.4000244141</ele>
        <time>2024-07-09T12:28:23.000Z</time>
      </trkpt>
      <trkpt lat="42.71131" lon="1.65261">
        <ele>1434.5999755859</ele>
        <time>2024-07-09T12:28:25.000Z</time>
      </trkpt>
      <trkpt lat="42.7113" lon="1.65263">
        <ele>1434.4000244141</ele>
        <time>2024-07-09T12:28:27.000Z</time>
      </trkpt>
      <trkpt lat="42.71127" lon="1.65268">
        <ele>1434.5999755859</ele>
        <time>2024-07-09T12:28:32.000Z</time>
      </trkpt>
      <trkpt lat="42.71126" lon="1.6527">
        <ele>1434.5999755859</ele>
        <time>2024-07-09T12:28:33.000Z</time>
      </trkpt>
      <trkpt lat="42.71128" lon="1.65277">
        <ele>1433.5999755859</ele>
        <time>2024-07-09T12:28:38.000Z</time>
      </trkpt>
      <trkpt lat="42.71129" lon="1.65279">
        <ele>1433.5999755859</ele>
        <time>2024-07-09T12:28:39.000Z</time>
      </trkpt>
      <trkpt lat="42.71131" lon="1.65283">
        <ele>1433</ele>
        <time>2024-07-09T12:28:41.000Z</time>
      </trkpt>
      <trkpt lat="42.71131" lon="1.65285">
        <ele>1433</ele>
        <time>2024-07-09T12:28:43.000Z</time>
      </trkpt>
      <trkpt lat="42.71131" lon="1.65288">
        <ele>1432.8000488281</ele>
        <time>2024-07-09T12:28:45.000Z</time>
      </trkpt>
      <trkpt lat="42.71131" lon="1.65293">
        <ele>1432.5999755859</ele>
        <time>2024-07-09T12:28:48.000Z</time>
      </trkpt>
      <trkpt lat="42.7113" lon="1.65299">
        <ele>1432.4000244141</ele>
        <time>2024-07-09T12:28:52.000Z</time>
      </trkpt>
      <trkpt lat="42.7113" lon="1.65301">
        <ele>1432.4000244141</ele>
        <time>2024-07-09T12:28:53.000Z</time>
      </trkpt>
      <trkpt lat="42.71128" lon="1.65304">
        <ele>1432.5999755859</ele>
        <time>2024-07-09T12:28:58.000Z</time>
      </trkpt>
      <trkpt lat="42.71127" lon="1.65306">
        <ele>1432.5999755859</ele>
        <time>2024-07-09T12:29:00.000Z</time>
      </trkpt>
      <trkpt lat="42.71123" lon="1.65309">
        <ele>1433.1999511719</ele>
        <time>2024-07-09T12:29:04.000Z</time>
      </trkpt>
      <trkpt lat="42.7112" lon="1.65314">
        <ele>1433.1999511719</ele>
        <time>2024-07-09T12:29:09.000Z</time>
      </trkpt>
      <trkpt lat="42.71124" lon="1.65317">
        <ele>1432.1999511719</ele>
        <time>2024-07-09T12:29:12.000Z</time>
      </trkpt>
      <trkpt lat="42.71126" lon="1.65321">
        <ele>1431.4000244141</ele>
        <time>2024-07-09T12:29:14.000Z</time>
      </trkpt>
      <trkpt lat="42.71127" lon="1.65328">
        <ele>1430.4000244141</ele>
        <time>2024-07-09T12:29:20.000Z</time>
      </trkpt>
      <trkpt lat="42.71131" lon="1.65335">
        <ele>1429</ele>
        <time>2024-07-09T12:29:24.000Z</time>
      </trkpt>
      <trkpt lat="42.71132" lon="1.65337">
        <ele>1428.5999755859</ele>
        <time>2024-07-09T12:29:26.000Z</time>
      </trkpt>
      <trkpt lat="42.71135" lon="1.65346">
        <ele>1427.1999511719</ele>
        <time>2024-07-09T12:29:32.000Z</time>
      </trkpt>
      <trkpt lat="42.71136" lon="1.65348">
        <ele>1426.8000488281</ele>
        <time>2024-07-09T12:29:33.000Z</time>
      </trkpt>
      <trkpt lat="42.71135" lon="1.65353">
        <ele>1426.4000244141</ele>
        <time>2024-07-09T12:29:36.000Z</time>
      </trkpt>
      <trkpt lat="42.71135" lon="1.65356">
        <ele>1426</ele>
        <time>2024-07-09T12:29:38.000Z</time>
      </trkpt>
      <trkpt lat="42.71134" lon="1.65358">
        <ele>1425.8000488281</ele>
        <time>2024-07-09T12:29:39.000Z</time>
      </trkpt>
      <trkpt lat="42.71136" lon="1.65364">
        <ele>1424.5999755859</ele>
        <time>2024-07-09T12:29:43.000Z</time>
      </trkpt>
      <trkpt lat="42.71135" lon="1.65367">
        <ele>1424.1999511719</ele>
        <time>2024-07-09T12:29:45.000Z</time>
      </trkpt>
      <trkpt lat="42.71135" lon="1.65372">
        <ele>1423.5999755859</ele>
        <time>2024-07-09T12:29:48.000Z</time>
      </trkpt>
      <trkpt lat="42.71135" lon="1.65376">
        <ele>1423.1999511719</ele>
        <time>2024-07-09T12:29:50.000Z</time>
      </trkpt>
      <trkpt lat="42.71133" lon="1.65383">
        <ele>1422.5999755859</ele>
        <time>2024-07-09T12:29:54.000Z</time>
      </trkpt>
      <trkpt lat="42.71133" lon="1.65388">
        <ele>1422</ele>
        <time>2024-07-09T12:29:59.000Z</time>
      </trkpt>
      <trkpt lat="42.71134" lon="1.65391">
        <ele>1421.5999755859</ele>
        <time>2024-07-09T12:30:01.000Z</time>
      </trkpt>
      <trkpt lat="42.71133" lon="1.65404">
        <ele>1419.5999755859</ele>
        <time>2024-07-09T12:30:09.000Z</time>
      </trkpt>
      <trkpt lat="42.71132" lon="1.65411">
        <ele>1418.4000244141</ele>
        <time>2024-07-09T12:30:15.000Z</time>
      </trkpt>
      <trkpt lat="42.7113" lon="1.65414">
        <ele>1418.4000244141</ele>
        <time>2024-07-09T12:30:18.000Z</time>
      </trkpt>
      <trkpt lat="42.71131" lon="1.65417">
        <ele>1418</ele>
        <time>2024-07-09T12:30:20.000Z</time>
      </trkpt>
      <trkpt lat="42.71131" lon="1.65425">
        <ele>1417</ele>
        <time>2024-07-09T12:30:25.000Z</time>
      </trkpt>
      <trkpt lat="42.71133" lon="1.65429">
        <ele>1416.4000244141</ele>
        <time>2024-07-09T12:30:27.000Z</time>
      </trkpt>
      <trkpt lat="42.71132" lon="1.65439">
        <ele>1415.4000244141</ele>
        <time>2024-07-09T12:30:32.000Z</time>
      </trkpt>
      <trkpt lat="42.71131" lon="1.65441">
        <ele>1415.4000244141</ele>
        <time>2024-07-09T12:30:34.000Z</time>
      </trkpt>
      <trkpt lat="42.71131" lon="1.65445">
        <ele>1415</ele>
        <time>2024-07-09T12:30:36.000Z</time>
      </trkpt>
      <trkpt lat="42.71131" lon="1.65451">
        <ele>1414.4000244141</ele>
        <time>2024-07-09T12:30:39.000Z</time>
      </trkpt>
      <trkpt lat="42.71131" lon="1.65453">
        <ele>1414.1999511719</ele>
        <time>2024-07-09T12:30:40.000Z</time>
      </trkpt>
      <trkpt lat="42.7113" lon="1.65456">
        <ele>1414</ele>
        <time>2024-07-09T12:30:42.000Z</time>
      </trkpt>
      <trkpt lat="42.71129" lon="1.65462">
        <ele>1413.5999755859</ele>
        <time>2024-07-09T12:30:46.000Z</time>
      </trkpt>
      <trkpt lat="42.71127" lon="1.65473">
        <ele>1412.5999755859</ele>
        <time>2024-07-09T12:30:53.000Z</time>
      </trkpt>
      <trkpt lat="42.71125" lon="1.65479">
        <ele>1412</ele>
        <time>2024-07-09T12:30:57.000Z</time>
      </trkpt>
      <trkpt lat="42.71124" lon="1.65481">
        <ele>1411.5999755859</ele>
        <time>2024-07-09T12:30:59.000Z</time>
      </trkpt>
      <trkpt lat="42.71123" lon="1.65482">
        <ele>1411.4000244141</ele>
        <time>2024-07-09T12:31:00.000Z</time>
      </trkpt>
      <trkpt lat="42.71122" lon="1.65484">
        <ele>1411</ele>
        <time>2024-07-09T12:31:01.000Z</time>
      </trkpt>
      <trkpt lat="42.71122" lon="1.65486">
        <ele>1410.5999755859</ele>
        <time>2024-07-09T12:31:03.000Z</time>
      </trkpt>
      <trkpt lat="42.71122" lon="1.65489">
        <ele>1409.8000488281</ele>
        <time>2024-07-09T12:31:05.000Z</time>
      </trkpt>
      <trkpt lat="42.71123" lon="1.65494">
        <ele>1408.8000488281</ele>
        <time>2024-07-09T12:31:07.000Z</time>
      </trkpt>
      <trkpt lat="42.7112" lon="1.65502">
        <ele>1407.4000244141</ele>
        <time>2024-07-09T12:31:11.000Z</time>
      </trkpt>
      <trkpt lat="42.71118" lon="1.65503">
        <ele>1407.1999511719</ele>
        <time>2024-07-09T12:31:12.000Z</time>
      </trkpt>
      <trkpt lat="42.71113" lon="1.65507">
        <ele>1407.1999511719</ele>
        <time>2024-07-09T12:31:16.000Z</time>
      </trkpt>
      <trkpt lat="42.71111" lon="1.65519">
        <ele>1404.4000244141</ele>
        <time>2024-07-09T12:31:23.000Z</time>
      </trkpt>
      <trkpt lat="42.71104" lon="1.65528">
        <ele>1403.1999511719</ele>
        <time>2024-07-09T12:31:30.000Z</time>
      </trkpt>
      <trkpt lat="42.71104" lon="1.65528">
        <ele>1403</ele>
        <time>2024-07-09T12:31:31.000Z</time>
      </trkpt>
      <trkpt lat="42.71102" lon="1.65534">
        <ele>1401.8000488281</ele>
        <time>2024-07-09T12:31:34.000Z</time>
      </trkpt>
      <trkpt lat="42.711" lon="1.65536">
        <ele>1401.4000244141</ele>
        <time>2024-07-09T12:31:36.000Z</time>
      </trkpt>
      <trkpt lat="42.71097" lon="1.65545">
        <ele>1399.1999511719</ele>
        <time>2024-07-09T12:31:43.000Z</time>
      </trkpt>
      <trkpt lat="42.71096" lon="1.65549">
        <ele>1397.5999755859</ele>
        <time>2024-07-09T12:31:45.000Z</time>
      </trkpt>
      <trkpt lat="42.71097" lon="1.6556">
        <ele>1393</ele>
        <time>2024-07-09T12:31:49.000Z</time>
      </trkpt>
      <trkpt lat="42.71097" lon="1.65567">
        <ele>1390.8000488281</ele>
        <time>2024-07-09T12:31:53.000Z</time>
      </trkpt>
      <trkpt lat="42.71097" lon="1.65568">
        <ele>1390.4000244141</ele>
        <time>2024-07-09T12:31:54.000Z</time>
      </trkpt>
      <trkpt lat="42.71096" lon="1.65573">
        <ele>1388.8000488281</ele>
        <time>2024-07-09T12:31:59.000Z</time>
      </trkpt>
      <trkpt lat="42.71096" lon="1.65573">
        <ele>1388.8000488281</ele>
        <time>2024-07-09T12:32:00.000Z</time>
      </trkpt>
      <trkpt lat="42.71098" lon="1.65577">
        <ele>1387</ele>
        <time>2024-07-09T12:32:05.000Z</time>
      </trkpt>
      <trkpt lat="42.711" lon="1.65579">
        <ele>1386.4000244141</ele>
        <time>2024-07-09T12:32:10.000Z</time>
      </trkpt>
      <trkpt lat="42.71099" lon="1.6558">
        <ele>1386</ele>
        <time>2024-07-09T12:32:11.000Z</time>
      </trkpt>
      <trkpt lat="42.71097" lon="1.65589">
        <ele>1383.1999511719</ele>
        <time>2024-07-09T12:32:18.000Z</time>
      </trkpt>
      <trkpt lat="42.71093" lon="1.65592">
        <ele>1382.8000488281</ele>
        <time>2024-07-09T12:32:23.000Z</time>
      </trkpt>
      <trkpt lat="42.71092" lon="1.65593">
        <ele>1382.5999755859</ele>
        <time>2024-07-09T12:32:24.000Z</time>
      </trkpt>
      <trkpt lat="42.71092" lon="1.65597">
        <ele>1381</ele>
        <time>2024-07-09T12:32:29.000Z</time>
      </trkpt>
      <trkpt lat="42.71094" lon="1.656">
        <ele>1380.4000244141</ele>
        <time>2024-07-09T12:32:34.000Z</time>
      </trkpt>
      <trkpt lat="42.71099" lon="1.65597">
        <ele>1381</ele>
        <time>2024-07-09T12:32:42.000Z</time>
      </trkpt>
      <trkpt lat="42.71105" lon="1.65596">
        <ele>1380.8000488281</ele>
        <time>2024-07-09T12:32:49.000Z</time>
      </trkpt>
      <trkpt lat="42.7111" lon="1.65596">
        <ele>1380.4000244141</ele>
        <time>2024-07-09T12:32:56.000Z</time>
      </trkpt>
      <trkpt lat="42.7111" lon="1.65595">
        <ele>1380.5999755859</ele>
        <time>2024-07-09T12:33:03.000Z</time>
      </trkpt>
      <trkpt lat="42.7111" lon="1.65601">
        <ele>1379</ele>
        <time>2024-07-09T12:33:09.000Z</time>
      </trkpt>
      <trkpt lat="42.71107" lon="1.65611">
        <ele>1376.5999755859</ele>
        <time>2024-07-09T12:33:14.000Z</time>
      </trkpt>
      <trkpt lat="42.71106" lon="1.65616">
        <ele>1375.4000244141</ele>
        <time>2024-07-09T12:33:16.000Z</time>
      </trkpt>
      <trkpt lat="42.71106" lon="1.65619">
        <ele>1374.1999511719</ele>
        <time>2024-07-09T12:33:19.000Z</time>
      </trkpt>
      <trkpt lat="42.71104" lon="1.65625">
        <ele>1372.4000244141</ele>
        <time>2024-07-09T12:33:23.000Z</time>
      </trkpt>
      <trkpt lat="42.71102" lon="1.65629">
        <ele>1371.1999511719</ele>
        <time>2024-07-09T12:33:25.000Z</time>
      </trkpt>
      <trkpt lat="42.71101" lon="1.65633">
        <ele>1370.4000244141</ele>
        <time>2024-07-09T12:33:27.000Z</time>
      </trkpt>
      <trkpt lat="42.71101" lon="1.65638">
        <ele>1369</ele>
        <time>2024-07-09T12:33:30.000Z</time>
      </trkpt>
      <trkpt lat="42.71098" lon="1.65643">
        <ele>1368.1999511719</ele>
        <time>2024-07-09T12:33:34.000Z</time>
      </trkpt>
      <trkpt lat="42.71097" lon="1.65645">
        <ele>1367.8000488281</ele>
        <time>2024-07-09T12:33:35.000Z</time>
      </trkpt>
      <trkpt lat="42.71096" lon="1.65646">
        <ele>1367.5999755859</ele>
        <time>2024-07-09T12:33:36.000Z</time>
      </trkpt>
      <trkpt lat="42.71093" lon="1.65649">
        <ele>1366.8000488281</ele>
        <time>2024-07-09T12:33:38.000Z</time>
      </trkpt>
      <trkpt lat="42.71092" lon="1.65654">
        <ele>1365.5999755859</ele>
        <time>2024-07-09T12:33:40.000Z</time>
      </trkpt>
      <trkpt lat="42.71091" lon="1.65656">
        <ele>1365</ele>
        <time>2024-07-09T12:33:43.000Z</time>
      </trkpt>
      <trkpt lat="42.71092" lon="1.65656">
        <ele>1365</ele>
        <time>2024-07-09T12:33:46.000Z</time>
      </trkpt>
      <trkpt lat="42.71092" lon="1.65656">
        <ele>1364.8000488281</ele>
        <time>2024-07-09T12:33:47.000Z</time>
      </trkpt>
      <trkpt lat="42.71093" lon="1.65665">
        <ele>1362.1999511719</ele>
        <time>2024-07-09T12:33:52.000Z</time>
      </trkpt>
      <trkpt lat="42.71092" lon="1.65674">
        <ele>1359.5999755859</ele>
        <time>2024-07-09T12:33:58.000Z</time>
      </trkpt>
      <trkpt lat="42.71091" lon="1.65686">
        <ele>1357.8000488281</ele>
        <time>2024-07-09T12:34:06.000Z</time>
      </trkpt>
      <trkpt lat="42.7109" lon="1.65691">
        <ele>1357.1999511719</ele>
        <time>2024-07-09T12:34:09.000Z</time>
      </trkpt>
      <trkpt lat="42.7109" lon="1.65697">
        <ele>1356</ele>
        <time>2024-07-09T12:34:15.000Z</time>
      </trkpt>
      <trkpt lat="42.71092" lon="1.6571">
        <ele>1352.4000244141</ele>
        <time>2024-07-09T12:34:23.000Z</time>
      </trkpt>
      <trkpt lat="42.71094" lon="1.65723">
        <ele>1348.5999755859</ele>
        <time>2024-07-09T12:34:29.000Z</time>
      </trkpt>
      <trkpt lat="42.71095" lon="1.65736">
        <ele>1345.5999755859</ele>
        <time>2024-07-09T12:34:36.000Z</time>
      </trkpt>
      <trkpt lat="42.71095" lon="1.65738">
        <ele>1345.1999511719</ele>
        <time>2024-07-09T12:34:37.000Z</time>
      </trkpt>
      <trkpt lat="42.71093" lon="1.65741">
        <ele>1344.5999755859</ele>
        <time>2024-07-09T12:34:42.000Z</time>
      </trkpt>
      <trkpt lat="42.71094" lon="1.65745">
        <ele>1343.5999755859</ele>
        <time>2024-07-09T12:34:44.000Z</time>
      </trkpt>
      <trkpt lat="42.71092" lon="1.65757">
        <ele>1341</ele>
        <time>2024-07-09T12:34:49.000Z</time>
      </trkpt>
      <trkpt lat="42.71092" lon="1.65759">
        <ele>1340.4000244141</ele>
        <time>2024-07-09T12:34:51.000Z</time>
      </trkpt>
      <trkpt lat="42.71094" lon="1.65765">
        <ele>1339</ele>
        <time>2024-07-09T12:34:56.000Z</time>
      </trkpt>
      <trkpt lat="42.71096" lon="1.65773">
        <ele>1337.1999511719</ele>
        <time>2024-07-09T12:35:00.000Z</time>
      </trkpt>
      <trkpt lat="42.71095" lon="1.6578">
        <ele>1336</ele>
        <time>2024-07-09T12:35:03.000Z</time>
      </trkpt>
      <trkpt lat="42.71093" lon="1.65796">
        <ele>1334.5999755859</ele>
        <time>2024-07-09T12:35:10.000Z</time>
      </trkpt>
      <trkpt lat="42.71094" lon="1.65801">
        <ele>1334</ele>
        <time>2024-07-09T12:35:13.000Z</time>
      </trkpt>
      <trkpt lat="42.71095" lon="1.65807">
        <ele>1333</ele>
        <time>2024-07-09T12:35:16.000Z</time>
      </trkpt>
      <trkpt lat="42.71095" lon="1.65814">
        <ele>1332.4000244141</ele>
        <time>2024-07-09T12:35:20.000Z</time>
      </trkpt>
      <trkpt lat="42.71096" lon="1.6582">
        <ele>1332</ele>
        <time>2024-07-09T12:35:22.000Z</time>
      </trkpt>
      <trkpt lat="42.71096" lon="1.65822">
        <ele>1332</ele>
        <time>2024-07-09T12:35:23.000Z</time>
      </trkpt>
      <trkpt lat="42.71095" lon="1.65825">
        <ele>1332</ele>
        <time>2024-07-09T12:35:25.000Z</time>
      </trkpt>
      <trkpt lat="42.71092" lon="1.65828">
        <ele>1332.5999755859</ele>
        <time>2024-07-09T12:35:27.000Z</time>
      </trkpt>
      <trkpt lat="42.71092" lon="1.65829">
        <ele>1332.8000488281</ele>
        <time>2024-07-09T12:35:28.000Z</time>
      </trkpt>
      <trkpt lat="42.71089" lon="1.65831">
        <ele>1333.4000244141</ele>
        <time>2024-07-09T12:35:31.000Z</time>
      </trkpt>
      <trkpt lat="42.71088" lon="1.65831">
        <ele>1333.5999755859</ele>
        <time>2024-07-09T12:35:32.000Z</time>
      </trkpt>
      <trkpt lat="42.71083" lon="1.65833">
        <ele>1334.5999755859</ele>
        <time>2024-07-09T12:35:36.000Z</time>
      </trkpt>
      <trkpt lat="42.71083" lon="1.65833">
        <ele>1334.8000488281</ele>
        <time>2024-07-09T12:35:37.000Z</time>
      </trkpt>
      <trkpt lat="42.71082" lon="1.65835">
        <ele>1335</ele>
        <time>2024-07-09T12:35:39.000Z</time>
      </trkpt>
      <trkpt lat="42.71081" lon="1.65837">
        <ele>1335</ele>
        <time>2024-07-09T12:35:41.000Z</time>
      </trkpt>
      <trkpt lat="42.71077" lon="1.65842">
        <ele>1335</ele>
        <time>2024-07-09T12:35:45.000Z</time>
      </trkpt>
      <trkpt lat="42.71073" lon="1.65843">
        <ele>1335.8000488281</ele>
        <time>2024-07-09T12:35:47.000Z</time>
      </trkpt>
      <trkpt lat="42.71072" lon="1.65843">
        <ele>1336</ele>
        <time>2024-07-09T12:35:51.000Z</time>
      </trkpt>
      <trkpt lat="42.71074" lon="1.65848">
        <ele>1334.8000488281</ele>
        <time>2024-07-09T12:35:58.000Z</time>
      </trkpt>
      <trkpt lat="42.71084" lon="1.6585">
        <ele>1331.4000244141</ele>
        <time>2024-07-09T12:36:04.000Z</time>
      </trkpt>
      <trkpt lat="42.71088" lon="1.65853">
        <ele>1329.8000488281</ele>
        <time>2024-07-09T12:36:09.000Z</time>
      </trkpt>
      <trkpt lat="42.71089" lon="1.65855">
        <ele>1329.4000244141</ele>
        <time>2024-07-09T12:36:10.000Z</time>
      </trkpt>
      <trkpt lat="42.71092" lon="1.6586">
        <ele>1327.5999755859</ele>
        <time>2024-07-09T12:36:16.000Z</time>
      </trkpt>
      <trkpt lat="42.71099" lon="1.65867">
        <ele>1323.4000244141</ele>
        <time>2024-07-09T12:36:23.000Z</time>
      </trkpt>
      <trkpt lat="42.71102" lon="1.65873">
        <ele>1319</ele>
        <time>2024-07-09T12:36:30.000Z</time>
      </trkpt>
      <trkpt lat="42.71106" lon="1.65877">
        <ele>1315.5999755859</ele>
        <time>2024-07-09T12:36:36.000Z</time>
      </trkpt>
      <trkpt lat="42.71109" lon="1.65884">
        <ele>1310.1999511719</ele>
        <time>2024-07-09T12:36:42.000Z</time>
      </trkpt>
      <trkpt lat="42.71107" lon="1.65885">
        <ele>1309.8000488281</ele>
        <time>2024-07-09T12:36:48.000Z</time>
      </trkpt>
      <trkpt lat="42.71103" lon="1.6589">
        <ele>1309</ele>
        <time>2024-07-09T12:36:53.000Z</time>
      </trkpt>
      <trkpt lat="42.71099" lon="1.65892">
        <ele>1309.4000244141</ele>
        <time>2024-07-09T12:36:58.000Z</time>
      </trkpt>
      <trkpt lat="42.711" lon="1.65897">
        <ele>1306.4000244141</ele>
        <time>2024-07-09T12:37:04.000Z</time>
      </trkpt>
      <trkpt lat="42.71099" lon="1.65903">
        <ele>1304.1999511719</ele>
        <time>2024-07-09T12:37:09.000Z</time>
      </trkpt>
      <trkpt lat="42.71101" lon="1.65906">
        <ele>1302.5999755859</ele>
        <time>2024-07-09T12:37:14.000Z</time>
      </trkpt>
      <trkpt lat="42.71102" lon="1.65909">
        <ele>1300.5999755859</ele>
        <time>2024-07-09T12:37:20.000Z</time>
      </trkpt>
      <trkpt lat="42.711" lon="1.6591">
        <ele>1301.4000244141</ele>
        <time>2024-07-09T12:37:25.000Z</time>
      </trkpt>
      <trkpt lat="42.711" lon="1.6591">
        <ele>1301</ele>
        <time>2024-07-09T12:37:29.000Z</time>
      </trkpt>
      <trkpt lat="42.71101" lon="1.65912">
        <ele>1300</ele>
        <time>2024-07-09T12:37:34.000Z</time>
      </trkpt>
      <trkpt lat="42.71102" lon="1.65915">
        <ele>1298.5999755859</ele>
        <time>2024-07-09T12:37:38.000Z</time>
      </trkpt>
      <trkpt lat="42.71107" lon="1.65919">
        <ele>1295</ele>
        <time>2024-07-09T12:37:44.000Z</time>
      </trkpt>
      <trkpt lat="42.71111" lon="1.65925">
        <ele>1291.5999755859</ele>
        <time>2024-07-09T12:37:49.000Z</time>
      </trkpt>
      <trkpt lat="42.71113" lon="1.65926">
        <ele>1290.4000244141</ele>
        <time>2024-07-09T12:37:54.000Z</time>
      </trkpt>
      <trkpt lat="42.71117" lon="1.65929">
        <ele>1288.1999511719</ele>
        <time>2024-07-09T12:37:59.000Z</time>
      </trkpt>
      <trkpt lat="42.71119" lon="1.65935">
        <ele>1286.5999755859</ele>
        <time>2024-07-09T12:38:03.000Z</time>
      </trkpt>
      <trkpt lat="42.7112" lon="1.65938">
        <ele>1285.4000244141</ele>
        <time>2024-07-09T12:38:10.000Z</time>
      </trkpt>
      <trkpt lat="42.7112" lon="1.65937">
        <ele>1285.5999755859</ele>
        <time>2024-07-09T12:38:15.000Z</time>
      </trkpt>
      <trkpt lat="42.71122" lon="1.65935">
        <ele>1285.4000244141</ele>
        <time>2024-07-09T12:38:23.000Z</time>
      </trkpt>
      <trkpt lat="42.71124" lon="1.65939">
        <ele>1284.1999511719</ele>
        <time>2024-07-09T12:38:28.000Z</time>
      </trkpt>
      <trkpt lat="42.71122" lon="1.65944">
        <ele>1283.4000244141</ele>
        <time>2024-07-09T12:38:35.000Z</time>
      </trkpt>
      <trkpt lat="42.71124" lon="1.65943">
        <ele>1283.1999511719</ele>
        <time>2024-07-09T12:38:40.000Z</time>
      </trkpt>
      <trkpt lat="42.71131" lon="1.65945">
        <ele>1280.8000488281</ele>
        <time>2024-07-09T12:38:47.000Z</time>
      </trkpt>
      <trkpt lat="42.71136" lon="1.65953">
        <ele>1277.4000244141</ele>
        <time>2024-07-09T12:38:53.000Z</time>
      </trkpt>
      <trkpt lat="42.71139" lon="1.65958">
        <ele>1274.8000488281</ele>
        <time>2024-07-09T12:39:00.000Z</time>
      </trkpt>
      <trkpt lat="42.71146" lon="1.65971">
        <ele>1269.1999511719</ele>
        <time>2024-07-09T12:39:05.000Z</time>
      </trkpt>
      <trkpt lat="42.71149" lon="1.65977">
        <ele>1266.5999755859</ele>
        <time>2024-07-09T12:39:12.000Z</time>
      </trkpt>
      <trkpt lat="42.71154" lon="1.65972">
        <ele>1265.8000488281</ele>
        <time>2024-07-09T12:39:17.000Z</time>
      </trkpt>
      <trkpt lat="42.71156" lon="1.65972">
        <ele>1265.4000244141</ele>
        <time>2024-07-09T12:39:18.000Z</time>
      </trkpt>
      <trkpt lat="42.71159" lon="1.65969">
        <ele>1264.8000488281</ele>
        <time>2024-07-09T12:39:21.000Z</time>
      </trkpt>
      <trkpt lat="42.71165" lon="1.65971">
        <ele>1262.4000244141</ele>
        <time>2024-07-09T12:39:24.000Z</time>
      </trkpt>
      <trkpt lat="42.71176" lon="1.6597">
        <ele>1258.4000244141</ele>
        <time>2024-07-09T12:39:31.000Z</time>
      </trkpt>
      <trkpt lat="42.71181" lon="1.6597">
        <ele>1256.1999511719</ele>
        <time>2024-07-09T12:39:36.000Z</time>
      </trkpt>
      <trkpt lat="42.71185" lon="1.65974">
        <ele>1252.5999755859</ele>
        <time>2024-07-09T12:39:42.000Z</time>
      </trkpt>
      <trkpt lat="42.7119" lon="1.65973">
        <ele>1250.1999511719</ele>
        <time>2024-07-09T12:39:47.000Z</time>
      </trkpt>
      <trkpt lat="42.71195" lon="1.65973">
        <ele>1248</ele>
        <time>2024-07-09T12:39:52.000Z</time>
      </trkpt>
      <trkpt lat="42.71198" lon="1.65975">
        <ele>1245.8000488281</ele>
        <time>2024-07-09T12:39:54.000Z</time>
      </trkpt>
      <trkpt lat="42.71205" lon="1.6598">
        <ele>1240.1999511719</ele>
        <time>2024-07-09T12:39:59.000Z</time>
      </trkpt>
      <trkpt lat="42.71207" lon="1.65979">
        <ele>1240.1999511719</ele>
        <time>2024-07-09T12:40:04.000Z</time>
      </trkpt>
      <trkpt lat="42.7121" lon="1.65983">
        <ele>1236.8000488281</ele>
        <time>2024-07-09T12:40:10.000Z</time>
      </trkpt>
      <trkpt lat="42.71213" lon="1.65986">
        <ele>1234.4000244141</ele>
        <time>2024-07-09T12:40:16.000Z</time>
      </trkpt>
      <trkpt lat="42.7121" lon="1.65993">
        <ele>1232.5999755859</ele>
        <time>2024-07-09T12:40:23.000Z</time>
      </trkpt>
      <trkpt lat="42.71211" lon="1.65996">
        <ele>1231.4000244141</ele>
        <time>2024-07-09T12:40:25.000Z</time>
      </trkpt>
      <trkpt lat="42.71209" lon="1.66">
        <ele>1230.5999755859</ele>
        <time>2024-07-09T12:40:29.000Z</time>
      </trkpt>
      <trkpt lat="42.71206" lon="1.66001">
        <ele>1231.5999755859</ele>
        <time>2024-07-09T12:40:32.000Z</time>
      </trkpt>
      <trkpt lat="42.71205" lon="1.66003">
        <ele>1231.4000244141</ele>
        <time>2024-07-09T12:40:34.000Z</time>
      </trkpt>
      <trkpt lat="42.71205" lon="1.66005">
        <ele>1230.5999755859</ele>
        <time>2024-07-09T12:40:35.000Z</time>
      </trkpt>
      <trkpt lat="42.71204" lon="1.66006">
        <ele>1230.4000244141</ele>
        <time>2024-07-09T12:40:36.000Z</time>
      </trkpt>
      <trkpt lat="42.71201" lon="1.66008">
        <ele>1231.5999755859</ele>
        <time>2024-07-09T12:40:39.000Z</time>
      </trkpt>
      <trkpt lat="42.71198" lon="1.66009">
        <ele>1233.1999511719</ele>
        <time>2024-07-09T12:40:42.000Z</time>
      </trkpt>
      <trkpt lat="42.71195" lon="1.6601">
        <ele>1234.5999755859</ele>
        <time>2024-07-09T12:40:45.000Z</time>
      </trkpt>
      <trkpt lat="42.71195" lon="1.66015">
        <ele>1234</ele>
        <time>2024-07-09T12:40:47.000Z</time>
      </trkpt>
      <trkpt lat="42.71194" lon="1.66021">
        <ele>1232.4000244141</ele>
        <time>2024-07-09T12:40:50.000Z</time>
      </trkpt>
      <trkpt lat="42.71191" lon="1.66024">
        <ele>1233.8000488281</ele>
        <time>2024-07-09T12:40:53.000Z</time>
      </trkpt>
      <trkpt lat="42.7119" lon="1.66026">
        <ele>1233.5999755859</ele>
        <time>2024-07-09T12:40:55.000Z</time>
      </trkpt>
      <trkpt lat="42.71191" lon="1.66028">
        <ele>1232.5999755859</ele>
        <time>2024-07-09T12:40:56.000Z</time>
      </trkpt>
      <trkpt lat="42.71192" lon="1.66032">
        <ele>1230.8000488281</ele>
        <time>2024-07-09T12:40:59.000Z</time>
      </trkpt>
      <trkpt lat="42.71187" lon="1.66031">
        <ele>1234.1999511719</ele>
        <time>2024-07-09T12:41:01.000Z</time>
      </trkpt>
      <trkpt lat="42.71187" lon="1.66032">
        <ele>1233.5999755859</ele>
        <time>2024-07-09T12:41:02.000Z</time>
      </trkpt>
      <trkpt lat="42.71189" lon="1.66036">
        <ele>1231.1999511719</ele>
        <time>2024-07-09T12:41:04.000Z</time>
      </trkpt>
      <trkpt lat="42.71189" lon="1.66037">
        <ele>1231</ele>
        <time>2024-07-09T12:41:05.000Z</time>
      </trkpt>
      <trkpt lat="42.71191" lon="1.6604">
        <ele>1229</ele>
        <time>2024-07-09T12:41:09.000Z</time>
      </trkpt>
      <trkpt lat="42.71191" lon="1.6604">
        <ele>1229</ele>
        <time>2024-07-09T12:41:17.000Z</time>
      </trkpt>
      <trkpt lat="42.71191" lon="1.66048">
        <ele>1226.4000244141</ele>
        <time>2024-07-09T12:41:57.000Z</time>
      </trkpt>
      <trkpt lat="42.71196" lon="1.66055">
        <ele>1221</ele>
        <time>2024-07-09T12:42:03.000Z</time>
      </trkpt>
      <trkpt lat="42.71198" lon="1.66057">
        <ele>1219.1999511719</ele>
        <time>2024-07-09T12:42:07.000Z</time>
      </trkpt>
      <trkpt lat="42.71203" lon="1.66059">
        <ele>1215.8000488281</ele>
        <time>2024-07-09T12:42:15.000Z</time>
      </trkpt>
      <trkpt lat="42.71206" lon="1.66063">
        <ele>1213</ele>
        <time>2024-07-09T12:42:21.000Z</time>
      </trkpt>
      <trkpt lat="42.71203" lon="1.66067">
        <ele>1213.8000488281</ele>
        <time>2024-07-09T12:42:27.000Z</time>
      </trkpt>
      <trkpt lat="42.71198" lon="1.66074">
        <ele>1215.5999755859</ele>
        <time>2024-07-09T12:42:33.000Z</time>
      </trkpt>
      <trkpt lat="42.71195" lon="1.66076">
        <ele>1216.8000488281</ele>
        <time>2024-07-09T12:42:37.000Z</time>
      </trkpt>
      <trkpt lat="42.71197" lon="1.6608">
        <ele>1214.5999755859</ele>
        <time>2024-07-09T12:42:41.000Z</time>
      </trkpt>
      <trkpt lat="42.71203" lon="1.66085">
        <ele>1209.8000488281</ele>
        <time>2024-07-09T12:42:47.000Z</time>
      </trkpt>
      <trkpt lat="42.7121" lon="1.66088">
        <ele>1205.1999511719</ele>
        <time>2024-07-09T12:42:55.000Z</time>
      </trkpt>
      <trkpt lat="42.71214" lon="1.66089">
        <ele>1202.8000488281</ele>
        <time>2024-07-09T12:43:00.000Z</time>
      </trkpt>
      <trkpt lat="42.7121" lon="1.66095">
        <ele>1203.5999755859</ele>
        <time>2024-07-09T12:43:06.000Z</time>
      </trkpt>
      <trkpt lat="42.7121" lon="1.66102">
        <ele>1200.8000488281</ele>
        <time>2024-07-09T12:43:12.000Z</time>
      </trkpt>
      <trkpt lat="42.71206" lon="1.66103">
        <ele>1202</ele>
        <time>2024-07-09T12:43:14.000Z</time>
      </trkpt>
      <trkpt lat="42.71204" lon="1.66104">
        <ele>1202.1999511719</ele>
        <time>2024-07-09T12:43:16.000Z</time>
      </trkpt>
      <trkpt lat="42.71206" lon="1.66107">
        <ele>1200.4000244141</ele>
        <time>2024-07-09T12:43:20.000Z</time>
      </trkpt>
      <trkpt lat="42.71211" lon="1.66112">
        <ele>1195.8000488281</ele>
        <time>2024-07-09T12:43:25.000Z</time>
      </trkpt>
      <trkpt lat="42.71216" lon="1.66115">
        <ele>1192.8000488281</ele>
        <time>2024-07-09T12:43:32.000Z</time>
      </trkpt>
      <trkpt lat="42.71219" lon="1.66117">
        <ele>1190.8000488281</ele>
        <time>2024-07-09T12:43:36.000Z</time>
      </trkpt>
      <trkpt lat="42.71219" lon="1.66116">
        <ele>1191.1999511719</ele>
        <time>2024-07-09T12:43:40.000Z</time>
      </trkpt>
      <trkpt lat="42.71216" lon="1.6612">
        <ele>1190.5999755859</ele>
        <time>2024-07-09T12:43:48.000Z</time>
      </trkpt>
      <trkpt lat="42.71213" lon="1.66125">
        <ele>1189</ele>
        <time>2024-07-09T12:43:53.000Z</time>
      </trkpt>
      <trkpt lat="42.71212" lon="1.66129">
        <ele>1187.4000244141</ele>
        <time>2024-07-09T12:43:58.000Z</time>
      </trkpt>
      <trkpt lat="42.71218" lon="1.66133">
        <ele>1183.4000244141</ele>
        <time>2024-07-09T12:44:05.000Z</time>
      </trkpt>
      <trkpt lat="42.71225" lon="1.66143">
        <ele>1176.1999511719</ele>
        <time>2024-07-09T12:44:12.000Z</time>
      </trkpt>
      <trkpt lat="42.71228" lon="1.6615">
        <ele>1173.4000244141</ele>
        <time>2024-07-09T12:44:17.000Z</time>
      </trkpt>
      <trkpt lat="42.71225" lon="1.66157">
        <ele>1172.4000244141</ele>
        <time>2024-07-09T12:44:22.000Z</time>
      </trkpt>
      <trkpt lat="42.71224" lon="1.66158">
        <ele>1172.5999755859</ele>
        <time>2024-07-09T12:44:23.000Z</time>
      </trkpt>
      <trkpt lat="42.71224" lon="1.66163">
        <ele>1171.4000244141</ele>
        <time>2024-07-09T12:44:26.000Z</time>
      </trkpt>
      <trkpt lat="42.71224" lon="1.66165">
        <ele>1170.8000488281</ele>
        <time>2024-07-09T12:44:27.000Z</time>
      </trkpt>
      <trkpt lat="42.71226" lon="1.66168">
        <ele>1169.4000244141</ele>
        <time>2024-07-09T12:44:29.000Z</time>
      </trkpt>
      <trkpt lat="42.71229" lon="1.66168">
        <ele>1168.5999755859</ele>
        <time>2024-07-09T12:44:31.000Z</time>
      </trkpt>
      <trkpt lat="42.7123" lon="1.66167">
        <ele>1168.1999511719</ele>
        <time>2024-07-09T12:44:33.000Z</time>
      </trkpt>
      <trkpt lat="42.71233" lon="1.66169">
        <ele>1166.5999755859</ele>
        <time>2024-07-09T12:44:36.000Z</time>
      </trkpt>
      <trkpt lat="42.71233" lon="1.66171">
        <ele>1166.1999511719</ele>
        <time>2024-07-09T12:44:43.000Z</time>
      </trkpt>
      <trkpt lat="42.71236" lon="1.66176">
        <ele>1164</ele>
        <time>2024-07-09T12:44:48.000Z</time>
      </trkpt>
      <trkpt lat="42.7124" lon="1.66183">
        <ele>1161.4000244141</ele>
        <time>2024-07-09T12:44:55.000Z</time>
      </trkpt>
      <trkpt lat="42.71243" lon="1.66193">
        <ele>1158</ele>
        <time>2024-07-09T12:45:02.000Z</time>
      </trkpt>
      <trkpt lat="42.71244" lon="1.66195">
        <ele>1157</ele>
        <time>2024-07-09T12:45:03.000Z</time>
      </trkpt>
      <trkpt lat="42.71247" lon="1.66201">
        <ele>1154.8000488281</ele>
        <time>2024-07-09T12:45:08.000Z</time>
      </trkpt>
      <trkpt lat="42.71248" lon="1.66201">
        <ele>1154.4000244141</ele>
        <time>2024-07-09T12:45:09.000Z</time>
      </trkpt>
      <trkpt lat="42.7125" lon="1.66204">
        <ele>1152.8000488281</ele>
        <time>2024-07-09T12:45:11.000Z</time>
      </trkpt>
      <trkpt lat="42.71253" lon="1.66208">
        <ele>1151</ele>
        <time>2024-07-09T12:45:13.000Z</time>
      </trkpt>
      <trkpt lat="42.71253" lon="1.66213">
        <ele>1150</ele>
        <time>2024-07-09T12:45:15.000Z</time>
      </trkpt>
      <trkpt lat="42.71253" lon="1.66214">
        <ele>1150</ele>
        <time>2024-07-09T12:45:17.000Z</time>
      </trkpt>
      <trkpt lat="42.71254" lon="1.66214">
        <ele>1149.4000244141</ele>
        <time>2024-07-09T12:45:20.000Z</time>
      </trkpt>
      <trkpt lat="42.71255" lon="1.66215">
        <ele>1149.1999511719</ele>
        <time>2024-07-09T12:45:22.000Z</time>
      </trkpt>
      <trkpt lat="42.71257" lon="1.6622">
        <ele>1147.1999511719</ele>
        <time>2024-07-09T12:45:25.000Z</time>
      </trkpt>
      <trkpt lat="42.71258" lon="1.66221">
        <ele>1146.8000488281</ele>
        <time>2024-07-09T12:45:26.000Z</time>
      </trkpt>
      <trkpt lat="42.71255" lon="1.66218">
        <ele>1148.4000244141</ele>
        <time>2024-07-09T12:45:28.000Z</time>
      </trkpt>
      <trkpt lat="42.71256" lon="1.66221">
        <ele>1147.1999511719</ele>
        <time>2024-07-09T12:45:33.000Z</time>
      </trkpt>
      <trkpt lat="42.71258" lon="1.66225">
        <ele>1145.8000488281</ele>
        <time>2024-07-09T12:45:35.000Z</time>
      </trkpt>
      <trkpt lat="42.71259" lon="1.66227">
        <ele>1145.1999511719</ele>
        <time>2024-07-09T12:45:37.000Z</time>
      </trkpt>
      <trkpt lat="42.71258" lon="1.66229">
        <ele>1144.8000488281</ele>
        <time>2024-07-09T12:45:38.000Z</time>
      </trkpt>
      <trkpt lat="42.7125" lon="1.66234">
        <ele>1147</ele>
        <time>2024-07-09T12:45:44.000Z</time>
      </trkpt>
      <trkpt lat="42.7125" lon="1.66236">
        <ele>1146.4000244141</ele>
        <time>2024-07-09T12:45:50.000Z</time>
      </trkpt>
      <trkpt lat="42.71252" lon="1.66242">
        <ele>1144.8000488281</ele>
        <time>2024-07-09T12:45:57.000Z</time>
      </trkpt>
      <trkpt lat="42.71253" lon="1.66245">
        <ele>1143.5999755859</ele>
        <time>2024-07-09T12:45:59.000Z</time>
      </trkpt>
      <trkpt lat="42.71256" lon="1.66247">
        <ele>1142.4000244141</ele>
        <time>2024-07-09T12:46:02.000Z</time>
      </trkpt>
      <trkpt lat="42.71256" lon="1.66248">
        <ele>1142</ele>
        <time>2024-07-09T12:46:03.000Z</time>
      </trkpt>
      <trkpt lat="42.71261" lon="1.66252">
        <ele>1139.5999755859</ele>
        <time>2024-07-09T12:46:07.000Z</time>
      </trkpt>
      <trkpt lat="42.71263" lon="1.66254">
        <ele>1138.5999755859</ele>
        <time>2024-07-09T12:46:09.000Z</time>
      </trkpt>
      <trkpt lat="42.71263" lon="1.66262">
        <ele>1136.8000488281</ele>
        <time>2024-07-09T12:46:13.000Z</time>
      </trkpt>
      <trkpt lat="42.71263" lon="1.66267">
        <ele>1135.5999755859</ele>
        <time>2024-07-09T12:46:15.000Z</time>
      </trkpt>
      <trkpt lat="42.71264" lon="1.66271">
        <ele>1134.5999755859</ele>
        <time>2024-07-09T12:46:17.000Z</time>
      </trkpt>
      <trkpt lat="42.71264" lon="1.66274">
        <ele>1133.8000488281</ele>
        <time>2024-07-09T12:46:18.000Z</time>
      </trkpt>
      <trkpt lat="42.71267" lon="1.6628">
        <ele>1131.4000244141</ele>
        <time>2024-07-09T12:46:21.000Z</time>
      </trkpt>
      <trkpt lat="42.71271" lon="1.66286">
        <ele>1129.1999511719</ele>
        <time>2024-07-09T12:46:24.000Z</time>
      </trkpt>
      <trkpt lat="42.71271" lon="1.66286">
        <ele>1129</ele>
        <time>2024-07-09T12:46:25.000Z</time>
      </trkpt>
      <trkpt lat="42.71272" lon="1.66285">
        <ele>1128.8000488281</ele>
        <time>2024-07-09T12:46:28.000Z</time>
      </trkpt>
      <trkpt lat="42.71273" lon="1.66285">
        <ele>1128.4000244141</ele>
        <time>2024-07-09T12:46:29.000Z</time>
      </trkpt>
      <trkpt lat="42.71274" lon="1.66285">
        <ele>1128</ele>
        <time>2024-07-09T12:46:30.000Z</time>
      </trkpt>
      <trkpt lat="42.71276" lon="1.66287">
        <ele>1126.8000488281</ele>
        <time>2024-07-09T12:46:32.000Z</time>
      </trkpt>
      <trkpt lat="42.71277" lon="1.66289">
        <ele>1126.1999511719</ele>
        <time>2024-07-09T12:46:33.000Z</time>
      </trkpt>
      <trkpt lat="42.71282" lon="1.66296">
        <ele>1123</ele>
        <time>2024-07-09T12:46:39.000Z</time>
      </trkpt>
      <trkpt lat="42.71283" lon="1.66297">
        <ele>1122.8000488281</ele>
        <time>2024-07-09T12:46:40.000Z</time>
      </trkpt>
      <trkpt lat="42.71286" lon="1.663">
        <ele>1121</ele>
        <time>2024-07-09T12:46:46.000Z</time>
      </trkpt>
      <trkpt lat="42.71286" lon="1.66305">
        <ele>1120</ele>
        <time>2024-07-09T12:46:52.000Z</time>
      </trkpt>
      <trkpt lat="42.71288" lon="1.66307">
        <ele>1118.5999755859</ele>
        <time>2024-07-09T12:46:57.000Z</time>
      </trkpt>
      <trkpt lat="42.71289" lon="1.66308">
        <ele>1117.8000488281</ele>
        <time>2024-07-09T12:47:03.000Z</time>
      </trkpt>
      <trkpt lat="42.71289" lon="1.66308">
        <ele>1118</ele>
        <time>2024-07-09T12:47:10.000Z</time>
      </trkpt>
      <trkpt lat="42.7129" lon="1.66313">
        <ele>1116.5999755859</ele>
        <time>2024-07-09T12:47:22.000Z</time>
      </trkpt>
      <trkpt lat="42.71292" lon="1.66321">
        <ele>1114.8000488281</ele>
        <time>2024-07-09T12:47:27.000Z</time>
      </trkpt>
      <trkpt lat="42.71291" lon="1.66327">
        <ele>1114</ele>
        <time>2024-07-09T12:47:32.000Z</time>
      </trkpt>
      <trkpt lat="42.71291" lon="1.66329">
        <ele>1113.8000488281</ele>
        <time>2024-07-09T12:47:37.000Z</time>
      </trkpt>
      <trkpt lat="42.71288" lon="1.66329">
        <ele>1114.8000488281</ele>
        <time>2024-07-09T12:47:43.000Z</time>
      </trkpt>
      <trkpt lat="42.71291" lon="1.66332">
        <ele>1113.4000244141</ele>
        <time>2024-07-09T12:47:50.000Z</time>
      </trkpt>
      <trkpt lat="42.71291" lon="1.66336">
        <ele>1112.5999755859</ele>
        <time>2024-07-09T12:47:57.000Z</time>
      </trkpt>
      <trkpt lat="42.7129" lon="1.66344">
        <ele>1112</ele>
        <time>2024-07-09T12:48:04.000Z</time>
      </trkpt>
      <trkpt lat="42.71291" lon="1.66352">
        <ele>1110.1999511719</ele>
        <time>2024-07-09T12:48:10.000Z</time>
      </trkpt>
      <trkpt lat="42.71294" lon="1.66352">
        <ele>1109.1999511719</ele>
        <time>2024-07-09T12:48:14.000Z</time>
      </trkpt>
      <trkpt lat="42.71293" lon="1.66356">
        <ele>1108.5999755859</ele>
        <time>2024-07-09T12:48:18.000Z</time>
      </trkpt>
      <trkpt lat="42.71291" lon="1.66364">
        <ele>1107.4000244141</ele>
        <time>2024-07-09T12:48:23.000Z</time>
      </trkpt>
      <trkpt lat="42.71291" lon="1.66367">
        <ele>1106.8000488281</ele>
        <time>2024-07-09T12:48:25.000Z</time>
      </trkpt>
      <trkpt lat="42.71289" lon="1.6637">
        <ele>1106</ele>
        <time>2024-07-09T12:48:28.000Z</time>
      </trkpt>
      <trkpt lat="42.7129" lon="1.66375">
        <ele>1104</ele>
        <time>2024-07-09T12:48:31.000Z</time>
      </trkpt>
      <trkpt lat="42.71293" lon="1.66379">
        <ele>1102</ele>
        <time>2024-07-09T12:48:34.000Z</time>
      </trkpt>
      <trkpt lat="42.71295" lon="1.66383">
        <ele>1099.8000488281</ele>
        <time>2024-07-09T12:48:36.000Z</time>
      </trkpt>
      <trkpt lat="42.71294" lon="1.66387">
        <ele>1098.1999511719</ele>
        <time>2024-07-09T12:48:40.000Z</time>
      </trkpt>
      <trkpt lat="42.71295" lon="1.66388">
        <ele>1097.8000488281</ele>
        <time>2024-07-09T12:48:45.000Z</time>
      </trkpt>
      <trkpt lat="42.71296" lon="1.66388">
        <ele>1097.5999755859</ele>
        <time>2024-07-09T12:48:47.000Z</time>
      </trkpt>
      <trkpt lat="42.713" lon="1.66386">
        <ele>1097.4000244141</ele>
        <time>2024-07-09T12:48:52.000Z</time>
      </trkpt>
      <trkpt lat="42.713" lon="1.66386">
        <ele>1097.5999755859</ele>
        <time>2024-07-09T12:48:53.000Z</time>
      </trkpt>
      <trkpt lat="42.71301" lon="1.6638">
        <ele>1099.5999755859</ele>
        <time>2024-07-09T12:48:58.000Z</time>
      </trkpt>
      <trkpt lat="42.71301" lon="1.66379">
        <ele>1099.8000488281</ele>
        <time>2024-07-09T12:48:59.000Z</time>
      </trkpt>
      <trkpt lat="42.71304" lon="1.66377">
        <ele>1099.8000488281</ele>
        <time>2024-07-09T12:49:03.000Z</time>
      </trkpt>
      <trkpt lat="42.71305" lon="1.66375">
        <ele>1100.1999511719</ele>
        <time>2024-07-09T12:49:09.000Z</time>
      </trkpt>
      <trkpt lat="42.71305" lon="1.66374">
        <ele>1100.4000244141</ele>
        <time>2024-07-09T12:49:14.000Z</time>
      </trkpt>
      <trkpt lat="42.71306" lon="1.66375">
        <ele>1100</ele>
        <time>2024-07-09T12:49:20.000Z</time>
      </trkpt>
      <trkpt lat="42.71305" lon="1.66373">
        <ele>1101</ele>
        <time>2024-07-09T12:49:26.000Z</time>
      </trkpt>
      <trkpt lat="42.71305" lon="1.66378">
        <ele>1099.1999511719</ele>
        <time>2024-07-09T12:49:29.000Z</time>
      </trkpt>
      <trkpt lat="42.71303" lon="1.66382">
        <ele>1098.4000244141</ele>
        <time>2024-07-09T12:49:34.000Z</time>
      </trkpt>
      <trkpt lat="42.713" lon="1.66387">
        <ele>1097</ele>
        <time>2024-07-09T12:49:39.000Z</time>
      </trkpt>
      <trkpt lat="42.71299" lon="1.66391">
        <ele>1095.8000488281</ele>
        <time>2024-07-09T12:49:41.000Z</time>
      </trkpt>
      <trkpt lat="42.71298" lon="1.66394">
        <ele>1094.5999755859</ele>
        <time>2024-07-09T12:49:43.000Z</time>
      </trkpt>
      <trkpt lat="42.71298" lon="1.66395">
        <ele>1094.1999511719</ele>
        <time>2024-07-09T12:49:44.000Z</time>
      </trkpt>
      <trkpt lat="42.71296" lon="1.66398">
        <ele>1093.4000244141</ele>
        <time>2024-07-09T12:49:48.000Z</time>
      </trkpt>
      <trkpt lat="42.71295" lon="1.66398">
        <ele>1093.4000244141</ele>
        <time>2024-07-09T12:49:49.000Z</time>
      </trkpt>
      <trkpt lat="42.71297" lon="1.66402">
        <ele>1091.5999755859</ele>
        <time>2024-07-09T12:49:54.000Z</time>
      </trkpt>
      <trkpt lat="42.71303" lon="1.66402">
        <ele>1090.1999511719</ele>
        <time>2024-07-09T12:50:00.000Z</time>
      </trkpt>
      <trkpt lat="42.71306" lon="1.66402">
        <ele>1089.4000244141</ele>
        <time>2024-07-09T12:50:05.000Z</time>
      </trkpt>
      <trkpt lat="42.71308" lon="1.66409">
        <ele>1085.8000488281</ele>
        <time>2024-07-09T12:50:10.000Z</time>
      </trkpt>
      <trkpt lat="42.71313" lon="1.66413">
        <ele>1083</ele>
        <time>2024-07-09T12:50:16.000Z</time>
      </trkpt>
      <trkpt lat="42.71325" lon="1.66424">
        <ele>1075.8000488281</ele>
        <time>2024-07-09T12:50:24.000Z</time>
      </trkpt>
      <trkpt lat="42.71327" lon="1.66425">
        <ele>1075.1999511719</ele>
        <time>2024-07-09T12:50:26.000Z</time>
      </trkpt>
      <trkpt lat="42.7133" lon="1.66423">
        <ele>1075</ele>
        <time>2024-07-09T12:50:29.000Z</time>
      </trkpt>
      <trkpt lat="42.7133" lon="1.66423">
        <ele>1074.8000488281</ele>
        <time>2024-07-09T12:50:30.000Z</time>
      </trkpt>
      <trkpt lat="42.71335" lon="1.66419">
        <ele>1075.1999511719</ele>
        <time>2024-07-09T12:50:37.000Z</time>
      </trkpt>
      <trkpt lat="42.71337" lon="1.66417">
        <ele>1075.1999511719</ele>
        <time>2024-07-09T12:50:40.000Z</time>
      </trkpt>
      <trkpt lat="42.71338" lon="1.66415">
        <ele>1075.5999755859</ele>
        <time>2024-07-09T12:50:43.000Z</time>
      </trkpt>
      <trkpt lat="42.71343" lon="1.66408">
        <ele>1076.1999511719</ele>
        <time>2024-07-09T12:50:50.000Z</time>
      </trkpt>
      <trkpt lat="42.71346" lon="1.66402">
        <ele>1077.4000244141</ele>
        <time>2024-07-09T12:50:55.000Z</time>
      </trkpt>
      <trkpt lat="42.71347" lon="1.664">
        <ele>1077.5999755859</ele>
        <time>2024-07-09T12:50:57.000Z</time>
      </trkpt>
      <trkpt lat="42.71348" lon="1.66397">
        <ele>1078</ele>
        <time>2024-07-09T12:50:59.000Z</time>
      </trkpt>
      <trkpt lat="42.71351" lon="1.66391">
        <ele>1078.8000488281</ele>
        <time>2024-07-09T12:51:03.000Z</time>
      </trkpt>
      <trkpt lat="42.71352" lon="1.66386">
        <ele>1079.8000488281</ele>
        <time>2024-07-09T12:51:06.000Z</time>
      </trkpt>
      <trkpt lat="42.71355" lon="1.66381">
        <ele>1080.5999755859</ele>
        <time>2024-07-09T12:51:10.000Z</time>
      </trkpt>
      <trkpt lat="42.71356" lon="1.6638">
        <ele>1080.4000244141</ele>
        <time>2024-07-09T12:51:11.000Z</time>
      </trkpt>
      <trkpt lat="42.71359" lon="1.66377">
        <ele>1080.1999511719</ele>
        <time>2024-07-09T12:51:15.000Z</time>
      </trkpt>
      <trkpt lat="42.71361" lon="1.66375">
        <ele>1080.1999511719</ele>
        <time>2024-07-09T12:51:17.000Z</time>
      </trkpt>
      <trkpt lat="42.71363" lon="1.66375">
        <ele>1079.1999511719</ele>
        <time>2024-07-09T12:51:20.000Z</time>
      </trkpt>
      <trkpt lat="42.71369" lon="1.66379">
        <ele>1076.1999511719</ele>
        <time>2024-07-09T12:51:24.000Z</time>
      </trkpt>
      <trkpt lat="42.71371" lon="1.66381">
        <ele>1075.4000244141</ele>
        <time>2024-07-09T12:51:26.000Z</time>
      </trkpt>
      <trkpt lat="42.71381" lon="1.66388">
        <ele>1071</ele>
        <time>2024-07-09T12:51:33.000Z</time>
      </trkpt>
      <trkpt lat="42.71382" lon="1.66389">
        <ele>1070.1999511719</ele>
        <time>2024-07-09T12:51:34.000Z</time>
      </trkpt>
      <trkpt lat="42.71388" lon="1.66397">
        <ele>1067</ele>
        <time>2024-07-09T12:51:39.000Z</time>
      </trkpt>
      <trkpt lat="42.71392" lon="1.66398">
        <ele>1066.1999511719</ele>
        <time>2024-07-09T12:51:42.000Z</time>
      </trkpt>
      <trkpt lat="42.71396" lon="1.664">
        <ele>1065.1999511719</ele>
        <time>2024-07-09T12:51:46.000Z</time>
      </trkpt>
      <trkpt lat="42.71401" lon="1.66401">
        <ele>1065.1999511719</ele>
        <time>2024-07-09T12:51:51.000Z</time>
      </trkpt>
      <trkpt lat="42.71403" lon="1.66402">
        <ele>1065.1999511719</ele>
        <time>2024-07-09T12:51:52.000Z</time>
      </trkpt>
      <trkpt lat="42.71405" lon="1.66404">
        <ele>1065</ele>
        <time>2024-07-09T12:51:54.000Z</time>
      </trkpt>
      <trkpt lat="42.71407" lon="1.66405">
        <ele>1064.8000488281</ele>
        <time>2024-07-09T12:51:56.000Z</time>
      </trkpt>
      <trkpt lat="42.71409" lon="1.66407">
        <ele>1064.4000244141</ele>
        <time>2024-07-09T12:51:58.000Z</time>
      </trkpt>
      <trkpt lat="42.71415" lon="1.66416">
        <ele>1063.4000244141</ele>
        <time>2024-07-09T12:52:04.000Z</time>
      </trkpt>
      <trkpt lat="42.71415" lon="1.6642">
        <ele>1062.8000488281</ele>
        <time>2024-07-09T12:52:08.000Z</time>
      </trkpt>
      <trkpt lat="42.71415" lon="1.66427">
        <ele>1061.8000488281</ele>
        <time>2024-07-09T12:52:11.000Z</time>
      </trkpt>
      <trkpt lat="42.71415" lon="1.66431">
        <ele>1061.4000244141</ele>
        <time>2024-07-09T12:52:13.000Z</time>
      </trkpt>
      <trkpt lat="42.71413" lon="1.66444">
        <ele>1059.5999755859</ele>
        <time>2024-07-09T12:52:21.000Z</time>
      </trkpt>
      <trkpt lat="42.71415" lon="1.66462">
        <ele>1056</ele>
        <time>2024-07-09T12:52:30.000Z</time>
      </trkpt>
      <trkpt lat="42.71417" lon="1.66468">
        <ele>1054.4000244141</ele>
        <time>2024-07-09T12:52:34.000Z</time>
      </trkpt>
      <trkpt lat="42.71417" lon="1.66471">
        <ele>1053.8000488281</ele>
        <time>2024-07-09T12:52:36.000Z</time>
      </trkpt>
      <trkpt lat="42.71417" lon="1.66471">
        <ele>1053.5999755859</ele>
        <time>2024-07-09T12:52:37.000Z</time>
      </trkpt>
      <trkpt lat="42.71421" lon="1.66484">
        <ele>1051</ele>
        <time>2024-07-09T12:52:44.000Z</time>
      </trkpt>
      <trkpt lat="42.71421" lon="1.66485">
        <ele>1050.8000488281</ele>
        <time>2024-07-09T12:52:45.000Z</time>
      </trkpt>
      <trkpt lat="42.71423" lon="1.66491">
        <ele>1050</ele>
        <time>2024-07-09T12:52:48.000Z</time>
      </trkpt>
      <trkpt lat="42.71425" lon="1.66495">
        <ele>1049.4000244141</ele>
        <time>2024-07-09T12:52:50.000Z</time>
      </trkpt>
      <trkpt lat="42.71427" lon="1.665">
        <ele>1048.8000488281</ele>
        <time>2024-07-09T12:52:52.000Z</time>
      </trkpt>
      <trkpt lat="42.71427" lon="1.66504">
        <ele>1048.1999511719</ele>
        <time>2024-07-09T12:52:55.000Z</time>
      </trkpt>
      <trkpt lat="42.71429" lon="1.66508">
        <ele>1047.8000488281</ele>
        <time>2024-07-09T12:52:59.000Z</time>
      </trkpt>
      <trkpt lat="42.71431" lon="1.66508">
        <ele>1047.5999755859</ele>
        <time>2024-07-09T12:53:00.000Z</time>
      </trkpt>
      <trkpt lat="42.71438" lon="1.66517">
        <ele>1046.1999511719</ele>
        <time>2024-07-09T12:53:08.000Z</time>
      </trkpt>
      <trkpt lat="42.71447" lon="1.66535">
        <ele>1043.5999755859</ele>
        <time>2024-07-09T12:53:20.000Z</time>
      </trkpt>
      <trkpt lat="42.71451" lon="1.66545">
        <ele>1042.5999755859</ele>
        <time>2024-07-09T12:53:27.000Z</time>
      </trkpt>
      <trkpt lat="42.71451" lon="1.66557">
        <ele>1041.1999511719</ele>
        <time>2024-07-09T12:53:35.000Z</time>
      </trkpt>
      <trkpt lat="42.71443" lon="1.66568">
        <ele>1041.5999755859</ele>
        <time>2024-07-09T12:53:44.000Z</time>
      </trkpt>
      <trkpt lat="42.71443" lon="1.66569">
        <ele>1041.5999755859</ele>
        <time>2024-07-09T12:53:45.000Z</time>
      </trkpt>
      <trkpt lat="42.71436" lon="1.66573">
        <ele>1042</ele>
        <time>2024-07-09T12:53:50.000Z</time>
      </trkpt>
      <trkpt lat="42.71433" lon="1.66576">
        <ele>1042.8000488281</ele>
        <time>2024-07-09T12:53:54.000Z</time>
      </trkpt>
      <trkpt lat="42.71431" lon="1.66576">
        <ele>1043</ele>
        <time>2024-07-09T12:53:56.000Z</time>
      </trkpt>
      <trkpt lat="42.7143" lon="1.66578">
        <ele>1043.4000244141</ele>
        <time>2024-07-09T12:53:58.000Z</time>
      </trkpt>
      <trkpt lat="42.71428" lon="1.66578">
        <ele>1043.8000488281</ele>
        <time>2024-07-09T12:54:01.000Z</time>
      </trkpt>
      <trkpt lat="42.71429" lon="1.66578">
        <ele>1043.5999755859</ele>
        <time>2024-07-09T12:54:06.000Z</time>
      </trkpt>
      <trkpt lat="42.71426" lon="1.66579">
        <ele>1044.1999511719</ele>
        <time>2024-07-09T12:54:12.000Z</time>
      </trkpt>
      <trkpt lat="42.71417" lon="1.6658">
        <ele>1045.1999511719</ele>
        <time>2024-07-09T12:54:20.000Z</time>
      </trkpt>
      <trkpt lat="42.71416" lon="1.66582">
        <ele>1045.8000488281</ele>
        <time>2024-07-09T12:54:22.000Z</time>
      </trkpt>
      <trkpt lat="42.71417" lon="1.66585">
        <ele>1046.1999511719</ele>
        <time>2024-07-09T12:54:25.000Z</time>
      </trkpt>
      <trkpt lat="42.71417" lon="1.66585">
        <ele>1046.4000244141</ele>
        <time>2024-07-09T12:54:26.000Z</time>
      </trkpt>
      <trkpt lat="42.71419" lon="1.66586">
        <ele>1046</ele>
        <time>2024-07-09T12:54:32.000Z</time>
      </trkpt>
      <trkpt lat="42.71421" lon="1.66588">
        <ele>1046.1999511719</ele>
        <time>2024-07-09T12:54:35.000Z</time>
      </trkpt>
      <trkpt lat="42.71424" lon="1.66591">
        <ele>1046.5999755859</ele>
        <time>2024-07-09T12:54:37.000Z</time>
      </trkpt>
      <trkpt lat="42.71426" lon="1.66593">
        <ele>1046.5999755859</ele>
        <time>2024-07-09T12:54:40.000Z</time>
      </trkpt>
      <trkpt lat="42.71426" lon="1.66593">
        <ele>1046.4000244141</ele>
        <time>2024-07-09T12:54:43.000Z</time>
      </trkpt>
      <trkpt lat="42.71427" lon="1.66593">
        <ele>1046.1999511719</ele>
        <time>2024-07-09T12:54:44.000Z</time>
      </trkpt>
      <trkpt lat="42.7143" lon="1.66596">
        <ele>1046.4000244141</ele>
        <time>2024-07-09T12:54:47.000Z</time>
      </trkpt>
      <trkpt lat="42.7143" lon="1.66601">
        <ele>1048</ele>
        <time>2024-07-09T12:54:52.000Z</time>
      </trkpt>
      <trkpt lat="42.71429" lon="1.666">
        <ele>1047.8000488281</ele>
        <time>2024-07-09T12:54:57.000Z</time>
      </trkpt>
      <trkpt lat="42.7143" lon="1.66599">
        <ele>1047</ele>
        <time>2024-07-09T12:55:02.000Z</time>
      </trkpt>
      <trkpt lat="42.7143" lon="1.66598">
        <ele>1047.1999511719</ele>
        <time>2024-07-09T12:55:08.000Z</time>
      </trkpt>
      <trkpt lat="42.71427" lon="1.66595">
        <ele>1047</ele>
        <time>2024-07-09T12:56:12.000Z</time>
      </trkpt>
      <trkpt lat="42.71428" lon="1.66595">
        <ele>1046.8000488281</ele>
        <time>2024-07-09T12:56:20.000Z</time>
      </trkpt>
      <trkpt lat="42.71425" lon="1.66596">
        <ele>1047.8000488281</ele>
        <time>2024-07-09T12:56:27.000Z</time>
      </trkpt>
      <trkpt lat="42.71426" lon="1.66596">
        <ele>1047.5999755859</ele>
        <time>2024-07-09T12:56:31.000Z</time>
      </trkpt>
      <trkpt lat="42.71429" lon="1.66595">
        <ele>1046.1999511719</ele>
        <time>2024-07-09T12:56:35.000Z</time>
      </trkpt>
      <trkpt lat="42.7143" lon="1.66594">
        <ele>1046</ele>
        <time>2024-07-09T12:56:42.000Z</time>
      </trkpt>
      <trkpt lat="42.71428" lon="1.66594">
        <ele>1046.5999755859</ele>
        <time>2024-07-09T12:56:49.000Z</time>
      </trkpt>
      <trkpt lat="42.71428" lon="1.66594">
        <ele>1046.1999511719</ele>
        <time>2024-07-09T12:56:57.000Z</time>
      </trkpt>
      <trkpt lat="42.71428" lon="1.66594">
        <ele>1046.1999511719</ele>
        <time>2024-07-09T12:58:28.000Z</time>
      </trkpt>
      <trkpt lat="42.71432" lon="1.66596">
        <ele>1045.8000488281</ele>
        <time>2024-07-09T12:59:50.000Z</time>
      </trkpt>
      <trkpt lat="42.71433" lon="1.66595">
        <ele>1045.4000244141</ele>
        <time>2024-07-09T12:59:57.000Z</time>
      </trkpt>
      <trkpt lat="42.71434" lon="1.66595">
        <ele>1045.4000244141</ele>
        <time>2024-07-09T13:00:04.000Z</time>
      </trkpt>
      <trkpt lat="42.7143" lon="1.66595">
        <ele>1046</ele>
        <time>2024-07-09T13:01:18.000Z</time>
      </trkpt>
      <trkpt lat="42.71429" lon="1.66596">
        <ele>1046.5999755859</ele>
        <time>2024-07-09T13:01:22.000Z</time>
      </trkpt>
      <trkpt lat="42.71429" lon="1.66596">
        <ele>1046.4000244141</ele>
        <time>2024-07-09T13:01:31.000Z</time>
      </trkpt>
      <trkpt lat="42.7143" lon="1.66596">
        <ele>1046.1999511719</ele>
        <time>2024-07-09T13:01:57.000Z</time>
      </trkpt>
      <trkpt lat="42.71427" lon="1.66592">
        <ele>1046</ele>
        <time>2024-07-09T13:03:58.000Z</time>
      </trkpt>
      <trkpt lat="42.71427" lon="1.66593">
        <ele>1046.1999511719</ele>
        <time>2024-07-09T13:06:29.000Z</time>
      </trkpt>
      <trkpt lat="42.71427" lon="1.66591">
        <ele>1045.8000488281</ele>
        <time>2024-07-09T13:06:38.000Z</time>
      </trkpt>
      <trkpt lat="42.71428" lon="1.66592">
        <ele>1045.8000488281</ele>
        <time>2024-07-09T13:06:45.000Z</time>
      </trkpt>
      <trkpt lat="42.71426" lon="1.66592">
        <ele>1046.4000244141</ele>
        <time>2024-07-09T13:07:10.000Z</time>
      </trkpt>
      <trkpt lat="42.71426" lon="1.66593">
        <ele>1046.4000244141</ele>
        <time>2024-07-09T13:07:16.000Z</time>
      </trkpt>
      <trkpt lat="42.71427" lon="1.66595">
        <ele>1046.8000488281</ele>
        <time>2024-07-09T13:07:21.000Z</time>
      </trkpt>
      <trkpt lat="42.71428" lon="1.66596">
        <ele>1047.1999511719</ele>
        <time>2024-07-09T13:07:26.000Z</time>
      </trkpt>
      <trkpt lat="42.71428" lon="1.66598">
        <ele>1047.5999755859</ele>
        <time>2024-07-09T13:07:32.000Z</time>
      </trkpt>
      <trkpt lat="42.71429" lon="1.666">
        <ele>1048</ele>
        <time>2024-07-09T13:07:38.000Z</time>
      </trkpt>
      <trkpt lat="42.71428" lon="1.66598">
        <ele>1047.8000488281</ele>
        <time>2024-07-09T13:07:47.000Z</time>
      </trkpt>
      <trkpt lat="42.71425" lon="1.66594">
        <ele>1047.4000244141</ele>
        <time>2024-07-09T13:07:56.000Z</time>
      </trkpt>
      <trkpt lat="42.71424" lon="1.66593">
        <ele>1047.1999511719</ele>
        <time>2024-07-09T13:08:03.000Z</time>
      </trkpt>
      <trkpt lat="42.71427" lon="1.66594">
        <ele>1046.5999755859</ele>
        <time>2024-07-09T13:08:09.000Z</time>
      </trkpt>
      <trkpt lat="42.71428" lon="1.66594">
        <ele>1046</ele>
        <time>2024-07-09T13:08:14.000Z</time>
      </trkpt>
      <trkpt lat="42.71428" lon="1.66594">
        <ele>1046</ele>
        <time>2024-07-09T13:08:21.000Z</time>
      </trkpt>
      <trkpt lat="42.71428" lon="1.66594">
        <ele>1046</ele>
        <time>2024-07-09T13:08:27.000Z</time>
      </trkpt>
      <trkpt lat="42.71437" lon="1.66598">
        <ele>1045.4000244141</ele>
        <time>2024-07-09T13:08:34.000Z</time>
      </trkpt>
      <trkpt lat="42.71439" lon="1.66601">
        <ele>1045.4000244141</ele>
        <time>2024-07-09T13:08:36.000Z</time>
      </trkpt>
      <trkpt lat="42.71442" lon="1.66604">
        <ele>1045.4000244141</ele>
        <time>2024-07-09T13:08:40.000Z</time>
      </trkpt>
      <trkpt lat="42.7145" lon="1.66617">
        <ele>1046.8000488281</ele>
        <time>2024-07-09T13:08:48.000Z</time>
      </trkpt>
      <trkpt lat="42.71458" lon="1.66623">
        <ele>1045.5999755859</ele>
        <time>2024-07-09T13:08:54.000Z</time>
      </trkpt>
      <trkpt lat="42.7146" lon="1.66625">
        <ele>1045.4000244141</ele>
        <time>2024-07-09T13:08:56.000Z</time>
      </trkpt>
      <trkpt lat="42.71462" lon="1.66627">
        <ele>1045.5999755859</ele>
        <time>2024-07-09T13:08:58.000Z</time>
      </trkpt>
      <trkpt lat="42.71463" lon="1.66628">
        <ele>1045.4000244141</ele>
        <time>2024-07-09T13:08:59.000Z</time>
      </trkpt>
      <trkpt lat="42.71463" lon="1.66628">
        <ele>1045.5999755859</ele>
        <time>2024-07-09T13:09:00.000Z</time>
      </trkpt>
      <trkpt lat="42.71464" lon="1.66632">
        <ele>1046.1999511719</ele>
        <time>2024-07-09T13:09:03.000Z</time>
      </trkpt>
      <trkpt lat="42.71466" lon="1.66634">
        <ele>1046.4000244141</ele>
        <time>2024-07-09T13:09:05.000Z</time>
      </trkpt>
      <trkpt lat="42.7147" lon="1.66638">
        <ele>1046.1999511719</ele>
        <time>2024-07-09T13:09:10.000Z</time>
      </trkpt>
      <trkpt lat="42.7147" lon="1.66638">
        <ele>1046.1999511719</ele>
        <time>2024-07-09T13:09:16.000Z</time>
      </trkpt>
      <trkpt lat="42.71468" lon="1.6664">
        <ele>1047.5999755859</ele>
        <time>2024-07-09T13:09:22.000Z</time>
      </trkpt>
      <trkpt lat="42.71465" lon="1.66635">
        <ele>1047.1999511719</ele>
        <time>2024-07-09T13:09:30.000Z</time>
      </trkpt>
      <trkpt lat="42.71466" lon="1.66634">
        <ele>1046.4000244141</ele>
        <time>2024-07-09T13:09:34.000Z</time>
      </trkpt>
      <trkpt lat="42.71465" lon="1.66632">
        <ele>1046</ele>
        <time>2024-07-09T13:09:38.000Z</time>
      </trkpt>
      <trkpt lat="42.71465" lon="1.66635">
        <ele>1047.1999511719</ele>
        <time>2024-07-09T13:09:42.000Z</time>
      </trkpt>
      <trkpt lat="42.71466" lon="1.66646">
        <ele>1050</ele>
        <time>2024-07-09T13:09:48.000Z</time>
      </trkpt>
      <trkpt lat="42.71467" lon="1.66647">
        <ele>1049.8000488281</ele>
        <time>2024-07-09T13:09:49.000Z</time>
      </trkpt>
      <trkpt lat="42.71471" lon="1.6665">
        <ele>1049</ele>
        <time>2024-07-09T13:09:51.000Z</time>
      </trkpt>
      <trkpt lat="42.71472" lon="1.66653">
        <ele>1048.8000488281</ele>
        <time>2024-07-09T13:09:53.000Z</time>
      </trkpt>
      <trkpt lat="42.71472" lon="1.66654">
        <ele>1049</ele>
        <time>2024-07-09T13:09:54.000Z</time>
      </trkpt>
      <trkpt lat="42.71473" lon="1.66657">
        <ele>1049</ele>
        <time>2024-07-09T13:09:56.000Z</time>
      </trkpt>
      <trkpt lat="42.71475" lon="1.66659">
        <ele>1048.4000244141</ele>
        <time>2024-07-09T13:09:58.000Z</time>
      </trkpt>
      <trkpt lat="42.71478" lon="1.66665">
        <ele>1048.1999511719</ele>
        <time>2024-07-09T13:10:03.000Z</time>
      </trkpt>
      <trkpt lat="42.71479" lon="1.66666">
        <ele>1048.1999511719</ele>
        <time>2024-07-09T13:10:04.000Z</time>
      </trkpt>
      <trkpt lat="42.71478" lon="1.66669">
        <ele>1048.8000488281</ele>
        <time>2024-07-09T13:10:07.000Z</time>
      </trkpt>
      <trkpt lat="42.71478" lon="1.66674">
        <ele>1050.4000244141</ele>
        <time>2024-07-09T13:10:10.000Z</time>
      </trkpt>
      <trkpt lat="42.71479" lon="1.66677">
        <ele>1050.5999755859</ele>
        <time>2024-07-09T13:10:12.000Z</time>
      </trkpt>
      <trkpt lat="42.71485" lon="1.66681">
        <ele>1049.5999755859</ele>
        <time>2024-07-09T13:10:18.000Z</time>
      </trkpt>
      <trkpt lat="42.71488" lon="1.66684">
        <ele>1049.4000244141</ele>
        <time>2024-07-09T13:10:22.000Z</time>
      </trkpt>
      <trkpt lat="42.71491" lon="1.66688">
        <ele>1049.4000244141</ele>
        <time>2024-07-09T13:10:27.000Z</time>
      </trkpt>
      <trkpt lat="42.71492" lon="1.66691">
        <ele>1049.8000488281</ele>
        <time>2024-07-09T13:10:29.000Z</time>
      </trkpt>
      <trkpt lat="42.71492" lon="1.66693">
        <ele>1050</ele>
        <time>2024-07-09T13:10:30.000Z</time>
      </trkpt>
      <trkpt lat="42.71495" lon="1.66698">
        <ele>1050.5999755859</ele>
        <time>2024-07-09T13:10:34.000Z</time>
      </trkpt>
      <trkpt lat="42.71498" lon="1.667">
        <ele>1050</ele>
        <time>2024-07-09T13:10:36.000Z</time>
      </trkpt>
      <trkpt lat="42.71501" lon="1.66702">
        <ele>1049.8000488281</ele>
        <time>2024-07-09T13:10:39.000Z</time>
      </trkpt>
      <trkpt lat="42.71506" lon="1.66711">
        <ele>1051.1999511719</ele>
        <time>2024-07-09T13:10:45.000Z</time>
      </trkpt>
      <trkpt lat="42.71511" lon="1.66723">
        <ele>1054</ele>
        <time>2024-07-09T13:10:52.000Z</time>
      </trkpt>
      <trkpt lat="42.71514" lon="1.66728">
        <ele>1054.5999755859</ele>
        <time>2024-07-09T13:10:57.000Z</time>
      </trkpt>
      <trkpt lat="42.71516" lon="1.66731">
        <ele>1054.4000244141</ele>
        <time>2024-07-09T13:10:59.000Z</time>
      </trkpt>
      <trkpt lat="42.71518" lon="1.66734">
        <ele>1054.1999511719</ele>
        <time>2024-07-09T13:11:04.000Z</time>
      </trkpt>
      <trkpt lat="42.71519" lon="1.66734">
        <ele>1054.1999511719</ele>
        <time>2024-07-09T13:11:05.000Z</time>
      </trkpt>
      <trkpt lat="42.71521" lon="1.66737">
        <ele>1054.4000244141</ele>
        <time>2024-07-09T13:11:09.000Z</time>
      </trkpt>
      <trkpt lat="42.71522" lon="1.66738">
        <ele>1054</ele>
        <time>2024-07-09T13:11:11.000Z</time>
      </trkpt>
      <trkpt lat="42.71525" lon="1.66743">
        <ele>1054.1999511719</ele>
        <time>2024-07-09T13:11:16.000Z</time>
      </trkpt>
      <trkpt lat="42.71527" lon="1.66745">
        <ele>1053.8000488281</ele>
        <time>2024-07-09T13:11:18.000Z</time>
      </trkpt>
      <trkpt lat="42.71528" lon="1.66746">
        <ele>1054</ele>
        <time>2024-07-09T13:11:19.000Z</time>
      </trkpt>
      <trkpt lat="42.7153" lon="1.66752">
        <ele>1055.1999511719</ele>
        <time>2024-07-09T13:11:24.000Z</time>
      </trkpt>
      <trkpt lat="42.71533" lon="1.66756">
        <ele>1055</ele>
        <time>2024-07-09T13:11:27.000Z</time>
      </trkpt>
      <trkpt lat="42.71536" lon="1.66758">
        <ele>1054.5999755859</ele>
        <time>2024-07-09T13:11:30.000Z</time>
      </trkpt>
      <trkpt lat="42.71541" lon="1.66767">
        <ele>1056.1999511719</ele>
        <time>2024-07-09T13:11:37.000Z</time>
      </trkpt>
      <trkpt lat="42.71544" lon="1.66773">
        <ele>1057.4000244141</ele>
        <time>2024-07-09T13:11:43.000Z</time>
      </trkpt>
      <trkpt lat="42.71549" lon="1.66778">
        <ele>1058</ele>
        <time>2024-07-09T13:11:49.000Z</time>
      </trkpt>
      <trkpt lat="42.71551" lon="1.66783">
        <ele>1059.1999511719</ele>
        <time>2024-07-09T13:11:53.000Z</time>
      </trkpt>
      <trkpt lat="42.71552" lon="1.66784">
        <ele>1059.1999511719</ele>
        <time>2024-07-09T13:11:55.000Z</time>
      </trkpt>
      <trkpt lat="42.71553" lon="1.66789">
        <ele>1060.5999755859</ele>
        <time>2024-07-09T13:12:00.000Z</time>
      </trkpt>
      <trkpt lat="42.71554" lon="1.66791">
        <ele>1060.8000488281</ele>
        <time>2024-07-09T13:12:02.000Z</time>
      </trkpt>
      <trkpt lat="42.71558" lon="1.66798">
        <ele>1062</ele>
        <time>2024-07-09T13:12:08.000Z</time>
      </trkpt>
      <trkpt lat="42.71563" lon="1.668">
        <ele>1061.8000488281</ele>
        <time>2024-07-09T13:12:13.000Z</time>
      </trkpt>
      <trkpt lat="42.71568" lon="1.66808">
        <ele>1063.1999511719</ele>
        <time>2024-07-09T13:12:20.000Z</time>
      </trkpt>
      <trkpt lat="42.71569" lon="1.66809">
        <ele>1063.5999755859</ele>
        <time>2024-07-09T13:12:21.000Z</time>
      </trkpt>
      <trkpt lat="42.7157" lon="1.66811">
        <ele>1064</ele>
        <time>2024-07-09T13:12:24.000Z</time>
      </trkpt>
      <trkpt lat="42.7157" lon="1.66813">
        <ele>1064.1999511719</ele>
        <time>2024-07-09T13:12:25.000Z</time>
      </trkpt>
      <trkpt lat="42.71571" lon="1.66818">
        <ele>1065.4000244141</ele>
        <time>2024-07-09T13:12:31.000Z</time>
      </trkpt>
      <trkpt lat="42.71574" lon="1.66826">
        <ele>1066.5999755859</ele>
        <time>2024-07-09T13:12:39.000Z</time>
      </trkpt>
      <trkpt lat="42.71578" lon="1.66836">
        <ele>1068.4000244141</ele>
        <time>2024-07-09T13:12:48.000Z</time>
      </trkpt>
      <trkpt lat="42.71577" lon="1.66844">
        <ele>1070.4000244141</ele>
        <time>2024-07-09T13:12:55.000Z</time>
      </trkpt>
      <trkpt lat="42.71574" lon="1.66851">
        <ele>1072</ele>
        <time>2024-07-09T13:13:02.000Z</time>
      </trkpt>
      <trkpt lat="42.71573" lon="1.66857">
        <ele>1073.5999755859</ele>
        <time>2024-07-09T13:13:09.000Z</time>
      </trkpt>
      <trkpt lat="42.71573" lon="1.6686">
        <ele>1074.4000244141</ele>
        <time>2024-07-09T13:13:14.000Z</time>
      </trkpt>
      <trkpt lat="42.71573" lon="1.66868">
        <ele>1075.8000488281</ele>
        <time>2024-07-09T13:13:21.000Z</time>
      </trkpt>
      <trkpt lat="42.71574" lon="1.66871">
        <ele>1076</ele>
        <time>2024-07-09T13:13:27.000Z</time>
      </trkpt>
      <trkpt lat="42.71576" lon="1.66879">
        <ele>1076.1999511719</ele>
        <time>2024-07-09T13:13:34.000Z</time>
      </trkpt>
      <trkpt lat="42.71579" lon="1.66887">
        <ele>1076.8000488281</ele>
        <time>2024-07-09T13:13:41.000Z</time>
      </trkpt>
      <trkpt lat="42.71578" lon="1.66891">
        <ele>1078.1999511719</ele>
        <time>2024-07-09T13:13:46.000Z</time>
      </trkpt>
      <trkpt lat="42.71577" lon="1.66895">
        <ele>1079</ele>
        <time>2024-07-09T13:13:50.000Z</time>
      </trkpt>
      <trkpt lat="42.71576" lon="1.66898">
        <ele>1079.4000244141</ele>
        <time>2024-07-09T13:13:55.000Z</time>
      </trkpt>
      <trkpt lat="42.71576" lon="1.66904">
        <ele>1079.8000488281</ele>
        <time>2024-07-09T13:14:01.000Z</time>
      </trkpt>
      <trkpt lat="42.71576" lon="1.66912">
        <ele>1080.1999511719</ele>
        <time>2024-07-09T13:14:08.000Z</time>
      </trkpt>
      <trkpt lat="42.71576" lon="1.66916">
        <ele>1080.5999755859</ele>
        <time>2024-07-09T13:14:12.000Z</time>
      </trkpt>
      <trkpt lat="42.71577" lon="1.66921">
        <ele>1080.5999755859</ele>
        <time>2024-07-09T13:14:17.000Z</time>
      </trkpt>
      <trkpt lat="42.71579" lon="1.66926">
        <ele>1080.1999511719</ele>
        <time>2024-07-09T13:14:24.000Z</time>
      </trkpt>
      <trkpt lat="42.71574" lon="1.66928">
        <ele>1082</ele>
        <time>2024-07-09T13:14:29.000Z</time>
      </trkpt>
      <trkpt lat="42.71573" lon="1.66934">
        <ele>1082.8000488281</ele>
        <time>2024-07-09T13:14:34.000Z</time>
      </trkpt>
      <trkpt lat="42.71571" lon="1.66937">
        <ele>1084</ele>
        <time>2024-07-09T13:14:39.000Z</time>
      </trkpt>
      <trkpt lat="42.71568" lon="1.66944">
        <ele>1086.4000244141</ele>
        <time>2024-07-09T13:14:46.000Z</time>
      </trkpt>
      <trkpt lat="42.71567" lon="1.66946">
        <ele>1087</ele>
        <time>2024-07-09T13:14:51.000Z</time>
      </trkpt>
      <trkpt lat="42.7157" lon="1.66951">
        <ele>1086.8000488281</ele>
        <time>2024-07-09T13:14:58.000Z</time>
      </trkpt>
      <trkpt lat="42.71575" lon="1.66956">
        <ele>1085.1999511719</ele>
        <time>2024-07-09T13:15:05.000Z</time>
      </trkpt>
      <trkpt lat="42.71582" lon="1.6696">
        <ele>1082.5999755859</ele>
        <time>2024-07-09T13:15:12.000Z</time>
      </trkpt>
      <trkpt lat="42.71588" lon="1.66968">
        <ele>1081.1999511719</ele>
        <time>2024-07-09T13:15:20.000Z</time>
      </trkpt>
      <trkpt lat="42.71589" lon="1.66972">
        <ele>1081.5999755859</ele>
        <time>2024-07-09T13:15:26.000Z</time>
      </trkpt>
      <trkpt lat="42.71589" lon="1.66976">
        <ele>1082</ele>
        <time>2024-07-09T13:15:32.000Z</time>
      </trkpt>
      <trkpt lat="42.71588" lon="1.66985">
        <ele>1083.5999755859</ele>
        <time>2024-07-09T13:15:41.000Z</time>
      </trkpt>
      <trkpt lat="42.71587" lon="1.66994">
        <ele>1085.5999755859</ele>
        <time>2024-07-09T13:15:52.000Z</time>
      </trkpt>
      <trkpt lat="42.71588" lon="1.67003">
        <ele>1086.1999511719</ele>
        <time>2024-07-09T13:16:01.000Z</time>
      </trkpt>
      <trkpt lat="42.7159" lon="1.67008">
        <ele>1086.4000244141</ele>
        <time>2024-07-09T13:16:07.000Z</time>
      </trkpt>
      <trkpt lat="42.71591" lon="1.67016">
        <ele>1087.5999755859</ele>
        <time>2024-07-09T13:16:14.000Z</time>
      </trkpt>
      <trkpt lat="42.71592" lon="1.67021">
        <ele>1088.1999511719</ele>
        <time>2024-07-09T13:16:21.000Z</time>
      </trkpt>
      <trkpt lat="42.71593" lon="1.67031">
        <ele>1089.5999755859</ele>
        <time>2024-07-09T13:16:30.000Z</time>
      </trkpt>
      <trkpt lat="42.71592" lon="1.67036">
        <ele>1090.5999755859</ele>
        <time>2024-07-09T13:16:37.000Z</time>
      </trkpt>
      <trkpt lat="42.71592" lon="1.67046">
        <ele>1093.4000244141</ele>
        <time>2024-07-09T13:16:46.000Z</time>
      </trkpt>
      <trkpt lat="42.71591" lon="1.67052">
        <ele>1095.1999511719</ele>
        <time>2024-07-09T13:16:53.000Z</time>
      </trkpt>
      <trkpt lat="42.71592" lon="1.67053">
        <ele>1095.4000244141</ele>
        <time>2024-07-09T13:16:58.000Z</time>
      </trkpt>
      <trkpt lat="42.71592" lon="1.67053">
        <ele>1095.4000244141</ele>
        <time>2024-07-09T13:17:04.000Z</time>
      </trkpt>
      <trkpt lat="42.71598" lon="1.67049">
        <ele>1093.1999511719</ele>
        <time>2024-07-09T13:24:56.000Z</time>
      </trkpt>
      <trkpt lat="42.71592" lon="1.67061">
        <ele>1097.8000488281</ele>
        <time>2024-07-09T13:36:01.000Z</time>
      </trkpt>
      <trkpt lat="42.71592" lon="1.67072">
        <ele>1100.8000488281</ele>
        <time>2024-07-09T13:36:08.000Z</time>
      </trkpt>
      <trkpt lat="42.71594" lon="1.67075">
        <ele>1101</ele>
        <time>2024-07-09T13:36:12.000Z</time>
      </trkpt>
      <trkpt lat="42.71595" lon="1.67081">
        <ele>1102.4000244141</ele>
        <time>2024-07-09T13:36:18.000Z</time>
      </trkpt>
      <trkpt lat="42.71598" lon="1.67086">
        <ele>1103.4000244141</ele>
        <time>2024-07-09T13:36:24.000Z</time>
      </trkpt>
      <trkpt lat="42.71598" lon="1.67091">
        <ele>1104.5999755859</ele>
        <time>2024-07-09T13:36:29.000Z</time>
      </trkpt>
      <trkpt lat="42.71598" lon="1.67101">
        <ele>1107.1999511719</ele>
        <time>2024-07-09T13:36:38.000Z</time>
      </trkpt>
      <trkpt lat="42.71598" lon="1.6711">
        <ele>1109.8000488281</ele>
        <time>2024-07-09T13:36:47.000Z</time>
      </trkpt>
      <trkpt lat="42.71599" lon="1.67116">
        <ele>1111.1999511719</ele>
        <time>2024-07-09T13:36:54.000Z</time>
      </trkpt>
      <trkpt lat="42.71601" lon="1.67121">
        <ele>1112</ele>
        <time>2024-07-09T13:37:02.000Z</time>
      </trkpt>
      <trkpt lat="42.71599" lon="1.67127">
        <ele>1114.1999511719</ele>
        <time>2024-07-09T13:37:11.000Z</time>
      </trkpt>
      <trkpt lat="42.71594" lon="1.67131">
        <ele>1116.8000488281</ele>
        <time>2024-07-09T13:37:17.000Z</time>
      </trkpt>
      <trkpt lat="42.71591" lon="1.67133">
        <ele>1118.1999511719</ele>
        <time>2024-07-09T13:37:24.000Z</time>
      </trkpt>
      <trkpt lat="42.71592" lon="1.67134">
        <ele>1118.4000244141</ele>
        <time>2024-07-09T13:37:29.000Z</time>
      </trkpt>
      <trkpt lat="42.71591" lon="1.67137">
        <ele>1119.5999755859</ele>
        <time>2024-07-09T13:37:36.000Z</time>
      </trkpt>
      <trkpt lat="42.71593" lon="1.6714">
        <ele>1119.8000488281</ele>
        <time>2024-07-09T13:37:42.000Z</time>
      </trkpt>
      <trkpt lat="42.71591" lon="1.67147">
        <ele>1122.4000244141</ele>
        <time>2024-07-09T13:37:49.000Z</time>
      </trkpt>
      <trkpt lat="42.7159" lon="1.67152">
        <ele>1124</ele>
        <time>2024-07-09T13:37:54.000Z</time>
      </trkpt>
      <trkpt lat="42.71587" lon="1.67156">
        <ele>1126</ele>
        <time>2024-07-09T13:38:01.000Z</time>
      </trkpt>
      <trkpt lat="42.7159" lon="1.67162">
        <ele>1126.1999511719</ele>
        <time>2024-07-09T13:38:07.000Z</time>
      </trkpt>
      <trkpt lat="42.71592" lon="1.67174">
        <ele>1128.8000488281</ele>
        <time>2024-07-09T13:38:14.000Z</time>
      </trkpt>
      <trkpt lat="42.71587" lon="1.67175">
        <ele>1130.8000488281</ele>
        <time>2024-07-09T13:38:21.000Z</time>
      </trkpt>
      <trkpt lat="42.71589" lon="1.67178">
        <ele>1130.8000488281</ele>
        <time>2024-07-09T13:38:29.000Z</time>
      </trkpt>
      <trkpt lat="42.71588" lon="1.67184">
        <ele>1132.5999755859</ele>
        <time>2024-07-09T13:38:38.000Z</time>
      </trkpt>
      <trkpt lat="42.71588" lon="1.67188">
        <ele>1134</ele>
        <time>2024-07-09T13:38:45.000Z</time>
      </trkpt>
      <trkpt lat="42.71586" lon="1.6719">
        <ele>1135.1999511719</ele>
        <time>2024-07-09T13:38:51.000Z</time>
      </trkpt>
      <trkpt lat="42.71583" lon="1.67194">
        <ele>1137.5999755859</ele>
        <time>2024-07-09T13:38:57.000Z</time>
      </trkpt>
      <trkpt lat="42.71582" lon="1.67198">
        <ele>1139</ele>
        <time>2024-07-09T13:39:03.000Z</time>
      </trkpt>
      <trkpt lat="42.71581" lon="1.67202">
        <ele>1140.1999511719</ele>
        <time>2024-07-09T13:39:09.000Z</time>
      </trkpt>
      <trkpt lat="42.71583" lon="1.67205">
        <ele>1140.1999511719</ele>
        <time>2024-07-09T13:39:17.000Z</time>
      </trkpt>
      <trkpt lat="42.71584" lon="1.67206">
        <ele>1140.1999511719</ele>
        <time>2024-07-09T13:39:23.000Z</time>
      </trkpt>
      <trkpt lat="42.71589" lon="1.67205">
        <ele>1137.8000488281</ele>
        <time>2024-07-09T13:39:29.000Z</time>
      </trkpt>
      <trkpt lat="42.7159" lon="1.67208">
        <ele>1138</ele>
        <time>2024-07-09T13:39:34.000Z</time>
      </trkpt>
      <trkpt lat="42.71589" lon="1.67213">
        <ele>1139.4000244141</ele>
        <time>2024-07-09T13:39:41.000Z</time>
      </trkpt>
      <trkpt lat="42.71589" lon="1.67213">
        <ele>1139.5999755859</ele>
        <time>2024-07-09T13:39:48.000Z</time>
      </trkpt>
      <trkpt lat="42.71588" lon="1.67218">
        <ele>1141.4000244141</ele>
        <time>2024-07-09T13:39:53.000Z</time>
      </trkpt>
      <trkpt lat="42.71586" lon="1.67222">
        <ele>1142.8000488281</ele>
        <time>2024-07-09T13:40:00.000Z</time>
      </trkpt>
      <trkpt lat="42.71586" lon="1.67226">
        <ele>1144.4000244141</ele>
        <time>2024-07-09T13:40:07.000Z</time>
      </trkpt>
      <trkpt lat="42.71593" lon="1.67229">
        <ele>1142.4000244141</ele>
        <time>2024-07-09T13:40:13.000Z</time>
      </trkpt>
      <trkpt lat="42.71594" lon="1.67232">
        <ele>1143.1999511719</ele>
        <time>2024-07-09T13:40:18.000Z</time>
      </trkpt>
      <trkpt lat="42.71594" lon="1.67233">
        <ele>1143.4000244141</ele>
        <time>2024-07-09T13:40:24.000Z</time>
      </trkpt>
      <trkpt lat="42.71593" lon="1.67235">
        <ele>1144</ele>
        <time>2024-07-09T13:40:30.000Z</time>
      </trkpt>
      <trkpt lat="42.71592" lon="1.67236">
        <ele>1144.8000488281</ele>
        <time>2024-07-09T13:40:39.000Z</time>
      </trkpt>
      <trkpt lat="42.71587" lon="1.67239">
        <ele>1147.8000488281</ele>
        <time>2024-07-09T13:40:45.000Z</time>
      </trkpt>
      <trkpt lat="42.71582" lon="1.67239">
        <ele>1149.8000488281</ele>
        <time>2024-07-09T13:40:50.000Z</time>
      </trkpt>
      <trkpt lat="42.71575" lon="1.67239">
        <ele>1153</ele>
        <time>2024-07-09T13:40:57.000Z</time>
      </trkpt>
      <trkpt lat="42.7157" lon="1.67241">
        <ele>1155.5999755859</ele>
        <time>2024-07-09T13:41:03.000Z</time>
      </trkpt>
      <trkpt lat="42.71566" lon="1.67243">
        <ele>1157.5999755859</ele>
        <time>2024-07-09T13:41:09.000Z</time>
      </trkpt>
      <trkpt lat="42.71563" lon="1.67243">
        <ele>1159</ele>
        <time>2024-07-09T13:41:16.000Z</time>
      </trkpt>
      <trkpt lat="42.71562" lon="1.67245">
        <ele>1159.8000488281</ele>
        <time>2024-07-09T13:41:22.000Z</time>
      </trkpt>
      <trkpt lat="42.71557" lon="1.67246">
        <ele>1162.1999511719</ele>
        <time>2024-07-09T13:41:31.000Z</time>
      </trkpt>
      <trkpt lat="42.71553" lon="1.67244">
        <ele>1162.8000488281</ele>
        <time>2024-07-09T13:41:37.000Z</time>
      </trkpt>
      <trkpt lat="42.71553" lon="1.67241">
        <ele>1162.1999511719</ele>
        <time>2024-07-09T13:41:43.000Z</time>
      </trkpt>
      <trkpt lat="42.71549" lon="1.6724">
        <ele>1163.8000488281</ele>
        <time>2024-07-09T13:41:50.000Z</time>
      </trkpt>
      <trkpt lat="42.71547" lon="1.67243">
        <ele>1165.1999511719</ele>
        <time>2024-07-09T13:41:59.000Z</time>
      </trkpt>
      <trkpt lat="42.71549" lon="1.67245">
        <ele>1164.5999755859</ele>
        <time>2024-07-09T13:42:04.000Z</time>
      </trkpt>
      <trkpt lat="42.71552" lon="1.67244">
        <ele>1163.4000244141</ele>
        <time>2024-07-09T13:42:10.000Z</time>
      </trkpt>
      <trkpt lat="42.71554" lon="1.67243">
        <ele>1162.5999755859</ele>
        <time>2024-07-09T13:42:18.000Z</time>
      </trkpt>
      <trkpt lat="42.71561" lon="1.67239">
        <ele>1158.8000488281</ele>
        <time>2024-07-09T13:44:29.000Z</time>
      </trkpt>
      <trkpt lat="42.71562" lon="1.67235">
        <ele>1157.5999755859</ele>
        <time>2024-07-09T13:44:35.000Z</time>
      </trkpt>
      <trkpt lat="42.71561" lon="1.67235">
        <ele>1157.8000488281</ele>
        <time>2024-07-09T13:44:40.000Z</time>
      </trkpt>
      <trkpt lat="42.71563" lon="1.67234">
        <ele>1156.5999755859</ele>
        <time>2024-07-09T13:44:47.000Z</time>
      </trkpt>
      <trkpt lat="42.71566" lon="1.67236">
        <ele>1156.1999511719</ele>
        <time>2024-07-09T13:44:54.000Z</time>
      </trkpt>
      <trkpt lat="42.71564" lon="1.67239">
        <ele>1157.4000244141</ele>
        <time>2024-07-09T13:44:59.000Z</time>
      </trkpt>
      <trkpt lat="42.71562" lon="1.67237">
        <ele>1157.8000488281</ele>
        <time>2024-07-09T13:45:07.000Z</time>
      </trkpt>
      <trkpt lat="42.7156" lon="1.67238">
        <ele>1159</ele>
        <time>2024-07-09T13:45:12.000Z</time>
      </trkpt>
      <trkpt lat="42.71555" lon="1.6725">
        <ele>1163.4000244141</ele>
        <time>2024-07-09T13:46:15.000Z</time>
      </trkpt>
      <trkpt lat="42.71553" lon="1.67258">
        <ele>1166.4000244141</ele>
        <time>2024-07-09T13:46:19.000Z</time>
      </trkpt>
      <trkpt lat="42.71556" lon="1.67266">
        <ele>1168.5999755859</ele>
        <time>2024-07-09T13:46:26.000Z</time>
      </trkpt>
      <trkpt lat="42.71555" lon="1.67266">
        <ele>1168.8000488281</ele>
        <time>2024-07-09T13:46:35.000Z</time>
      </trkpt>
      <trkpt lat="42.71558" lon="1.67272">
        <ele>1170.1999511719</ele>
        <time>2024-07-09T13:46:43.000Z</time>
      </trkpt>
      <trkpt lat="42.71553" lon="1.6728">
        <ele>1174.4000244141</ele>
        <time>2024-07-09T13:46:50.000Z</time>
      </trkpt>
      <trkpt lat="42.71553" lon="1.67282">
        <ele>1175.1999511719</ele>
        <time>2024-07-09T13:46:54.000Z</time>
      </trkpt>
      <trkpt lat="42.71549" lon="1.67292">
        <ele>1179.8000488281</ele>
        <time>2024-07-09T13:47:03.000Z</time>
      </trkpt>
      <trkpt lat="42.71545" lon="1.67297">
        <ele>1182.4000244141</ele>
        <time>2024-07-09T13:47:11.000Z</time>
      </trkpt>
      <trkpt lat="42.71542" lon="1.67299">
        <ele>1183.8000488281</ele>
        <time>2024-07-09T13:47:18.000Z</time>
      </trkpt>
      <trkpt lat="42.71539" lon="1.67301">
        <ele>1185</ele>
        <time>2024-07-09T13:47:25.000Z</time>
      </trkpt>
      <trkpt lat="42.71536" lon="1.67299">
        <ele>1185</ele>
        <time>2024-07-09T13:47:32.000Z</time>
      </trkpt>
      <trkpt lat="42.71532" lon="1.673">
        <ele>1186</ele>
        <time>2024-07-09T13:47:38.000Z</time>
      </trkpt>
      <trkpt lat="42.71526" lon="1.67301">
        <ele>1188.4000244141</ele>
        <time>2024-07-09T13:47:46.000Z</time>
      </trkpt>
      <trkpt lat="42.7152" lon="1.67296">
        <ele>1188.1999511719</ele>
        <time>2024-07-09T13:47:54.000Z</time>
      </trkpt>
      <trkpt lat="42.7152" lon="1.67296">
        <ele>1188.1999511719</ele>
        <time>2024-07-09T13:48:00.000Z</time>
      </trkpt>
      <trkpt lat="42.71519" lon="1.67295">
        <ele>1188.1999511719</ele>
        <time>2024-07-09T13:48:05.000Z</time>
      </trkpt>
      <trkpt lat="42.71523" lon="1.67304">
        <ele>1190</ele>
        <time>2024-07-09T13:48:13.000Z</time>
      </trkpt>
      <trkpt lat="42.71525" lon="1.67307">
        <ele>1190.1999511719</ele>
        <time>2024-07-09T13:48:19.000Z</time>
      </trkpt>
      <trkpt lat="42.71525" lon="1.67309">
        <ele>1191</ele>
        <time>2024-07-09T13:48:24.000Z</time>
      </trkpt>
      <trkpt lat="42.71524" lon="1.67317">
        <ele>1194</ele>
        <time>2024-07-09T13:48:32.000Z</time>
      </trkpt>
      <trkpt lat="42.71519" lon="1.67322">
        <ele>1197.5999755859</ele>
        <time>2024-07-09T13:48:37.000Z</time>
      </trkpt>
      <trkpt lat="42.71515" lon="1.67323">
        <ele>1198.4000244141</ele>
        <time>2024-07-09T13:48:43.000Z</time>
      </trkpt>
      <trkpt lat="42.71509" lon="1.67322">
        <ele>1198.8000488281</ele>
        <time>2024-07-09T13:48:48.000Z</time>
      </trkpt>
      <trkpt lat="42.71502" lon="1.67322">
        <ele>1199.8000488281</ele>
        <time>2024-07-09T13:48:56.000Z</time>
      </trkpt>
      <trkpt lat="42.71498" lon="1.67322">
        <ele>1200.8000488281</ele>
        <time>2024-07-09T13:49:07.000Z</time>
      </trkpt>
      <trkpt lat="42.71494" lon="1.67324">
        <ele>1202.1999511719</ele>
        <time>2024-07-09T13:49:16.000Z</time>
      </trkpt>
      <trkpt lat="42.71493" lon="1.67325">
        <ele>1202.5999755859</ele>
        <time>2024-07-09T13:49:24.000Z</time>
      </trkpt>
      <trkpt lat="42.71494" lon="1.67327">
        <ele>1202.8000488281</ele>
        <time>2024-07-09T13:49:30.000Z</time>
      </trkpt>
      <trkpt lat="42.71495" lon="1.67332">
        <ele>1203.5999755859</ele>
        <time>2024-07-09T13:49:37.000Z</time>
      </trkpt>
      <trkpt lat="42.71494" lon="1.67337">
        <ele>1204.4000244141</ele>
        <time>2024-07-09T13:49:44.000Z</time>
      </trkpt>
      <trkpt lat="42.7149" lon="1.67342">
        <ele>1205.5999755859</ele>
        <time>2024-07-09T13:49:51.000Z</time>
      </trkpt>
      <trkpt lat="42.71482" lon="1.67346">
        <ele>1207</ele>
        <time>2024-07-09T13:50:00.000Z</time>
      </trkpt>
      <trkpt lat="42.7148" lon="1.67351">
        <ele>1208.5999755859</ele>
        <time>2024-07-09T13:50:06.000Z</time>
      </trkpt>
      <trkpt lat="42.71477" lon="1.67353">
        <ele>1209.5999755859</ele>
        <time>2024-07-09T13:50:13.000Z</time>
      </trkpt>
      <trkpt lat="42.71467" lon="1.67356">
        <ele>1211.5999755859</ele>
        <time>2024-07-09T13:50:22.000Z</time>
      </trkpt>
      <trkpt lat="42.71465" lon="1.67357">
        <ele>1212</ele>
        <time>2024-07-09T13:50:30.000Z</time>
      </trkpt>
      <trkpt lat="42.71465" lon="1.67357">
        <ele>1212</ele>
        <time>2024-07-09T13:50:42.000Z</time>
      </trkpt>
      <trkpt lat="42.7146" lon="1.67361">
        <ele>1213.1999511719</ele>
        <time>2024-07-09T13:51:02.000Z</time>
      </trkpt>
      <trkpt lat="42.71455" lon="1.67365">
        <ele>1214.4000244141</ele>
        <time>2024-07-09T13:51:08.000Z</time>
      </trkpt>
      <trkpt lat="42.71449" lon="1.67369">
        <ele>1216</ele>
        <time>2024-07-09T13:51:14.000Z</time>
      </trkpt>
      <trkpt lat="42.71446" lon="1.67372">
        <ele>1217.4000244141</ele>
        <time>2024-07-09T13:51:18.000Z</time>
      </trkpt>
      <trkpt lat="42.71444" lon="1.67373">
        <ele>1218</ele>
        <time>2024-07-09T13:51:20.000Z</time>
      </trkpt>
      <trkpt lat="42.71439" lon="1.67378">
        <ele>1220</ele>
        <time>2024-07-09T13:51:29.000Z</time>
      </trkpt>
      <trkpt lat="42.71432" lon="1.67386">
        <ele>1223</ele>
        <time>2024-07-09T13:51:36.000Z</time>
      </trkpt>
      <trkpt lat="42.71421" lon="1.67395">
        <ele>1226.1999511719</ele>
        <time>2024-07-09T13:51:48.000Z</time>
      </trkpt>
      <trkpt lat="42.7142" lon="1.67395">
        <ele>1226.1999511719</ele>
        <time>2024-07-09T13:51:54.000Z</time>
      </trkpt>
      <trkpt lat="42.71414" lon="1.67395">
        <ele>1225.8000488281</ele>
        <time>2024-07-09T13:51:59.000Z</time>
      </trkpt>
      <trkpt lat="42.7141" lon="1.67395">
        <ele>1225.5999755859</ele>
        <time>2024-07-09T13:52:06.000Z</time>
      </trkpt>
      <trkpt lat="42.71406" lon="1.674">
        <ele>1226.5999755859</ele>
        <time>2024-07-09T13:52:14.000Z</time>
      </trkpt>
      <trkpt lat="42.714" lon="1.67407">
        <ele>1228.4000244141</ele>
        <time>2024-07-09T13:52:20.000Z</time>
      </trkpt>
      <trkpt lat="42.71396" lon="1.67413">
        <ele>1230.1999511719</ele>
        <time>2024-07-09T13:52:27.000Z</time>
      </trkpt>
      <trkpt lat="42.71387" lon="1.67418">
        <ele>1231.4000244141</ele>
        <time>2024-07-09T13:52:34.000Z</time>
      </trkpt>
      <trkpt lat="42.71381" lon="1.67423">
        <ele>1232.4000244141</ele>
        <time>2024-07-09T13:52:41.000Z</time>
      </trkpt>
      <trkpt lat="42.71374" lon="1.67427">
        <ele>1233.1999511719</ele>
        <time>2024-07-09T13:52:48.000Z</time>
      </trkpt>
      <trkpt lat="42.7137" lon="1.6743">
        <ele>1234</ele>
        <time>2024-07-09T13:52:55.000Z</time>
      </trkpt>
      <trkpt lat="42.71367" lon="1.67434">
        <ele>1235</ele>
        <time>2024-07-09T13:53:01.000Z</time>
      </trkpt>
      <trkpt lat="42.7136" lon="1.67437">
        <ele>1235.4000244141</ele>
        <time>2024-07-09T13:53:09.000Z</time>
      </trkpt>
      <trkpt lat="42.71352" lon="1.67444">
        <ele>1238</ele>
        <time>2024-07-09T13:53:16.000Z</time>
      </trkpt>
      <trkpt lat="42.71346" lon="1.67445">
        <ele>1238.4000244141</ele>
        <time>2024-07-09T13:53:23.000Z</time>
      </trkpt>
      <trkpt lat="42.71342" lon="1.67448">
        <ele>1239.4000244141</ele>
        <time>2024-07-09T13:53:25.000Z</time>
      </trkpt>
      <trkpt lat="42.71338" lon="1.6745">
        <ele>1240.4000244141</ele>
        <time>2024-07-09T13:53:32.000Z</time>
      </trkpt>
      <trkpt lat="42.71333" lon="1.67451">
        <ele>1240.5999755859</ele>
        <time>2024-07-09T13:53:39.000Z</time>
      </trkpt>
      <trkpt lat="42.71327" lon="1.67453">
        <ele>1241.5999755859</ele>
        <time>2024-07-09T13:53:46.000Z</time>
      </trkpt>
      <trkpt lat="42.71323" lon="1.67455">
        <ele>1242.1999511719</ele>
        <time>2024-07-09T13:53:50.000Z</time>
      </trkpt>
      <trkpt lat="42.71321" lon="1.67456">
        <ele>1243</ele>
        <time>2024-07-09T13:53:53.000Z</time>
      </trkpt>
      <trkpt lat="42.71313" lon="1.67457">
        <ele>1242.5999755859</ele>
        <time>2024-07-09T13:54:00.000Z</time>
      </trkpt>
      <trkpt lat="42.71308" lon="1.67461">
        <ele>1244</ele>
        <time>2024-07-09T13:54:07.000Z</time>
      </trkpt>
      <trkpt lat="42.713" lon="1.67465">
        <ele>1245.5999755859</ele>
        <time>2024-07-09T13:54:16.000Z</time>
      </trkpt>
      <trkpt lat="42.71297" lon="1.67468">
        <ele>1246.5999755859</ele>
        <time>2024-07-09T13:54:23.000Z</time>
      </trkpt>
      <trkpt lat="42.71294" lon="1.6747">
        <ele>1247.4000244141</ele>
        <time>2024-07-09T13:54:30.000Z</time>
      </trkpt>
      <trkpt lat="42.71291" lon="1.67469">
        <ele>1247</ele>
        <time>2024-07-09T13:54:38.000Z</time>
      </trkpt>
      <trkpt lat="42.71288" lon="1.67471">
        <ele>1247.8000488281</ele>
        <time>2024-07-09T13:54:45.000Z</time>
      </trkpt>
      <trkpt lat="42.71289" lon="1.67475">
        <ele>1249</ele>
        <time>2024-07-09T13:54:55.000Z</time>
      </trkpt>
      <trkpt lat="42.71286" lon="1.67479">
        <ele>1250.8000488281</ele>
        <time>2024-07-09T13:55:01.000Z</time>
      </trkpt>
      <trkpt lat="42.71283" lon="1.67481">
        <ele>1251.4000244141</ele>
        <time>2024-07-09T13:55:08.000Z</time>
      </trkpt>
      <trkpt lat="42.71284" lon="1.6748">
        <ele>1251</ele>
        <time>2024-07-09T13:55:16.000Z</time>
      </trkpt>
      <trkpt lat="42.71284" lon="1.6748">
        <ele>1251</ele>
        <time>2024-07-09T13:55:44.000Z</time>
      </trkpt>
      <trkpt lat="42.71283" lon="1.67467">
        <ele>1247</ele>
        <time>2024-07-09T13:56:35.000Z</time>
      </trkpt>
      <trkpt lat="42.71287" lon="1.67461">
        <ele>1244.5999755859</ele>
        <time>2024-07-09T13:56:43.000Z</time>
      </trkpt>
      <trkpt lat="42.71285" lon="1.67465">
        <ele>1246</ele>
        <time>2024-07-09T13:56:50.000Z</time>
      </trkpt>
      <trkpt lat="42.71282" lon="1.67468">
        <ele>1247.1999511719</ele>
        <time>2024-07-09T13:56:55.000Z</time>
      </trkpt>
      <trkpt lat="42.71282" lon="1.6747">
        <ele>1248</ele>
        <time>2024-07-09T13:57:02.000Z</time>
      </trkpt>
      <trkpt lat="42.71279" lon="1.67475">
        <ele>1250</ele>
        <time>2024-07-09T13:57:08.000Z</time>
      </trkpt>
      <trkpt lat="42.71277" lon="1.67481">
        <ele>1252</ele>
        <time>2024-07-09T13:57:16.000Z</time>
      </trkpt>
      <trkpt lat="42.71274" lon="1.67484">
        <ele>1253.1999511719</ele>
        <time>2024-07-09T13:57:20.000Z</time>
      </trkpt>
      <trkpt lat="42.7127" lon="1.6749">
        <ele>1255.5999755859</ele>
        <time>2024-07-09T13:57:29.000Z</time>
      </trkpt>
      <trkpt lat="42.71268" lon="1.67492">
        <ele>1256.5999755859</ele>
        <time>2024-07-09T13:57:35.000Z</time>
      </trkpt>
      <trkpt lat="42.71264" lon="1.67492">
        <ele>1256.5999755859</ele>
        <time>2024-07-09T13:57:41.000Z</time>
      </trkpt>
      <trkpt lat="42.71264" lon="1.67494">
        <ele>1257</ele>
        <time>2024-07-09T13:57:46.000Z</time>
      </trkpt>
      <trkpt lat="42.71262" lon="1.67495">
        <ele>1257.5999755859</ele>
        <time>2024-07-09T13:57:51.000Z</time>
      </trkpt>
      <trkpt lat="42.71257" lon="1.67497">
        <ele>1258.4000244141</ele>
        <time>2024-07-09T13:57:59.000Z</time>
      </trkpt>
      <trkpt lat="42.71256" lon="1.67497">
        <ele>1258.5999755859</ele>
        <time>2024-07-09T13:58:03.000Z</time>
      </trkpt>
      <trkpt lat="42.71255" lon="1.67501">
        <ele>1259.8000488281</ele>
        <time>2024-07-09T13:58:07.000Z</time>
      </trkpt>
      <trkpt lat="42.71253" lon="1.67502">
        <ele>1260.4000244141</ele>
        <time>2024-07-09T13:58:13.000Z</time>
      </trkpt>
      <trkpt lat="42.71245" lon="1.67506">
        <ele>1262.5999755859</ele>
        <time>2024-07-09T13:58:19.000Z</time>
      </trkpt>
      <trkpt lat="42.71243" lon="1.67508">
        <ele>1263.8000488281</ele>
        <time>2024-07-09T13:58:25.000Z</time>
      </trkpt>
      <trkpt lat="42.71239" lon="1.67511">
        <ele>1265.8000488281</ele>
        <time>2024-07-09T13:58:30.000Z</time>
      </trkpt>
      <trkpt lat="42.71233" lon="1.6751">
        <ele>1265.8000488281</ele>
        <time>2024-07-09T13:58:37.000Z</time>
      </trkpt>
      <trkpt lat="42.71228" lon="1.67506">
        <ele>1264.4000244141</ele>
        <time>2024-07-09T13:58:44.000Z</time>
      </trkpt>
      <trkpt lat="42.71224" lon="1.67504">
        <ele>1264.8000488281</ele>
        <time>2024-07-09T13:58:51.000Z</time>
      </trkpt>
      <trkpt lat="42.71217" lon="1.67499">
        <ele>1266.1999511719</ele>
        <time>2024-07-09T13:58:59.000Z</time>
      </trkpt>
      <trkpt lat="42.71212" lon="1.6749">
        <ele>1267</ele>
        <time>2024-07-09T13:59:06.000Z</time>
      </trkpt>
      <trkpt lat="42.71212" lon="1.67489">
        <ele>1267</ele>
        <time>2024-07-09T13:59:07.000Z</time>
      </trkpt>
      <trkpt lat="42.71209" lon="1.67486">
        <ele>1267.4000244141</ele>
        <time>2024-07-09T13:59:12.000Z</time>
      </trkpt>
      <trkpt lat="42.71205" lon="1.67483">
        <ele>1268.1999511719</ele>
        <time>2024-07-09T13:59:19.000Z</time>
      </trkpt>
      <trkpt lat="42.71203" lon="1.67478">
        <ele>1268.1999511719</ele>
        <time>2024-07-09T13:59:25.000Z</time>
      </trkpt>
      <trkpt lat="42.712" lon="1.67474">
        <ele>1269.4000244141</ele>
        <time>2024-07-09T13:59:31.000Z</time>
      </trkpt>
      <trkpt lat="42.71199" lon="1.67461">
        <ele>1270</ele>
        <time>2024-07-09T13:59:38.000Z</time>
      </trkpt>
      <trkpt lat="42.712" lon="1.67454">
        <ele>1269.8000488281</ele>
        <time>2024-07-09T13:59:45.000Z</time>
      </trkpt>
      <trkpt lat="42.71197" lon="1.67457">
        <ele>1270.8000488281</ele>
        <time>2024-07-09T13:59:52.000Z</time>
      </trkpt>
      <trkpt lat="42.71194" lon="1.67457">
        <ele>1272.1999511719</ele>
        <time>2024-07-09T13:59:59.000Z</time>
      </trkpt>
      <trkpt lat="42.71189" lon="1.67454">
        <ele>1274.4000244141</ele>
        <time>2024-07-09T14:00:06.000Z</time>
      </trkpt>
      <trkpt lat="42.71186" lon="1.67448">
        <ele>1276</ele>
        <time>2024-07-09T14:00:13.000Z</time>
      </trkpt>
      <trkpt lat="42.71185" lon="1.67447">
        <ele>1276.1999511719</ele>
        <time>2024-07-09T14:00:18.000Z</time>
      </trkpt>
      <trkpt lat="42.71183" lon="1.67447">
        <ele>1277.1999511719</ele>
        <time>2024-07-09T14:00:25.000Z</time>
      </trkpt>
      <trkpt lat="42.71181" lon="1.67444">
        <ele>1278.4000244141</ele>
        <time>2024-07-09T14:00:31.000Z</time>
      </trkpt>
      <trkpt lat="42.71176" lon="1.67436">
        <ele>1281</ele>
        <time>2024-07-09T14:00:38.000Z</time>
      </trkpt>
      <trkpt lat="42.71175" lon="1.67431">
        <ele>1281.8000488281</ele>
        <time>2024-07-09T14:00:44.000Z</time>
      </trkpt>
      <trkpt lat="42.71171" lon="1.67426">
        <ele>1284</ele>
        <time>2024-07-09T14:00:52.000Z</time>
      </trkpt>
      <trkpt lat="42.71167" lon="1.6742">
        <ele>1285.8000488281</ele>
        <time>2024-07-09T14:00:59.000Z</time>
      </trkpt>
      <trkpt lat="42.71167" lon="1.67423">
        <ele>1285.4000244141</ele>
        <time>2024-07-09T14:01:08.000Z</time>
      </trkpt>
      <trkpt lat="42.71168" lon="1.67427">
        <ele>1284.5999755859</ele>
        <time>2024-07-09T14:01:17.000Z</time>
      </trkpt>
      <trkpt lat="42.71168" lon="1.67434">
        <ele>1284</ele>
        <time>2024-07-09T14:01:25.000Z</time>
      </trkpt>
      <trkpt lat="42.71168" lon="1.67434">
        <ele>1284</ele>
        <time>2024-07-09T14:01:31.000Z</time>
      </trkpt>
      <trkpt lat="42.71168" lon="1.67433">
        <ele>1284.1999511719</ele>
        <time>2024-07-09T14:01:41.000Z</time>
      </trkpt>
      <trkpt lat="42.7117" lon="1.67439">
        <ele>1283</ele>
        <time>2024-07-09T14:02:29.000Z</time>
      </trkpt>
      <trkpt lat="42.7117" lon="1.67448">
        <ele>1281.8000488281</ele>
        <time>2024-07-09T14:02:34.000Z</time>
      </trkpt>
      <trkpt lat="42.71167" lon="1.67453">
        <ele>1283</ele>
        <time>2024-07-09T14:02:41.000Z</time>
      </trkpt>
      <trkpt lat="42.71164" lon="1.67455">
        <ele>1284</ele>
        <time>2024-07-09T14:02:46.000Z</time>
      </trkpt>
      <trkpt lat="42.71159" lon="1.67459">
        <ele>1285.8000488281</ele>
        <time>2024-07-09T14:02:51.000Z</time>
      </trkpt>
      <trkpt lat="42.71153" lon="1.67457">
        <ele>1288</ele>
        <time>2024-07-09T14:02:56.000Z</time>
      </trkpt>
      <trkpt lat="42.71148" lon="1.67456">
        <ele>1289.8000488281</ele>
        <time>2024-07-09T14:03:02.000Z</time>
      </trkpt>
      <trkpt lat="42.71147" lon="1.6746">
        <ele>1290.5999755859</ele>
        <time>2024-07-09T14:03:08.000Z</time>
      </trkpt>
      <trkpt lat="42.71144" lon="1.67458">
        <ele>1291.5999755859</ele>
        <time>2024-07-09T14:03:13.000Z</time>
      </trkpt>
      <trkpt lat="42.71144" lon="1.67461">
        <ele>1291.8000488281</ele>
        <time>2024-07-09T14:03:19.000Z</time>
      </trkpt>
      <trkpt lat="42.7114" lon="1.67464">
        <ele>1293</ele>
        <time>2024-07-09T14:03:26.000Z</time>
      </trkpt>
      <trkpt lat="42.7114" lon="1.67466">
        <ele>1293.1999511719</ele>
        <time>2024-07-09T14:03:30.000Z</time>
      </trkpt>
      <trkpt lat="42.71136" lon="1.67472">
        <ele>1294.1999511719</ele>
        <time>2024-07-09T14:03:37.000Z</time>
      </trkpt>
      <trkpt lat="42.7113" lon="1.67475">
        <ele>1295.4000244141</ele>
        <time>2024-07-09T14:03:43.000Z</time>
      </trkpt>
      <trkpt lat="42.7113" lon="1.67479">
        <ele>1295.1999511719</ele>
        <time>2024-07-09T14:03:49.000Z</time>
      </trkpt>
      <trkpt lat="42.71136" lon="1.67487">
        <ele>1294</ele>
        <time>2024-07-09T14:03:57.000Z</time>
      </trkpt>
      <trkpt lat="42.71134" lon="1.67491">
        <ele>1294.1999511719</ele>
        <time>2024-07-09T14:04:03.000Z</time>
      </trkpt>
      <trkpt lat="42.71134" lon="1.67491">
        <ele>1294.4000244141</ele>
        <time>2024-07-09T14:04:10.000Z</time>
      </trkpt>
      <trkpt lat="42.71131" lon="1.67493">
        <ele>1295</ele>
        <time>2024-07-09T14:04:29.000Z</time>
      </trkpt>
      <trkpt lat="42.71125" lon="1.67496">
        <ele>1296.5999755859</ele>
        <time>2024-07-09T14:04:34.000Z</time>
      </trkpt>
      <trkpt lat="42.71119" lon="1.67499">
        <ele>1298.4000244141</ele>
        <time>2024-07-09T14:04:40.000Z</time>
      </trkpt>
      <trkpt lat="42.71119" lon="1.675">
        <ele>1298.4000244141</ele>
        <time>2024-07-09T14:04:48.000Z</time>
      </trkpt>
      <trkpt lat="42.71113" lon="1.6751">
        <ele>1301.4000244141</ele>
        <time>2024-07-09T14:05:12.000Z</time>
      </trkpt>
      <trkpt lat="42.71108" lon="1.67517">
        <ele>1304.1999511719</ele>
        <time>2024-07-09T14:05:20.000Z</time>
      </trkpt>
      <trkpt lat="42.71106" lon="1.67523">
        <ele>1305.4000244141</ele>
        <time>2024-07-09T14:05:29.000Z</time>
      </trkpt>
      <trkpt lat="42.71104" lon="1.67527">
        <ele>1306.5999755859</ele>
        <time>2024-07-09T14:05:35.000Z</time>
      </trkpt>
      <trkpt lat="42.71103" lon="1.67531">
        <ele>1307</ele>
        <time>2024-07-09T14:05:41.000Z</time>
      </trkpt>
      <trkpt lat="42.71102" lon="1.67536">
        <ele>1307.8000488281</ele>
        <time>2024-07-09T14:05:49.000Z</time>
      </trkpt>
      <trkpt lat="42.71099" lon="1.67543">
        <ele>1310.1999511719</ele>
        <time>2024-07-09T14:05:57.000Z</time>
      </trkpt>
      <trkpt lat="42.71094" lon="1.67546">
        <ele>1311.1999511719</ele>
        <time>2024-07-09T14:06:04.000Z</time>
      </trkpt>
      <trkpt lat="42.7109" lon="1.67553">
        <ele>1312</ele>
        <time>2024-07-09T14:06:12.000Z</time>
      </trkpt>
      <trkpt lat="42.71088" lon="1.6756">
        <ele>1312.5999755859</ele>
        <time>2024-07-09T14:06:18.000Z</time>
      </trkpt>
      <trkpt lat="42.71089" lon="1.67566">
        <ele>1313</ele>
        <time>2024-07-09T14:06:26.000Z</time>
      </trkpt>
      <trkpt lat="42.71088" lon="1.67573">
        <ele>1314.1999511719</ele>
        <time>2024-07-09T14:06:31.000Z</time>
      </trkpt>
      <trkpt lat="42.71088" lon="1.67574">
        <ele>1314.4000244141</ele>
        <time>2024-07-09T14:06:32.000Z</time>
      </trkpt>
      <trkpt lat="42.71083" lon="1.67582">
        <ele>1317</ele>
        <time>2024-07-09T14:06:40.000Z</time>
      </trkpt>
      <trkpt lat="42.7108" lon="1.67588">
        <ele>1317.8000488281</ele>
        <time>2024-07-09T14:06:46.000Z</time>
      </trkpt>
      <trkpt lat="42.71076" lon="1.67593">
        <ele>1319.5999755859</ele>
        <time>2024-07-09T14:06:52.000Z</time>
      </trkpt>
      <trkpt lat="42.71074" lon="1.67594">
        <ele>1320.1999511719</ele>
        <time>2024-07-09T14:06:58.000Z</time>
      </trkpt>
      <trkpt lat="42.71071" lon="1.67596">
        <ele>1321.4000244141</ele>
        <time>2024-07-09T14:07:04.000Z</time>
      </trkpt>
      <trkpt lat="42.71066" lon="1.67601">
        <ele>1322.4000244141</ele>
        <time>2024-07-09T14:07:11.000Z</time>
      </trkpt>
      <trkpt lat="42.71062" lon="1.67605">
        <ele>1323.4000244141</ele>
        <time>2024-07-09T14:07:17.000Z</time>
      </trkpt>
      <trkpt lat="42.71057" lon="1.67612">
        <ele>1326.1999511719</ele>
        <time>2024-07-09T14:07:25.000Z</time>
      </trkpt>
      <trkpt lat="42.71053" lon="1.67617">
        <ele>1327.4000244141</ele>
        <time>2024-07-09T14:07:34.000Z</time>
      </trkpt>
      <trkpt lat="42.71052" lon="1.67623">
        <ele>1328.8000488281</ele>
        <time>2024-07-09T14:07:42.000Z</time>
      </trkpt>
      <trkpt lat="42.71053" lon="1.67622">
        <ele>1328.4000244141</ele>
        <time>2024-07-09T14:07:49.000Z</time>
      </trkpt>
      <trkpt lat="42.71053" lon="1.67622">
        <ele>1328.4000244141</ele>
        <time>2024-07-09T14:08:11.000Z</time>
      </trkpt>
      <trkpt lat="42.71052" lon="1.67626">
        <ele>1329.4000244141</ele>
        <time>2024-07-09T14:09:31.000Z</time>
      </trkpt>
      <trkpt lat="42.71045" lon="1.67633">
        <ele>1331.8000488281</ele>
        <time>2024-07-09T14:09:42.000Z</time>
      </trkpt>
      <trkpt lat="42.7104" lon="1.67635">
        <ele>1332.1999511719</ele>
        <time>2024-07-09T14:09:48.000Z</time>
      </trkpt>
      <trkpt lat="42.71037" lon="1.67641">
        <ele>1332.5999755859</ele>
        <time>2024-07-09T14:09:54.000Z</time>
      </trkpt>
      <trkpt lat="42.71037" lon="1.67643">
        <ele>1332.8000488281</ele>
        <time>2024-07-09T14:10:01.000Z</time>
      </trkpt>
      <trkpt lat="42.71038" lon="1.67643">
        <ele>1332.5999755859</ele>
        <time>2024-07-09T14:10:11.000Z</time>
      </trkpt>
      <trkpt lat="42.71026" lon="1.67668">
        <ele>1337</ele>
        <time>2024-07-09T14:11:19.000Z</time>
      </trkpt>
      <trkpt lat="42.71023" lon="1.67672">
        <ele>1338</ele>
        <time>2024-07-09T14:11:21.000Z</time>
      </trkpt>
      <trkpt lat="42.7102" lon="1.67679">
        <ele>1340.4000244141</ele>
        <time>2024-07-09T14:11:26.000Z</time>
      </trkpt>
      <trkpt lat="42.71015" lon="1.67679">
        <ele>1341.1999511719</ele>
        <time>2024-07-09T14:11:32.000Z</time>
      </trkpt>
      <trkpt lat="42.71014" lon="1.67684">
        <ele>1342.1999511719</ele>
        <time>2024-07-09T14:11:38.000Z</time>
      </trkpt>
      <trkpt lat="42.7101" lon="1.67685">
        <ele>1342.5999755859</ele>
        <time>2024-07-09T14:11:46.000Z</time>
      </trkpt>
      <trkpt lat="42.71005" lon="1.6769">
        <ele>1343.5999755859</ele>
        <time>2024-07-09T14:11:56.000Z</time>
      </trkpt>
      <trkpt lat="42.71" lon="1.6769">
        <ele>1345.1999511719</ele>
        <time>2024-07-09T14:12:02.000Z</time>
      </trkpt>
      <trkpt lat="42.70994" lon="1.67692">
        <ele>1346.8000488281</ele>
        <time>2024-07-09T14:12:10.000Z</time>
      </trkpt>
      <trkpt lat="42.70985" lon="1.67696">
        <ele>1349.1999511719</ele>
        <time>2024-07-09T14:12:19.000Z</time>
      </trkpt>
      <trkpt lat="42.70982" lon="1.67701">
        <ele>1350.8000488281</ele>
        <time>2024-07-09T14:12:25.000Z</time>
      </trkpt>
      <trkpt lat="42.70978" lon="1.67703">
        <ele>1351.8000488281</ele>
        <time>2024-07-09T14:12:32.000Z</time>
      </trkpt>
      <trkpt lat="42.70975" lon="1.67704">
        <ele>1352.8000488281</ele>
        <time>2024-07-09T14:12:39.000Z</time>
      </trkpt>
      <trkpt lat="42.7097" lon="1.67706">
        <ele>1354.4000244141</ele>
        <time>2024-07-09T14:12:47.000Z</time>
      </trkpt>
      <trkpt lat="42.70966" lon="1.67708">
        <ele>1356.1999511719</ele>
        <time>2024-07-09T14:12:54.000Z</time>
      </trkpt>
      <trkpt lat="42.70962" lon="1.67713">
        <ele>1357.8000488281</ele>
        <time>2024-07-09T14:13:00.000Z</time>
      </trkpt>
      <trkpt lat="42.70957" lon="1.67718">
        <ele>1358.5999755859</ele>
        <time>2024-07-09T14:13:08.000Z</time>
      </trkpt>
      <trkpt lat="42.70952" lon="1.67721">
        <ele>1359.4000244141</ele>
        <time>2024-07-09T14:13:15.000Z</time>
      </trkpt>
      <trkpt lat="42.7095" lon="1.67723">
        <ele>1360</ele>
        <time>2024-07-09T14:13:22.000Z</time>
      </trkpt>
      <trkpt lat="42.70945" lon="1.67723">
        <ele>1362</ele>
        <time>2024-07-09T14:13:28.000Z</time>
      </trkpt>
      <trkpt lat="42.70942" lon="1.67727">
        <ele>1362.5999755859</ele>
        <time>2024-07-09T14:13:35.000Z</time>
      </trkpt>
      <trkpt lat="42.70941" lon="1.67729">
        <ele>1363.1999511719</ele>
        <time>2024-07-09T14:13:40.000Z</time>
      </trkpt>
      <trkpt lat="42.70934" lon="1.67729">
        <ele>1365.5999755859</ele>
        <time>2024-07-09T14:13:45.000Z</time>
      </trkpt>
      <trkpt lat="42.70928" lon="1.67731">
        <ele>1367.8000488281</ele>
        <time>2024-07-09T14:13:48.000Z</time>
      </trkpt>
      <trkpt lat="42.70925" lon="1.67736">
        <ele>1368.5999755859</ele>
        <time>2024-07-09T14:13:51.000Z</time>
      </trkpt>
      <trkpt lat="42.70917" lon="1.6774">
        <ele>1370.1999511719</ele>
        <time>2024-07-09T14:13:58.000Z</time>
      </trkpt>
      <trkpt lat="42.70909" lon="1.67739">
        <ele>1372</ele>
        <time>2024-07-09T14:14:05.000Z</time>
      </trkpt>
      <trkpt lat="42.70908" lon="1.67738">
        <ele>1372.1999511719</ele>
        <time>2024-07-09T14:14:06.000Z</time>
      </trkpt>
      <trkpt lat="42.70904" lon="1.67739">
        <ele>1372.8000488281</ele>
        <time>2024-07-09T14:14:11.000Z</time>
      </trkpt>
      <trkpt lat="42.70893" lon="1.6774">
        <ele>1374</ele>
        <time>2024-07-09T14:14:19.000Z</time>
      </trkpt>
      <trkpt lat="42.7089" lon="1.67744">
        <ele>1374.1999511719</ele>
        <time>2024-07-09T14:14:27.000Z</time>
      </trkpt>
      <trkpt lat="42.70887" lon="1.67748">
        <ele>1374.4000244141</ele>
        <time>2024-07-09T14:14:30.000Z</time>
      </trkpt>
      <trkpt lat="42.70881" lon="1.67751">
        <ele>1375.4000244141</ele>
        <time>2024-07-09T14:14:33.000Z</time>
      </trkpt>
      <trkpt lat="42.70874" lon="1.6775">
        <ele>1377</ele>
        <time>2024-07-09T14:14:38.000Z</time>
      </trkpt>
      <trkpt lat="42.70873" lon="1.67751">
        <ele>1377.1999511719</ele>
        <time>2024-07-09T14:14:40.000Z</time>
      </trkpt>
      <trkpt lat="42.70866" lon="1.67751">
        <ele>1378.5999755859</ele>
        <time>2024-07-09T14:14:47.000Z</time>
      </trkpt>
      <trkpt lat="42.70861" lon="1.67752">
        <ele>1379.1999511719</ele>
        <time>2024-07-09T14:14:55.000Z</time>
      </trkpt>
      <trkpt lat="42.70858" lon="1.67755">
        <ele>1379.5999755859</ele>
        <time>2024-07-09T14:15:03.000Z</time>
      </trkpt>
      <trkpt lat="42.70858" lon="1.67756">
        <ele>1379.8000488281</ele>
        <time>2024-07-09T14:15:09.000Z</time>
      </trkpt>
      <trkpt lat="42.70858" lon="1.67758">
        <ele>1379.8000488281</ele>
        <time>2024-07-09T14:15:15.000Z</time>
      </trkpt>
      <trkpt lat="42.7086" lon="1.67758">
        <ele>1379.4000244141</ele>
        <time>2024-07-09T14:15:33.000Z</time>
      </trkpt>
      <trkpt lat="42.70861" lon="1.67763">
        <ele>1379.5999755859</ele>
        <time>2024-07-09T14:15:47.000Z</time>
      </trkpt>
      <trkpt lat="42.70862" lon="1.67769">
        <ele>1379.8000488281</ele>
        <time>2024-07-09T14:15:53.000Z</time>
      </trkpt>
      <trkpt lat="42.70862" lon="1.67769">
        <ele>1380</ele>
        <time>2024-07-09T14:15:54.000Z</time>
      </trkpt>
      <trkpt lat="42.7086" lon="1.67772">
        <ele>1380.4000244141</ele>
        <time>2024-07-09T14:16:01.000Z</time>
      </trkpt>
      <trkpt lat="42.70853" lon="1.67775">
        <ele>1381.5999755859</ele>
        <time>2024-07-09T14:16:11.000Z</time>
      </trkpt>
      <trkpt lat="42.70847" lon="1.67778">
        <ele>1382.1999511719</ele>
        <time>2024-07-09T14:16:18.000Z</time>
      </trkpt>
      <trkpt lat="42.70842" lon="1.67782">
        <ele>1382.8000488281</ele>
        <time>2024-07-09T14:16:24.000Z</time>
      </trkpt>
      <trkpt lat="42.70839" lon="1.67785">
        <ele>1383.5999755859</ele>
        <time>2024-07-09T14:16:29.000Z</time>
      </trkpt>
      <trkpt lat="42.70832" lon="1.67788">
        <ele>1384.5999755859</ele>
        <time>2024-07-09T14:16:36.000Z</time>
      </trkpt>
      <trkpt lat="42.70827" lon="1.6779">
        <ele>1385.5999755859</ele>
        <time>2024-07-09T14:16:45.000Z</time>
      </trkpt>
      <trkpt lat="42.70824" lon="1.67792">
        <ele>1386.4000244141</ele>
        <time>2024-07-09T14:16:53.000Z</time>
      </trkpt>
      <trkpt lat="42.70821" lon="1.67794">
        <ele>1386.8000488281</ele>
        <time>2024-07-09T14:17:00.000Z</time>
      </trkpt>
      <trkpt lat="42.70823" lon="1.67801">
        <ele>1387.5999755859</ele>
        <time>2024-07-09T14:17:06.000Z</time>
      </trkpt>
      <trkpt lat="42.70823" lon="1.67809">
        <ele>1388.4000244141</ele>
        <time>2024-07-09T14:17:12.000Z</time>
      </trkpt>
      <trkpt lat="42.70822" lon="1.67809">
        <ele>1388.4000244141</ele>
        <time>2024-07-09T14:17:13.000Z</time>
      </trkpt>
      <trkpt lat="42.70818" lon="1.67816">
        <ele>1390.4000244141</ele>
        <time>2024-07-09T14:17:20.000Z</time>
      </trkpt>
      <trkpt lat="42.70815" lon="1.67819">
        <ele>1391</ele>
        <time>2024-07-09T14:17:24.000Z</time>
      </trkpt>
      <trkpt lat="42.70812" lon="1.6782">
        <ele>1391.1999511719</ele>
        <time>2024-07-09T14:17:27.000Z</time>
      </trkpt>
      <trkpt lat="42.7081" lon="1.67825">
        <ele>1392.1999511719</ele>
        <time>2024-07-09T14:17:33.000Z</time>
      </trkpt>
      <trkpt lat="42.70807" lon="1.6783">
        <ele>1393.1999511719</ele>
        <time>2024-07-09T14:17:40.000Z</time>
      </trkpt>
      <trkpt lat="42.70807" lon="1.67837">
        <ele>1394.5999755859</ele>
        <time>2024-07-09T14:17:48.000Z</time>
      </trkpt>
      <trkpt lat="42.70807" lon="1.67838">
        <ele>1394.8000488281</ele>
        <time>2024-07-09T14:17:49.000Z</time>
      </trkpt>
      <trkpt lat="42.70807" lon="1.67841">
        <ele>1395.5999755859</ele>
        <time>2024-07-09T14:17:53.000Z</time>
      </trkpt>
      <trkpt lat="42.7081" lon="1.67843">
        <ele>1396.5999755859</ele>
        <time>2024-07-09T14:17:59.000Z</time>
      </trkpt>
      <trkpt lat="42.70811" lon="1.67845">
        <ele>1397</ele>
        <time>2024-07-09T14:18:01.000Z</time>
      </trkpt>
      <trkpt lat="42.70813" lon="1.67845">
        <ele>1397.1999511719</ele>
        <time>2024-07-09T14:18:04.000Z</time>
      </trkpt>
      <trkpt lat="42.70814" lon="1.6785">
        <ele>1399</ele>
        <time>2024-07-09T14:18:10.000Z</time>
      </trkpt>
      <trkpt lat="42.70818" lon="1.67855">
        <ele>1400.8000488281</ele>
        <time>2024-07-09T14:18:18.000Z</time>
      </trkpt>
      <trkpt lat="42.70819" lon="1.67861">
        <ele>1403</ele>
        <time>2024-07-09T14:18:26.000Z</time>
      </trkpt>
      <trkpt lat="42.70821" lon="1.67866">
        <ele>1404.5999755859</ele>
        <time>2024-07-09T14:18:33.000Z</time>
      </trkpt>
      <trkpt lat="42.70822" lon="1.67866">
        <ele>1404.8000488281</ele>
        <time>2024-07-09T14:18:38.000Z</time>
      </trkpt>
      <trkpt lat="42.70825" lon="1.67865">
        <ele>1404.8000488281</ele>
        <time>2024-07-09T14:18:42.000Z</time>
      </trkpt>
      <trkpt lat="42.7083" lon="1.67865">
        <ele>1405</ele>
        <time>2024-07-09T14:18:49.000Z</time>
      </trkpt>
      <trkpt lat="42.7083" lon="1.67865">
        <ele>1405.1999511719</ele>
        <time>2024-07-09T14:18:53.000Z</time>
      </trkpt>
      <trkpt lat="42.70832" lon="1.67865">
        <ele>1405.1999511719</ele>
        <time>2024-07-09T14:18:57.000Z</time>
      </trkpt>
      <trkpt lat="42.70834" lon="1.67868">
        <ele>1406.1999511719</ele>
        <time>2024-07-09T14:19:03.000Z</time>
      </trkpt>
      <trkpt lat="42.70837" lon="1.67874">
        <ele>1409.1999511719</ele>
        <time>2024-07-09T14:19:12.000Z</time>
      </trkpt>
      <trkpt lat="42.7084" lon="1.67874">
        <ele>1409.4000244141</ele>
        <time>2024-07-09T14:19:18.000Z</time>
      </trkpt>
      <trkpt lat="42.70844" lon="1.67875">
        <ele>1410.1999511719</ele>
        <time>2024-07-09T14:19:25.000Z</time>
      </trkpt>
      <trkpt lat="42.70847" lon="1.67876">
        <ele>1410.5999755859</ele>
        <time>2024-07-09T14:19:30.000Z</time>
      </trkpt>
      <trkpt lat="42.70849" lon="1.67877">
        <ele>1411.4000244141</ele>
        <time>2024-07-09T14:19:35.000Z</time>
      </trkpt>
      <trkpt lat="42.70847" lon="1.67883">
        <ele>1413.8000488281</ele>
        <time>2024-07-09T14:19:42.000Z</time>
      </trkpt>
      <trkpt lat="42.70847" lon="1.67885">
        <ele>1414.1999511719</ele>
        <time>2024-07-09T14:19:48.000Z</time>
      </trkpt>
      <trkpt lat="42.7085" lon="1.6789">
        <ele>1416.5999755859</ele>
        <time>2024-07-09T14:19:54.000Z</time>
      </trkpt>
      <trkpt lat="42.70852" lon="1.67889">
        <ele>1416.4000244141</ele>
        <time>2024-07-09T14:19:59.000Z</time>
      </trkpt>
      <trkpt lat="42.70852" lon="1.67889">
        <ele>1416.4000244141</ele>
        <time>2024-07-09T14:20:04.000Z</time>
      </trkpt>
      <trkpt lat="42.70855" lon="1.67889">
        <ele>1416.8000488281</ele>
        <time>2024-07-09T14:20:09.000Z</time>
      </trkpt>
      <trkpt lat="42.70859" lon="1.67891">
        <ele>1418</ele>
        <time>2024-07-09T14:20:15.000Z</time>
      </trkpt>
      <trkpt lat="42.70862" lon="1.67889">
        <ele>1417.8000488281</ele>
        <time>2024-07-09T14:20:21.000Z</time>
      </trkpt>
      <trkpt lat="42.70865" lon="1.67891">
        <ele>1418.8000488281</ele>
        <time>2024-07-09T14:20:27.000Z</time>
      </trkpt>
      <trkpt lat="42.70865" lon="1.67895">
        <ele>1420</ele>
        <time>2024-07-09T14:20:32.000Z</time>
      </trkpt>
      <trkpt lat="42.70867" lon="1.67896">
        <ele>1420.8000488281</ele>
        <time>2024-07-09T14:20:38.000Z</time>
      </trkpt>
      <trkpt lat="42.7087" lon="1.67894">
        <ele>1420.4000244141</ele>
        <time>2024-07-09T14:20:46.000Z</time>
      </trkpt>
      <trkpt lat="42.70873" lon="1.67893">
        <ele>1420.4000244141</ele>
        <time>2024-07-09T14:20:51.000Z</time>
      </trkpt>
      <trkpt lat="42.70875" lon="1.67897">
        <ele>1422.4000244141</ele>
        <time>2024-07-09T14:20:58.000Z</time>
      </trkpt>
      <trkpt lat="42.70878" lon="1.67902">
        <ele>1425.4000244141</ele>
        <time>2024-07-09T14:21:06.000Z</time>
      </trkpt>
      <trkpt lat="42.70879" lon="1.67906">
        <ele>1427.8000488281</ele>
        <time>2024-07-09T14:21:12.000Z</time>
      </trkpt>
      <trkpt lat="42.70881" lon="1.67909">
        <ele>1429.4000244141</ele>
        <time>2024-07-09T14:21:18.000Z</time>
      </trkpt>
      <trkpt lat="42.70883" lon="1.67911">
        <ele>1430.8000488281</ele>
        <time>2024-07-09T14:21:25.000Z</time>
      </trkpt>
      <trkpt lat="42.70887" lon="1.67912">
        <ele>1432</ele>
        <time>2024-07-09T14:21:34.000Z</time>
      </trkpt>
      <trkpt lat="42.70889" lon="1.67913">
        <ele>1432.8000488281</ele>
        <time>2024-07-09T14:21:44.000Z</time>
      </trkpt>
      <trkpt lat="42.70889" lon="1.67913">
        <ele>1432.8000488281</ele>
        <time>2024-07-09T14:21:53.000Z</time>
      </trkpt>
      <trkpt lat="42.70889" lon="1.6791">
        <ele>1431.1999511719</ele>
        <time>2024-07-09T14:22:03.000Z</time>
      </trkpt>
      <trkpt lat="42.70889" lon="1.6791">
        <ele>1431.4000244141</ele>
        <time>2024-07-09T14:22:12.000Z</time>
      </trkpt>
      <trkpt lat="42.70893" lon="1.67916">
        <ele>1434.8000488281</ele>
        <time>2024-07-09T14:22:41.000Z</time>
      </trkpt>
      <trkpt lat="42.70899" lon="1.67919">
        <ele>1437</ele>
        <time>2024-07-09T14:22:47.000Z</time>
      </trkpt>
      <trkpt lat="42.70902" lon="1.67919">
        <ele>1437.8000488281</ele>
        <time>2024-07-09T14:22:52.000Z</time>
      </trkpt>
      <trkpt lat="42.70905" lon="1.67921">
        <ele>1439.4000244141</ele>
        <time>2024-07-09T14:23:00.000Z</time>
      </trkpt>
      <trkpt lat="42.70909" lon="1.67921">
        <ele>1439.5999755859</ele>
        <time>2024-07-09T14:23:06.000Z</time>
      </trkpt>
      <trkpt lat="42.70913" lon="1.67923">
        <ele>1441.4000244141</ele>
        <time>2024-07-09T14:23:14.000Z</time>
      </trkpt>
      <trkpt lat="42.70917" lon="1.67924">
        <ele>1442.4000244141</ele>
        <time>2024-07-09T14:23:20.000Z</time>
      </trkpt>
      <trkpt lat="42.70919" lon="1.67926">
        <ele>1444.1999511719</ele>
        <time>2024-07-09T14:23:24.000Z</time>
      </trkpt>
      <trkpt lat="42.70919" lon="1.67933">
        <ele>1448.4000244141</ele>
        <time>2024-07-09T14:23:31.000Z</time>
      </trkpt>
      <trkpt lat="42.70914" lon="1.67935">
        <ele>1449.1999511719</ele>
        <time>2024-07-09T14:23:39.000Z</time>
      </trkpt>
      <trkpt lat="42.7091" lon="1.67936">
        <ele>1449.1999511719</ele>
        <time>2024-07-09T14:23:44.000Z</time>
      </trkpt>
      <trkpt lat="42.70908" lon="1.67942">
        <ele>1452.4000244141</ele>
        <time>2024-07-09T14:23:50.000Z</time>
      </trkpt>
      <trkpt lat="42.70903" lon="1.67947">
        <ele>1454</ele>
        <time>2024-07-09T14:23:56.000Z</time>
      </trkpt>
      <trkpt lat="42.709" lon="1.67951">
        <ele>1455.5999755859</ele>
        <time>2024-07-09T14:24:04.000Z</time>
      </trkpt>
      <trkpt lat="42.70898" lon="1.67951">
        <ele>1455.4000244141</ele>
        <time>2024-07-09T14:24:10.000Z</time>
      </trkpt>
      <trkpt lat="42.70894" lon="1.67955">
        <ele>1456.8000488281</ele>
        <time>2024-07-09T14:24:16.000Z</time>
      </trkpt>
      <trkpt lat="42.70891" lon="1.6796">
        <ele>1459</ele>
        <time>2024-07-09T14:24:21.000Z</time>
      </trkpt>
      <trkpt lat="42.70887" lon="1.67966">
        <ele>1461</ele>
        <time>2024-07-09T14:24:27.000Z</time>
      </trkpt>
      <trkpt lat="42.70888" lon="1.67967">
        <ele>1461.8000488281</ele>
        <time>2024-07-09T14:24:34.000Z</time>
      </trkpt>
      <trkpt lat="42.70889" lon="1.67965">
        <ele>1460.8000488281</ele>
        <time>2024-07-09T14:24:41.000Z</time>
      </trkpt>
      <trkpt lat="42.70891" lon="1.67962">
        <ele>1459.8000488281</ele>
        <time>2024-07-09T14:24:48.000Z</time>
      </trkpt>
      <trkpt lat="42.70889" lon="1.67969">
        <ele>1463.1999511719</ele>
        <time>2024-07-09T14:24:58.000Z</time>
      </trkpt>
      <trkpt lat="42.70886" lon="1.67972">
        <ele>1464.1999511719</ele>
        <time>2024-07-09T14:25:07.000Z</time>
      </trkpt>
      <trkpt lat="42.70883" lon="1.67974">
        <ele>1465.4000244141</ele>
        <time>2024-07-09T14:25:12.000Z</time>
      </trkpt>
      <trkpt lat="42.70881" lon="1.67978">
        <ele>1467.4000244141</ele>
        <time>2024-07-09T14:25:18.000Z</time>
      </trkpt>
      <trkpt lat="42.70881" lon="1.67982">
        <ele>1469.5999755859</ele>
        <time>2024-07-09T14:25:25.000Z</time>
      </trkpt>
      <trkpt lat="42.70881" lon="1.67984">
        <ele>1470.4000244141</ele>
        <time>2024-07-09T14:25:31.000Z</time>
      </trkpt>
      <trkpt lat="42.70878" lon="1.67987">
        <ele>1471.5999755859</ele>
        <time>2024-07-09T14:25:38.000Z</time>
      </trkpt>
      <trkpt lat="42.70876" lon="1.6799">
        <ele>1473</ele>
        <time>2024-07-09T14:25:45.000Z</time>
      </trkpt>
      <trkpt lat="42.70871" lon="1.67994">
        <ele>1474</ele>
        <time>2024-07-09T14:25:52.000Z</time>
      </trkpt>
      <trkpt lat="42.70865" lon="1.67998">
        <ele>1475.1999511719</ele>
        <time>2024-07-09T14:25:58.000Z</time>
      </trkpt>
      <trkpt lat="42.70865" lon="1.68">
        <ele>1475.8000488281</ele>
        <time>2024-07-09T14:26:03.000Z</time>
      </trkpt>
      <trkpt lat="42.7086" lon="1.68004">
        <ele>1477.5999755859</ele>
        <time>2024-07-09T14:26:09.000Z</time>
      </trkpt>
      <trkpt lat="42.70861" lon="1.68007">
        <ele>1479.1999511719</ele>
        <time>2024-07-09T14:26:17.000Z</time>
      </trkpt>
      <trkpt lat="42.70864" lon="1.68007">
        <ele>1479.4000244141</ele>
        <time>2024-07-09T14:26:24.000Z</time>
      </trkpt>
      <trkpt lat="42.70863" lon="1.68007">
        <ele>1479.4000244141</ele>
        <time>2024-07-09T14:26:30.000Z</time>
      </trkpt>
      <trkpt lat="42.70862" lon="1.68007">
        <ele>1479.5999755859</ele>
        <time>2024-07-09T14:26:35.000Z</time>
      </trkpt>
      <trkpt lat="42.70861" lon="1.68007">
        <ele>1479.5999755859</ele>
        <time>2024-07-09T14:26:40.000Z</time>
      </trkpt>
      <trkpt lat="42.70858" lon="1.68014">
        <ele>1482</ele>
        <time>2024-07-09T14:26:48.000Z</time>
      </trkpt>
      <trkpt lat="42.70859" lon="1.68013">
        <ele>1481.8000488281</ele>
        <time>2024-07-09T14:26:54.000Z</time>
      </trkpt>
      <trkpt lat="42.70859" lon="1.68012">
        <ele>1481.5999755859</ele>
        <time>2024-07-09T14:27:00.000Z</time>
      </trkpt>
      <trkpt lat="42.70856" lon="1.68016">
        <ele>1483</ele>
        <time>2024-07-09T14:27:13.000Z</time>
      </trkpt>
      <trkpt lat="42.70851" lon="1.6802">
        <ele>1484.5999755859</ele>
        <time>2024-07-09T14:27:18.000Z</time>
      </trkpt>
      <trkpt lat="42.70847" lon="1.68023">
        <ele>1486.1999511719</ele>
        <time>2024-07-09T14:27:25.000Z</time>
      </trkpt>
      <trkpt lat="42.70845" lon="1.68022">
        <ele>1485.8000488281</ele>
        <time>2024-07-09T14:27:32.000Z</time>
      </trkpt>
      <trkpt lat="42.70843" lon="1.68026">
        <ele>1488</ele>
        <time>2024-07-09T14:27:36.000Z</time>
      </trkpt>
      <trkpt lat="42.70836" lon="1.68027">
        <ele>1488.1999511719</ele>
        <time>2024-07-09T14:27:42.000Z</time>
      </trkpt>
      <trkpt lat="42.70829" lon="1.6803">
        <ele>1490</ele>
        <time>2024-07-09T14:27:50.000Z</time>
      </trkpt>
      <trkpt lat="42.70825" lon="1.68034">
        <ele>1492</ele>
        <time>2024-07-09T14:27:57.000Z</time>
      </trkpt>
      <trkpt lat="42.70821" lon="1.68039">
        <ele>1494.8000488281</ele>
        <time>2024-07-09T14:28:07.000Z</time>
      </trkpt>
      <trkpt lat="42.70821" lon="1.68042">
        <ele>1496.4000244141</ele>
        <time>2024-07-09T14:28:13.000Z</time>
      </trkpt>
      <trkpt lat="42.70819" lon="1.68045">
        <ele>1498</ele>
        <time>2024-07-09T14:28:19.000Z</time>
      </trkpt>
      <trkpt lat="42.70819" lon="1.68046">
        <ele>1499</ele>
        <time>2024-07-09T14:28:25.000Z</time>
      </trkpt>
      <trkpt lat="42.70814" lon="1.68048">
        <ele>1499.5999755859</ele>
        <time>2024-07-09T14:28:34.000Z</time>
      </trkpt>
      <trkpt lat="42.70813" lon="1.68048">
        <ele>1499.8000488281</ele>
        <time>2024-07-09T14:28:38.000Z</time>
      </trkpt>
      <trkpt lat="42.70812" lon="1.68052">
        <ele>1502.1999511719</ele>
        <time>2024-07-09T14:28:44.000Z</time>
      </trkpt>
      <trkpt lat="42.7081" lon="1.68056">
        <ele>1504.1999511719</ele>
        <time>2024-07-09T14:28:50.000Z</time>
      </trkpt>
      <trkpt lat="42.70807" lon="1.6806">
        <ele>1505.4000244141</ele>
        <time>2024-07-09T14:28:55.000Z</time>
      </trkpt>
      <trkpt lat="42.70806" lon="1.68063">
        <ele>1506.1999511719</ele>
        <time>2024-07-09T14:29:01.000Z</time>
      </trkpt>
      <trkpt lat="42.70807" lon="1.68067">
        <ele>1508</ele>
        <time>2024-07-09T14:29:08.000Z</time>
      </trkpt>
      <trkpt lat="42.70806" lon="1.68072">
        <ele>1509.8000488281</ele>
        <time>2024-07-09T14:29:15.000Z</time>
      </trkpt>
      <trkpt lat="42.70803" lon="1.68076">
        <ele>1510.5999755859</ele>
        <time>2024-07-09T14:29:21.000Z</time>
      </trkpt>
      <trkpt lat="42.708" lon="1.68081">
        <ele>1511.5999755859</ele>
        <time>2024-07-09T14:29:28.000Z</time>
      </trkpt>
      <trkpt lat="42.70796" lon="1.68084">
        <ele>1511.4000244141</ele>
        <time>2024-07-09T14:29:35.000Z</time>
      </trkpt>
      <trkpt lat="42.7079" lon="1.68084">
        <ele>1509.4000244141</ele>
        <time>2024-07-09T14:29:41.000Z</time>
      </trkpt>
      <trkpt lat="42.7079" lon="1.68086">
        <ele>1510.1999511719</ele>
        <time>2024-07-09T14:29:48.000Z</time>
      </trkpt>
      <trkpt lat="42.7079" lon="1.68091">
        <ele>1512</ele>
        <time>2024-07-09T14:29:56.000Z</time>
      </trkpt>
      <trkpt lat="42.70791" lon="1.68097">
        <ele>1514.5999755859</ele>
        <time>2024-07-09T14:30:04.000Z</time>
      </trkpt>
      <trkpt lat="42.70793" lon="1.681">
        <ele>1516.5999755859</ele>
        <time>2024-07-09T14:30:12.000Z</time>
      </trkpt>
      <trkpt lat="42.70792" lon="1.68105">
        <ele>1518.4000244141</ele>
        <time>2024-07-09T14:30:20.000Z</time>
      </trkpt>
      <trkpt lat="42.70787" lon="1.68111">
        <ele>1519.1999511719</ele>
        <time>2024-07-09T14:30:29.000Z</time>
      </trkpt>
      <trkpt lat="42.70782" lon="1.68117">
        <ele>1519.5999755859</ele>
        <time>2024-07-09T14:30:37.000Z</time>
      </trkpt>
      <trkpt lat="42.70778" lon="1.6812">
        <ele>1520</ele>
        <time>2024-07-09T14:30:44.000Z</time>
      </trkpt>
      <trkpt lat="42.70774" lon="1.68127">
        <ele>1521.1999511719</ele>
        <time>2024-07-09T14:30:54.000Z</time>
      </trkpt>
      <trkpt lat="42.70771" lon="1.68131">
        <ele>1522</ele>
        <time>2024-07-09T14:31:02.000Z</time>
      </trkpt>
      <trkpt lat="42.70767" lon="1.68137">
        <ele>1523.1999511719</ele>
        <time>2024-07-09T14:31:10.000Z</time>
      </trkpt>
      <trkpt lat="42.70768" lon="1.68139">
        <ele>1524</ele>
        <time>2024-07-09T14:31:16.000Z</time>
      </trkpt>
      <trkpt lat="42.70768" lon="1.68138">
        <ele>1523.5999755859</ele>
        <time>2024-07-09T14:31:23.000Z</time>
      </trkpt>
      <trkpt lat="42.70768" lon="1.68137">
        <ele>1523.4000244141</ele>
        <time>2024-07-09T14:31:33.000Z</time>
      </trkpt>
      <trkpt lat="42.70767" lon="1.68142">
        <ele>1524.8000488281</ele>
        <time>2024-07-09T14:36:31.000Z</time>
      </trkpt>
      <trkpt lat="42.70765" lon="1.68149">
        <ele>1526.8000488281</ele>
        <time>2024-07-09T14:42:05.000Z</time>
      </trkpt>
      <trkpt lat="42.70769" lon="1.68155">
        <ele>1530.4000244141</ele>
        <time>2024-07-09T14:42:13.000Z</time>
      </trkpt>
      <trkpt lat="42.70769" lon="1.68162">
        <ele>1531.5999755859</ele>
        <time>2024-07-09T14:42:19.000Z</time>
      </trkpt>
      <trkpt lat="42.7077" lon="1.68164">
        <ele>1532.4000244141</ele>
        <time>2024-07-09T14:42:24.000Z</time>
      </trkpt>
      <trkpt lat="42.70765" lon="1.68168">
        <ele>1530.5999755859</ele>
        <time>2024-07-09T14:42:32.000Z</time>
      </trkpt>
      <trkpt lat="42.70763" lon="1.68172">
        <ele>1530</ele>
        <time>2024-07-09T14:42:38.000Z</time>
      </trkpt>
      <trkpt lat="42.7076" lon="1.68176">
        <ele>1529.4000244141</ele>
        <time>2024-07-09T14:42:46.000Z</time>
      </trkpt>
      <trkpt lat="42.70758" lon="1.68181">
        <ele>1529.1999511719</ele>
        <time>2024-07-09T14:42:53.000Z</time>
      </trkpt>
      <trkpt lat="42.7076" lon="1.68186">
        <ele>1531.1999511719</ele>
        <time>2024-07-09T14:43:01.000Z</time>
      </trkpt>
      <trkpt lat="42.70763" lon="1.68189">
        <ele>1533.5999755859</ele>
        <time>2024-07-09T14:43:08.000Z</time>
      </trkpt>
      <trkpt lat="42.70763" lon="1.68195">
        <ele>1534.5999755859</ele>
        <time>2024-07-09T14:43:15.000Z</time>
      </trkpt>
      <trkpt lat="42.70766" lon="1.682">
        <ele>1537.1999511719</ele>
        <time>2024-07-09T14:43:21.000Z</time>
      </trkpt>
      <trkpt lat="42.70766" lon="1.68199">
        <ele>1537.5999755859</ele>
        <time>2024-07-09T14:43:26.000Z</time>
      </trkpt>
      <trkpt lat="42.70771" lon="1.68197">
        <ele>1540.1999511719</ele>
        <time>2024-07-09T14:43:34.000Z</time>
      </trkpt>
      <trkpt lat="42.70773" lon="1.68197">
        <ele>1541</ele>
        <time>2024-07-09T14:43:40.000Z</time>
      </trkpt>
      <trkpt lat="42.70776" lon="1.68198">
        <ele>1543</ele>
        <time>2024-07-09T14:43:46.000Z</time>
      </trkpt>
      <trkpt lat="42.70776" lon="1.68205">
        <ele>1544.8000488281</ele>
        <time>2024-07-09T14:43:53.000Z</time>
      </trkpt>
      <trkpt lat="42.70779" lon="1.6821">
        <ele>1547.4000244141</ele>
        <time>2024-07-09T14:43:59.000Z</time>
      </trkpt>
      <trkpt lat="42.7078" lon="1.68216">
        <ele>1549.4000244141</ele>
        <time>2024-07-09T14:44:07.000Z</time>
      </trkpt>
      <trkpt lat="42.7078" lon="1.68219">
        <ele>1550</ele>
        <time>2024-07-09T14:44:13.000Z</time>
      </trkpt>
      <trkpt lat="42.7078" lon="1.68218">
        <ele>1549.8000488281</ele>
        <time>2024-07-09T14:44:19.000Z</time>
      </trkpt>
      <trkpt lat="42.7078" lon="1.68219">
        <ele>1549.8000488281</ele>
        <time>2024-07-09T14:44:38.000Z</time>
      </trkpt>
      <trkpt lat="42.70782" lon="1.68227">
        <ele>1553</ele>
        <time>2024-07-09T14:45:12.000Z</time>
      </trkpt>
      <trkpt lat="42.70784" lon="1.68237">
        <ele>1556.5999755859</ele>
        <time>2024-07-09T14:45:18.000Z</time>
      </trkpt>
      <trkpt lat="42.70784" lon="1.68241">
        <ele>1557.8000488281</ele>
        <time>2024-07-09T14:45:23.000Z</time>
      </trkpt>
      <trkpt lat="42.70786" lon="1.68246">
        <ele>1559.8000488281</ele>
        <time>2024-07-09T14:45:29.000Z</time>
      </trkpt>
      <trkpt lat="42.70784" lon="1.68255">
        <ele>1561.4000244141</ele>
        <time>2024-07-09T14:45:36.000Z</time>
      </trkpt>
      <trkpt lat="42.70782" lon="1.68263">
        <ele>1562</ele>
        <time>2024-07-09T14:45:43.000Z</time>
      </trkpt>
      <trkpt lat="42.70782" lon="1.68266">
        <ele>1563.1999511719</ele>
        <time>2024-07-09T14:45:49.000Z</time>
      </trkpt>
      <trkpt lat="42.70781" lon="1.6827">
        <ele>1563.8000488281</ele>
        <time>2024-07-09T14:45:54.000Z</time>
      </trkpt>
      <trkpt lat="42.70784" lon="1.68271">
        <ele>1565.1999511719</ele>
        <time>2024-07-09T14:46:00.000Z</time>
      </trkpt>
      <trkpt lat="42.70782" lon="1.68274">
        <ele>1565.1999511719</ele>
        <time>2024-07-09T14:46:05.000Z</time>
      </trkpt>
      <trkpt lat="42.70784" lon="1.68279">
        <ele>1567.4000244141</ele>
        <time>2024-07-09T14:46:11.000Z</time>
      </trkpt>
      <trkpt lat="42.70785" lon="1.68288">
        <ele>1569.8000488281</ele>
        <time>2024-07-09T14:46:18.000Z</time>
      </trkpt>
      <trkpt lat="42.70785" lon="1.68292">
        <ele>1570.8000488281</ele>
        <time>2024-07-09T14:46:23.000Z</time>
      </trkpt>
      <trkpt lat="42.70785" lon="1.68299">
        <ele>1572</ele>
        <time>2024-07-09T14:46:32.000Z</time>
      </trkpt>
      <trkpt lat="42.70785" lon="1.68303">
        <ele>1572.8000488281</ele>
        <time>2024-07-09T14:46:41.000Z</time>
      </trkpt>
      <trkpt lat="42.70785" lon="1.68305">
        <ele>1573.1999511719</ele>
        <time>2024-07-09T14:46:54.000Z</time>
      </trkpt>
      <trkpt lat="42.70788" lon="1.68304">
        <ele>1574.5999755859</ele>
        <time>2024-07-09T14:47:24.000Z</time>
      </trkpt>
      <trkpt lat="42.70788" lon="1.68307">
        <ele>1575.1999511719</ele>
        <time>2024-07-09T14:47:29.000Z</time>
      </trkpt>
      <trkpt lat="42.70792" lon="1.68305">
        <ele>1576.4000244141</ele>
        <time>2024-07-09T14:47:36.000Z</time>
      </trkpt>
      <trkpt lat="42.70792" lon="1.68307">
        <ele>1576.8000488281</ele>
        <time>2024-07-09T14:47:42.000Z</time>
      </trkpt>
      <trkpt lat="42.70793" lon="1.68314">
        <ele>1578.8000488281</ele>
        <time>2024-07-09T14:47:49.000Z</time>
      </trkpt>
      <trkpt lat="42.70794" lon="1.68314">
        <ele>1579</ele>
        <time>2024-07-09T14:47:53.000Z</time>
      </trkpt>
      <trkpt lat="42.70796" lon="1.68316">
        <ele>1580</ele>
        <time>2024-07-09T14:47:58.000Z</time>
      </trkpt>
      <trkpt lat="42.70798" lon="1.68322">
        <ele>1582.1999511719</ele>
        <time>2024-07-09T14:48:06.000Z</time>
      </trkpt>
      <trkpt lat="42.70801" lon="1.68328">
        <ele>1584.1999511719</ele>
        <time>2024-07-09T14:48:13.000Z</time>
      </trkpt>
      <trkpt lat="42.70804" lon="1.68325">
        <ele>1584.8000488281</ele>
        <time>2024-07-09T14:48:19.000Z</time>
      </trkpt>
      <trkpt lat="42.70806" lon="1.68321">
        <ele>1585.1999511719</ele>
        <time>2024-07-09T14:48:28.000Z</time>
      </trkpt>
      <trkpt lat="42.70808" lon="1.68315">
        <ele>1585</ele>
        <time>2024-07-09T14:48:36.000Z</time>
      </trkpt>
      <trkpt lat="42.70812" lon="1.68316">
        <ele>1587.1999511719</ele>
        <time>2024-07-09T14:48:44.000Z</time>
      </trkpt>
      <trkpt lat="42.70817" lon="1.6832">
        <ele>1589.1999511719</ele>
        <time>2024-07-09T14:48:50.000Z</time>
      </trkpt>
      <trkpt lat="42.70818" lon="1.6832">
        <ele>1589.5999755859</ele>
        <time>2024-07-09T14:48:55.000Z</time>
      </trkpt>
      <trkpt lat="42.70822" lon="1.6832">
        <ele>1591.1999511719</ele>
        <time>2024-07-09T14:49:02.000Z</time>
      </trkpt>
      <trkpt lat="42.70828" lon="1.68323">
        <ele>1593.8000488281</ele>
        <time>2024-07-09T14:49:11.000Z</time>
      </trkpt>
      <trkpt lat="42.7083" lon="1.68325">
        <ele>1595.1999511719</ele>
        <time>2024-07-09T14:49:17.000Z</time>
      </trkpt>
      <trkpt lat="42.70835" lon="1.68322">
        <ele>1596.5999755859</ele>
        <time>2024-07-09T14:49:24.000Z</time>
      </trkpt>
      <trkpt lat="42.70836" lon="1.68318">
        <ele>1596.8000488281</ele>
        <time>2024-07-09T14:49:31.000Z</time>
      </trkpt>
      <trkpt lat="42.70838" lon="1.68312">
        <ele>1596.8000488281</ele>
        <time>2024-07-09T14:49:38.000Z</time>
      </trkpt>
      <trkpt lat="42.7084" lon="1.68305">
        <ele>1596.8000488281</ele>
        <time>2024-07-09T14:49:46.000Z</time>
      </trkpt>
      <trkpt lat="42.70844" lon="1.68299">
        <ele>1597.8000488281</ele>
        <time>2024-07-09T14:49:52.000Z</time>
      </trkpt>
      <trkpt lat="42.70848" lon="1.68292">
        <ele>1599.4000244141</ele>
        <time>2024-07-09T14:49:59.000Z</time>
      </trkpt>
      <trkpt lat="42.70852" lon="1.68284">
        <ele>1600.1999511719</ele>
        <time>2024-07-09T14:50:07.000Z</time>
      </trkpt>
      <trkpt lat="42.70854" lon="1.6828">
        <ele>1600</ele>
        <time>2024-07-09T14:50:13.000Z</time>
      </trkpt>
      <trkpt lat="42.70857" lon="1.68273">
        <ele>1600</ele>
        <time>2024-07-09T14:50:21.000Z</time>
      </trkpt>
      <trkpt lat="42.7086" lon="1.68268">
        <ele>1600</ele>
        <time>2024-07-09T14:50:28.000Z</time>
      </trkpt>
      <trkpt lat="42.70863" lon="1.68264">
        <ele>1600</ele>
        <time>2024-07-09T14:50:36.000Z</time>
      </trkpt>
      <trkpt lat="42.70868" lon="1.68258">
        <ele>1600.5999755859</ele>
        <time>2024-07-09T14:50:45.000Z</time>
      </trkpt>
      <trkpt lat="42.70873" lon="1.68256">
        <ele>1602.4000244141</ele>
        <time>2024-07-09T14:50:54.000Z</time>
      </trkpt>
      <trkpt lat="42.70875" lon="1.68258">
        <ele>1604.1999511719</ele>
        <time>2024-07-09T14:51:01.000Z</time>
      </trkpt>
      <trkpt lat="42.70877" lon="1.68261">
        <ele>1605.4000244141</ele>
        <time>2024-07-09T14:51:08.000Z</time>
      </trkpt>
      <trkpt lat="42.70881" lon="1.68261">
        <ele>1607.8000488281</ele>
        <time>2024-07-09T14:51:17.000Z</time>
      </trkpt>
      <trkpt lat="42.70882" lon="1.68266">
        <ele>1609</ele>
        <time>2024-07-09T14:51:26.000Z</time>
      </trkpt>
      <trkpt lat="42.70882" lon="1.68269">
        <ele>1609.4000244141</ele>
        <time>2024-07-09T14:51:32.000Z</time>
      </trkpt>
      <trkpt lat="42.70882" lon="1.68268">
        <ele>1609.4000244141</ele>
        <time>2024-07-09T14:51:40.000Z</time>
      </trkpt>
      <trkpt lat="42.70885" lon="1.68269">
        <ele>1611.4000244141</ele>
        <time>2024-07-09T14:52:05.000Z</time>
      </trkpt>
      <trkpt lat="42.70891" lon="1.68276">
        <ele>1616</ele>
        <time>2024-07-09T14:52:14.000Z</time>
      </trkpt>
      <trkpt lat="42.70894" lon="1.6828">
        <ele>1618.4000244141</ele>
        <time>2024-07-09T14:52:20.000Z</time>
      </trkpt>
      <trkpt lat="42.70899" lon="1.68285">
        <ele>1620.8000488281</ele>
        <time>2024-07-09T14:52:29.000Z</time>
      </trkpt>
      <trkpt lat="42.70904" lon="1.68285">
        <ele>1623</ele>
        <time>2024-07-09T14:52:38.000Z</time>
      </trkpt>
      <trkpt lat="42.70909" lon="1.68285">
        <ele>1625</ele>
        <time>2024-07-09T14:52:45.000Z</time>
      </trkpt>
      <trkpt lat="42.70913" lon="1.68284">
        <ele>1626.4000244141</ele>
        <time>2024-07-09T14:52:51.000Z</time>
      </trkpt>
      <trkpt lat="42.70916" lon="1.68287">
        <ele>1628</ele>
        <time>2024-07-09T14:52:58.000Z</time>
      </trkpt>
      <trkpt lat="42.70919" lon="1.68289">
        <ele>1629.1999511719</ele>
        <time>2024-07-09T14:53:03.000Z</time>
      </trkpt>
      <trkpt lat="42.70923" lon="1.68293">
        <ele>1631.1999511719</ele>
        <time>2024-07-09T14:53:12.000Z</time>
      </trkpt>
      <trkpt lat="42.70926" lon="1.68296">
        <ele>1632.5999755859</ele>
        <time>2024-07-09T14:53:18.000Z</time>
      </trkpt>
      <trkpt lat="42.70929" lon="1.68298">
        <ele>1634.4000244141</ele>
        <time>2024-07-09T14:53:25.000Z</time>
      </trkpt>
      <trkpt lat="42.70934" lon="1.68303">
        <ele>1637</ele>
        <time>2024-07-09T14:53:35.000Z</time>
      </trkpt>
      <trkpt lat="42.70938" lon="1.68306">
        <ele>1638.8000488281</ele>
        <time>2024-07-09T14:53:44.000Z</time>
      </trkpt>
      <trkpt lat="42.70944" lon="1.68305">
        <ele>1640.8000488281</ele>
        <time>2024-07-09T14:53:54.000Z</time>
      </trkpt>
      <trkpt lat="42.70946" lon="1.68307">
        <ele>1642</ele>
        <time>2024-07-09T14:54:00.000Z</time>
      </trkpt>
      <trkpt lat="42.7095" lon="1.68312">
        <ele>1644</ele>
        <time>2024-07-09T14:54:08.000Z</time>
      </trkpt>
      <trkpt lat="42.70953" lon="1.68315">
        <ele>1645.4000244141</ele>
        <time>2024-07-09T14:54:15.000Z</time>
      </trkpt>
      <trkpt lat="42.70956" lon="1.6832">
        <ele>1647</ele>
        <time>2024-07-09T14:54:23.000Z</time>
      </trkpt>
      <trkpt lat="42.70959" lon="1.68323">
        <ele>1648.1999511719</ele>
        <time>2024-07-09T14:54:29.000Z</time>
      </trkpt>
      <trkpt lat="42.7096" lon="1.68324">
        <ele>1648.4000244141</ele>
        <time>2024-07-09T14:54:36.000Z</time>
      </trkpt>
      <trkpt lat="42.70959" lon="1.68325">
        <ele>1648.4000244141</ele>
        <time>2024-07-09T14:54:44.000Z</time>
      </trkpt>
      <trkpt lat="42.70959" lon="1.68325">
        <ele>1648.4000244141</ele>
        <time>2024-07-09T14:54:54.000Z</time>
      </trkpt>
      <trkpt lat="42.70959" lon="1.68333">
        <ele>1649</ele>
        <time>2024-07-09T14:55:29.000Z</time>
      </trkpt>
      <trkpt lat="42.70958" lon="1.68344">
        <ele>1649.8000488281</ele>
        <time>2024-07-09T14:55:36.000Z</time>
      </trkpt>
      <trkpt lat="42.70957" lon="1.68351">
        <ele>1649.8000488281</ele>
        <time>2024-07-09T14:55:42.000Z</time>
      </trkpt>
      <trkpt lat="42.70957" lon="1.68353">
        <ele>1649.8000488281</ele>
        <time>2024-07-09T14:55:43.000Z</time>
      </trkpt>
      <trkpt lat="42.70959" lon="1.68361">
        <ele>1650.5999755859</ele>
        <time>2024-07-09T14:55:48.000Z</time>
      </trkpt>
      <trkpt lat="42.70958" lon="1.68373">
        <ele>1650.5999755859</ele>
        <time>2024-07-09T14:55:56.000Z</time>
      </trkpt>
      <trkpt lat="42.70958" lon="1.68384">
        <ele>1650.8000488281</ele>
        <time>2024-07-09T14:56:05.000Z</time>
      </trkpt>
      <trkpt lat="42.70954" lon="1.68394">
        <ele>1649.4000244141</ele>
        <time>2024-07-09T14:56:13.000Z</time>
      </trkpt>
      <trkpt lat="42.70953" lon="1.68396">
        <ele>1649.1999511719</ele>
        <time>2024-07-09T14:56:14.000Z</time>
      </trkpt>
      <trkpt lat="42.70953" lon="1.68407">
        <ele>1650.4000244141</ele>
        <time>2024-07-09T14:56:22.000Z</time>
      </trkpt>
      <trkpt lat="42.70953" lon="1.68408">
        <ele>1650.4000244141</ele>
        <time>2024-07-09T14:56:23.000Z</time>
      </trkpt>
      <trkpt lat="42.7095" lon="1.68413">
        <ele>1650</ele>
        <time>2024-07-09T14:56:28.000Z</time>
      </trkpt>
      <trkpt lat="42.70949" lon="1.68416">
        <ele>1650</ele>
        <time>2024-07-09T14:56:32.000Z</time>
      </trkpt>
      <trkpt lat="42.7095" lon="1.68419">
        <ele>1650.5999755859</ele>
        <time>2024-07-09T14:56:34.000Z</time>
      </trkpt>
      <trkpt lat="42.7095" lon="1.68423">
        <ele>1651</ele>
        <time>2024-07-09T14:56:37.000Z</time>
      </trkpt>
      <trkpt lat="42.7095" lon="1.68425">
        <ele>1651.4000244141</ele>
        <time>2024-07-09T14:56:41.000Z</time>
      </trkpt>
      <trkpt lat="42.7095" lon="1.68427">
        <ele>1652</ele>
        <time>2024-07-09T14:56:47.000Z</time>
      </trkpt>
      <trkpt lat="42.70951" lon="1.68427">
        <ele>1652.4000244141</ele>
        <time>2024-07-09T14:56:54.000Z</time>
      </trkpt>
      <trkpt lat="42.70955" lon="1.68425">
        <ele>1653.1999511719</ele>
        <time>2024-07-09T14:57:40.000Z</time>
      </trkpt>
      <trkpt lat="42.70956" lon="1.68424">
        <ele>1653.1999511719</ele>
        <time>2024-07-09T14:57:46.000Z</time>
      </trkpt>
      <trkpt lat="42.70957" lon="1.68424">
        <ele>1653.4000244141</ele>
        <time>2024-07-09T14:57:52.000Z</time>
      </trkpt>
      <trkpt lat="42.70956" lon="1.68425">
        <ele>1653.4000244141</ele>
        <time>2024-07-09T14:57:58.000Z</time>
      </trkpt>
      <trkpt lat="42.70955" lon="1.68429">
        <ele>1653.8000488281</ele>
        <time>2024-07-09T14:58:05.000Z</time>
      </trkpt>
      <trkpt lat="42.70955" lon="1.6843">
        <ele>1654</ele>
        <time>2024-07-09T14:58:12.000Z</time>
      </trkpt>
      <trkpt lat="42.70956" lon="1.6843">
        <ele>1654.1999511719</ele>
        <time>2024-07-09T14:58:32.000Z</time>
      </trkpt>
      <trkpt lat="42.70953" lon="1.68419">
        <ele>1651.5999755859</ele>
        <time>2024-07-09T15:01:32.000Z</time>
      </trkpt>
      <trkpt lat="42.70955" lon="1.6842">
        <ele>1652.1999511719</ele>
        <time>2024-07-09T15:01:40.000Z</time>
      </trkpt>
      <trkpt lat="42.70956" lon="1.6842">
        <ele>1652.8000488281</ele>
        <time>2024-07-09T15:01:46.000Z</time>
      </trkpt>
      <trkpt lat="42.70953" lon="1.68421">
        <ele>1651.8000488281</ele>
        <time>2024-07-09T15:01:51.000Z</time>
      </trkpt>
      <trkpt lat="42.70952" lon="1.6842">
        <ele>1651.4000244141</ele>
        <time>2024-07-09T15:01:57.000Z</time>
      </trkpt>
      <trkpt lat="42.70953" lon="1.6842">
        <ele>1651.8000488281</ele>
        <time>2024-07-09T15:02:03.000Z</time>
      </trkpt>
      <trkpt lat="42.70953" lon="1.68421">
        <ele>1651.5999755859</ele>
        <time>2024-07-09T15:02:12.000Z</time>
      </trkpt>
      <trkpt lat="42.70954" lon="1.6842">
        <ele>1652</ele>
        <time>2024-07-09T15:02:37.000Z</time>
      </trkpt>
      <trkpt lat="42.70955" lon="1.68418">
        <ele>1652.1999511719</ele>
        <time>2024-07-09T15:02:46.000Z</time>
      </trkpt>
      <trkpt lat="42.70953" lon="1.68422">
        <ele>1651.8000488281</ele>
        <time>2024-07-09T15:03:34.000Z</time>
      </trkpt>
      <trkpt lat="42.70953" lon="1.68422">
        <ele>1652</ele>
        <time>2024-07-09T15:03:41.000Z</time>
      </trkpt>
      <trkpt lat="42.70953" lon="1.68422">
        <ele>1652</ele>
        <time>2024-07-09T15:03:52.000Z</time>
      </trkpt>
      <trkpt lat="42.70957" lon="1.68408">
        <ele>1651.5999755859</ele>
        <time>2024-07-09T15:06:33.000Z</time>
      </trkpt>
      <trkpt lat="42.70956" lon="1.68397">
        <ele>1650.1999511719</ele>
        <time>2024-07-09T15:06:38.000Z</time>
      </trkpt>
      <trkpt lat="42.70956" lon="1.68392">
        <ele>1650</ele>
        <time>2024-07-09T15:06:42.000Z</time>
      </trkpt>
      <trkpt lat="42.7096" lon="1.68383">
        <ele>1651.5999755859</ele>
        <time>2024-07-09T15:06:51.000Z</time>
      </trkpt>
      <trkpt lat="42.7096" lon="1.68365">
        <ele>1651.1999511719</ele>
        <time>2024-07-09T15:07:03.000Z</time>
      </trkpt>
      <trkpt lat="42.7096" lon="1.68353">
        <ele>1650.5999755859</ele>
        <time>2024-07-09T15:07:11.000Z</time>
      </trkpt>
      <trkpt lat="42.70959" lon="1.6835">
        <ele>1650.4000244141</ele>
        <time>2024-07-09T15:07:13.000Z</time>
      </trkpt>
      <trkpt lat="42.7096" lon="1.68347">
        <ele>1650.4000244141</ele>
        <time>2024-07-09T15:07:17.000Z</time>
      </trkpt>
      <trkpt lat="42.7096" lon="1.68337">
        <ele>1650</ele>
        <time>2024-07-09T15:07:25.000Z</time>
      </trkpt>
      <trkpt lat="42.70961" lon="1.68324">
        <ele>1648.8000488281</ele>
        <time>2024-07-09T15:07:36.000Z</time>
      </trkpt>
      <trkpt lat="42.7096" lon="1.68324">
        <ele>1648.8000488281</ele>
        <time>2024-07-09T15:07:41.000Z</time>
      </trkpt>
      <trkpt lat="42.7096" lon="1.68326">
        <ele>1648.8000488281</ele>
        <time>2024-07-09T15:07:48.000Z</time>
      </trkpt>
      <trkpt lat="42.70959" lon="1.68327">
        <ele>1648.8000488281</ele>
        <time>2024-07-09T15:07:56.000Z</time>
      </trkpt>
      <trkpt lat="42.70963" lon="1.68323">
        <ele>1649.4000244141</ele>
        <time>2024-07-09T15:09:25.000Z</time>
      </trkpt>
      <trkpt lat="42.70969" lon="1.68325">
        <ele>1652</ele>
        <time>2024-07-09T15:09:34.000Z</time>
      </trkpt>
      <trkpt lat="42.70973" lon="1.68329">
        <ele>1653.8000488281</ele>
        <time>2024-07-09T15:09:42.000Z</time>
      </trkpt>
      <trkpt lat="42.70978" lon="1.6833">
        <ele>1655.8000488281</ele>
        <time>2024-07-09T15:09:49.000Z</time>
      </trkpt>
      <trkpt lat="42.70982" lon="1.6833">
        <ele>1657</ele>
        <time>2024-07-09T15:09:55.000Z</time>
      </trkpt>
      <trkpt lat="42.70986" lon="1.68331">
        <ele>1658.4000244141</ele>
        <time>2024-07-09T15:10:03.000Z</time>
      </trkpt>
      <trkpt lat="42.7099" lon="1.6833">
        <ele>1659.4000244141</ele>
        <time>2024-07-09T15:10:11.000Z</time>
      </trkpt>
      <trkpt lat="42.70995" lon="1.68331">
        <ele>1661.1999511719</ele>
        <time>2024-07-09T15:10:20.000Z</time>
      </trkpt>
      <trkpt lat="42.70998" lon="1.68332">
        <ele>1662.1999511719</ele>
        <time>2024-07-09T15:10:27.000Z</time>
      </trkpt>
      <trkpt lat="42.71005" lon="1.68331">
        <ele>1664.5999755859</ele>
        <time>2024-07-09T15:10:38.000Z</time>
      </trkpt>
      <trkpt lat="42.71007" lon="1.68334">
        <ele>1665.1999511719</ele>
        <time>2024-07-09T15:10:44.000Z</time>
      </trkpt>
      <trkpt lat="42.71013" lon="1.68337">
        <ele>1667</ele>
        <time>2024-07-09T15:10:54.000Z</time>
      </trkpt>
      <trkpt lat="42.71017" lon="1.68338">
        <ele>1668.1999511719</ele>
        <time>2024-07-09T15:11:00.000Z</time>
      </trkpt>
      <trkpt lat="42.7102" lon="1.68336">
        <ele>1669</ele>
        <time>2024-07-09T15:11:03.000Z</time>
      </trkpt>
      <trkpt lat="42.71027" lon="1.68337">
        <ele>1671</ele>
        <time>2024-07-09T15:11:12.000Z</time>
      </trkpt>
      <trkpt lat="42.71028" lon="1.6834">
        <ele>1671.5999755859</ele>
        <time>2024-07-09T15:11:15.000Z</time>
      </trkpt>
      <trkpt lat="42.71029" lon="1.68341">
        <ele>1671.8000488281</ele>
        <time>2024-07-09T15:11:17.000Z</time>
      </trkpt>
      <trkpt lat="42.7103" lon="1.68343">
        <ele>1672</ele>
        <time>2024-07-09T15:11:18.000Z</time>
      </trkpt>
      <trkpt lat="42.71034" lon="1.68347">
        <ele>1673.4000244141</ele>
        <time>2024-07-09T15:11:25.000Z</time>
      </trkpt>
      <trkpt lat="42.71035" lon="1.68347">
        <ele>1673.5999755859</ele>
        <time>2024-07-09T15:11:27.000Z</time>
      </trkpt>
      <trkpt lat="42.71041" lon="1.68348">
        <ele>1674.5999755859</ele>
        <time>2024-07-09T15:11:36.000Z</time>
      </trkpt>
      <trkpt lat="42.71049" lon="1.68349">
        <ele>1676</ele>
        <time>2024-07-09T15:11:46.000Z</time>
      </trkpt>
      <trkpt lat="42.71056" lon="1.68352">
        <ele>1677.1999511719</ele>
        <time>2024-07-09T15:11:53.000Z</time>
      </trkpt>
      <trkpt lat="42.71059" lon="1.68355">
        <ele>1677.8000488281</ele>
        <time>2024-07-09T15:11:57.000Z</time>
      </trkpt>
      <trkpt lat="42.71063" lon="1.68356">
        <ele>1678.4000244141</ele>
        <time>2024-07-09T15:12:01.000Z</time>
      </trkpt>
      <trkpt lat="42.71071" lon="1.68356">
        <ele>1679</ele>
        <time>2024-07-09T15:12:09.000Z</time>
      </trkpt>
      <trkpt lat="42.7108" lon="1.6836">
        <ele>1680</ele>
        <time>2024-07-09T15:12:19.000Z</time>
      </trkpt>
      <trkpt lat="42.71093" lon="1.68362">
        <ele>1681</ele>
        <time>2024-07-09T15:12:31.000Z</time>
      </trkpt>
      <trkpt lat="42.71103" lon="1.68362">
        <ele>1681.8000488281</ele>
        <time>2024-07-09T15:12:41.000Z</time>
      </trkpt>
      <trkpt lat="42.71107" lon="1.68362">
        <ele>1682</ele>
        <time>2024-07-09T15:12:45.000Z</time>
      </trkpt>
      <trkpt lat="42.71111" lon="1.68361">
        <ele>1682.1999511719</ele>
        <time>2024-07-09T15:12:49.000Z</time>
      </trkpt>
      <trkpt lat="42.71119" lon="1.6836">
        <ele>1682.5999755859</ele>
        <time>2024-07-09T15:12:57.000Z</time>
      </trkpt>
      <trkpt lat="42.71133" lon="1.68359">
        <ele>1683.5999755859</ele>
        <time>2024-07-09T15:13:10.000Z</time>
      </trkpt>
      <trkpt lat="42.71146" lon="1.68354">
        <ele>1684.4000244141</ele>
        <time>2024-07-09T15:13:22.000Z</time>
      </trkpt>
      <trkpt lat="42.7116" lon="1.68348">
        <ele>1686.4000244141</ele>
        <time>2024-07-09T15:13:34.000Z</time>
      </trkpt>
      <trkpt lat="42.7117" lon="1.68345">
        <ele>1687</ele>
        <time>2024-07-09T15:13:44.000Z</time>
      </trkpt>
      <trkpt lat="42.71186" lon="1.68342">
        <ele>1690</ele>
        <time>2024-07-09T15:13:59.000Z</time>
      </trkpt>
      <trkpt lat="42.71197" lon="1.68333">
        <ele>1691.5999755859</ele>
        <time>2024-07-09T15:14:11.000Z</time>
      </trkpt>
      <trkpt lat="42.71208" lon="1.6833">
        <ele>1693.1999511719</ele>
        <time>2024-07-09T15:14:22.000Z</time>
      </trkpt>
      <trkpt lat="42.71218" lon="1.68328">
        <ele>1694.4000244141</ele>
        <time>2024-07-09T15:14:32.000Z</time>
      </trkpt>
      <trkpt lat="42.71227" lon="1.68332">
        <ele>1696.1999511719</ele>
        <time>2024-07-09T15:14:41.000Z</time>
      </trkpt>
      <trkpt lat="42.71227" lon="1.68332">
        <ele>1696.1999511719</ele>
        <time>2024-07-09T15:14:42.000Z</time>
      </trkpt>
      <trkpt lat="42.71228" lon="1.68326">
        <ele>1695.5999755859</ele>
        <time>2024-07-09T15:14:49.000Z</time>
      </trkpt>
      <trkpt lat="42.71226" lon="1.68325">
        <ele>1695.4000244141</ele>
        <time>2024-07-09T15:14:56.000Z</time>
      </trkpt>
      <trkpt lat="42.71228" lon="1.68332">
        <ele>1696.1999511719</ele>
        <time>2024-07-09T15:16:23.000Z</time>
      </trkpt>
      <trkpt lat="42.71232" lon="1.68329">
        <ele>1695.8000488281</ele>
        <time>2024-07-09T15:16:33.000Z</time>
      </trkpt>
    </trkseg>
  </trk>
</gpx>